# Wetter Temperatur Luftdruck Luftfeuchtigkeit Sichtweite Windgeschwindigkeit Windrichtung Zeit
1 Clear -11 1015 61 16093 3.6 70 10:57 08.04.2020
2 Clear -11 1015 61 16093 3.6 70 10:39 08.04.2020
3 Clear -11 1015 61 16093 3.6 70 10:20 08.04.2020
4 Clear -10 1015 61 16093 3.1 70 09:56 08.04.2020
5 Clear -10 1015 61 16093 3.1 70 09:38 08.04.2020
6 Clear -9 1015 61 16093 3.1 70 09:18 08.04.2020
7 Clouds -9 1016 56 16093 1.04 80 08:42 08.04.2020
8 Clear -8 1016 41 16093 1.5 60 08:23 08.04.2020
9 Clear -7 1016 41 16093 1.5 60 07:57 08.04.2020
10 Clear -8 1016 41 16093 1.5 60 07:39 08.04.2020
11 Clear -6 1016 41 16093 1.5 60 07:19 08.04.2020
12 Clear -5 1017 41 14484 2.1 130 06:21 08.04.2020
13 Clear -4 1017 41 16093 0.83 152 04:43 08.04.2020
14 Clear -4 1018 41 16093 2.01 191 02:49 08.04.2020
15 Clear -4 1018 41 16093 1.95 198 02:21 08.04.2020
16 Clear -4 1019 49 16093 5.1 150 01:51 08.04.2020
17 Clear -4 1019 49 16093 5.1 150 01:27 08.04.2020
18 Clouds -4 1019 49 16093 2.6 150 00:41 08.04.2020
19 Clouds -4 1019 49 16093 2.6 150 00:22 08.04.2020
20 Clouds -6 1020 57 16093 1.5 170 23:40 07.04.2020
21 Clouds -6 1020 57 16093 1.5 170 23:22 07.04.2020
22 Clouds -7 1020 67 16093 2.1 140 22:58 07.04.2020
23 Clouds -8 1020 67 16093 2.1 140 22:39 07.04.2020
24 Clouds -8 1020 67 16093 2.1 140 22:20 07.04.2020
25 Clouds -9 1020 72 16093 1.5 120 21:57 07.04.2020
26 Clouds -9 1020 72 16093 1.5 120 21:39 07.04.2020
27 Clouds -10 1020 72 16093 1.5 120 21:20 07.04.2020
28 Snow -11 1020 85 6437 1.5 50 20:57 07.04.2020
29 Snow -11 1020 85 6437 1.5 50 20:39 07.04.2020
30 Snow -11 1020 85 6437 1.5 50 20:20 07.04.2020
31 Snow -12 1020 85 11265 2.1 60 19:57 07.04.2020
32 Snow -12 1020 85 11265 2.1 60 19:37 07.04.2020
33 Snow -13 1020 92 12874 2.1 80 19:18 07.04.2020
34 Snow -13 1020 92 12874 2.1 80 19:18 07.04.2020
35 Clouds -13 1020 84 16093 1.5 50 18:57 07.04.2020
36 Clouds -13 1020 92 16093 2.1 70 18:38 07.04.2020
37 Clouds -14 1020 92 16093 2.1 70 18:19 07.04.2020
38 Clouds -14 1019 84 16093 1.22 213 17:44 07.04.2020
39 Clouds -14 1019 84 16093 1.22 213 17:21 07.04.2020
40 Clouds -13 1019 85 16093 1.5 230 16:47 07.04.2020
41 Clouds -13 1019 85 16093 1.5 230 16:29 07.04.2020
42 Clouds -13 1019 85 16093 2.6 200 15:58 07.04.2020
43 Clouds -13 1019 85 16093 2.6 200 15:40 07.04.2020
44 Clouds -13 1018 85 16093 3.1 220 15:22 07.04.2020
45 Clouds -12 1018 85 16093 3.1 220 14:41 07.04.2020
46 Clouds -12 1018 85 16093 3.1 220 14:22 07.04.2020
47 Clouds -12 1018 85 12874 2.6 210 13:57 07.04.2020
48 Clouds -12 1018 85 12874 2.6 210 13:38 07.04.2020
49 Clouds -12 1018 85 12874 2.6 210 13:18 07.04.2020
50 Clouds -12 1017 78 16093 3.1 210 12:55 07.04.2020
51 Clouds -12 1017 78 16093 3.1 210 12:36 07.04.2020
52 Clouds -12 1017 78 16093 3.1 210 12:18 07.04.2020
53 Clouds -12 1017 78 16093 3.6 240 11:44 07.04.2020
54 Clouds -12 1017 78 16093 3.6 240 11:25 07.04.2020
55 Clouds -12 1016 78 16093 4.1 250 10:58 07.04.2020
56 Clouds -12 1016 78 16093 4.1 250 10:38 07.04.2020
57 Clouds -12 1016 78 16093 4.1 250 10:19 07.04.2020
58 Clouds -12 1016 78 16093 6.2 250 09:45 07.04.2020
59 Clouds -12 1016 78 16093 6.2 250 09:19 07.04.2020
60 Clouds -11 1015 78 16093 6.7 250 08:55 07.04.2020
61 Snow -11 1015 85 8047 7.2 260 08:36 07.04.2020
62 Snow -11 1015 85 8047 7.2 260 08:18 07.04.2020
63 Snow -11 1014 92 1207 5.1 230 07:40 07.04.2020
64 Snow -11 1014 92 1207 5.1 230 07:21 07.04.2020
65 Snow -10 1014 85 805 5.1 260 06:51 07.04.2020
66 Snow -10 1013 85 805 4.1 280 06:23 07.04.2020
67 Snow -10 1013 78 4828 4.6 250 05:40 07.04.2020
68 Mist -10 1013 78 8047 3.6 240 04:56 07.04.2020
69 Clouds -10 1012 78 16093 8.2 250 03:31 07.04.2020
70 Snow -10 1011 72 1609 6.2 260 02:59 07.04.2020
71 Snow -10 1011 78 12874 6.7 280 01:57 07.04.2020
72 Snow -10 1011 85 1006 6.2 250 01:29 07.04.2020
73 Snow -9 1010 78 12874 8.2 240 00:29 07.04.2020
74 Clouds -9 1009 66 16093 8.7 230 23:57 06.04.2020
75 Snow -10 1009 66 8047 8.7 230 23:38 06.04.2020
76 Snow -9 1009 66 8047 8.7 230 23:19 06.04.2020
77 Snow -10 1009 78 11265 7.2 230 22:41 06.04.2020
78 Snow -10 1009 78 11265 7.2 230 22:22 06.04.2020
79 Snow -10 1009 85 402 6.7 260 21:58 06.04.2020
80 Snow -10 1008 78 2816 5.1 220 21:39 06.04.2020
81 Snow -10 1008 78 2816 5.1 220 21:19 06.04.2020
82 Snow -10 1008 78 3219 6.7 230 20:55 06.04.2020
83 Snow -10 1008 78 3219 6.7 230 20:55 06.04.2020
84 Snow -10 1008 78 6437 4.6 250 20:37 06.04.2020
85 Snow -10 1008 78 6437 4.6 250 20:19 06.04.2020
86 Snow -10 1007 78 9656 8.7 250 19:41 06.04.2020
87 Snow -10 1007 78 9656 8.7 250 19:23 06.04.2020
88 Snow -10 1006 72 1609 10.8 250 18:59 06.04.2020
89 Clouds -8 1005 72 16093 8.7 230 18:40 06.04.2020
90 Clouds -9 1005 72 16093 8.7 230 18:22 06.04.2020
91 Clouds -9 1004 72 16093 1.5 220 17:55 06.04.2020
92 Clouds -10 1004 72 16093 1.5 220 17:36 06.04.2020
93 Clouds -10 1004 72 16093 1.5 220 17:18 06.04.2020
94 Clear -9 1004 66 16093 3.6 230 16:44 06.04.2020
95 Clear -9 1004 66 16093 3.6 230 16:26 06.04.2020
96 Clear -7 1004 67 16093 7.2 220 14:45 06.04.2020
97 Clear -7 1004 67 16093 7.2 220 14:45 06.04.2020
98 Clear -7 1004 67 16093 7.2 220 14:45 06.04.2020
99 Clear -7 1004 67 16093 7.2 220 14:45 06.04.2020
100 Clear -7 1004 67 16093 7.2 220 14:45 06.04.2020
101 Clear -6 1003 67 16093 5.1 230 13:44 06.04.2020
102 Clear -6 1003 67 16093 5.1 230 13:44 06.04.2020
103 Clear -6 1003 67 16093 5.1 230 13:44 06.04.2020
104 Clear -6 1003 67 16093 5.1 230 13:44 06.04.2020
105 Clear -6 1003 67 16093 5.1 230 13:20 06.04.2020
106 Clouds -6 1003 62 16093 4.6 220 12:26 06.04.2020
107 Clouds -6 1003 62 16093 4.6 220 12:26 06.04.2020
108 Clouds -6 1003 62 16093 4.6 220 12:26 06.04.2020
109 Clouds -6 1003 62 16093 4.6 220 12:26 06.04.2020
110 Clouds -6 1003 62 16093 4.6 220 12:26 06.04.2020
111 Clouds -6 1003 53 16093 2.1 190 11:56 06.04.2020
112 Clouds -6 1003 53 16093 2.1 190 11:36 06.04.2020
113 Clouds -6 1003 53 16093 2.1 190 11:34 06.04.2020
114 Clouds -6 1003 53 16093 2.1 190 11:34 06.04.2020
115 Clouds -6 1003 53 16093 2.1 190 11:34 06.04.2020
116 Clouds -6 1003 53 16093 2.1 190 11:34 06.04.2020
117 Clear -6 1003 53 16093 3.6 250 10:52 06.04.2020
118 Clear -6 1003 53 16093 3.6 250 10:52 06.04.2020
119 Clear -6 1003 53 16093 3.6 250 10:52 06.04.2020
120 Clear -6 1003 53 16093 3.6 250 10:52 06.04.2020
121 Clear -6 1003 53 16093 3.6 250 10:52 06.04.2020
122 Clear -6 1003 53 16093 3.6 250 10:22 06.04.2020
123 Clear -6 1003 53 16093 3.6 250 10:22 06.04.2020
124 Clouds -5 1003 67 16093 3.1 230 09:51 06.04.2020
125 Clouds -5 1003 67 16093 3.1 230 09:51 06.04.2020
126 Clouds -4 1003 67 16093 3.1 230 09:24 06.04.2020
127 Clear -4 1003 58 16093 5.7 230 08:55 06.04.2020
128 Clear -4 1003 58 16093 5.7 230 08:33 06.04.2020
129 Clear -4 1003 58 16093 5.7 230 08:33 06.04.2020
130 Clouds -3 1002 58 16093 3.6 210 07:55 06.04.2020
131 Clouds -3 1002 58 16093 3.6 210 07:18 06.04.2020
132 Clouds -2 1003 50 16093 7.7 270 06:25 06.04.2020
133 Clouds -1 1002 91 16093 9.8 260 04:50 06.04.2020
134 Clouds -1 1002 91 16093 9.8 260 04:50 06.04.2020
135 Clouds 0 1002 91 16093 10.3 250 03:28 06.04.2020
136 Clouds 0 1002 89 16093 5.7 230 02:48 06.04.2020
137 Clouds 0 1002 89 16093 9.8 250 01:52 06.04.2020
138 Snow 0 1002 89 16093 7.2 270 00:49 06.04.2020
139 Snow 1 1002 89 16093 7.2 270 00:26 06.04.2020
140 Snow 1 1002 87 16093 6.2 260 23:47 05.04.2020
141 Snow 1 1002 74 16093 9.3 240 23:29 05.04.2020
142 Snow 1 1002 74 16093 9.3 240 23:29 05.04.2020
143 Snow 1 1002 74 16093 9.3 240 23:29 05.04.2020
144 Snow 1 1001 74 16093 8.2 230 22:56 05.04.2020
145 Rain 1 1001 74 16093 8.2 230 22:38 05.04.2020
146 Rain 1 1001 74 16093 8.2 230 22:19 05.04.2020
147 Rain 1 1001 80 16093 6.2 220 21:58 05.04.2020
148 Rain 2 1001 80 16093 6.2 220 21:39 05.04.2020
149 Rain 1 1001 80 16093 6.2 220 21:21 05.04.2020
150 Rain 1 1001 80 16093 6.2 220 21:21 05.04.2020
151 Rain 1 1001 80 16093 6.2 220 21:21 05.04.2020
152 Rain 1 1001 90 16093 4.6 210 20:20 05.04.2020
153 Rain 1 1001 90 16093 4.6 210 20:20 05.04.2020
154 Clouds 0 1002 90 16093 6.2 210 19:41 05.04.2020
155 Rain 1 1001 90 16093 5.1 220 19:22 05.04.2020
156 Rain 1 1001 90 16093 5.1 220 19:22 05.04.2020
157 Rain 1 1001 90 14484 4.6 210 18:45 05.04.2020
158 Rain 1 1001 90 14484 4.6 210 18:45 05.04.2020
159 Rain 1 1001 100 16093 3.6 220 17:58 05.04.2020
160 Rain 1 1001 100 16093 3.6 220 17:39 05.04.2020
161 Clouds 1 1001 100 11265 3.1 220 17:20 05.04.2020
162 Clouds 0 1001 95 16093 2.37 189 16:44 05.04.2020
163 Clouds 0 1001 95 16093 2.37 189 16:44 05.04.2020
164 Clouds 0 1001 95 16093 2.37 189 16:44 05.04.2020
165 Clouds 0 1001 95 16093 2.37 189 16:44 05.04.2020
166 Clouds 0 1001 95 16093 2.37 189 16:44 05.04.2020
167 Clouds 0 1001 100 16093 1.5 120 16:18 05.04.2020
168 Clouds 0 1002 95 14484 1.5 160 15:43 05.04.2020
169 Snow 0 1002 95 12874 2.37 189 15:24 05.04.2020
170 Snow 0 1002 91 4023 1.1 158 14:47 05.04.2020
171 Snow 0 1002 91 4023 1.1 158 14:47 05.04.2020
172 Snow 0 1002 91 4023 1.1 158 14:47 05.04.2020
173 Snow 0 1002 91 4023 1.1 158 14:47 05.04.2020
174 Snow 0 1002 91 4023 1.1 158 14:47 05.04.2020
175 Snow 0 1002 93 9656 1.04 162 13:44 05.04.2020
176 Clouds 0 1003 93 16093 1.04 162 12:56 05.04.2020
177 Snow 0 1003 100 16093 1.14 163 11:58 05.04.2020
178 Snow 0 1003 100 16093 1.14 163 11:58 05.04.2020
179 Snow 0 1003 100 16093 1.14 163 11:58 05.04.2020
180 Snow 0 1003 100 16093 1.14 163 11:58 05.04.2020
181 Clouds 0 1003 100 16093 1.14 163 11:37 05.04.2020
182 Clouds 0 1003 90 16093 2.1 60 11:18 05.04.2020
183 Clouds 0 1003 100 16093 3.1 70 10:42 05.04.2020
184 Clouds 0 1004 100 16093 2.1 60 10:19 05.04.2020
185 Clouds 0 1004 100 16093 2.1 60 10:19 05.04.2020
186 Clouds 0 1005 100 16093 2.1 80 09:44 05.04.2020
187 Clouds 0 1005 100 16093 2.1 80 09:25 05.04.2020
188 Clouds 0 1005 100 16093 2.1 80 09:25 05.04.2020
189 Clouds 0 1005 100 16093 2.1 80 09:25 05.04.2020
190 Rain 0 1006 100 16093 2.6 50 07:47 05.04.2020
191 Rain 0 1006 100 16093 2.6 50 07:46 05.04.2020
192 Rain 0 1009 100 2615 2.1 110 04:52 05.04.2020
193 Rain 0 1009 100 2615 2.1 110 04:52 05.04.2020
194 Rain 1 1010 100 8047 2.6 160 03:35 05.04.2020
195 Rain 1 1010 100 8047 2.6 160 03:35 05.04.2020
196 Rain 1 1010 100 11265 1.82 162 02:52 05.04.2020
197 Rain 1 1011 90 6437 2.6 150 01:48 05.04.2020
198 Rain 1 1011 90 6437 2.6 150 01:30 05.04.2020
199 Rain 1 1011 100 2414 1.5 120 00:47 05.04.2020
200 Rain 1 1011 90 4023 2.6 130 00:22 05.04.2020
201 Snow 1 1012 91 2414 2.1 90 23:57 04.04.2020
202 Snow 0 1012 91 2414 2.1 90 23:38 04.04.2020
203 Snow 0 1012 91 2414 2.6 100 23:19 04.04.2020
204 Snow 0 1012 91 3219 2.6 80 22:55 04.04.2020
205 Snow 0 1012 91 3219 2.6 80 22:37 04.04.2020
206 Snow -1 1013 100 2213 2.1 110 22:19 04.04.2020
207 Snow -1 1013 92 4426 2.1 90 21:54 04.04.2020
208 Snow -1 1013 92 4426 2.1 90 21:36 04.04.2020
209 Snow -2 1013 92 6437 2.1 110 21:18 04.04.2020
210 Snow -2 1013 100 3621 2.1 70 20:42 04.04.2020
211 Snow -2 1013 92 4023 2.6 90 20:23 04.04.2020
212 Snow -3 1014 92 4426 2.1 70 19:58 04.04.2020
213 Snow -3 1014 92 4426 2.1 70 19:37 04.04.2020
214 Snow -3 1014 100 1609 1.5 60 19:19 04.04.2020
215 Snow -3 1014 100 603 2.1 50 18:57 04.04.2020
216 Snow -3 1014 100 603 2.1 50 18:38 04.04.2020
217 Snow -3 1014 100 1810 2.6 70 18:19 04.04.2020
218 Snow -3 1014 92 2816 2.1 90 17:56 04.04.2020
219 Snow -3 1014 92 2816 2.1 90 17:38 04.04.2020
220 Snow -3 1014 92 4023 2.6 80 17:18 04.04.2020
221 Clouds -3 1015 100 12874 1.59 94 16:42 04.04.2020
222 Clouds -3 1015 92 16093 1.46 104 16:23 04.04.2020
223 Clouds -4 1015 100 16093 1.46 104 15:57 04.04.2020
224 Clouds -4 1015 100 16093 1.46 104 15:38 04.04.2020
225 Clouds -4 1015 100 16093 0.95 93 15:19 04.04.2020
226 Clear -4 1015 100 16093 0.95 93 14:44 04.04.2020
227 Clear -4 1015 100 16093 1.27 83 14:23 04.04.2020
228 Clouds -4 1016 100 16093 1.27 83 13:57 04.04.2020
229 Clouds -4 1016 100 16093 1.27 83 13:38 04.04.2020
230 Clouds -4 1016 100 16093 1.27 83 13:20 04.04.2020
231 Clear -4 1017 100 16093 1.5 60 12:55 04.04.2020
232 Clear -4 1017 100 16093 1.5 60 12:55 04.04.2020
233 Clear -4 1017 100 16093 1.5 60 12:36 04.04.2020
234 Clear -5 1017 100 16093 1.5 60 12:18 04.04.2020
235 Clear -4 1017 92 16093 1.42 112 11:40 04.04.2020
236 Clear -5 1017 92 16093 1.42 112 11:21 04.04.2020
237 Clear -5 1018 100 16093 2.1 60 10:58 04.04.2020
238 Clear -4 1018 100 16093 2.1 60 10:40 04.04.2020
239 Clear -4 1018 100 16093 2.1 60 10:21 04.04.2020
240 Clear -4 1018 92 16093 1.42 112 09:55 04.04.2020
241 Clear -4 1018 92 16093 1.42 112 09:37 04.04.2020
242 Clear -4 1018 92 16093 0.68 191 09:19 04.04.2020
243 Clouds -2 1019 92 16093 0.85 190 08:42 04.04.2020
244 Clouds -2 1019 92 16093 0.85 190 08:23 04.04.2020
245 Clouds -1 1019 95 16093 2.6 210 07:55 04.04.2020
246 Clouds -1 1019 95 16093 2.6 210 07:37 04.04.2020
247 Clouds -1 1019 95 16093 2.6 210 07:19 04.04.2020
248 Clouds 0 1020 86 16093 1.5 230 06:22 04.04.2020
249 Clouds 0 1019 88 16093 1.5 210 05:51 04.04.2020
250 Snow 0 1019 88 16093 2.1 190 05:32 04.04.2020
251 Clouds 0 1020 88 11265 2.1 210 04:34 04.04.2020
252 Snow 1 1020 86 11265 3.1 230 03:55 04.04.2020
253 Rain 1 1020 86 11265 3.1 230 03:27 04.04.2020
254 Rain 1 1020 80 14484 2.1 220 02:42 04.04.2020
255 Rain 1 1020 80 14484 2.1 220 02:24 04.04.2020
256 Rain 1 1021 86 11265 3.1 230 01:27 04.04.2020
257 Rain 1 1020 87 14484 1.5 260 00:57 04.04.2020
258 Rain 1 1020 87 14484 1.5 260 00:30 04.04.2020
259 Snow 1 1020 74 16093 2.6 200 23:56 03.04.2020
260 Snow 1 1021 89 16093 2.1 270 23:37 03.04.2020
261 Rain 1 1021 89 16093 1.5 270 23:18 03.04.2020
262 Rain 0 1020 89 6437 1.64 264 22:40 03.04.2020
263 Snow 0 1020 89 6437 1.64 264 22:19 03.04.2020
264 Snow 0 1020 100 3219 1.64 264 21:56 03.04.2020
265 Snow 0 1020 100 3219 1.64 264 21:56 03.04.2020
266 Snow 0 1020 100 3219 1.64 264 21:37 03.04.2020
267 Snow -1 1020 100 3219 1.1 257 21:19 03.04.2020
268 Snow -1 1020 92 8047 1.1 257 20:55 03.04.2020
269 Snow -1 1020 92 8047 1.1 257 20:36 03.04.2020
270 Snow -1 1020 100 6437 1.1 257 20:18 03.04.2020
271 Snow -2 1019 92 11265 1.1 257 19:54 03.04.2020
272 Snow -2 1019 92 11265 1.1 257 19:36 03.04.2020
273 Snow -2 1019 92 3219 1.1 257 19:18 03.04.2020
274 Snow -2 1019 100 6437 1.1 257 18:56 03.04.2020
275 Snow -3 1019 100 4426 1.1 257 18:38 03.04.2020
276 Snow -3 1019 100 4426 0.51 285 18:19 03.04.2020
277 Snow -3 1019 92 6437 0.51 285 17:40 03.04.2020
278 Snow -3 1019 92 6437 0.51 285 17:19 03.04.2020
279 Snow -3 1019 100 8047 0.51 285 16:55 03.04.2020
280 Snow -3 1019 100 8047 0.51 285 16:55 03.04.2020
281 Snow -3 1019 100 8047 0.51 285 16:36 03.04.2020
282 Snow -3 1018 86 8047 1.5 340 16:18 03.04.2020
283 Snow -3 1018 79 8047 0.51 285 15:41 03.04.2020
284 Snow -2 1018 74 9656 0.61 28 15:22 03.04.2020
285 Clouds -2 1018 74 16093 0.61 28 14:58 03.04.2020
286 Clouds -3 1019 80 0 0.61 28 14:40 03.04.2020
287 Clouds -3 1018 74 16093 2.1 60 14:21 03.04.2020
288 Clouds -3 1018 74 16093 2.1 60 13:46 03.04.2020
289 Clouds -3 1018 74 16093 2.1 60 13:27 03.04.2020
290 Clouds -2 1018 68 16093 3.1 80 12:57 03.04.2020
291 Clouds -2 1018 68 16093 3.1 80 12:39 03.04.2020
292 Clouds -3 1018 68 16093 3.1 80 12:18 03.04.2020
293 Clouds -3 1018 74 16093 2.6 80 11:55 03.04.2020
294 Clouds -3 1018 74 16093 2.6 80 11:37 03.04.2020
295 Clouds -3 1018 74 16093 2.6 80 11:18 03.04.2020
296 Clouds -3 1019 68 16093 1.09 41 10:56 03.04.2020
297 Clouds -3 1019 68 16093 1.09 41 10:37 03.04.2020
298 Clouds -3 1019 68 16093 1.09 41 10:19 03.04.2020
299 Clouds -2 1019 74 16093 1.09 41 09:56 03.04.2020
300 Clouds -1 1019 74 16093 1.09 41 09:37 03.04.2020
301 Clouds -1 1019 74 16093 1.05 49 09:19 03.04.2020
302 Clouds -1 1020 63 16093 1.5 350 08:44 03.04.2020
303 Clouds -1 1020 74 16093 1.05 49 08:25 03.04.2020
304 Clouds -1 1020 74 16093 1.05 49 07:57 03.04.2020
305 Clouds -1 1020 74 16093 1.05 49 07:39 03.04.2020
306 Clouds -1 1020 74 16093 1.05 49 07:20 03.04.2020
307 Snow 0 1021 96 16093 1.05 49 06:28 03.04.2020
308 Clouds 1 1021 94 14484 1.02 94 05:43 03.04.2020
309 Clouds 2 1022 50 14484 1.02 94 04:27 03.04.2020
310 Clouds 1 1022 47 14484 2.1 230 03:33 03.04.2020
311 Clouds 1 1023 43 14484 1.01 133 02:39 03.04.2020
312 Clouds 0 1023 93 16093 0.98 121 01:25 03.04.2020
313 Clouds 0 1024 93 16093 0.98 121 00:52 03.04.2020
314 Clouds 0 1024 54 16093 2.6 240 00:32 03.04.2020
315 Clouds -2 1024 63 16093 1.5 260 23:55 02.04.2020
316 Clouds -2 1024 63 16093 1.5 260 23:37 02.04.2020
317 Clouds -2 1024 63 16093 1.5 260 23:18 02.04.2020
318 Clouds -2 1024 63 16093 1.5 260 23:18 02.04.2020
319 Clouds -3 1024 62 16093 1.11 121 22:41 02.04.2020
320 Clouds -2 1024 62 16093 1.11 121 22:22 02.04.2020
321 Clouds -3 1024 67 16093 1.11 121 21:59 02.04.2020
322 Clouds -3 1024 67 16093 1.11 121 21:37 02.04.2020
323 Clouds -4 1024 67 16093 0.74 166 21:18 02.04.2020
324 Clouds -5 1024 72 16093 0.63 160 20:45 02.04.2020
325 Clouds -5 1024 72 16093 0.63 160 20:25 02.04.2020
326 Clouds -7 1024 78 16093 0.63 160 19:59 02.04.2020
327 Clouds -7 1024 78 16093 0.63 160 19:40 02.04.2020
328 Clouds -7 1024 78 16093 0.63 160 19:20 02.04.2020
329 Clouds -8 1024 78 16093 0.63 160 18:56 02.04.2020
330 Clouds -7 1023 72 16093 0.63 160 18:37 02.04.2020
331 Clouds -10 1024 78 16093 0.9 86 18:18 02.04.2020
332 Clouds -9 1024 78 16093 0.9 86 17:43 02.04.2020
333 Clouds -10 1024 78 16093 0.9 86 17:24 02.04.2020
334 Clouds -8 1023 62 16093 0.9 86 16:58 02.04.2020
335 Clouds -8 1023 62 16093 0.9 86 16:40 02.04.2020
336 Clouds -9 1023 62 16093 0.9 86 16:22 02.04.2020
337 Clouds -9 1024 57 16093 2.1 90 15:57 02.04.2020
338 Clouds -9 1024 57 16093 2.1 90 15:39 02.04.2020
339 Clouds -8 1024 57 16093 2.1 90 15:19 02.04.2020
340 Clouds -7 1024 57 16093 2.1 60 14:57 02.04.2020
341 Clouds -8 1024 57 16093 2.1 60 14:38 02.04.2020
342 Clouds -8 1024 57 16093 2.1 60 14:19 02.04.2020
343 Clouds -8 1024 53 16093 1.37 77 13:55 02.04.2020
344 Clouds -7 1024 53 16093 1.37 77 13:37 02.04.2020
345 Clouds -7 1024 53 16093 1.37 77 13:18 02.04.2020
346 Clouds -7 1024 57 16093 1.37 77 12:46 02.04.2020
347 Clouds -7 1024 57 16093 1.22 74 12:20 02.04.2020
348 Clouds -7 1024 57 16093 1.5 70 11:58 02.04.2020
349 Clouds -7 1024 57 16093 1.5 70 11:58 02.04.2020
350 Clouds -7 1024 57 16093 1.5 70 11:39 02.04.2020
351 Clouds -7 1024 57 16093 1.5 70 11:20 02.04.2020
352 Clouds -7 1024 57 16093 1.5 70 11:20 02.04.2020
353 Clouds -7 1024 57 16093 3.1 80 10:57 02.04.2020
354 Clouds -7 1024 57 16093 3.1 80 10:38 02.04.2020
355 Clouds -7 1024 57 16093 3.1 80 10:20 02.04.2020
356 Clear -7 1024 67 16093 1.22 74 09:59 02.04.2020
357 Clear -7 1024 67 16093 1.22 74 09:41 02.04.2020
358 Clear -6 1024 67 16093 1.22 74 09:21 02.04.2020
359 Clear -5 1024 53 16093 1.41 96 08:47 02.04.2020
360 Clear -5 1024 53 16093 1.41 96 08:28 02.04.2020
361 Clear -5 1024 62 16093 1.41 96 07:57 02.04.2020
362 Clear -5 1024 62 16093 1.41 96 07:38 02.04.2020
363 Clear -4 1024 62 16093 1.41 96 07:19 02.04.2020
364 Clear -3 1024 53 16093 1.41 96 06:24 02.04.2020
365 Clouds -1 1024 54 16093 2.6 250 05:46 02.04.2020
366 Clouds 0 1024 93 16093 2.1 220 04:55 02.04.2020
367 Clear 0 1025 33 16093 2.6 120 02:19 02.04.2020
368 Clear 0 1026 30 16093 4.1 100 00:59 02.04.2020
369 Clear 0 1026 30 16093 4.1 100 00:41 02.04.2020
370 Clear -1 1026 30 16093 4.1 100 00:19 02.04.2020
371 Clear -1 1026 30 16093 4.6 80 23:39 01.04.2020
372 Clear -2 1026 30 16093 4.6 80 23:19 01.04.2020
373 Clear -2 1027 32 16093 5.1 90 22:56 01.04.2020
374 Clear -3 1027 32 16093 5.1 90 22:38 01.04.2020
375 Clear -3 1027 32 16093 5.1 90 22:19 01.04.2020
376 Clear -4 1028 41 16093 3.1 60 21:41 01.04.2020
377 Clear -8 1028 41 16093 3.1 60 21:19 01.04.2020
378 Clouds -10 1028 50 16093 3.1 40 20:56 01.04.2020
379 Clouds -10 1028 50 16093 3.1 40 20:38 01.04.2020
380 Clear -12 1029 60 16093 4.1 60 20:19 01.04.2020
381 Clear -12 1029 60 16093 4.1 60 19:58 01.04.2020
382 Clear -13 1029 60 16093 4.1 60 19:38 01.04.2020
383 Clear -13 1029 60 16093 4.1 60 19:19 01.04.2020
384 Clear -14 1029 60 16093 4.1 60 18:42 01.04.2020
385 Clear -14 1029 60 16093 4.1 60 18:23 01.04.2020
386 Clear -14 1029 60 16093 3.6 70 17:57 01.04.2020
387 Clear -15 1029 60 16093 3.6 70 17:38 01.04.2020
388 Clear -15 1029 60 16093 3.6 70 17:19 01.04.2020
389 Clear -15 1029 60 16093 4.6 70 16:58 01.04.2020
390 Clear -15 1029 60 16093 4.6 70 16:39 01.04.2020
391 Clear -15 1029 60 16093 4.6 70 16:39 01.04.2020
392 Clear -15 1029 60 16093 4.6 70 16:20 01.04.2020
393 Clear -15 1029 60 16093 2.43 66 15:56 01.04.2020
394 Clear -17 1029 60 16093 2.43 66 15:37 01.04.2020
395 Clear -16 1029 60 16093 2 77 15:18 01.04.2020
396 Clear -16 1029 65 16093 4.1 70 14:40 01.04.2020
397 Clear -16 1029 65 16093 4.1 70 14:22 01.04.2020
398 Clear -15 1029 65 16093 2.09 73 13:59 01.04.2020
399 Clear -16 1029 65 16093 2.09 73 13:40 01.04.2020
400 Clear -16 1029 65 16093 2.09 73 13:20 01.04.2020
401 Clear -16 1029 77 16093 2.09 73 12:59 01.04.2020
402 Clear -16 1029 77 16093 2.09 73 12:41 01.04.2020
403 Clear -16 1029 77 16093 2.09 73 12:22 01.04.2020
404 Clear -15 1029 65 16093 1.48 69 11:57 01.04.2020
405 Clear -15 1029 65 16093 1.48 69 11:37 01.04.2020
406 Clear -15 1029 65 16093 1.48 69 11:37 01.04.2020
407 Clear -15 1029 65 16093 1.48 69 11:19 01.04.2020
408 Clear -14 1029 71 16093 1.48 69 10:39 01.04.2020
409 Clear -15 1029 71 16093 1.48 69 10:21 01.04.2020
410 Clear -13 1028 65 16093 1.48 69 09:59 01.04.2020
411 Clear -13 1028 65 16093 1.48 69 09:40 01.04.2020
412 Clear -13 1028 65 16093 1.48 69 09:40 01.04.2020
413 Clear -13 1028 65 16093 1.57 71 09:20 01.04.2020
414 Clouds -12 1028 51 16093 1.17 103 08:54 01.04.2020
415 Clouds -12 1028 51 16093 1.17 103 08:36 01.04.2020
416 Clear -10 1027 52 16093 1.17 103 08:18 01.04.2020
417 Clear -8 1027 52 16093 1.17 103 07:40 01.04.2020
418 Clear -8 1027 52 16093 1.17 103 07:19 01.04.2020
419 Clear -7 1027 41 16093 1.5 170 06:42 01.04.2020
420 Clear -6 1027 41 16093 1.5 170 06:20 01.04.2020
421 Clear -4 1026 35 16093 2.1 190 05:28 01.04.2020
422 Clear -3 1026 32 16093 3.6 190 03:57 01.04.2020
423 Clear -3 1026 32 16093 3.6 190 03:19 01.04.2020
424 Clear -3 1025 35 16093 3.1 160 02:36 01.04.2020
425 Clear -3 1025 30 16093 4.1 150 01:50 01.04.2020
426 Clear -3 1025 30 16093 4.1 150 01:25 01.04.2020
427 Clear -4 1025 29 16093 5.1 140 00:47 01.04.2020
428 Clear -4 1025 29 16093 5.1 140 00:22 01.04.2020
429 Clear -4 1025 32 16093 5.1 130 23:57 31.03.2020
430 Clear -4 1025 32 16093 5.1 130 23:38 31.03.2020
431 Clear -5 1025 32 16093 5.1 130 23:19 31.03.2020
432 Clear -6 1025 29 16093 4.6 120 22:41 31.03.2020
433 Clear -6 1025 31 16093 2.6 90 22:21 31.03.2020
434 Clear -6 1025 31 16093 2.6 90 21:58 31.03.2020
435 Clear -6 1025 31 16093 2.6 90 21:40 31.03.2020
436 Clear -7 1025 31 16093 2.6 90 21:21 31.03.2020
437 Clear -10 1024 39 16093 4.1 70 20:57 31.03.2020
438 Clear -10 1024 39 16093 4.1 70 20:57 31.03.2020
439 Clear -10 1024 39 16093 4.1 70 20:57 31.03.2020
440 Clear -10 1024 39 16093 4.1 70 20:57 31.03.2020
441 Clear -10 1024 39 16093 4.1 70 20:37 31.03.2020
442 Clear -10 1024 36 16093 5.7 70 20:19 31.03.2020
443 Clear -10 1024 36 16093 5.7 70 19:56 31.03.2020
444 Clear -10 1024 36 16093 5.7 70 19:37 31.03.2020
445 Clear -11 1024 46 16093 4.1 70 19:19 31.03.2020
446 Clear -12 1024 46 16093 4.1 70 18:44 31.03.2020
447 Clear -12 1024 46 16093 4.1 70 18:20 31.03.2020
448 Clear -15 1024 39 16093 3.1 60 17:57 31.03.2020
449 Clouds -16 1024 41 16093 2.6 30 17:39 31.03.2020
450 Clouds -16 1024 41 16093 2.6 30 17:39 31.03.2020
451 Clear -16 1024 42 16093 5.1 70 17:21 31.03.2020
452 Clear -16 1024 42 16093 5.1 70 16:56 31.03.2020
453 Clear -16 1024 42 16093 5.1 70 16:36 31.03.2020
454 Clear -16 1024 42 16093 5.1 70 16:18 31.03.2020
455 Clear -14 1024 39 16093 3.6 50 15:55 31.03.2020
456 Clear -14 1024 39 16093 3.6 50 15:36 31.03.2020
457 Clear -14 1024 39 16093 3.6 50 15:18 31.03.2020
458 Clear -12 1023 36 16093 4.6 70 14:42 31.03.2020
459 Clear -12 1023 36 16093 4.6 70 14:22 31.03.2020
460 Clear -12 1023 36 16093 4.1 60 13:59 31.03.2020
461 Clear -12 1023 36 16093 4.1 60 13:40 31.03.2020
462 Clear -12 1023 36 16093 4.1 60 13:19 31.03.2020
463 Clear -12 1023 36 16093 6.7 80 12:46 31.03.2020
464 Clear -12 1023 36 16093 6.7 80 12:20 31.03.2020
465 Clear -10 1024 39 16093 1.5 50 11:58 31.03.2020
466 Clear -10 1024 39 16093 1.5 50 11:38 31.03.2020
467 Clear -10 1024 39 16093 1.5 50 11:19 31.03.2020
468 Clear -11 1023 40 16093 4.1 80 10:55 31.03.2020
469 Clear -11 1023 40 16093 4.1 80 10:55 31.03.2020
470 Clear -11 1023 40 16093 4.1 80 10:37 31.03.2020
471 Clear -11 1023 40 16093 4.1 80 10:19 31.03.2020
472 Clear -10 1024 37 16093 5.1 80 09:45 31.03.2020
473 Clear -10 1024 37 16093 5.1 80 09:26 31.03.2020
474 Clear -9 1023 40 16093 4.6 70 08:59 31.03.2020
475 Clear -9 1023 40 16093 4.6 70 08:41 31.03.2020
476 Clear -8 1023 40 16093 4.6 70 08:21 31.03.2020
477 Clear -7 1023 37 16093 4.6 80 07:59 31.03.2020
478 Clear -7 1023 37 16093 4.6 80 07:41 31.03.2020
479 Clear -7 1023 37 16093 4.6 80 07:22 31.03.2020
480 Clear -6 1023 35 16093 4.1 80 06:55 31.03.2020
481 Clear -6 1023 35 16093 4.1 80 06:36 31.03.2020
482 Clear -4 1023 27 16093 5.7 80 05:42 31.03.2020
483 Clear -4 1023 27 16093 5.7 80 05:20 31.03.2020
484 Clouds -4 1024 29 16093 6.2 80 02:40 31.03.2020
485 Clear -4 1025 32 16093 5.7 70 01:47 31.03.2020
486 Clear -4 1025 32 16093 5.7 70 01:19 31.03.2020
487 Clouds -5 1025 29 16093 5.7 70 00:42 31.03.2020
488 Clouds -6 1025 29 16093 5.7 70 00:19 31.03.2020
489 Clouds -7 1026 34 16093 4.6 60 23:39 30.03.2020
490 Clear -8 1027 36 16093 3.6 50 23:20 30.03.2020
491 Clear -8 1027 36 16093 3.6 50 22:57 30.03.2020
492 Clear -9 1027 36 16093 3.6 50 22:38 30.03.2020
493 Clear -9 1027 36 16093 3.6 50 22:18 30.03.2020
494 Clear -10 1027 46 16093 4.6 80 21:57 30.03.2020
495 Clear -11 1027 46 16093 4.6 80 21:37 30.03.2020
496 Clear -15 1027 46 16093 4.6 80 21:19 30.03.2020
497 Clear -17 1028 54 16093 3.6 50 20:56 30.03.2020
498 Clear -16 1028 54 16093 3.6 50 20:37 30.03.2020
499 Clear -17 1028 54 16093 3.6 50 20:19 30.03.2020
500 Clear -16 1028 58 16093 2.6 70 19:41 30.03.2020
501 Clear -16 1028 58 16093 2.6 70 19:41 30.03.2020
502 Clear -18 1028 58 16093 2.6 70 19:22 30.03.2020
503 Clear -19 1028 64 16093 5.1 70 18:57 30.03.2020
504 Clear -20 1028 64 16093 5.1 70 18:39 30.03.2020
505 Clear -22 1028 64 16093 5.1 70 18:21 30.03.2020
506 Clear -23 1028 64 16093 4.1 60 17:57 30.03.2020
507 Clear -23 1028 64 16093 4.1 60 17:38 30.03.2020
508 Clear -23 1028 64 16093 4.1 60 17:19 30.03.2020
509 Clear -21 1028 64 16093 4.6 60 16:56 30.03.2020
510 Clear -21 1028 64 16093 4.6 60 16:56 30.03.2020
511 Clear -21 1028 64 16093 4.6 60 16:38 30.03.2020
512 Clear -21 1028 64 16093 4.6 60 16:20 30.03.2020
513 Clear -20 1028 54 16093 5.1 70 15:55 30.03.2020
514 Clear -20 1028 54 16093 5.1 70 15:36 30.03.2020
515 Clear -20 1028 54 16093 5.1 70 15:18 30.03.2020
516 Clear -18 1028 54 16093 5.1 60 14:55 30.03.2020
517 Clear -18 1028 54 16093 5.1 60 14:36 30.03.2020
518 Clear -19 1028 54 16093 5.1 60 14:18 30.03.2020
519 Clear -20 1028 59 16093 4.6 60 13:43 30.03.2020
520 Clear -20 1028 59 16093 4.6 60 13:21 30.03.2020
521 Clear -18 1028 54 16093 4.6 60 12:58 30.03.2020
522 Clear -18 1028 54 16093 4.6 60 12:40 30.03.2020
523 Clear -18 1028 54 16093 4.6 60 12:19 30.03.2020
524 Clear -16 1028 50 16093 6.2 80 11:56 30.03.2020
525 Clear -16 1028 50 16093 6.2 80 11:38 30.03.2020
526 Clear -16 1028 50 16093 6.2 80 11:20 30.03.2020
527 Clear -16 1028 54 16093 4.6 70 10:40 30.03.2020
528 Clear -16 1028 54 16093 4.6 70 10:21 30.03.2020
529 Clear -16 1028 50 16093 4.1 70 09:56 30.03.2020
530 Clear -16 1028 50 16093 4.1 70 09:56 30.03.2020
531 Clear -16 1028 50 16093 4.1 70 09:38 30.03.2020
532 Clear -16 1028 50 16093 4.1 70 09:18 30.03.2020
533 Clear -15 1027 46 16093 4.1 70 08:41 30.03.2020
534 Clear -15 1027 46 16093 4.1 70 08:22 30.03.2020
535 Clear -14 1027 46 16093 4.1 70 08:22 30.03.2020
536 Clear -12 1027 39 16093 3.6 50 07:49 30.03.2020
537 Clear -12 1027 39 16093 3.6 50 07:28 30.03.2020
538 Clear -12 1026 36 16093 2.6 40 06:56 30.03.2020
539 Clear -11 1026 36 16093 2.6 40 06:32 30.03.2020
540 Clear -10 1026 36 16093 6.2 70 05:53 30.03.2020
541 Clear -9 1026 36 16093 6.2 70 05:22 30.03.2020
542 Clear -8 1026 31 16093 5.1 70 04:23 30.03.2020
543 Clear -8 1026 31 16093 4.1 80 03:44 30.03.2020
544 Clear -8 1026 34 16093 4.6 60 02:39 30.03.2020
545 Clear -8 1026 34 16093 5.1 60 01:44 30.03.2020
546 Clear -9 1026 36 16093 4.1 50 00:50 30.03.2020
547 Clear -9 1026 36 16093 4.1 50 00:23 30.03.2020
548 Clear -10 1026 40 16093 4.1 60 23:42 29.03.2020
549 Clear -10 1026 40 16093 4.1 60 23:24 29.03.2020
550 Clear -11 1026 39 0 4.6 80 22:58 29.03.2020
551 Clear -11 1026 39 0 4.6 80 22:38 29.03.2020
552 Clear -11 1026 39 0 4.6 80 22:19 29.03.2020
553 Clear -12 1025 46 16093 5.1 60 21:56 29.03.2020
554 Clear -12 1025 46 16093 5.1 60 21:36 29.03.2020
555 Clear -13 1025 46 16093 5.1 60 21:18 29.03.2020
556 Clear -13 1025 46 16093 3.1 70 20:54 29.03.2020
557 Clear -14 1025 46 16093 3.1 70 20:36 29.03.2020
558 Clear -14 1025 46 16093 3.1 70 20:18 29.03.2020
559 Clear -15 1025 49 16093 4.1 70 19:42 29.03.2020
560 Clear -15 1025 49 16093 4.1 70 19:24 29.03.2020
561 Clear -16 1025 49 16093 4.1 50 18:58 29.03.2020
562 Clear -16 1025 49 16093 4.1 50 18:40 29.03.2020
563 Clear -17 1025 49 16093 4.1 50 18:20 29.03.2020
564 Clear -17 1025 49 16093 4.1 50 18:20 29.03.2020
565 Clear -17 1024 49 16093 4.1 40 17:58 29.03.2020
566 Clear -17 1024 49 16093 4.1 40 17:40 29.03.2020
567 Clear -17 1024 49 16093 4.1 40 17:22 29.03.2020
568 Clear -18 1023 45 16093 2.1 50 16:58 29.03.2020
569 Clear -18 1023 45 16093 2.1 50 16:39 29.03.2020
570 Clear -18 1023 45 16093 2.1 50 16:21 29.03.2020
571 Clear -18 1022 49 16093 3.6 70 15:58 29.03.2020
572 Clear -18 1022 49 16093 3.6 70 15:39 29.03.2020
573 Clear -18 1022 49 16093 3.6 70 15:19 29.03.2020
574 Clear -21 1022 63 16093 2.5 29 14:55 29.03.2020
575 Clear -21 1022 63 16093 2.5 29 14:36 29.03.2020
576 Clear -21 1022 63 16093 2.5 29 14:36 29.03.2020
577 Clear -20 1022 63 16093 2.5 29 14:18 29.03.2020
578 Clear -18 1021 58 16093 2.37 30 13:42 29.03.2020
579 Clear -18 1021 58 16093 2.37 30 13:22 29.03.2020
580 Clear -17 1021 45 16093 2.37 30 12:58 29.03.2020
581 Clear -17 1021 45 16093 2.37 30 12:39 29.03.2020
582 Clear -17 1021 45 16093 3.03 26 12:19 29.03.2020
583 Clear -16 1020 45 16093 4.1 50 11:59 29.03.2020
584 Clear -16 1020 45 16093 4.1 50 11:38 29.03.2020
585 Clear -16 1020 45 16093 4.1 50 11:19 29.03.2020
586 Clear -15 1019 38 16093 3.03 26 10:39 29.03.2020
587 Clear -15 1019 38 16093 3.03 26 10:20 29.03.2020
588 Clear -15 1018 38 16093 4.1 50 09:56 29.03.2020
589 Clear -15 1018 38 16093 4.1 50 09:38 29.03.2020
590 Clear -15 1018 38 16093 4.1 50 09:18 29.03.2020
591 Clear -15 1017 38 16093 3.6 80 08:43 29.03.2020
592 Clear -15 1017 38 16093 3.6 80 08:25 29.03.2020
593 Clear -14 1016 32 16093 4.6 30 07:47 29.03.2020
594 Clear -14 1016 32 16093 4.6 30 07:23 29.03.2020
595 Clear -12 1015 33 16093 3.1 40 06:34 29.03.2020
596 Clear -10 1013 28 16093 6.7 40 04:56 29.03.2020
597 Clear -8 1012 28 16093 6.2 50 03:41 29.03.2020
598 Clear -8 1012 28 16093 6.2 50 03:20 29.03.2020
599 Clear -8 1012 28 16093 3.6 60 01:40 29.03.2020
600 Clear -8 1012 28 16093 3.6 60 01:21 29.03.2020
601 Clear -8 1012 26 16093 6.7 80 00:40 29.03.2020
602 Clear -8 1012 26 16093 6.7 80 00:19 29.03.2020
603 Clear -8 1012 33 16093 5.1 50 23:41 28.03.2020
604 Clear -8 1012 33 16093 5.1 50 23:41 28.03.2020
605 Clear -9 1012 33 16093 5.1 50 23:22 28.03.2020
606 Clear -10 1012 33 16093 5.1 60 22:44 28.03.2020
607 Clear -10 1012 33 16093 5.1 60 22:22 28.03.2020
608 Clear -11 1012 33 16093 4.6 70 21:57 28.03.2020
609 Clear -11 1012 33 16093 4.6 70 21:57 28.03.2020
610 Clear -11 1012 33 16093 4.6 70 21:57 28.03.2020
611 Clear -11 1012 33 16093 4.6 70 21:39 28.03.2020
612 Clear -11 1012 33 16093 4.6 70 21:20 28.03.2020
613 Clouds -12 1012 32 16093 5.1 60 20:57 28.03.2020
614 Clear -12 1012 42 16093 5.1 60 20:38 28.03.2020
615 Clear -13 1012 42 16093 5.1 60 20:20 28.03.2020
616 Clear -16 1012 45 16093 4.1 40 19:55 28.03.2020
617 Clear -16 1012 45 16093 4.1 40 19:36 28.03.2020
618 Clear -16 1012 45 16093 4.1 40 19:18 28.03.2020
619 Clear -18 1012 49 16093 4.6 60 18:42 28.03.2020
620 Clear -18 1012 49 16093 4.6 60 18:20 28.03.2020
621 Clear -19 1012 53 16093 4.6 60 17:43 28.03.2020
622 Clear -20 1012 53 16093 4.6 60 17:24 28.03.2020
623 Clear -20 1012 49 16093 3.6 70 16:59 28.03.2020
624 Clear -20 1012 49 16093 3.6 70 16:59 28.03.2020
625 Clear -20 1012 49 16093 3.6 70 16:40 28.03.2020
626 Clear -20 1012 49 16093 3.6 70 16:20 28.03.2020
627 Clear -20 1012 58 16093 3.1 70 15:55 28.03.2020
628 Clear -20 1012 58 16093 3.1 70 15:37 28.03.2020
629 Clear -20 1012 58 16093 3.1 70 15:18 28.03.2020
630 Clear -19 1012 58 16093 4.1 60 14:41 28.03.2020
631 Clear -19 1012 58 16093 4.1 60 14:22 28.03.2020
632 Clear -19 1012 53 16093 4.1 60 13:44 28.03.2020
633 Clear -18 1012 53 16093 4.1 60 13:25 28.03.2020
634 Clear -18 1012 53 16093 4.6 60 12:57 28.03.2020
635 Clear -18 1012 53 16093 4.6 60 12:37 28.03.2020
636 Clear -18 1012 53 16093 4.6 60 12:18 28.03.2020
637 Clear -18 1013 53 16093 4.1 60 11:42 28.03.2020
638 Clear -18 1013 53 16093 4.1 60 11:21 28.03.2020
639 Clear -17 1013 54 16093 4.1 60 10:41 28.03.2020
640 Clear -17 1013 54 16093 4.1 60 10:22 28.03.2020
641 Clear -17 1013 54 16093 4.1 60 09:59 28.03.2020
642 Clear -17 1013 54 16093 4.1 60 09:39 28.03.2020
643 Clear -17 1013 54 16093 4.1 60 09:20 28.03.2020
644 Clear -17 1013 54 16093 3.6 60 08:42 28.03.2020
645 Clear -17 1013 54 16093 3.6 60 08:23 28.03.2020
646 Clouds -15 1013 45 16093 6.2 50 07:52 28.03.2020
647 Clouds -16 1013 45 16093 6.2 50 07:34 28.03.2020
648 Clear -15 1013 50 16093 4.6 60 06:45 28.03.2020
649 Clear -15 1013 50 16093 4.6 60 06:23 28.03.2020
650 Clear -14 1013 46 16093 4.6 50 05:26 28.03.2020
651 Clear -13 1013 43 16093 5.7 80 04:53 28.03.2020
652 Clear -13 1013 43 16093 5.7 80 04:35 28.03.2020
653 Clear -11 1014 36 16093 6.7 60 02:50 28.03.2020
654 Clouds -11 1015 36 16093 7.2 60 01:47 28.03.2020
655 Clear -11 1016 39 16093 6.7 70 01:23 28.03.2020
656 Clear -11 1016 39 16093 6.7 70 00:47 28.03.2020
657 Clear -11 1016 39 16093 6.7 70 00:24 28.03.2020
658 Clear -11 1017 36 16093 7.2 70 23:44 27.03.2020
659 Clear -11 1017 36 16093 7.2 70 23:25 27.03.2020
660 Clear -12 1018 39 16093 6.2 60 22:57 27.03.2020
661 Clear -12 1018 39 16093 6.2 60 22:39 27.03.2020
662 Clear -12 1018 39 16093 6.2 60 22:20 27.03.2020
663 Clear -13 1018 39 16093 6.7 80 21:58 27.03.2020
664 Clear -13 1018 39 16093 6.7 80 21:40 27.03.2020
665 Clear -13 1018 39 16093 6.7 80 21:22 27.03.2020
666 Clear -14 1019 45 16093 8.2 60 20:55 27.03.2020
667 Clear -15 1019 45 16093 8.2 60 20:37 27.03.2020
668 Clear -15 1019 45 16093 8.2 60 20:19 27.03.2020
669 Clear -16 1020 49 16093 6.2 70 19:43 27.03.2020
670 Clear -16 1020 49 16093 6.2 70 19:23 27.03.2020
671 Clear -18 1021 58 16093 3.1 50 18:57 27.03.2020
672 Clear -18 1021 58 16093 3.1 50 18:38 27.03.2020
673 Clear -19 1021 58 16093 3.1 50 18:20 27.03.2020
674 Clear -19 1021 63 16093 2.1 60 17:40 27.03.2020
675 Clear -21 1021 63 16093 2.1 60 17:20 27.03.2020
676 Clear -21 1022 63 16093 3.1 70 16:57 27.03.2020
677 Clear -20 1022 63 16093 3.1 70 16:38 27.03.2020
678 Clear -21 1022 63 16093 3.1 70 16:20 27.03.2020
679 Clear -21 1022 57 16093 2.6 20 15:42 27.03.2020
680 Clear -22 1022 57 16093 2.6 20 15:24 27.03.2020
681 Clear -20 1022 49 16093 4.1 360 14:48 27.03.2020
682 Clear -20 1022 49 16093 4.1 360 14:27 27.03.2020
683 Clear -19 1022 49 16093 2.6 360 13:58 27.03.2020
684 Clear -19 1022 49 16093 2.6 360 13:40 27.03.2020
685 Clear -19 1022 49 16093 2.6 360 13:21 27.03.2020
686 Clear -20 1022 49 16093 4.1 360 12:57 27.03.2020
687 Clear -19 1022 49 16093 4.1 360 12:39 27.03.2020
688 Clear -19 1022 49 16093 4.1 360 12:19 27.03.2020
689 Clear -19 1022 49 16093 3.6 360 11:41 27.03.2020
690 Clear -19 1022 49 16093 3.6 360 11:23 27.03.2020
691 Clear -19 1022 49 16093 3.6 360 11:23 27.03.2020
692 Clear -18 1021 49 16093 4.1 360 10:55 27.03.2020
693 Clear -18 1021 49 16093 4.1 360 10:37 27.03.2020
694 Clear -18 1021 49 16093 4.1 360 10:19 27.03.2020
695 Clear -17 1021 49 16093 4.6 350 09:57 27.03.2020
696 Clear -17 1021 49 16093 4.6 350 09:37 27.03.2020
697 Clear -17 1021 54 11265 2.59 19 09:18 27.03.2020
698 Clear -16 1021 54 11265 2.59 19 08:56 27.03.2020
699 Clear -16 1021 54 11265 2.59 19 08:38 27.03.2020
700 Clear -16 1021 54 11265 2.34 359 08:20 27.03.2020
701 Clear -15 1019 55 11265 2.6 40 07:50 27.03.2020
702 Clear -15 1019 55 11265 2.6 40 07:24 27.03.2020
703 Clouds -14 1018 46 11265 3.6 350 06:53 27.03.2020
704 Clouds -13 1018 46 11265 3.6 350 06:35 27.03.2020
705 Clouds -10 1016 40 11265 6.2 310 04:24 27.03.2020
706 Clouds -8 1014 48 16093 6.2 350 02:32 27.03.2020
707 Clouds -7 1013 57 16093 4.6 290 01:23 27.03.2020
708 Clouds -6 1013 57 16093 4.6 290 00:48 27.03.2020
709 Clouds -6 1013 57 16093 4.6 290 00:24 27.03.2020
710 Clouds -6 1013 57 16093 7.2 280 23:44 26.03.2020
711 Clouds -6 1013 57 16093 7.2 280 23:22 26.03.2020
712 Clouds -6 1012 67 16093 5.7 250 22:58 26.03.2020
713 Clouds -7 1012 67 16093 5.7 250 22:38 26.03.2020
714 Clouds -7 1012 67 16093 5.7 250 22:19 26.03.2020
715 Clouds -7 1011 62 16093 6.2 240 21:56 26.03.2020
716 Clouds -7 1011 62 16093 6.2 240 21:37 26.03.2020
717 Clouds -7 1011 62 16093 6.2 240 21:18 26.03.2020
718 Clouds -7 1011 62 16093 5.1 240 20:56 26.03.2020
719 Clouds -7 1011 62 16093 5.1 240 20:37 26.03.2020
720 Clouds -7 1011 52 16093 6.7 270 20:19 26.03.2020
721 Clouds -8 1010 67 16093 4.1 240 19:54 26.03.2020
722 Clouds -8 1010 67 16093 4.1 240 19:36 26.03.2020
723 Clouds -8 1010 67 16093 4.1 240 19:18 26.03.2020
724 Clouds -8 1009 72 16093 6.2 240 18:41 26.03.2020
725 Clouds -9 1009 72 16093 6.2 240 18:23 26.03.2020
726 Clouds -8 1008 67 16093 6.7 250 17:55 26.03.2020
727 Clouds -8 1008 67 16093 6.7 250 17:37 26.03.2020
728 Clouds -7 1008 67 16093 6.7 250 17:18 26.03.2020
729 Clouds -7 1008 57 16093 8.7 260 16:40 26.03.2020
730 Clouds -7 1008 57 16093 8.7 260 16:21 26.03.2020
731 Clouds -6 1007 53 16093 5.7 280 15:57 26.03.2020
732 Clouds -6 1007 53 16093 5.7 280 15:38 26.03.2020
733 Clouds -6 1007 53 16093 5.7 280 15:20 26.03.2020
734 Clouds -5 1006 49 16093 7.7 260 14:55 26.03.2020
735 Clouds -5 1006 49 16093 7.7 260 14:36 26.03.2020
736 Clouds -5 1006 49 16093 7.7 260 14:18 26.03.2020
737 Clouds -4 1006 58 16093 6.2 280 13:41 26.03.2020
738 Clouds -4 1006 58 16093 6.2 280 13:22 26.03.2020
739 Clouds -3 1005 63 16093 4.6 280 12:55 26.03.2020
740 Clouds -3 1005 63 16093 4.6 280 12:37 26.03.2020
741 Clouds -4 1005 63 16093 4.6 280 12:18 26.03.2020
742 Clouds -3 1005 68 16093 1.5 210 11:44 26.03.2020
743 Clouds -4 1005 68 16093 1.5 210 11:20 26.03.2020
744 Clouds -4 1006 68 16093 1.5 190 10:42 26.03.2020
745 Clouds -4 1006 68 16093 1.5 190 10:20 26.03.2020
746 Clouds -4 1006 68 16093 3.6 270 09:59 26.03.2020
747 Clouds -4 1006 68 16093 3.6 270 09:41 26.03.2020
748 Clear -4 1006 79 11265 1.5 280 09:19 26.03.2020
749 Clear -3 1006 79 11265 1.5 280 08:44 26.03.2020
750 Clear -3 1006 79 11265 1.5 280 08:26 26.03.2020
751 Clouds -3 1007 74 11265 3.1 270 07:57 26.03.2020
752 Clouds -3 1007 74 11265 3.1 270 07:57 26.03.2020
753 Clouds -2 1007 74 11265 3.1 270 07:38 26.03.2020
754 Clouds -2 1007 74 11265 3.1 270 07:19 26.03.2020
755 Clouds -1 1007 95 11265 4.6 270 06:35 26.03.2020
756 Snow -1 1006 95 9656 3.6 300 05:51 26.03.2020
757 Rain 0 1005 86 11265 3.6 270 03:47 26.03.2020
758 Rain 0 1005 86 11265 3.6 260 03:26 26.03.2020
759 Rain 1 1005 86 9656 4.6 310 02:52 26.03.2020
760 Rain 1 1003 86 8047 4.6 310 01:19 26.03.2020
761 Rain 1 1003 84 3219 4.6 310 00:33 26.03.2020
762 Snow 1 1002 84 4828 5.7 240 23:44 25.03.2020
763 Snow 1 1002 84 4828 5.7 240 23:26 25.03.2020
764 Rain 1 1001 90 3219 5.1 240 22:56 25.03.2020
765 Rain 1 1001 90 3219 5.1 240 22:37 25.03.2020
766 Rain 1 1001 90 3219 5.1 240 22:19 25.03.2020
767 Snow 0 1001 90 2414 5.7 230 21:54 25.03.2020
768 Snow 0 1001 90 2414 5.7 230 21:36 25.03.2020
769 Snow 0 1001 90 2414 5.7 230 21:18 25.03.2020
770 Snow 0 1001 90 2414 5.7 230 20:39 25.03.2020
771 Snow 0 1001 90 2414 5.7 230 20:19 25.03.2020
772 Snow 0 1001 90 2414 6.2 230 19:56 25.03.2020
773 Snow 0 1001 90 2414 6.2 230 19:38 25.03.2020
774 Snow 0 1001 90 2414 6.2 230 19:19 25.03.2020
775 Snow 0 1002 90 2012 3.6 220 18:43 25.03.2020
776 Snow 0 1002 90 2012 3.6 220 18:25 25.03.2020
777 Snow 0 1002 90 2012 4.1 230 17:59 25.03.2020
778 Snow 0 1002 90 2012 4.1 230 17:41 25.03.2020
779 Snow 0 1002 90 2012 4.1 230 17:22 25.03.2020
780 Snow 0 1003 89 1609 5.7 230 16:58 25.03.2020
781 Snow 0 1003 90 1609 5.7 230 16:39 25.03.2020
782 Snow 0 1003 90 1609 5.7 230 16:20 25.03.2020
783 Snow 0 1005 89 3219 5.7 230 15:43 25.03.2020
784 Snow 0 1005 89 3219 5.7 230 15:21 25.03.2020
785 Snow 0 1005 89 3219 5.7 220 14:57 25.03.2020
786 Snow 0 1005 90 3219 5.7 220 14:39 25.03.2020
787 Snow 0 1005 90 3219 5.7 220 14:20 25.03.2020
788 Snow 0 1006 90 3219 5.1 220 13:44 25.03.2020
789 Snow 0 1006 90 3219 5.1 220 13:24 25.03.2020
790 Snow 0 1007 90 8047 4.1 220 12:39 25.03.2020
791 Snow 0 1007 90 8047 4.1 220 12:21 25.03.2020
792 Clouds 0 1008 90 16093 5.1 220 11:59 25.03.2020
793 Clouds 0 1008 90 16093 5.1 220 11:40 25.03.2020
794 Clouds 0 1009 90 16093 4.6 220 11:21 25.03.2020
795 Rain 0 1008 89 0 3.12 259 10:58 25.03.2020
796 Rain 0 1010 86 0 0.89 277 10:40 25.03.2020
797 Clouds 0 1011 89 11265 4.1 230 10:19 25.03.2020
798 Clouds 1 1011 89 11265 4.1 230 09:56 25.03.2020
799 Clouds 0 1011 89 11265 4.1 230 09:38 25.03.2020
800 Clouds 1 1011 89 11265 4.1 230 09:20 25.03.2020
801 Clouds 0 1012 89 11265 4.6 230 08:42 25.03.2020
802 Clouds 0 1012 89 11265 4.6 230 08:24 25.03.2020
803 Clouds 0 1013 86 11265 3.1 210 07:57 25.03.2020
804 Clouds 0 1013 86 11265 3.1 210 07:38 25.03.2020
805 Clouds 0 1013 86 11265 3.1 210 07:18 25.03.2020
806 Clouds 0 1013 86 11265 1.5 210 06:42 25.03.2020
807 Snow 0 1014 86 11265 1.5 210 06:23 25.03.2020
808 Clouds 0 1015 86 11265 3.6 210 05:47 25.03.2020
809 Clouds 1 1016 80 11265 3.1 250 04:46 25.03.2020
810 Clouds 1 1017 80 11265 3.6 240 03:58 25.03.2020
811 Clouds 1 1017 80 11265 3.6 240 03:33 25.03.2020
812 Clouds 1 1018 69 16093 5.1 240 01:41 25.03.2020
813 Clouds 1 1019 80 16093 4.1 260 00:51 25.03.2020
814 Clouds 1 1019 80 16093 4.1 260 00:30 25.03.2020
815 Clouds 0 1019 80 16093 8.2 270 23:58 24.03.2020
816 Clouds 0 1019 80 16093 8.2 270 23:39 24.03.2020
817 Clouds 0 1019 80 16093 8.2 270 23:20 24.03.2020
818 Clouds 0 1020 80 16093 8.7 260 22:54 24.03.2020
819 Clouds 0 1020 80 16093 5.7 260 22:36 24.03.2020
820 Clouds 0 1020 80 16093 5.7 260 22:18 24.03.2020
821 Clouds 0 1020 74 16093 5.1 250 21:42 24.03.2020
822 Clouds 0 1020 74 16093 5.1 250 21:19 24.03.2020
823 Clouds 0 1020 74 16093 5.1 240 20:59 24.03.2020
824 Clouds 0 1020 74 16093 5.1 240 20:41 24.03.2020
825 Clouds 0 1019 74 16093 9.3 260 20:22 24.03.2020
826 Clouds 1 1019 74 16093 9.3 260 19:48 24.03.2020
827 Clouds 0 1019 74 16093 9.3 260 19:23 24.03.2020
828 Rain 0 1020 80 16093 7.2 250 18:59 24.03.2020
829 Rain 0 1020 80 16093 7.2 250 18:40 24.03.2020
830 Rain 0 1020 80 16093 7.2 250 18:40 24.03.2020
831 Rain 0 1020 80 16093 7.2 250 18:20 24.03.2020
832 Clouds 0 1020 74 16093 8.2 250 17:58 24.03.2020
833 Clouds 0 1020 74 16093 8.2 250 17:40 24.03.2020
834 Clouds 0 1020 74 16093 8.2 250 17:22 24.03.2020
835 Clouds 0 1020 74 16093 4.6 260 16:57 24.03.2020
836 Clouds 0 1020 74 16093 4.6 260 16:38 24.03.2020
837 Clouds 0 1020 74 16093 6.2 240 16:20 24.03.2020
838 Rain 0 1021 80 16093 7.7 240 15:44 24.03.2020
839 Rain 0 1021 80 16093 7.7 240 15:44 24.03.2020
840 Rain 0 1021 80 16093 7.7 240 15:25 24.03.2020
841 Clouds 0 1021 80 16093 7.7 240 14:57 24.03.2020
842 Clouds 0 1021 80 16093 7.7 240 14:39 24.03.2020
843 Rain -1 1021 80 16093 7.7 250 14:18 24.03.2020
844 Rain 0 1021 80 16093 7.7 250 13:42 24.03.2020
845 Rain 0 1021 80 16093 7.7 250 13:22 24.03.2020
846 Clouds 0 1021 80 11265 7.2 240 12:47 24.03.2020
847 Clouds 0 1021 80 11265 7.2 240 12:28 24.03.2020
848 Rain 0 1022 80 11265 7.7 240 11:58 24.03.2020
849 Rain 0 1022 80 11265 7.7 240 11:39 24.03.2020
850 Rain 0 1022 80 11265 7.7 240 11:19 24.03.2020
851 Clouds 0 1022 80 11265 6.2 250 10:42 24.03.2020
852 Rain 0 1023 86 11265 6.2 250 10:19 24.03.2020
853 Clouds 0 1022 80 16093 6.7 230 09:55 24.03.2020
854 Clouds 0 1022 80 16093 6.7 230 09:37 24.03.2020
855 Rain 0 1023 86 11265 8.7 240 09:19 24.03.2020
856 Clouds 0 1023 86 11265 9.3 240 08:38 24.03.2020
857 Rain 0 1023 86 11265 5.1 240 08:20 24.03.2020
858 Clouds -1 1023 96 11265 5.1 220 07:47 24.03.2020
859 Clouds -1 1023 96 11265 5.1 220 07:24 24.03.2020
860 Snow -1 1023 96 9656 3.6 240 06:52 24.03.2020
861 Snow -1 1024 96 3219 4.6 230 06:25 24.03.2020
862 Snow -1 1024 96 1207 3.6 230 04:57 24.03.2020
863 Rain 0 1023 74 4023 5.7 240 03:48 24.03.2020
864 Rain 0 1024 86 11265 5.1 240 03:18 24.03.2020
865 Rain 0 1025 86 9656 5.7 260 01:45 24.03.2020
866 Snow 0 1025 96 4828 2.1 210 00:46 24.03.2020
867 Clouds -1 1025 96 16093 4.6 230 00:24 24.03.2020
868 Snow -1 1025 96 11265 4.1 200 23:44 23.03.2020
869 Snow -2 1029 92 2414 2.1 210 23:26 23.03.2020
870 Snow -2 1026 92 2414 3.6 240 22:55 23.03.2020
871 Snow -2 1026 92 2414 3.6 240 22:55 23.03.2020
872 Snow -3 1026 92 2213 4.3 242 22:37 23.03.2020
873 Snow -3 1026 92 2213 4.3 242 22:19 23.03.2020
874 Snow -3 1026 86 3219 4.3 242 21:43 23.03.2020
875 Snow -4 1026 92 1207 2.1 50 21:20 23.03.2020
876 Snow -5 1027 100 805 2.1 60 20:58 23.03.2020
877 Snow -5 1027 100 805 2.1 60 20:39 23.03.2020
878 Snow -5 1027 92 805 1.5 60 20:21 23.03.2020
879 Snow -6 1027 92 2414 2.1 60 19:45 23.03.2020
880 Snow -6 1027 100 1207 2.1 70 19:27 23.03.2020
881 Snow -6 1027 85 805 2.1 30 18:59 23.03.2020
882 Snow -6 1027 85 805 1.5 20 18:41 23.03.2020
883 Snow -7 1027 85 805 1.5 20 18:21 23.03.2020
884 Snow -7 1028 85 805 1.5 30 17:44 23.03.2020
885 Snow -7 1029 92 805 2.1 60 17:22 23.03.2020
886 Snow -8 1029 92 805 2.1 60 16:59 23.03.2020
887 Snow -8 1029 92 805 2.1 60 16:41 23.03.2020
888 Snow -8 1029 85 1609 2.1 50 16:23 23.03.2020
889 Snow -8 1030 85 1207 1.64 180 15:42 23.03.2020
890 Snow -8 1030 85 805 1.64 180 15:20 23.03.2020
891 Snow -8 1030 85 1207 1.64 180 14:55 23.03.2020
892 Snow -8 1030 85 1207 1.64 180 14:36 23.03.2020
893 Snow -8 1031 85 1609 1.5 50 14:18 23.03.2020
894 Snow -8 1031 85 3219 1.5 50 13:40 23.03.2020
895 Snow -8 1031 85 3219 1.5 50 13:40 23.03.2020
896 Snow -8 1031 85 1609 1.72 196 13:21 23.03.2020
897 Snow -8 1031 85 1609 3.1 160 12:46 23.03.2020
898 Snow -8 1032 85 2414 2.6 120 12:26 23.03.2020
899 Snow -8 1032 92 1609 1.72 196 11:59 23.03.2020
900 Snow -8 1032 92 1609 1.72 196 11:40 23.03.2020
901 Snow -9 1032 92 1609 1.72 196 11:21 23.03.2020
902 Snow -9 1033 85 2414 2.1 140 10:58 23.03.2020
903 Snow -9 1033 85 2414 2.1 140 10:39 23.03.2020
904 Snow -8 1033 85 3219 1.5 210 10:21 23.03.2020
905 Snow -9 1033 85 4828 2.1 210 09:48 23.03.2020
906 Snow -8 1033 85 4828 2.1 210 09:21 23.03.2020
907 Snow -9 1033 85 4828 2.6 200 08:58 23.03.2020
908 Snow -9 1033 85 4828 2.6 200 08:37 23.03.2020
909 Snow -9 1033 85 4828 2.6 200 08:19 23.03.2020
910 Snow -9 1033 85 4828 2.6 200 07:48 23.03.2020
911 Snow -9 1033 79 4828 1.5 220 07:29 23.03.2020
912 Snow -9 1034 85 3219 1.54 222 06:52 23.03.2020
913 Snow -9 1033 73 8047 1.54 222 06:20 23.03.2020
914 Clouds -8 1033 67 16093 3.1 240 05:34 23.03.2020
915 Snow -8 1033 73 8047 2.6 0 03:45 23.03.2020
916 Snow -8 1034 79 2615 4.6 230 02:37 23.03.2020
917 Snow -7 1033 73 1609 5.7 260 01:34 23.03.2020
918 Snow -7 1033 67 9656 7.7 280 00:40 23.03.2020
919 Clouds -7 1033 67 16093 8.7 280 23:53 22.03.2020
920 Clouds -7 1033 67 16093 8.7 280 23:27 22.03.2020
921 Clouds -7 1034 67 16093 10.8 280 22:59 22.03.2020
922 Clouds -7 1034 67 16093 10.8 280 22:39 22.03.2020
923 Clouds -8 1034 67 16093 10.8 280 22:18 22.03.2020
924 Clouds -8 1033 61 16093 9.3 250 21:40 22.03.2020
925 Clouds -8 1033 61 16093 9.3 250 21:20 22.03.2020
926 Clouds -8 1033 61 16093 8.2 270 20:58 22.03.2020
927 Clouds -8 1033 61 16093 8.2 270 20:39 22.03.2020
928 Clouds -8 1033 61 16093 8.2 270 20:21 22.03.2020
929 Clouds -9 1032 61 16093 9.8 260 19:55 22.03.2020
930 Clouds -9 1032 61 16093 9.8 260 19:37 22.03.2020
931 Clouds -9 1032 61 16093 9.8 260 19:18 22.03.2020
932 Clouds -8 1031 67 16093 7.2 260 18:56 22.03.2020
933 Clouds -8 1031 67 16093 7.2 260 18:37 22.03.2020
934 Clouds -8 1031 67 16093 7.2 260 18:18 22.03.2020
935 Clouds -8 1030 67 16093 9.8 260 17:56 22.03.2020
936 Clouds -8 1030 72 16093 11.3 270 17:36 22.03.2020
937 Clouds -8 1030 72 16093 11.3 270 17:36 22.03.2020
938 Clouds -8 1030 72 16093 11.3 270 17:36 22.03.2020
939 Clouds -8 1030 72 16093 11.3 270 17:18 22.03.2020
940 Clouds -8 1029 67 16093 9.3 260 16:54 22.03.2020
941 Clouds -7 1029 67 16093 9.3 260 16:36 22.03.2020
942 Clouds -8 1029 67 16093 9.3 260 16:18 22.03.2020
943 Clouds -7 1027 73 16093 9.3 250 15:39 22.03.2020
944 Clouds -5 1027 79 16093 8.7 250 14:48 22.03.2020
945 Clouds -5 1026 68 16093 10.3 260 14:20 22.03.2020
946 Clouds -4 1025 73 16093 10.3 260 13:58 22.03.2020
947 Clouds -4 1025 73 16093 10.3 260 13:40 22.03.2020
948 Clouds -4 1025 73 16093 5.1 230 13:19 22.03.2020
949 Clear -4 1024 68 16093 6.7 250 12:47 22.03.2020
950 Clear -4 1024 68 16093 6.7 250 12:23 22.03.2020
951 Clouds -4 1023 73 16093 5.7 250 11:59 22.03.2020
952 Clouds -4 1023 73 16093 5.7 250 11:41 22.03.2020
953 Clouds -4 1023 73 16093 5.7 250 11:22 22.03.2020
954 Clouds -3 1022 80 16093 7.7 270 10:54 22.03.2020
955 Clouds -3 1022 80 16093 7.7 270 10:36 22.03.2020
956 Clouds -3 1022 80 16093 7.7 270 10:18 22.03.2020
957 Clouds -2 1021 80 16093 7.2 270 09:41 22.03.2020
958 Clouds -2 1021 86 16093 7.7 260 09:19 22.03.2020
959 Clouds -2 1020 86 16093 6.7 250 08:43 22.03.2020
960 Clouds -1 1019 92 16093 7.7 240 08:24 22.03.2020
961 Clouds -2 1019 92 16093 5.1 250 07:51 22.03.2020
962 Clouds -2 1019 92 16093 3.6 220 07:23 22.03.2020
963 Clouds -1 1018 92 16093 4.6 240 06:35 22.03.2020
964 Clouds -1 1017 93 16093 3.6 230 05:31 22.03.2020
965 Snow 0 1016 94 14484 4.1 230 03:25 22.03.2020
966 Snow 0 1016 97 16093 5.1 220 01:26 22.03.2020
967 Snow 0 1016 97 16093 3.6 230 00:47 22.03.2020
968 Snow 1 1016 86 3219 3.1 0 00:25 22.03.2020
969 Mist 0 1016 97 8047 2.6 209 23:43 21.03.2020
970 Mist 0 1016 92 9656 1.6 180 23:19 21.03.2020
971 Mist 0 1016 92 9656 1.6 180 23:19 21.03.2020
972 Clouds -1 1017 92 16093 1.6 180 22:55 21.03.2020
973 Snow -1 1016 86 4828 2.6 190 22:36 21.03.2020
974 Snow -1 1016 86 4828 2.6 190 22:18 21.03.2020
975 Snow -2 1016 92 2414 2.1 190 21:41 21.03.2020
976 Snow -2 1017 92 2414 1.6 180 21:23 21.03.2020
977 Snow -2 1017 100 3621 1.6 180 20:59 21.03.2020
978 Snow -2 1017 100 3621 1.6 180 20:41 21.03.2020
979 Snow -2 1017 92 2213 1.68 211 20:19 21.03.2020
980 Snow -2 1017 92 1408 1.68 211 19:44 21.03.2020
981 Snow -2 1017 100 2414 1.68 211 19:25 21.03.2020
982 Snow -3 1018 92 1408 1.68 211 18:57 21.03.2020
983 Snow -3 1018 92 1609 1.5 290 18:38 21.03.2020
984 Snow -3 1018 92 1609 1.5 290 18:20 21.03.2020
985 Snow -3 1018 92 1609 1.5 290 18:20 21.03.2020
986 Snow -2 1018 86 805 1.5 250 17:55 21.03.2020
987 Clouds -2 1018 79 16093 1.68 211 17:37 21.03.2020
988 Clouds -3 1018 79 16093 0.95 58 17:18 21.03.2020
989 Clouds -4 1018 79 16093 2.1 60 16:41 21.03.2020
990 Clouds -3 1018 79 16093 2.1 60 16:19 21.03.2020
991 Clouds -3 1020 79 16093 3.1 60 15:55 21.03.2020
992 Clouds -3 1020 79 16093 3.1 60 15:37 21.03.2020
993 Clouds -3 1020 79 16093 3.1 60 15:18 21.03.2020
994 Clouds -3 1021 86 16093 3.6 70 14:54 21.03.2020
995 Clouds -3 1021 86 16093 3.6 70 14:36 21.03.2020
996 Clouds -3 1021 86 16093 3.6 70 14:18 21.03.2020
997 Clouds -3 1023 74 16093 2.6 110 13:56 21.03.2020
998 Clouds -3 1023 74 16093 2.6 110 13:38 21.03.2020
999 Clouds -3 1023 68 16093 1.5 80 13:19 21.03.2020
1000 Clouds -3 1025 79 16093 2.1 60 12:39 21.03.2020
1001 Clouds -3 1025 79 16093 2.1 60 12:19 21.03.2020
1002 Clear -3 1026 85 16093 1.5 40 11:58 21.03.2020
1003 Clear -3 1026 85 16093 1.5 40 11:38 21.03.2020
1004 Clear -3 1026 85 16093 1.5 40 11:19 21.03.2020
1005 Clouds -2 1026 68 16093 1.5 150 10:57 21.03.2020
1006 Clouds -2 1026 68 16093 1.5 150 10:39 21.03.2020
1007 Clouds -2 1026 68 16093 1.5 150 10:20 21.03.2020
1008 Clouds -2 1026 95 16093 2.6 190 09:57 21.03.2020
1009 Clouds -1 1026 95 16093 2.6 190 09:37 21.03.2020
1010 Clouds -1 1026 95 16093 2.6 190 09:37 21.03.2020
1011 Clouds -1 1026 95 16093 2.6 190 09:19 21.03.2020
1012 Clouds -1 1026 95 16093 2.6 190 09:19 21.03.2020
1013 Clouds 0 1027 69 16093 4.1 210 08:44 21.03.2020
1014 Clouds 0 1027 69 16093 4.1 210 08:25 21.03.2020
1015 Clouds 0 1027 69 16093 4.6 220 07:52 21.03.2020
1016 Clouds 0 1027 69 16093 4.6 220 07:32 21.03.2020
1017 Clouds 1 1027 64 16093 6.2 230 06:49 21.03.2020
1018 Clouds 1 1027 64 16093 6.2 230 06:29 21.03.2020
1019 Clouds 1 1028 64 16093 6.2 230 05:50 21.03.2020
1020 Clouds 1 1028 64 16093 6.2 230 05:23 21.03.2020
1021 Clouds 2 1027 64 14484 7.2 230 03:32 21.03.2020
1022 Clouds 2 1027 55 16093 7.7 230 02:35 21.03.2020
1023 Clouds 2 1027 55 16093 9.8 250 01:40 21.03.2020
1024 Clouds 2 1027 55 16093 9.8 250 01:20 21.03.2020
1025 Clouds 2 1027 64 14484 7.7 240 00:38 21.03.2020
1026 Clouds 2 1027 64 16093 9.3 240 23:59 20.03.2020
1027 Clouds 2 1027 64 16093 9.3 240 23:40 20.03.2020
1028 Clouds 2 1027 64 16093 9.3 240 23:18 20.03.2020
1029 Clouds 2 1027 80 16093 7.2 250 22:43 20.03.2020
1030 Clouds 1 1027 80 16093 7.2 250 22:24 20.03.2020
1031 Snow 1 1027 80 16093 8.2 240 21:58 20.03.2020
1032 Snow 1 1027 80 16093 8.2 240 21:39 20.03.2020
1033 Clouds 1 1026 74 16093 6.7 230 21:19 20.03.2020
1034 Clouds 1 1025 74 16093 8.7 240 20:57 20.03.2020
1035 Clouds 1 1025 74 16093 8.7 240 20:39 20.03.2020
1036 Clouds 1 1025 74 16093 8.7 240 20:18 20.03.2020
1037 Clouds 0 1024 74 16093 8.7 230 19:46 20.03.2020
1038 Clouds 0 1024 74 16093 8.7 230 19:19 20.03.2020
1039 Clouds 0 1023 80 16093 7.7 240 18:56 20.03.2020
1040 Clouds 0 1023 80 16093 7.7 240 18:37 20.03.2020
1041 Clouds 0 1023 80 16093 7.7 240 18:19 20.03.2020
1042 Snow 0 1023 74 1609 4.6 240 17:41 20.03.2020
1043 Snow 0 1023 74 1609 4.6 240 17:22 20.03.2020
1044 Clouds 0 1023 86 16093 8.2 230 16:59 20.03.2020
1045 Clouds 0 1023 86 16093 8.2 230 16:41 20.03.2020
1046 Clouds 0 1023 86 16093 8.2 230 16:41 20.03.2020
1047 Snow 0 1022 80 4828 5.1 240 16:20 20.03.2020
1048 Snow 0 1023 80 8047 4.6 200 15:44 20.03.2020
1049 Clouds -1 1022 95 16093 8.2 230 15:22 20.03.2020
1050 Clouds 0 1021 95 14484 9.3 230 14:58 20.03.2020
1051 Clouds 0 1021 95 14484 9.3 230 14:58 20.03.2020
1052 Clouds 0 1021 95 14484 9.3 230 14:40 20.03.2020
1053 Snow 0 1021 80 4023 6.2 240 14:20 20.03.2020
1054 Clouds 0 1021 86 16093 9.3 240 13:48 20.03.2020
1055 Clouds 0 1021 86 16093 9.3 240 13:21 20.03.2020
1056 Clouds 0 1020 86 16093 7.7 230 12:57 20.03.2020
1057 Clouds 0 1020 86 16093 7.7 230 12:37 20.03.2020
1058 Clouds 0 1020 86 16093 7.7 230 12:18 20.03.2020
1059 Clouds 0 1020 86 16093 7.2 230 11:39 20.03.2020
1060 Clouds 0 1020 86 16093 7.2 230 11:20 20.03.2020
1061 Clouds 0 1019 95 16093 7.2 240 10:54 20.03.2020
1062 Clouds 0 1019 95 16093 7.2 240 10:36 20.03.2020
1063 Clouds 0 1019 95 16093 6.7 240 10:18 20.03.2020
1064 Snow 0 1019 95 11265 6.7 230 09:44 20.03.2020
1065 Clouds 0 1018 95 16093 5.7 240 09:20 20.03.2020
1066 Snow -1 1018 95 9656 5.7 230 08:43 20.03.2020
1067 Snow -1 1017 100 4828 3.1 220 08:23 20.03.2020
1068 Snow -1 1017 92 2816 2.1 190 07:57 20.03.2020
1069 Snow -1 1017 92 2816 2.1 190 07:38 20.03.2020
1070 Snow -1 1017 100 3219 1.5 220 07:19 20.03.2020
1071 Snow -1 1017 100 3219 1.5 220 07:19 20.03.2020
1072 Snow -1 1016 86 2816 2.17 195 06:42 20.03.2020
1073 Clouds -1 1016 98 16093 2.17 195 05:57 20.03.2020
1074 Clouds 0 1016 69 16093 1.57 161 04:27 20.03.2020
1075 Rain 1 1016 69 16093 1.57 161 02:43 20.03.2020
1076 Clouds 1 1016 64 16093 1.22 190 01:50 20.03.2020
1077 Clouds 1 1017 80 16093 1.5 250 00:38 20.03.2020
1078 Clouds 1 1017 69 16093 1.42 177 23:58 19.03.2020
1079 Clouds 1 1017 92 16093 2.1 20 23:40 19.03.2020
1080 Clouds 0 1018 74 16093 0.41 151 23:19 19.03.2020
1081 Clouds 0 1017 88 16093 2.1 20 23:19 19.03.2020
1082 Clouds 0 1018 74 16093 0.41 151 22:40 19.03.2020
1083 Clouds 0 1018 74 16093 0.41 151 22:22 19.03.2020
1084 Clouds -1 1018 79 16093 2.1 40 21:58 19.03.2020
1085 Clouds -1 1018 79 16093 2.1 40 21:38 19.03.2020
1086 Clouds -1 1018 79 16093 2.1 40 21:18 19.03.2020
1087 Clouds -2 1019 86 14484 1.5 70 20:43 19.03.2020
1088 Clouds -2 1019 86 14484 1.5 70 20:25 19.03.2020
1089 Clouds -4 1019 92 16093 0.91 128 19:59 19.03.2020
1090 Clouds -4 1019 92 16093 0.91 128 19:38 19.03.2020
1091 Clouds -4 1019 92 16093 0.91 128 19:20 19.03.2020
1092 Clear -4 1019 92 16093 2.1 70 18:57 19.03.2020
1093 Clear -4 1019 92 16093 2.1 70 18:57 19.03.2020
1094 Clear -5 1019 92 16093 2.1 70 18:38 19.03.2020
1095 Clouds -4 1019 85 16093 2.1 40 18:20 19.03.2020
1096 Clear -5 1020 92 16093 0.91 128 17:43 19.03.2020
1097 Clear -5 1020 92 16093 1.5 60 17:20 19.03.2020
1098 Clear -4 1020 92 16093 1.5 60 16:57 19.03.2020
1099 Clear -4 1020 92 16093 1.5 60 16:39 19.03.2020
1100 Clear -4 1020 92 16093 1.5 60 16:21 19.03.2020
1101 Clear -4 1020 92 16093 1.5 270 15:41 19.03.2020
1102 Clear -4 1020 92 16093 1.5 270 15:23 19.03.2020
1103 Clear -4 1019 85 16093 1.5 50 14:43 19.03.2020
1104 Clear -4 1019 85 16093 1.5 50 14:22 19.03.2020
1105 Clear -4 1020 92 16093 3.6 70 13:56 19.03.2020
1106 Clear -5 1020 92 16093 3.6 70 13:37 19.03.2020
1107 Clear -5 1020 92 16093 3.6 70 13:18 19.03.2020
1108 Clear -3 1022 86 16093 3.1 60 12:40 19.03.2020
1109 Clear -3 1022 86 16093 3.1 60 12:22 19.03.2020
1110 Clouds -3 1021 79 16093 4.6 60 11:57 19.03.2020
1111 Clear -3 1023 92 16093 4.1 60 11:38 19.03.2020
1112 Clear -3 1023 92 16093 4.1 60 11:19 19.03.2020
1113 Clear -4 1024 92 16093 4.1 70 10:41 19.03.2020
1114 Clear -4 1024 92 16093 4.1 70 10:20 19.03.2020
1115 Clear -4 1025 100 16093 2.6 70 09:57 19.03.2020
1116 Clear -4 1025 100 16093 2.6 70 09:37 19.03.2020
1117 Clear -4 1025 100 16093 2.6 70 09:18 19.03.2020
1118 Clear -4 1025 92 16093 2.6 70 08:42 19.03.2020
1119 Clear -4 1025 92 16093 2.6 70 08:42 19.03.2020
1120 Clear -4 1025 92 16093 2.6 70 08:21 19.03.2020
1121 Clear -3 1026 100 16093 2.1 80 07:46 19.03.2020
1122 Clear -3 1026 100 16093 2.1 80 07:28 19.03.2020
1123 Clear -2 1026 86 16093 0.96 126 06:48 19.03.2020
1124 Snow -2 1026 86 16093 0.96 126 05:49 19.03.2020
1125 Clouds 0 1026 69 16093 2.1 280 04:58 19.03.2020
1126 Snow 0 1026 69 16093 2.1 280 04:40 19.03.2020
1127 Clouds 1 1026 86 12874 3.6 240 02:50 19.03.2020
1128 Rain 1 1025 80 16093 5.7 240 01:25 19.03.2020
1129 Clouds 1 1025 93 16093 4.6 230 00:32 19.03.2020
1130 Clouds 1 1024 74 16093 6.2 250 23:57 18.03.2020
1131 Clouds 1 1024 93 16093 5.7 240 23:30 18.03.2020
1132 Snow 1 1024 74 14484 5.7 250 22:58 18.03.2020
1133 Snow 1 1024 94 14484 5.1 230 22:39 18.03.2020
1134 Snow 1 1024 94 14484 5.1 230 22:21 18.03.2020
1135 Clouds 1 1023 94 16093 3.6 220 21:42 18.03.2020
1136 Clouds 1 1023 94 16093 3.6 220 21:22 18.03.2020
1137 Clouds 1 1023 94 16093 4.6 230 20:59 18.03.2020
1138 Clouds 1 1023 94 16093 4.6 230 20:59 18.03.2020
1139 Clouds 0 1023 94 16093 4.6 230 20:40 18.03.2020
1140 Clouds 0 1023 94 16093 4.6 230 20:40 18.03.2020
1141 Snow 0 1022 86 9656 3.1 230 20:20 18.03.2020
1142 Snow 0 1021 86 3219 3.1 220 19:58 18.03.2020
1143 Snow 0 1021 86 3219 3.1 220 19:39 18.03.2020
1144 Snow -1 1021 86 2816 2.6 210 19:20 18.03.2020
1145 Snow -1 1021 96 4828 2.6 240 18:42 18.03.2020
1146 Snow -2 1021 92 2816 3.99 239 18:21 18.03.2020
1147 Snow -2 1020 92 4023 3.99 239 17:59 18.03.2020
1148 Snow -2 1020 92 4023 3.99 239 17:59 18.03.2020
1149 Snow -2 1020 100 3219 3.99 239 17:41 18.03.2020
1150 Snow -2 1020 100 3219 3.99 239 17:22 18.03.2020
1151 Snow -2 1020 92 3219 1.8 201 16:58 18.03.2020
1152 Snow -2 1020 92 3219 1.8 201 16:40 18.03.2020
1153 Snow -2 1019 92 3017 1.8 201 16:20 18.03.2020
1154 Snow -3 1019 100 14484 1.8 201 15:45 18.03.2020
1155 Snow -3 1018 100 11265 1.8 201 15:23 18.03.2020
1156 Clouds -2 1018 92 16093 2.1 240 14:58 18.03.2020
1157 Clouds -2 1018 92 16093 2.1 240 14:40 18.03.2020
1158 Clouds -2 1018 92 16093 2.6 230 14:20 18.03.2020
1159 Clouds -3 1017 92 14484 2.6 190 13:40 18.03.2020
1160 Clouds -2 1017 92 14484 2.6 190 13:19 18.03.2020
1161 Clouds -2 1016 100 16093 3.1 210 12:42 18.03.2020
1162 Clouds -2 1016 100 16093 3.1 210 12:21 18.03.2020
1163 Clouds -2 1016 100 16093 1.77 191 11:57 18.03.2020
1164 Snow -2 1015 100 6437 1.77 191 11:37 18.03.2020
1165 Snow -2 1015 100 6437 1.08 195 11:18 18.03.2020
1166 Snow -2 1015 86 4828 3.1 250 10:54 18.03.2020
1167 Snow -2 1014 98 3219 1.5 230 10:36 18.03.2020
1168 Snow -1 1014 98 3219 1.5 230 10:18 18.03.2020
1169 Clouds -1 1013 74 16093 1.08 195 09:41 18.03.2020
1170 Clouds -1 1013 74 16093 1.08 195 09:22 18.03.2020
1171 Clouds -1 1013 74 16093 1.08 195 08:40 18.03.2020
1172 Clouds -1 1013 74 16093 1.08 195 08:22 18.03.2020
1173 Clouds -1 1012 68 16093 1.04 222 07:59 18.03.2020
1174 Clouds -1 1012 68 16093 1.04 222 07:37 18.03.2020
1175 Clouds -1 1012 68 16093 1.04 222 07:19 18.03.2020
1176 Clouds -1 1012 94 16093 1.04 222 06:39 18.03.2020
1177 Clouds -1 1012 74 16093 1.04 222 05:43 18.03.2020
1178 Snow 0 1012 74 16093 0.74 260 04:58 18.03.2020
1179 Clouds 1 1012 51 16093 0.74 260 03:21 18.03.2020
1180 Rain 1 1013 55 16093 0.74 260 02:37 18.03.2020
1181 Rain 1 1013 55 16093 0.74 260 02:37 18.03.2020
1182 Rain 1 1013 55 16093 0.74 260 02:37 18.03.2020
1183 Rain 2 1013 50 16093 1.5 340 01:45 18.03.2020
1184 Rain 2 1013 50 16093 1.5 340 01:19 18.03.2020
1185 Clouds 2 1014 50 16093 0.41 228 00:22 18.03.2020
1186 Clouds 1 1015 91 16093 1.5 40 23:43 17.03.2020
1187 Clouds 0 1015 58 16093 2.6 360 23:22 17.03.2020
1188 Clear -1 1016 83 16093 2.1 40 22:47 17.03.2020
1189 Clear -1 1016 83 16093 2.1 40 22:28 17.03.2020
1190 Clear -2 1017 73 16093 3.1 60 21:57 17.03.2020
1191 Clear -2 1017 73 16093 3.1 60 21:36 17.03.2020
1192 Clear -2 1017 73 16093 3.1 60 21:18 17.03.2020
1193 Clear -3 1019 79 16093 3.6 80 20:38 17.03.2020
1194 Clear -6 1019 79 16093 3.6 80 20:19 17.03.2020
1195 Clouds -6 1019 85 16093 3.1 50 19:42 17.03.2020
1196 Clouds -7 1019 85 16093 3.1 50 19:21 17.03.2020
1197 Clear -9 1021 92 16093 4.6 60 18:59 17.03.2020
1198 Clear -9 1021 92 16093 4.6 60 18:40 17.03.2020
1199 Clear -9 1021 92 16093 4.6 60 18:22 17.03.2020
1200 Clear -10 1022 92 16093 4.1 60 17:59 17.03.2020
1201 Clear -10 1022 92 16093 4.1 60 17:39 17.03.2020
1202 Clear -11 1022 92 16093 4.1 60 17:19 17.03.2020
1203 Clear -11 1022 92 16093 2.6 70 16:43 17.03.2020
1204 Clear -11 1022 92 16093 2.6 70 16:19 17.03.2020
1205 Clear -11 1023 92 16093 3.1 60 15:48 17.03.2020
1206 Clear -11 1023 92 16093 3.1 60 15:23 17.03.2020
1207 Clear -11 1025 100 16093 3.1 80 14:49 17.03.2020
1208 Clear -10 1025 100 16093 3.1 80 14:30 17.03.2020
1209 Clear -10 1025 92 16093 3.1 50 13:59 17.03.2020
1210 Clear -11 1025 92 16093 3.1 50 13:41 17.03.2020
1211 Clear -11 1025 92 16093 3.1 50 13:22 17.03.2020
1212 Mist -11 1025 84 9656 2.2 42 12:47 17.03.2020
1213 Clear -10 1026 92 16093 3.1 60 12:25 17.03.2020
1214 Clear -9 1027 92 16093 2.6 70 11:57 17.03.2020
1215 Clear -9 1027 92 16093 2.6 70 11:39 17.03.2020
1216 Clear -9 1027 92 16093 2.6 70 11:20 17.03.2020
1217 Clear -9 1028 100 16093 3.1 50 10:54 17.03.2020
1218 Clear -9 1028 100 16093 3.1 50 10:36 17.03.2020
1219 Clear -9 1028 100 16093 3.1 50 10:18 17.03.2020
1220 Clear -7 1028 100 16093 2.6 60 09:45 17.03.2020
1221 Clear -7 1028 100 16093 2.6 60 09:45 17.03.2020
1222 Clear -6 1028 100 16093 2.6 60 09:20 17.03.2020
1223 Clear -6 1029 92 16093 2.6 70 08:57 17.03.2020
1224 Clear -6 1029 92 16093 2.6 70 08:39 17.03.2020
1225 Clear -5 1029 92 16093 2.6 70 08:18 17.03.2020
1226 Clouds -5 1029 85 16093 1.5 30 07:47 17.03.2020
1227 Clouds -4 1029 85 16093 2.1 70 07:20 17.03.2020
1228 Clouds -3 1029 85 16093 2.1 70 06:45 17.03.2020
1229 Clouds -4 1029 85 16093 2.1 70 06:24 17.03.2020
1230 Clouds -3 1030 92 16093 1.13 170 05:18 17.03.2020
1231 Clouds 0 1031 95 16093 1.5 170 03:26 17.03.2020
1232 Clouds -1 1031 80 14484 1.46 192 01:50 17.03.2020
1233 Clouds -1 1031 80 14484 1.46 192 01:29 17.03.2020
1234 Clouds 0 1032 80 14484 3.1 220 00:51 17.03.2020
1235 Clouds -1 1031 80 16093 4.6 200 23:52 16.03.2020
1236 Clouds -1 1032 80 14484 1.5 200 23:34 16.03.2020
1237 Clouds -2 1031 80 16093 2.1 0 22:55 16.03.2020
1238 Clouds -1 1032 86 14484 2.1 220 22:36 16.03.2020
1239 Clouds -2 1032 86 14484 2.1 220 22:18 16.03.2020
1240 Clouds -3 1032 86 14484 1.5 230 21:41 16.03.2020
1241 Clouds -3 1032 86 14484 1.5 230 21:23 16.03.2020
1242 Clouds -3 1032 86 16093 3.1 240 20:58 16.03.2020
1243 Clouds -3 1032 86 16093 3.1 240 20:38 16.03.2020
1244 Clouds -3 1032 86 16093 3.1 240 20:38 16.03.2020
1245 Clouds -3 1032 86 16093 3.1 240 20:20 16.03.2020
1246 Clouds -3 1031 74 14484 1.2 157 19:44 16.03.2020
1247 Clouds -4 1032 85 16093 1.2 157 19:23 16.03.2020
1248 Clouds -5 1031 92 16093 1.2 157 18:57 16.03.2020
1249 Clouds -5 1031 92 16093 1.2 157 18:38 16.03.2020
1250 Clouds -5 1031 92 16093 1.2 157 18:18 16.03.2020
1251 Snow -5 1031 79 16093 1.5 140 17:45 16.03.2020
1252 Clouds -5 1031 92 16093 1.2 157 17:24 16.03.2020
1253 Snow -4 1030 73 14484 6.2 250 16:49 16.03.2020
1254 Clouds -4 1031 92 16093 1.7 178 16:31 16.03.2020
1255 Snow -5 1031 92 16093 1.7 178 15:58 16.03.2020
1256 Snow -4 1031 92 16093 1.7 178 15:40 16.03.2020
1257 Clouds -5 1031 92 16093 1.7 178 15:20 16.03.2020
1258 Clouds -5 1031 92 16093 1.7 178 14:44 16.03.2020
1259 Clouds -5 1030 92 16093 1.62 187 14:20 16.03.2020
1260 Clouds -5 1030 92 16093 1.62 187 14:20 16.03.2020
1261 Snow -6 1030 92 8047 1.62 187 13:44 16.03.2020
1262 Snow -6 1030 85 9656 1.62 187 13:25 16.03.2020
1263 Snow -6 1030 85 11265 1.39 183 12:56 16.03.2020
1264 Snow -6 1030 79 14484 1.39 183 12:37 16.03.2020
1265 Snow -6 1030 79 14484 1.39 183 12:19 16.03.2020
1266 Clouds -6 1029 79 16093 1.39 183 11:42 16.03.2020
1267 Clouds -6 1029 79 16093 1.5 200 11:20 16.03.2020
1268 Clouds -6 1029 79 16093 2 181 10:43 16.03.2020
1269 Clouds -6 1029 85 16093 2 181 10:24 16.03.2020
1270 Clouds -5 1029 73 16093 2 181 09:47 16.03.2020
1271 Clouds -5 1029 73 16093 2 181 09:28 16.03.2020
1272 Clouds -5 1029 85 16093 2.1 210 08:59 16.03.2020
1273 Clouds -5 1029 85 16093 2.1 210 08:27 16.03.2020
1274 Clear -5 1029 85 16093 2.6 230 07:56 16.03.2020
1275 Clear -5 1029 85 16093 2.6 230 07:38 16.03.2020
1276 Clear -5 1029 85 16093 2.6 230 07:18 16.03.2020
1277 Clouds -4 1029 68 16093 1.51 181 06:27 16.03.2020
1278 Clouds -3 1029 79 16093 2.6 230 05:54 16.03.2020
1279 Snow -1 1029 86 16093 4.6 220 03:36 16.03.2020
1280 Rain 0 1030 80 16093 3.1 190 01:29 16.03.2020
1281 Clouds 0 1030 80 16093 1.23 219 00:43 16.03.2020
1282 Rain 0 1031 86 16093 1.23 219 23:49 15.03.2020
1283 Snow 0 1031 86 16093 0.45 198 23:23 15.03.2020
1284 Snow 0 1032 80 16093 1.5 50 22:58 15.03.2020
1285 Snow -1 1032 80 16093 1.5 50 22:38 15.03.2020
1286 Snow -1 1032 80 16093 1.5 50 22:20 15.03.2020
1287 Clouds -2 1033 86 16093 0.45 198 21:39 15.03.2020
1288 Clouds -2 1033 86 16093 0.45 198 21:20 15.03.2020
1289 Clouds -3 1032 85 16093 0.45 198 20:44 15.03.2020
1290 Clouds -3 1033 92 14484 0.86 46 20:22 15.03.2020
1291 Clouds -4 1033 92 12874 2.1 40 19:59 15.03.2020
1292 Clouds -4 1033 92 12874 2.1 40 19:59 15.03.2020
1293 Clouds -4 1033 92 12874 2.1 40 19:41 15.03.2020
1294 Snow -4 1033 92 8047 0.86 46 19:23 15.03.2020
1295 Snow -4 1033 85 8047 1.5 70 18:59 15.03.2020
1296 Snow -4 1033 85 8047 1.5 70 18:39 15.03.2020
1297 Snow -5 1034 100 8047 2.6 60 18:21 15.03.2020
1298 Snow -5 1034 92 8047 1.5 70 17:54 15.03.2020
1299 Snow -5 1035 92 4023 0.86 46 17:36 15.03.2020
1300 Snow -5 1035 92 4023 0.55 34 17:18 15.03.2020
1301 Snow -5 1035 92 6437 0.55 34 16:42 15.03.2020
1302 Snow -5 1035 92 6437 0.55 34 16:24 15.03.2020
1303 Snow -5 1035 92 6437 0.55 34 15:57 15.03.2020
1304 Snow -5 1035 92 6437 0.55 34 15:38 15.03.2020
1305 Snow -5 1035 92 6437 0.55 34 15:19 15.03.2020
1306 Snow -5 1035 85 3219 0.55 34 14:46 15.03.2020
1307 Snow -5 1035 85 3219 0.55 34 14:24 15.03.2020
1308 Snow -5 1036 92 9656 1.22 40 13:57 15.03.2020
1309 Snow -5 1036 92 9656 1.22 40 13:38 15.03.2020
1310 Snow -5 1036 92 9656 1.22 40 13:38 15.03.2020
1311 Snow -5 1036 92 9656 1.17 39 13:19 15.03.2020
1312 Clouds -5 1036 92 14484 1.17 39 12:43 15.03.2020
1313 Snow -5 1036 85 6437 2.1 40 12:25 15.03.2020
1314 Snow -5 1037 85 8047 2.6 60 11:54 15.03.2020
1315 Snow -5 1037 85 6437 2.6 50 11:36 15.03.2020
1316 Snow -5 1037 85 6437 2.6 50 11:18 15.03.2020
1317 Snow -5 1037 85 8047 2.1 50 10:41 15.03.2020
1318 Snow -5 1037 85 8047 2.1 50 10:23 15.03.2020
1319 Snow -5 1037 85 9656 1.5 50 09:59 15.03.2020
1320 Snow -5 1037 85 9656 1.5 50 09:39 15.03.2020
1321 Clouds -5 1037 79 16093 1.29 39 09:20 15.03.2020
1322 Clouds -5 1038 79 16093 1.29 39 08:41 15.03.2020
1323 Snow -5 1038 85 11265 0.81 73 08:20 15.03.2020
1324 Clouds -5 1037 85 16093 0.81 73 07:50 15.03.2020
1325 Snow -5 1038 73 12874 0.81 73 07:23 15.03.2020
1326 Clouds -5 1038 68 16093 1.5 70 06:44 15.03.2020
1327 Clouds -5 1038 62 16093 0.81 73 05:50 15.03.2020
1328 Clouds -5 1038 67 16093 0.77 122 04:58 15.03.2020
1329 Clouds -5 1038 67 16093 0.77 122 04:40 15.03.2020
1330 Clouds -4 1038 67 16093 0.77 122 04:21 15.03.2020
1331 Clouds -4 1038 62 16093 2.6 50 03:25 15.03.2020
1332 Clouds -4 1038 67 14484 2.1 60 02:36 15.03.2020
1333 Clouds -5 1039 67 16093 1.5 90 01:19 15.03.2020
1334 Clouds -5 1039 67 16093 1.41 178 00:42 15.03.2020
1335 Clouds -5 1039 67 16093 1.41 178 00:20 15.03.2020
1336 Clouds -6 1039 67 16093 1.5 80 23:41 14.03.2020
1337 Clouds -6 1039 67 16093 1.5 80 23:20 14.03.2020
1338 Clouds -6 1039 67 16093 2.6 50 22:57 14.03.2020
1339 Clouds -7 1039 67 16093 2.6 50 22:38 14.03.2020
1340 Clouds -7 1039 67 16093 2.6 50 22:20 14.03.2020
1341 Clouds -8 1039 72 16093 2.1 40 21:56 14.03.2020
1342 Clouds -8 1039 72 16093 2.1 40 21:36 14.03.2020
1343 Clouds -9 1039 72 16093 2.1 40 21:18 14.03.2020
1344 Clouds -9 1039 78 16093 1.57 178 20:58 14.03.2020
1345 Clouds -9 1039 78 16093 1.57 178 20:39 14.03.2020
1346 Clouds -10 1039 78 16093 1.53 159 20:18 14.03.2020
1347 Clouds -10 1039 78 16093 2.6 50 19:42 14.03.2020
1348 Clouds -11 1039 77 16093 1.53 159 19:24 14.03.2020
1349 Clouds -13 1039 84 16093 2.1 70 18:41 14.03.2020
1350 Clouds -14 1039 84 16093 2.1 70 18:22 14.03.2020
1351 Clouds -15 1039 77 16093 2.1 350 17:56 14.03.2020
1352 Clear -15 1039 91 16093 3.1 70 17:37 14.03.2020
1353 Clear -16 1039 91 16093 3.1 70 17:19 14.03.2020
1354 Clear -16 1039 84 16093 0.77 140 16:40 14.03.2020
1355 Clear -16 1039 84 16093 0.77 140 16:22 14.03.2020
1356 Clear -14 1039 84 16093 0.77 140 15:54 14.03.2020
1357 Clear -15 1039 84 16093 0.77 140 15:26 14.03.2020
1358 Clear -16 1039 84 16093 1.5 30 14:47 14.03.2020
1359 Clear -17 1039 84 16093 1.5 30 14:24 14.03.2020
1360 Clear -14 1039 84 16093 1.5 50 13:58 14.03.2020
1361 Clear -14 1039 84 16093 1.5 50 13:39 14.03.2020
1362 Clear -15 1039 84 16093 1.5 50 13:21 14.03.2020
1363 Clear -13 1039 84 16093 1.5 20 12:47 14.03.2020
1364 Clear -14 1039 84 16093 1.5 20 12:27 14.03.2020
1365 Clear -14 1039 77 16093 1.5 20 11:56 14.03.2020
1366 Clear -12 1039 84 16093 0.83 154 11:38 14.03.2020
1367 Clear -13 1039 91 16093 0.71 105 11:19 14.03.2020
1368 Clear -13 1039 91 16093 0.71 105 10:44 14.03.2020
1369 Clear -13 1039 91 16093 0.71 105 10:25 14.03.2020
1370 Clear -12 1039 84 16093 2.6 60 09:57 14.03.2020
1371 Clear -12 1039 84 16093 2.6 60 09:39 14.03.2020
1372 Clear -12 1039 84 16093 2.6 60 09:19 14.03.2020
1373 Clear -14 1039 84 16093 1.5 70 08:42 14.03.2020
1374 Clear -12 1039 84 16093 1.5 50 08:21 14.03.2020
1375 Clear -12 1040 84 16093 0.93 163 07:39 14.03.2020
1376 Clear -12 1040 84 16093 0.93 163 07:20 14.03.2020
1377 Clouds -13 1040 84 16093 0.93 163 06:41 14.03.2020
1378 Clear -12 1041 71 16093 0.93 163 05:47 14.03.2020
1379 Clear -12 1041 71 16093 0.93 163 05:47 14.03.2020
1380 Snow -7 1041 66 16093 0.89 180 04:43 14.03.2020
1381 Clouds -5 1041 49 16093 1.5 200 03:24 14.03.2020
1382 Clear -5 1041 57 16093 0.89 180 02:25 14.03.2020
1383 Clouds -5 1041 53 16093 1.05 159 01:19 14.03.2020
1384 Clear -7 1043 57 16093 1.01 161 23:56 13.03.2020
1385 Clear -7 1043 57 16093 1.01 161 23:31 13.03.2020
1386 Clouds -8 1043 61 16093 1.5 80 22:52 13.03.2020
1387 Clouds -9 1043 61 16093 1.5 80 22:27 13.03.2020
1388 Clear -10 1044 71 16093 2.1 70 21:54 13.03.2020
1389 Clear -10 1044 71 16093 2.1 70 21:36 13.03.2020
1390 Clear -11 1044 71 16093 2.1 70 21:18 13.03.2020
1391 Clear -13 1044 84 16093 1.75 155 20:41 13.03.2020
1392 Clear -14 1044 84 16093 1.67 150 20:22 13.03.2020
1393 Clear -14 1044 91 16093 0.91 169 19:49 13.03.2020
1394 Clear -15 1044 91 16093 0.91 169 19:31 13.03.2020
1395 Clouds -16 1044 84 16093 0.91 169 18:55 13.03.2020
1396 Clouds -15 1044 84 16093 0.91 169 18:36 13.03.2020
1397 Clouds -15 1044 84 16093 0.91 169 18:18 13.03.2020
1398 Clouds -14 1044 91 16093 0.91 169 17:41 13.03.2020
1399 Clouds -14 1044 91 16093 0.91 169 17:21 13.03.2020
1400 Clouds -15 1044 84 16093 1.27 65 16:55 13.03.2020
1401 Clouds -15 1044 84 16093 1.27 65 16:36 13.03.2020
1402 Clouds -15 1044 84 16093 1.27 65 16:18 13.03.2020
1403 Clouds -16 1044 84 16093 1.27 65 15:41 13.03.2020
1404 Clouds -15 1044 84 16093 1.27 65 15:20 13.03.2020
1405 Clouds -16 1044 84 16093 1.27 65 14:44 13.03.2020
1406 Clouds -16 1044 84 16093 1.27 65 14:44 13.03.2020
1407 -273 0 0 0 0 0 14:23 13.03.2020
1408 Clouds -17 1046 83 16093 0.72 54 13:58 13.03.2020
1409 Clouds -17 1046 83 16093 0.72 54 13:40 13.03.2020
1410 Clouds -17 1046 83 16093 0.72 54 13:20 13.03.2020
1411 Clear -17 1046 84 16093 0.94 54 12:55 13.03.2020
1412 Clear -17 1046 84 16093 0.94 54 12:55 13.03.2020
1413 Clear -16 1046 84 16093 0.94 54 12:37 13.03.2020
1414 Clear -17 1046 84 16093 0.94 54 12:18 13.03.2020
1415 Clouds -16 1047 83 16093 0.94 54 11:43 13.03.2020
1416 Clouds -16 1047 83 16093 0.75 124 11:25 13.03.2020
1417 Clouds -16 1047 84 16093 0.75 124 10:58 13.03.2020
1418 Clouds -16 1047 84 16093 0.75 124 10:39 13.03.2020
1419 Clouds -16 1047 84 16093 0.75 124 10:21 13.03.2020
1420 Clouds -16 1047 84 16093 0.75 124 09:44 13.03.2020
1421 Clouds -15 1047 84 16093 0.75 124 09:25 13.03.2020
1422 Clouds -15 1048 84 16093 0.75 124 08:48 13.03.2020
1423 Clouds -15 1048 84 16093 0.88 106 08:24 13.03.2020
1424 Clouds -15 1047 70 16093 0.57 48 07:59 13.03.2020
1425 Clouds -15 1047 70 16093 0.57 48 07:38 13.03.2020
1426 Clouds -15 1047 70 16093 0.57 48 07:20 13.03.2020
1427 Clouds -15 1048 84 16093 0.57 48 06:45 13.03.2020
1428 Clouds -15 1048 84 16093 0.57 48 06:19 13.03.2020
1429 Clouds -14 1047 77 16093 2.1 60 05:43 13.03.2020
1430 Clouds -13 1048 72 16093 2.1 60 04:39 13.03.2020
1431 Clouds -13 1048 71 16093 2.1 40 03:50 13.03.2020
1432 Clouds -13 1049 60 16093 2.1 10 01:49 13.03.2020
1433 Clouds -13 1049 60 16093 2.1 10 01:19 13.03.2020
1434 Clouds -13 1049 65 16093 1.32 170 00:56 13.03.2020
1435 Clouds -13 1049 65 16093 1.32 170 00:38 13.03.2020
1436 Clouds -13 1049 65 16093 1.32 170 00:18 13.03.2020
1437 Clouds -14 1050 65 16093 1.32 170 23:37 12.03.2020
1438 Clouds -15 1050 65 16093 1.21 152 23:18 12.03.2020
1439 Clouds -16 1050 77 16093 1.21 152 22:41 12.03.2020
1440 Clouds -16 1050 77 16093 1.21 152 22:23 12.03.2020
1441 Clouds -17 1050 83 16093 1.21 152 21:54 12.03.2020
1442 Clouds -18 1050 83 16093 1.21 152 21:36 12.03.2020
1443 Clouds -19 1049 76 16093 1.21 152 21:18 12.03.2020
1444 Clouds -20 1049 83 16093 1.21 152 20:42 12.03.2020
1445 Clouds -20 1014 83 0 0.88 113 20:19 12.03.2020
1446 Clouds -21 1015 85 0 0.88 113 19:42 12.03.2020
1447 Clouds -23 1049 75 16093 1.5 40 19:21 12.03.2020
1448 Clouds -23 1049 75 16093 1.5 40 19:21 12.03.2020
1449 Clear -23 1049 75 16093 0.88 113 18:45 12.03.2020
1450 Clear -23 1049 75 16093 0.88 113 18:25 12.03.2020
1451 Clouds -25 1049 75 16093 0.88 113 17:58 12.03.2020
1452 Clear -25 1048 75 16093 0.88 113 17:40 12.03.2020
1453 Clear -24 1048 75 16093 0.68 96 17:21 12.03.2020
1454 Clouds -24 1048 75 16093 0.68 96 16:58 12.03.2020
1455 Clouds -24 1048 75 16093 0.68 96 16:39 12.03.2020
1456 Clouds -23 1048 75 16093 0.68 96 16:20 12.03.2020
1457 Clouds -22 1047 83 16093 2.1 70 15:47 12.03.2020
1458 Clouds -23 1047 83 16093 2.1 70 15:27 12.03.2020
1459 Clouds -22 1046 76 16093 1.5 90 14:54 12.03.2020
1460 Snow -22 1047 75 9656 2.1 60 14:36 12.03.2020
1461 Snow -22 1047 75 9656 2.1 60 14:18 12.03.2020
1462 Clouds -21 1046 83 16093 0.66 150 13:38 12.03.2020
1463 Clouds -21 1046 83 16093 0.58 135 13:20 12.03.2020
1464 Clouds -21 1045 76 16093 2.6 150 12:43 12.03.2020
1465 Snow -22 1045 83 9656 2.1 70 12:23 12.03.2020
1466 Snow -21 1044 76 11265 0.58 135 11:59 12.03.2020
1467 Snow -22 1044 76 11265 0.58 135 11:39 12.03.2020
1468 Snow -21 1044 76 11265 0.58 135 11:21 12.03.2020
1469 Snow -21 1044 76 11265 0.58 135 11:21 12.03.2020
1470 Snow -21 1043 76 12874 0.62 143 10:59 12.03.2020
1471 Snow -21 1043 76 12874 0.62 143 10:41 12.03.2020
1472 Snow -21 1043 76 12874 0.62 143 10:22 12.03.2020
1473 Snow -21 1043 76 12874 0.62 143 10:22 12.03.2020
1474 Snow -21 1043 83 14484 0.62 143 09:49 12.03.2020
1475 Clouds -20 1043 76 16093 0.62 143 09:29 12.03.2020
1476 Snow -23 1042 83 14484 0.62 143 08:55 12.03.2020
1477 Snow -22 1042 83 14484 0.62 143 08:37 12.03.2020
1478 Snow -22 1042 75 16093 0.62 127 08:18 12.03.2020
1479 Snow -22 1042 83 14484 0.62 127 07:46 12.03.2020
1480 Snow -21 1041 76 11265 0.62 127 07:21 12.03.2020
1481 Clouds -20 1040 76 16093 0.62 127 05:59 12.03.2020
1482 Clouds -20 1040 69 16093 0.62 127 05:33 12.03.2020
1483 Clouds -17 1038 59 16093 1.02 191 02:54 12.03.2020
1484 Clouds -17 1038 54 16093 1.57 206 01:43 12.03.2020
1485 Clouds -18 1038 54 16093 1.57 206 01:21 12.03.2020
1486 Clouds -18 1037 53 16093 1.56 201 00:41 12.03.2020
1487 Clear -20 1038 83 16093 1.56 201 23:57 11.03.2020
1488 Clear -20 1038 83 16093 1.56 201 23:28 11.03.2020
1489 Clear -21 1037 83 16093 1.37 172 22:58 11.03.2020
1490 Clear -21 1037 83 16093 1.37 172 22:39 11.03.2020
1491 Clear -22 1037 83 16093 1.37 172 22:21 11.03.2020
1492 Clear -23 1037 75 16093 1.37 172 21:56 11.03.2020
1493 Clear -23 1037 75 16093 1.37 172 21:37 11.03.2020
1494 Clear -24 1037 75 16093 1.37 172 21:19 11.03.2020
1495 Clear -25 1036 74 16093 1.37 172 20:55 11.03.2020
1496 Clear -26 1036 74 16093 1.37 172 20:36 11.03.2020
1497 Clear -29 1036 74 16093 0.67 81 20:18 11.03.2020
1498 Clear -31 1036 73 16093 0.67 81 19:42 11.03.2020
1499 Clear -31 1036 73 16093 0.67 81 19:24 11.03.2020
1500 Mist -32 1034 66 9656 0.67 81 18:56 11.03.2020
1501 Clear -31 1035 66 16093 0.67 81 18:37 11.03.2020
1502 Clear -32 1035 66 16093 0.67 81 18:18 11.03.2020
1503 Clear -31 1034 66 16093 0.67 81 17:54 11.03.2020
1504 Clear -32 1034 66 16093 0.67 81 17:36 11.03.2020
1505 Clear -33 1034 66 16093 0.77 78 17:18 11.03.2020
1506 Clear -32 1034 74 16093 0.77 78 16:41 11.03.2020
1507 Clear -32 1034 74 16093 0.77 78 16:19 11.03.2020
1508 Clear -30 1033 74 16093 0.77 78 15:42 11.03.2020
1509 Clear -30 1033 74 16093 0.77 78 15:23 11.03.2020
1510 Mist -29 1031 61 8047 0.77 78 14:46 11.03.2020
1511 Clear -30 1031 67 16093 0.77 78 14:24 11.03.2020
1512 Clear -30 1031 82 16093 2.1 70 13:59 11.03.2020
1513 Clear -30 1031 82 16093 2.1 70 13:40 11.03.2020
1514 Clear -30 1031 82 16093 2.1 70 13:22 11.03.2020
1515 Clear -29 1030 74 16093 0.84 90 12:55 11.03.2020
1516 Clear -30 1030 74 16093 0.84 90 12:37 11.03.2020
1517 Clear -30 1030 74 16093 0.84 90 12:18 11.03.2020
1518 Clear -30 1029 82 16093 2.1 100 11:40 11.03.2020
1519 Clear -30 1029 82 16093 2.1 100 11:20 11.03.2020
1520 Clear -30 1028 74 16093 0.76 104 10:47 11.03.2020
1521 Clear -30 1028 74 16093 0.76 104 10:20 11.03.2020
1522 Clear -28 1027 75 16093 0.76 104 09:55 11.03.2020
1523 Clear -29 1027 75 16093 0.76 104 09:36 11.03.2020
1524 Clear -29 1027 75 16093 0.76 104 09:18 11.03.2020
1525 Clear -28 1026 74 16093 0.76 104 08:42 11.03.2020
1526 Clear -28 1026 74 16093 0.76 104 08:42 11.03.2020
1527 Clear -28 1026 74 16093 0.76 104 08:23 11.03.2020
1528 Clouds -24 1025 69 16093 2.1 200 07:47 11.03.2020
1529 Clouds -24 1025 69 16093 2.1 200 07:20 11.03.2020
1530 Clear -24 1025 75 16093 0.82 106 06:49 11.03.2020
1531 Clear -24 1025 75 16093 0.82 106 06:30 11.03.2020
1532 Clear -22 1024 76 16093 0.82 106 05:32 11.03.2020
1533 Clear -18 1021 64 16093 2.6 200 02:43 11.03.2020
1534 Clouds -17 1019 59 16093 4.1 190 01:51 11.03.2020
1535 Clouds -18 1019 59 16093 4.1 200 00:53 11.03.2020
1536 Clouds -18 1019 59 16093 4.1 200 00:32 11.03.2020
1537 Clouds -18 1018 64 16093 3.6 200 23:47 10.03.2020
1538 Clouds -18 1018 64 16093 3.6 200 23:22 10.03.2020
1539 Clouds -18 1017 64 14484 4.1 190 22:55 10.03.2020
1540 Clouds -19 1017 64 14484 4.1 190 22:36 10.03.2020
1541 Clouds -19 1017 64 14484 4.1 190 22:18 10.03.2020
1542 Snow -19 1016 70 14484 2.1 210 21:55 10.03.2020
1543 Clouds -20 1017 83 16093 3.1 220 21:37 10.03.2020
1544 Snow -20 1016 70 14484 2.1 210 21:18 10.03.2020
1545 Snow -20 1016 76 12874 2.1 240 20:42 10.03.2020
1546 Snow -20 1016 76 12874 2.1 240 20:42 10.03.2020
1547 Snow -21 1015 76 9656 2.1 210 20:19 10.03.2020
1548 Snow -21 1014 76 12874 1.5 230 19:58 10.03.2020
1549 Snow -21 1014 76 12874 1.5 230 19:40 10.03.2020
1550 Snow -21 1014 76 12874 1.5 230 19:21 10.03.2020
1551 Clouds -22 1014 70 16093 1.5 30 18:55 10.03.2020
1552 Snow -22 1013 91 16093 3.1 230 18:36 10.03.2020
1553 Snow -22 1013 91 16093 3.1 230 18:18 10.03.2020
1554 Snow -21 1013 83 11265 3.1 230 17:41 10.03.2020
1555 Snow -21 1013 83 11265 3.1 230 17:22 10.03.2020
1556 Snow -21 1012 83 16093 2.6 250 16:54 10.03.2020
1557 Clouds -21 1012 83 16093 2.6 240 16:36 10.03.2020
1558 Clouds -21 1012 83 16093 2.6 240 16:18 10.03.2020
1559 Snow -20 1010 76 14484 0.61 175 15:41 10.03.2020
1560 Snow -20 1010 76 14484 0.61 175 15:20 10.03.2020
1561 Snow -20 1009 77 14484 2.1 240 14:58 10.03.2020
1562 Snow -20 1009 77 14484 2.1 240 14:40 10.03.2020
1563 Snow -20 1009 77 14484 2.1 240 14:19 10.03.2020
1564 Snow -19 1008 77 9656 1.5 220 13:43 10.03.2020
1565 Snow -19 1008 77 9656 1.5 220 13:25 10.03.2020
1566 Snow -18 1007 77 12874 1.5 220 12:55 10.03.2020
1567 Snow -18 1007 77 12874 1.5 220 12:37 10.03.2020
1568 Snow -18 1007 77 12874 1.5 220 12:18 10.03.2020
1569 Snow -18 1007 77 12874 1.5 220 12:18 10.03.2020
1570 Snow -18 1007 77 14484 1.5 220 11:42 10.03.2020
1571 Snow -18 1007 77 14484 1.5 220 11:24 10.03.2020
1572 Snow -18 1006 84 14484 1.5 210 10:56 10.03.2020
1573 Snow -18 1006 84 14484 1.5 210 10:38 10.03.2020
1574 Snow -18 1006 84 14484 1.5 210 10:19 10.03.2020
1575 Snow -17 1006 77 11265 0.5 301 09:45 10.03.2020
1576 Snow -17 1006 77 11265 0.5 301 09:20 10.03.2020
1577 Snow -17 1005 77 14484 2.6 270 08:56 10.03.2020
1578 Snow -16 1005 71 9656 3.6 280 08:36 10.03.2020
1579 Snow -16 1005 71 9656 3.6 280 08:18 10.03.2020
1580 Snow -16 1005 77 16093 4.1 260 07:40 10.03.2020
1581 Snow -16 1005 77 16093 4.1 260 07:21 10.03.2020
1582 Clouds -16 1004 84 16093 2.6 270 06:38 10.03.2020
1583 Snow -16 1004 84 9656 1.5 270 05:42 10.03.2020
1584 Snow -15 1004 84 9656 1.5 270 05:19 10.03.2020
1585 Snow -15 1003 71 4828 2.6 260 04:30 10.03.2020
1586 Snow -14 1002 71 8047 1.5 250 02:58 10.03.2020
1587 Snow -14 1003 77 9656 1.37 254 01:33 10.03.2020
1588 Snow -14 1003 77 9656 1.5 200 00:51 10.03.2020
1589 Snow -14 1002 71 11265 2.1 170 00:28 10.03.2020
1590 Clouds -14 1003 84 11265 1.37 254 23:43 09.03.2020
1591 Clouds -14 1002 77 16093 0.89 266 23:22 09.03.2020
1592 Clouds -15 1003 77 16093 1.5 200 22:57 09.03.2020
1593 Clouds -15 1003 77 16093 1.5 200 22:38 09.03.2020
1594 Clouds -15 1002 84 12874 1.5 190 22:19 09.03.2020
1595 Snow -15 1002 71 4023 2.1 230 21:44 09.03.2020
1596 Snow -16 1002 84 9656 0.89 266 21:22 09.03.2020
1597 Clouds -16 1002 84 14484 0.89 266 20:58 09.03.2020
1598 Clouds -16 1002 84 14484 0.89 266 20:40 09.03.2020
1599 Clouds -16 1002 84 14484 0.89 266 20:40 09.03.2020
1600 Snow -16 1002 77 4828 0.89 266 20:21 09.03.2020
1601 Clouds -17 1002 84 11265 0.61 282 19:56 09.03.2020
1602 Clouds -17 1002 84 11265 0.61 282 19:38 09.03.2020
1603 Snow -17 1002 77 9656 0.61 282 19:18 09.03.2020
1604 Snow -17 1002 84 6437 0.61 282 18:55 09.03.2020
1605 Snow -17 1002 84 6437 0.61 282 18:37 09.03.2020
1606 Snow -17 1002 84 6437 0.61 282 18:18 09.03.2020
1607 Snow -17 1001 70 12874 0.61 282 17:55 09.03.2020
1608 Snow -17 1001 70 12874 0.61 282 17:55 09.03.2020
1609 Snow -17 1002 84 9656 0.61 282 17:36 09.03.2020
1610 Snow -17 1002 84 9656 0.81 290 17:18 09.03.2020
1611 Snow -17 1001 77 3219 0.81 290 16:42 09.03.2020
1612 Snow -17 1001 91 14484 0.81 290 16:22 09.03.2020
1613 Snow -17 1001 91 14484 0.81 290 15:59 09.03.2020
1614 Snow -17 1001 91 14484 0.81 290 15:40 09.03.2020
1615 Snow -16 1001 84 9656 0.81 290 15:21 09.03.2020
1616 Snow -16 1001 84 9656 0.81 290 15:21 09.03.2020
1617 Snow -16 1001 91 9656 0.81 290 14:59 09.03.2020
1618 Snow -16 1001 91 9656 0.81 290 14:38 09.03.2020
1619 Snow -16 1001 91 9656 0.83 283 14:20 09.03.2020
1620 Snow -16 1001 84 6437 0.83 283 13:58 09.03.2020
1621 Snow -15 1001 84 6437 0.83 283 13:39 09.03.2020
1622 Snow -15 1001 84 6437 0.82 284 13:20 09.03.2020
1623 Snow -15 1001 84 8047 0.82 284 12:44 09.03.2020
1624 Snow -15 1001 84 8047 0.82 284 12:24 09.03.2020
1625 Snow -15 1001 92 9656 0.82 284 11:58 09.03.2020
1626 Snow -14 1001 84 9656 0.82 284 11:40 09.03.2020
1627 Snow -14 1001 84 9656 0.97 281 11:20 09.03.2020
1628 Snow -14 1001 92 9656 0.97 281 10:55 09.03.2020
1629 Snow -14 1001 92 9656 0.97 281 10:37 09.03.2020
1630 Snow -14 1001 92 9656 0.97 281 10:18 09.03.2020
1631 Snow -13 1000 78 3219 1.5 200 09:42 09.03.2020
1632 Snow -13 1000 78 3219 1.5 200 09:23 09.03.2020
1633 Snow -13 1000 92 8047 1.5 210 08:45 09.03.2020
1634 Snow -13 1000 92 8047 1.5 200 08:27 09.03.2020
1635 Snow -12 1000 85 9656 2.1 220 07:44 09.03.2020
1636 Snow -12 1000 92 6437 2.6 210 07:23 09.03.2020
1637 Snow -11 1000 85 8047 2.1 230 06:59 09.03.2020
1638 Snow -11 1000 85 9656 2.6 220 06:39 09.03.2020
1639 Snow -11 1000 85 9656 2.6 220 06:21 09.03.2020
1640 Snow -10 1000 92 9656 1.5 240 05:41 09.03.2020
1641 Clouds -9 1000 78 16093 2.1 230 04:56 09.03.2020
1642 Snow -9 1000 85 9656 2.1 230 04:37 09.03.2020
1643 Snow -9 1000 85 9656 2.1 230 04:37 09.03.2020
1644 Snow -8 1000 85 9656 2.1 230 04:18 09.03.2020
1645 Clouds -6 999 85 16093 3.1 220 02:50 09.03.2020
1646 Clouds -5 999 67 16093 2.1 190 00:42 09.03.2020
1647 Clouds -5 999 73 16093 2.1 190 00:24 09.03.2020
1648 Clouds -6 999 67 16093 1.5 190 23:58 08.03.2020
1649 Clouds -7 1000 85 16093 1.28 260 23:29 08.03.2020
1650 Clouds -7 1000 85 14484 0.78 263 22:59 08.03.2020
1651 Clouds -8 1000 85 14484 0.78 263 22:40 08.03.2020
1652 Clouds -8 1000 85 14484 0.78 263 22:22 08.03.2020
1653 Clouds -9 1001 92 16093 0.78 263 21:59 08.03.2020
1654 Clouds -10 1001 92 16093 0.78 263 21:40 08.03.2020
1655 Clouds -10 1001 92 16093 0.78 263 21:20 08.03.2020
1656 Clouds -10 1001 84 14484 0.78 263 20:56 08.03.2020
1657 Clouds -10 1001 84 14484 0.78 263 20:37 08.03.2020
1658 Clouds -12 1001 84 14484 0.23 339 20:19 08.03.2020
1659 Snow -12 1001 84 6437 0.23 339 19:38 08.03.2020
1660 Snow -14 1001 91 9656 0.23 339 19:19 08.03.2020
1661 Snow -13 1002 84 4828 0.23 339 18:43 08.03.2020
1662 Snow -14 1002 84 4828 0.23 339 18:25 08.03.2020
1663 Snow -12 1003 84 9656 0.23 339 17:58 08.03.2020
1664 Snow -13 1003 84 9656 0.23 339 17:39 08.03.2020
1665 Snow -13 1003 84 9656 0.72 25 17:20 08.03.2020
1666 Snow -13 1003 84 9656 0.72 25 16:55 08.03.2020
1667 Snow -14 1003 84 9656 0.72 25 16:36 08.03.2020
1668 Snow -13 1003 92 12874 0.72 25 16:18 08.03.2020
1669 Clouds -13 1003 84 14484 0.72 25 15:41 08.03.2020
1670 Clouds -14 1003 91 16093 0.72 25 15:21 08.03.2020
1671 Snow -13 1003 84 9656 0.72 25 14:56 08.03.2020
1672 Snow -13 1003 84 9656 0.72 25 14:37 08.03.2020
1673 Snow -13 1003 84 9656 0.91 23 14:19 08.03.2020
1674 Snow -13 1003 84 9656 0.91 23 13:41 08.03.2020
1675 Snow -13 1003 84 9656 0.59 5 13:20 08.03.2020
1676 Snow -13 1004 84 16093 0.59 5 12:46 08.03.2020
1677 Clouds -13 1004 91 16093 0.59 5 12:28 08.03.2020
1678 Clouds -13 1004 91 16093 0.59 5 11:58 08.03.2020
1679 Clouds -13 1004 91 16093 0.59 5 11:40 08.03.2020
1680 Clouds -13 1004 92 16093 0.9 18 11:21 08.03.2020
1681 Clouds -13 1004 92 16093 0.9 18 10:42 08.03.2020
1682 Clouds -13 1004 92 16093 0.9 18 10:23 08.03.2020
1683 Clouds -13 1004 92 16093 0.9 18 09:58 08.03.2020
1684 Clear -13 1005 92 11265 0.9 18 09:37 08.03.2020
1685 Snow -12 1004 78 16093 0.9 18 09:18 08.03.2020
1686 Clouds -12 1005 85 16093 0.9 18 08:41 08.03.2020
1687 Clouds -12 1005 85 16093 0.54 348 08:20 08.03.2020
1688 Clouds -12 1006 85 16093 0.54 348 07:45 08.03.2020
1689 Clouds -12 1006 85 16093 0.54 348 07:25 08.03.2020
1690 Clouds -12 1006 78 16093 1.5 330 06:43 08.03.2020
1691 Clouds -12 1006 85 16093 1.5 320 06:23 08.03.2020
1692 Clouds -12 1007 78 16093 0.54 348 05:41 08.03.2020
1693 Clouds -11 1007 72 16093 0.36 255 03:52 08.03.2020
1694 Clouds -10 1008 66 16093 0.36 255 02:38 08.03.2020
1695 Clouds -10 1009 61 16093 1.5 360 01:34 08.03.2020
1696 Clouds -11 1010 78 16093 1.5 270 00:55 08.03.2020
1697 Clouds -10 1009 66 16093 1.5 350 00:28 08.03.2020
1698 Clouds -11 1010 78 16093 1.07 173 23:47 07.03.2020
1699 Clouds -11 1010 78 16093 1.07 173 23:24 07.03.2020
1700 Clouds -11 1010 66 16093 0.3 198 22:55 07.03.2020
1701 Snow -11 1011 78 9656 0.3 198 22:36 07.03.2020
1702 Snow -12 1011 78 9656 0.3 198 22:18 07.03.2020
1703 Clouds -12 1011 84 12874 1.5 40 21:43 07.03.2020
1704 Snow -13 1011 71 4023 0.3 198 21:19 07.03.2020
1705 Snow -14 1012 84 6437 0.3 198 20:39 07.03.2020
1706 Snow -15 1012 84 6437 0.43 62 20:20 07.03.2020
1707 Snow -15 1012 84 4828 0.43 62 19:41 07.03.2020
1708 Snow -16 1012 84 4828 0.43 62 19:22 07.03.2020
1709 Snow -16 1013 84 8047 1.5 80 18:47 07.03.2020
1710 Snow -16 1013 77 14484 0.43 62 18:29 07.03.2020
1711 Clouds -16 1013 70 16093 0.43 62 17:59 07.03.2020
1712 Clouds -17 1013 84 16093 0.43 62 17:41 07.03.2020
1713 Clouds -17 1013 84 16093 0.57 86 17:19 07.03.2020
1714 Clouds -17 1014 84 16093 0.57 86 16:56 07.03.2020
1715 Clouds -17 1014 84 16093 0.57 86 16:38 07.03.2020
1716 Clouds -16 1014 84 16093 0.57 86 16:19 07.03.2020
1717 Clouds -16 1014 77 16093 0.57 86 15:41 07.03.2020
1718 Clouds -17 1014 84 16093 0.57 86 15:22 07.03.2020
1719 Clouds -17 1014 84 16093 0.57 86 14:59 07.03.2020
1720 Clouds -17 1014 84 16093 0.57 86 14:40 07.03.2020
1721 Clouds -17 1014 84 16093 0.57 86 14:22 07.03.2020
1722 Clouds -18 1014 84 16093 0.22 174 13:42 07.03.2020
1723 Clouds -18 1014 84 16093 0.22 174 13:21 07.03.2020
1724 Mist -18 1014 83 6437 0.16 249 12:55 07.03.2020
1725 Clouds -18 1015 83 16093 0.16 249 12:37 07.03.2020
1726 Clouds -18 1015 83 16093 0.16 249 12:18 07.03.2020
1727 Clouds -19 1015 83 16093 0.16 249 11:42 07.03.2020
1728 Clouds -19 1015 83 16093 0.16 249 11:23 07.03.2020
1729 Clear -18 1015 77 16093 0.44 213 10:57 07.03.2020
1730 Clear -18 1015 77 16093 0.44 213 10:37 07.03.2020
1731 Clear -18 1015 77 16093 0.44 213 10:18 07.03.2020
1732 Clouds -17 1015 77 16093 0.44 213 09:40 07.03.2020
1733 Clouds -17 1015 77 16093 0.44 213 09:20 07.03.2020
1734 Clouds -17 1015 77 16093 0.44 213 09:20 07.03.2020
1735 Clear -17 1015 84 16093 0.44 213 08:57 07.03.2020
1736 Clear -17 1015 84 16093 0.44 213 08:39 07.03.2020
1737 Clear -17 1015 84 16093 0.59 359 08:20 07.03.2020
1738 Clear -17 1015 70 16093 0.56 349 07:46 07.03.2020
1739 Clouds -17 1015 51 0 0.56 349 07:21 07.03.2020
1740 Clouds -16 1015 57 0 0.56 349 06:42 07.03.2020
1741 Clouds -16 1018 61 0 0.89 53 06:23 07.03.2020
1742 Clouds -16 1018 78 0 0.56 349 05:40 07.03.2020
1743 Clouds -14 1014 54 16093 2.1 250 03:47 07.03.2020
1744 Clouds -13 1014 52 0 0.43 286 02:44 07.03.2020
1745 Clouds -13 1014 50 16093 1.5 10 01:56 07.03.2020
1746 Clear -14 1014 54 16093 0.2 175 00:58 07.03.2020
1747 Clear -14 1014 54 16093 0.2 175 00:24 07.03.2020
1748 Clear -16 1015 76 16093 0.2 175 23:59 06.03.2020
1749 Clear -16 1015 76 16093 0.2 175 23:40 06.03.2020
1750 Clear -18 1015 76 16093 0.74 70 23:22 06.03.2020
1751 Clear -20 1015 75 16093 0.74 70 22:46 06.03.2020
1752 Clear -22 1015 75 16093 0.74 70 22:20 06.03.2020
1753 Clear -24 1016 75 16093 0.74 70 21:47 06.03.2020
1754 Clear -25 1016 75 16093 0.74 70 21:21 06.03.2020
1755 Clear -25 1016 74 16093 0.74 70 20:45 06.03.2020
1756 Clear -29 1016 74 16093 1.17 45 20:23 06.03.2020
1757 Clouds -31 1016 74 16093 1.17 45 19:58 06.03.2020
1758 Clouds -33 1016 74 16093 1.17 45 19:40 06.03.2020
1759 Clouds -35 1016 74 16093 1.17 45 19:21 06.03.2020
1760 Clear -33 1017 66 14484 1.17 45 18:42 06.03.2020
1761 Clear -34 1017 66 14484 1.17 45 18:20 06.03.2020
1762 Clouds -36 1017 81 16093 1.17 45 17:57 06.03.2020
1763 Clear -33 1018 73 16093 1.17 45 17:39 06.03.2020
1764 Clear -33 1018 73 16093 1.17 45 17:39 06.03.2020
1765 Clear -37 1018 73 16093 1.9 33 17:20 06.03.2020
1766 Clear -37 1018 73 16093 1.9 33 16:54 06.03.2020
1767 Clear -37 1018 73 16093 1.9 33 16:36 06.03.2020
1768 Clear -37 1018 73 16093 1.9 33 16:18 06.03.2020
1769 Clear -36 1019 73 16093 1.9 33 15:42 06.03.2020
1770 Clear -36 1019 73 16093 1.9 33 15:22 06.03.2020
1771 Haze -30 1020 66 6437 1.9 33 14:41 06.03.2020
1772 Haze -30 1020 66 6437 1.9 33 14:22 06.03.2020
1773 Haze -29 1020 74 2012 1.76 37 13:55 06.03.2020
1774 Haze -30 1021 74 6437 1.76 37 13:37 06.03.2020
1775 Haze -32 1021 74 6437 1.69 35 13:18 06.03.2020
1776 Haze -32 1021 74 4828 1.69 35 12:40 06.03.2020
1777 Clear -31 1021 75 16093 1.69 35 12:21 06.03.2020
1778 Clear -31 1022 74 16093 1.69 35 11:59 06.03.2020
1779 Clear -31 1022 74 16093 1.69 35 11:41 06.03.2020
1780 Clear -31 1022 74 16093 2.31 36 11:20 06.03.2020
1781 Clear -30 1023 74 16093 2.31 36 10:56 06.03.2020
1782 Clear -30 1023 74 16093 2.31 36 10:36 06.03.2020
1783 Clear -32 1023 74 16093 2.31 36 10:18 06.03.2020
1784 Clear -28 1023 75 16093 5.1 60 09:41 06.03.2020
1785 Clear -29 1023 75 16093 5.1 60 09:23 06.03.2020
1786 Clear -29 1024 74 16093 2.31 36 08:55 06.03.2020
1787 Clear -31 1024 74 16093 2.31 36 08:36 06.03.2020
1788 Clear -31 1024 74 16093 2.06 36 08:18 06.03.2020
1789 Clear -26 1025 75 16093 2.06 36 07:41 06.03.2020
1790 Clear -27 1025 75 16093 2.06 36 07:21 06.03.2020
1791 Clear -28 1026 75 16093 2.06 36 06:42 06.03.2020
1792 Clear -27 1026 75 16093 2.06 36 06:18 06.03.2020
1793 Clear -27 1027 75 16093 2.06 36 05:37 06.03.2020
1794 Clear -25 1027 75 16093 0.47 6 05:18 06.03.2020
1795 Clear -23 1027 75 16093 0.47 6 04:35 06.03.2020
1796 Clear -20 1029 63 16093 0.74 154 01:43 06.03.2020
1797 Clear -20 1029 63 16093 0.72 142 01:25 06.03.2020
1798 Clear -21 1030 63 16093 0.72 142 00:50 06.03.2020
1799 Clear -21 1030 63 16093 0.72 142 00:30 06.03.2020
1800 Clear -23 1031 75 16093 0.72 142 23:44 05.03.2020
1801 Clear -24 1031 75 16093 0.72 142 23:25 05.03.2020
1802 Clear -24 1032 74 16093 0.73 63 22:55 05.03.2020
1803 Clear -24 1032 74 16093 0.73 63 22:37 05.03.2020
1804 Clear -26 1032 74 16093 0.73 63 22:18 05.03.2020
1805 Clouds -27 1031 61 16093 0.73 63 21:55 05.03.2020
1806 Clear -27 1033 74 16093 0.73 63 21:37 05.03.2020
1807 Clear -28 1033 74 16093 0.73 63 21:18 05.03.2020
1808 Clouds -30 1033 66 16093 0.73 63 20:42 05.03.2020
1809 Clouds -34 1032 59 16093 1.54 42 20:21 05.03.2020
1810 Mist -36 1032 59 1207 1.54 42 19:59 05.03.2020
1811 Fog -35 1033 65 16093 1.54 42 19:40 05.03.2020
1812 Fog -34 1033 65 16093 1.54 42 19:21 05.03.2020
1813 Clear -35 1033 65 16093 1.54 42 18:58 05.03.2020
1814 Clear -37 1033 65 16093 1.54 42 18:37 05.03.2020
1815 Clear -36 1033 65 16093 1.54 42 18:19 05.03.2020
1816 Fog -35 1032 52 805 1.54 42 17:57 05.03.2020
1817 Clouds -35 1034 65 16093 1.54 42 17:39 05.03.2020
1818 Clouds -39 1034 65 16093 1.81 31 17:21 05.03.2020
1819 Clear -37 1033 65 16093 1.81 31 16:42 05.03.2020
1820 Clear -38 1033 65 16093 1.81 31 16:24 05.03.2020
1821 Clear -35 1034 65 16093 1.81 31 15:58 05.03.2020
1822 Clear -36 1034 65 16093 1.81 31 15:38 05.03.2020
1823 Clear -36 1034 65 16093 1.81 31 15:20 05.03.2020
1824 Mist -37 1033 95 9656 1.81 31 14:42 05.03.2020
1825 Clear -37 1033 73 16093 1.81 31 14:23 05.03.2020
1826 Clear -36 1033 73 16093 1.53 49 13:58 05.03.2020
1827 Clear -36 1033 73 16093 1.53 49 13:40 05.03.2020
1828 Clear -37 1033 73 16093 1.53 49 13:20 05.03.2020
1829 Clear -37 1033 73 16093 1.53 48 13:20 05.03.2020
1830 Mist -35 1031 58 8047 1.53 48 12:55 05.03.2020
1831 Clear -36 1033 73 14484 1.53 48 12:37 05.03.2020
1832 Clear -37 1033 73 14484 1.53 48 12:18 05.03.2020
1833 Clear -34 1031 59 16093 1.53 48 11:56 05.03.2020
1834 Clear -35 1032 73 16093 1.53 48 11:36 05.03.2020
1835 Clear -33 1032 73 16093 1.21 52 11:18 05.03.2020
1836 Mist -31 1031 66 8047 1.21 52 10:55 05.03.2020
1837 Clouds -32 1032 73 16093 1.21 52 10:37 05.03.2020
1838 Clouds -32 1032 73 16093 1.21 52 10:19 05.03.2020
1839 Clouds -33 1031 66 16093 1.21 52 09:41 05.03.2020
1840 Clouds -33 1031 66 16093 1.21 52 09:22 05.03.2020
1841 Clear -32 1030 73 16093 1.21 52 08:43 05.03.2020
1842 Clear -34 1030 73 16093 1.21 52 08:25 05.03.2020
1843 Clear -30 1029 73 16093 0.99 61 07:46 05.03.2020
1844 Clear -29 1029 73 16093 0.99 61 07:22 05.03.2020
1845 Clear -32 1028 74 16093 0.99 61 06:48 05.03.2020
1846 Clear -32 1028 74 16093 0.99 61 06:22 05.03.2020
1847 Clouds -29 1028 82 16093 0.99 61 05:39 05.03.2020
1848 Clear -26 1027 75 16093 0.64 164 04:45 05.03.2020
1849 Clear -25 1027 75 16093 0.64 164 04:22 05.03.2020
1850 Clouds -24 1026 63 16093 0.64 164 03:19 05.03.2020
1851 Clouds -23 1024 63 16093 1.34 197 01:46 05.03.2020
1852 Clouds -23 1024 63 16093 1.41 194 01:20 05.03.2020
1853 Clouds -23 1024 69 16093 1.41 194 00:26 05.03.2020
1854 Clouds -24 1024 75 16093 1.5 180 23:42 04.03.2020
1855 Clear -24 1023 75 16093 1.41 194 23:23 04.03.2020
1856 Clear -25 1022 82 16093 1.05 175 22:58 04.03.2020
1857 Clear -25 1022 82 16093 1.05 175 22:39 04.03.2020
1858 Clear -26 1022 82 16093 1.05 175 22:19 04.03.2020
1859 Fog -26 1021 82 16093 1.05 175 21:57 04.03.2020
1860 Clear -27 1021 74 16093 1.05 175 21:39 04.03.2020
1861 Clear -27 1021 74 16093 1.05 175 21:20 04.03.2020
1862 Clouds -28 1020 67 16093 1.05 175 20:54 04.03.2020
1863 Clouds -29 1020 67 16093 1.05 175 20:36 04.03.2020
1864 Clouds -30 1020 67 16093 0.7 83 20:18 04.03.2020
1865 Clouds -31 1020 73 16093 0.7 83 19:42 04.03.2020
1866 Mist -32 1019 98 9656 0.7 83 19:23 04.03.2020
1867 Clouds -33 1018 60 16093 2.6 0 18:55 04.03.2020
1868 Clear -32 1018 73 12874 0.7 83 18:36 04.03.2020
1869 Clear -33 1018 73 12874 0.7 83 18:18 04.03.2020
1870 Clouds -33 1017 67 16093 2.6 160 17:54 04.03.2020
1871 Clear -32 1017 73 14484 0.7 83 17:36 04.03.2020
1872 Clear -32 1017 73 14484 0.69 96 17:18 04.03.2020
1873 Clear -33 1016 66 14484 1.5 70 16:42 04.03.2020
1874 Clear -33 1016 66 14484 1.5 70 16:23 04.03.2020
1875 Clouds -32 1016 73 16093 0.69 96 15:57 04.03.2020
1876 Clouds -32 1015 73 16093 0.69 96 15:39 04.03.2020
1877 Clouds -32 1015 73 16093 0.69 96 15:19 04.03.2020
1878 Clouds -32 1015 73 16093 0.69 96 15:19 04.03.2020
1879 Clouds -31 1015 73 16093 1.5 70 14:54 04.03.2020
1880 Clear -31 1014 66 12874 0.69 96 14:36 04.03.2020
1881 Clear -32 1014 66 12874 0.55 120 14:18 04.03.2020
1882 Clear -31 1013 66 16093 0.55 120 13:40 04.03.2020
1883 Clear -30 1013 66 16093 0.55 123 13:22 04.03.2020
1884 Haze -30 1013 73 4828 0.55 123 12:59 04.03.2020
1885 Haze -30 1013 73 4828 0.55 123 12:41 04.03.2020
1886 Clouds -30 1013 73 16093 0.55 123 12:23 04.03.2020
1887 Clear -29 1012 74 14484 0.55 123 11:55 04.03.2020
1888 Clear -29 1012 74 14484 0.55 123 11:55 04.03.2020
1889 Snow -28 1011 75 16093 1.5 240 11:37 04.03.2020
1890 Snow -27 1011 75 16093 1.5 240 11:19 04.03.2020
1891 Snow -27 1011 82 16093 2.1 200 10:44 04.03.2020
1892 Snow -28 1011 82 16093 2.1 200 10:25 04.03.2020
1893 Clouds -27 1010 74 14484 0.29 190 09:56 04.03.2020
1894 Snow -27 1009 75 16093 0.29 190 09:38 04.03.2020
1895 Snow -26 1009 75 16093 0.29 190 09:18 04.03.2020
1896 Snow -26 1009 74 9656 0.29 190 08:41 04.03.2020
1897 Snow -26 1009 74 11265 0.89 215 08:23 04.03.2020
1898 Snow -25 1008 76 16093 0.89 215 07:48 04.03.2020
1899 Snow -25 1008 76 16093 0.89 215 07:29 04.03.2020
1900 Clear -25 1008 75 12874 0.89 215 06:51 04.03.2020
1901 Clear -25 1008 75 12874 0.89 215 06:26 04.03.2020
1902 Clear -25 1008 75 12874 0.89 215 06:26 04.03.2020
1903 Mist -24 1007 83 9656 0.89 215 05:58 04.03.2020
1904 Snow -23 1007 69 16093 1.5 240 05:21 04.03.2020
1905 Snow -22 1006 69 16093 1.28 189 03:54 04.03.2020
1906 Snow -22 1006 69 16093 1.28 189 03:35 04.03.2020
1907 Clouds -21 1005 70 16093 1.28 189 02:58 04.03.2020
1908 Snow -21 1006 69 16093 2.1 200 02:27 04.03.2020
1909 Snow -21 1005 76 14484 1.29 212 01:56 04.03.2020
1910 Clouds -21 1005 63 16093 1.26 213 01:33 04.03.2020
1911 Snow -21 1005 70 8047 1.26 213 00:41 04.03.2020
1912 Snow -21 1005 69 16093 1.26 213 00:22 04.03.2020
1913 Snow -22 1005 76 16093 1.5 170 23:43 03.03.2020
1914 Snow -22 1005 76 16093 1.5 170 23:23 03.03.2020
1915 Clear -22 1005 75 16093 0.97 192 22:56 03.03.2020
1916 Clear -23 1005 75 16093 0.97 192 22:37 03.03.2020
1917 Clear -23 1005 75 16093 0.97 192 22:19 03.03.2020
1918 Clouds -24 1004 68 16093 0.97 192 21:43 03.03.2020
1919 Clouds -24 1005 75 16093 0.97 192 21:22 03.03.2020
1920 Clouds -25 1005 75 16093 0.97 192 20:59 03.03.2020
1921 Clouds -26 1005 75 16093 0.97 192 20:40 03.03.2020
1922 Clouds -26 1005 75 16093 0.24 116 20:19 03.03.2020
1923 Clear -27 1005 74 11265 0.24 116 19:56 03.03.2020
1924 Clear -27 1005 74 11265 0.24 116 19:56 03.03.2020
1925 Snow -27 1005 74 8047 0.27 133 19:37 03.03.2020
1926 Snow -27 1005 74 8047 0.27 133 19:37 03.03.2020
1927 Snow -27 1005 74 8047 0.27 133 19:37 03.03.2020
1928 Snow -27 1005 74 8047 0.24 116 19:18 03.03.2020
1929 Mist -27 1004 61 4828 0.24 116 18:57 03.03.2020
1930 Snow -27 1005 74 8047 0.24 116 18:38 03.03.2020
1931 Snow -29 1005 74 8047 0.27 133 18:19 03.03.2020
1932 Snow -28 1005 74 9656 0.24 116 17:55 03.03.2020
1933 Clouds -27 1005 75 16093 0.27 133 17:36 03.03.2020
1934 Clouds -27 1005 75 16093 0.71 64 17:18 03.03.2020
1935 Clouds -27 1004 82 16093 0.58 72 16:55 03.03.2020
1936 Clouds -28 1004 82 16093 0.71 64 16:36 03.03.2020
1937 Clouds -28 1004 82 16093 0.71 64 16:18 03.03.2020
1938 Clouds -28 1004 75 16093 0.71 64 15:41 03.03.2020
1939 Snow -28 1004 82 14484 0.71 64 15:21 03.03.2020
1940 Snow -28 1004 82 14484 0.71 64 15:21 03.03.2020
1941 Snow -28 1004 82 14484 0.71 64 15:21 03.03.2020
1942 Clouds -27 1004 75 14484 0.71 64 14:55 03.03.2020
1943 Clouds -27 1004 75 14484 0.71 64 14:36 03.03.2020
1944 Clouds -28 1004 75 14484 1.2 44 14:18 03.03.2020
1945 Clouds -28 1004 74 14484 0.97 55 13:42 03.03.2020
1946 Clouds -28 1004 74 14484 1.2 44 13:24 03.03.2020
1947 Clouds -29 1004 73 16093 1.2 44 12:55 03.03.2020
1948 Clouds -30 1004 73 16093 1.2 44 12:37 03.03.2020
1949 Clouds -29 1004 73 16093 1.2 44 12:18 03.03.2020
1950 Clear -29 1004 66 14484 1.2 44 11:39 03.03.2020
1951 Clear -29 1004 66 14484 1.67 34 11:20 03.03.2020
1952 Clear -28 1003 74 16093 1.67 34 10:57 03.03.2020
1953 Clear -28 1003 74 16093 1.67 34 10:39 03.03.2020
1954 Clear -28 1003 74 16093 1.67 34 10:19 03.03.2020
1955 Clear -28 1003 74 16093 1.67 34 09:59 03.03.2020
1956 Clear -29 1003 74 16093 1.67 34 09:40 03.03.2020
1957 Clear -30 1003 74 16093 1.67 34 09:19 03.03.2020
1958 Clear -29 1003 74 16093 1.67 34 08:41 03.03.2020
1959 Clear -26 1003 74 16093 1.67 34 08:22 03.03.2020
1960 Clouds -24 1002 75 16093 1.58 13 07:45 03.03.2020
1961 Clouds -24 1002 75 16093 1.58 13 07:24 03.03.2020
1962 Clear -23 1002 83 14484 1.5 240 06:58 03.03.2020
1963 Clear -24 1002 83 14484 1.5 240 06:39 03.03.2020
1964 Clear -24 1002 83 14484 1.5 240 06:18 03.03.2020
1965 Clear -22 1002 83 14484 1.58 13 05:39 03.03.2020
1966 Clouds -21 1001 83 14484 2.6 230 04:48 03.03.2020
1967 Clouds -18 1001 70 16093 4.1 230 02:37 03.03.2020
1968 Snow -18 1000 70 16093 1.43 310 01:27 03.03.2020
1969 Clouds -18 1000 70 16093 1.5 220 00:41 03.03.2020
1970 Clouds -18 1000 70 16093 1.5 220 00:22 03.03.2020
1971 Clouds -18 1000 59 16093 2.6 170 23:46 02.03.2020
1972 Clouds -18 1000 64 16093 2.1 80 23:23 02.03.2020
1973 Clouds -19 1000 64 12874 2.1 120 22:57 02.03.2020
1974 Clouds -19 1000 70 12874 2.1 260 22:38 02.03.2020
1975 Clouds -19 1000 70 12874 2.1 260 22:38 02.03.2020
1976 Clouds -19 1000 70 12874 2.1 260 22:19 02.03.2020
1977 Clouds -19 999 70 16093 1.7 307 21:55 02.03.2020
1978 Clouds -19 1000 76 16093 3.1 270 21:36 02.03.2020
1979 Clouds -20 1000 76 16093 3.1 270 21:18 02.03.2020
1980 Clouds -20 1000 76 14484 2.6 280 20:43 02.03.2020
1981 Clouds -20 999 76 14484 3.6 280 20:24 02.03.2020
1982 Snow -20 999 70 9656 1.5 280 19:59 02.03.2020
1983 Snow -20 999 83 8047 3.6 260 19:39 02.03.2020
1984 Snow -20 999 83 8047 3.6 260 19:21 02.03.2020
1985 Clouds -19 998 70 16093 1.5 280 18:56 02.03.2020
1986 Snow -20 998 84 6437 4.1 250 18:38 02.03.2020
1987 Snow -19 998 84 6437 4.1 250 18:18 02.03.2020
1988 Snow -19 997 84 8047 3.6 270 17:56 02.03.2020
1989 Clouds -20 997 76 14484 1.54 308 17:38 02.03.2020
1990 Clouds -20 997 76 14484 1.54 308 17:38 02.03.2020
1991 Clouds -19 997 76 14484 1.31 308 17:20 02.03.2020
1992 Snow -18 996 77 4828 1.31 308 16:42 02.03.2020
1993 Snow -18 996 77 4828 1.31 308 16:23 02.03.2020
1994 Snow -18 995 70 4828 3.1 190 15:57 02.03.2020
1995 Snow -17 995 84 8047 2.6 230 15:38 02.03.2020
1996 Snow -17 995 84 8047 2.6 230 15:18 02.03.2020
1997 Snow -17 994 84 6437 1.5 220 14:39 02.03.2020
1998 Snow -17 994 84 6437 1.5 220 14:19 02.03.2020
1999 Snow -17 994 84 6437 2.1 220 13:55 02.03.2020
2000 Snow -17 993 84 3219 2.1 200 13:36 02.03.2020
2001 Snow -17 993 84 3219 2.1 200 13:18 02.03.2020
2002 Snow -17 993 84 4828 1.5 210 12:41 02.03.2020
2003 Snow -17 993 84 4828 1.5 210 12:19 02.03.2020
2004 Snow -16 992 77 3219 1.5 190 11:39 02.03.2020
2005 Snow -16 992 77 3219 1.5 190 11:21 02.03.2020
2006 Snow -16 992 77 3219 1.87 1 10:58 02.03.2020
2007 Snow -16 992 84 3219 1.87 1 10:38 02.03.2020
2008 Snow -16 992 84 3219 1.87 1 10:19 02.03.2020
2009 Snow -16 992 84 3621 1.87 1 09:51 02.03.2020
2010 Snow -16 991 84 6437 2.1 210 09:31 02.03.2020
2011 Snow -16 991 91 2816 1.5 200 08:49 02.03.2020
2012 Snow -15 991 84 2816 1.88 359 08:24 02.03.2020
2013 Snow -15 990 84 4828 2.1 220 07:52 02.03.2020
2014 Snow -15 990 84 4426 2.1 230 07:33 02.03.2020
2015 Snow -15 990 77 3219 2.1 200 06:56 02.03.2020
2016 Snow -15 989 77 2414 2.37 14 06:28 02.03.2020
2017 Snow -14 989 92 4023 2.1 230 05:27 02.03.2020
2018 Snow -13 988 84 2816 3.1 230 03:59 02.03.2020
2019 Snow -13 988 84 2213 2.1 220 03:19 02.03.2020
2020 Snow -13 987 84 3017 1.5 240 02:32 02.03.2020
2021 Snow -12 987 84 4023 1.5 240 01:40 02.03.2020
2022 Snow -12 987 84 6437 1.5 230 01:22 02.03.2020
2023 Snow -11 987 84 4426 2.1 210 00:22 02.03.2020
2024 Snow -11 987 84 6437 2.1 190 23:56 01.03.2020
2025 Snow -11 987 84 4828 2.1 230 23:37 01.03.2020
2026 Snow -12 987 84 4828 2.1 230 23:18 01.03.2020
2027 Snow -12 986 77 4828 2.6 200 22:36 01.03.2020
2028 Snow -12 986 77 4828 2.6 200 22:18 01.03.2020
2029 Snow -12 986 77 2012 2.1 200 21:42 01.03.2020
2030 Snow -12 986 77 2012 2.1 200 21:24 01.03.2020
2031 Snow -13 986 92 2414 1.5 200 20:58 01.03.2020
2032 Snow -12 986 71 9656 3.1 200 20:39 01.03.2020
2033 Snow -12 986 71 9656 3.1 200 20:21 01.03.2020
2034 Snow -13 985 78 4023 3.1 190 19:42 01.03.2020
2035 Snow -13 985 78 4023 3.1 190 19:23 01.03.2020
2036 Snow -13 985 77 9656 1.4 305 18:58 01.03.2020
2037 Snow -13 985 84 9656 1.4 305 18:39 01.03.2020
2038 Snow -13 985 84 9656 1.4 305 18:19 01.03.2020
2039 Clouds -14 985 77 16093 1.4 305 17:57 01.03.2020
2040 Clouds -13 986 84 16093 1.4 305 17:38 01.03.2020
2041 Clouds -13 986 84 16093 1.29 318 17:20 01.03.2020
2042 Clouds -13 986 92 16093 1.29 318 16:55 01.03.2020
2043 Clouds -13 986 92 16093 1.29 318 16:37 01.03.2020
2044 Clouds -13 986 92 16093 1.29 318 16:18 01.03.2020
2045 Clouds -14 987 91 16093 1.29 318 15:56 01.03.2020
2046 Clouds -13 986 78 16093 1.29 318 15:37 01.03.2020
2047 Clouds -14 986 78 16093 1.29 318 15:19 01.03.2020
2048 Clouds -14 987 84 16093 1.29 318 14:55 01.03.2020
2049 Clouds -14 987 84 16093 1.29 318 14:37 01.03.2020
2050 Clouds -14 987 84 16093 1.36 358 14:18 01.03.2020
2051 Clouds -13 988 92 16093 1.36 358 13:44 01.03.2020
2052 Clouds -13 988 92 16093 1.32 340 13:21 01.03.2020
2053 Snow -12 990 92 14484 1.11 344 12:59 01.03.2020
2054 Snow -12 990 92 14484 1.11 344 12:41 01.03.2020
2055 Clouds -12 990 92 16093 1.32 340 12:21 01.03.2020
2056 Snow -14 991 92 4828 1.11 344 11:42 01.03.2020
2057 Snow -14 991 92 4828 1.32 340 11:24 01.03.2020
2058 Snow -14 991 92 4828 1.32 340 11:24 01.03.2020
2059 Snow -15 992 77 4426 1.68 28 10:57 01.03.2020
2060 Snow -15 992 65 3219 1.5 30 10:38 01.03.2020
2061 Snow -15 992 65 3219 1.5 30 10:19 01.03.2020
2062 Snow -16 992 71 9656 2.1 350 09:55 01.03.2020
2063 Clouds -16 994 71 16093 1.68 28 09:37 01.03.2020
2064 Clouds -16 994 71 16093 1.68 28 09:18 01.03.2020
2065 Clouds -17 996 70 16093 1.68 28 08:40 01.03.2020
2066 Clouds -17 996 70 16093 1.95 30 08:20 01.03.2020
2067 Clouds -17 997 76 16093 1.95 30 07:42 01.03.2020
2068 Clouds -18 997 76 16093 1.95 30 07:24 01.03.2020
2069 Clouds -18 999 76 16093 1.95 30 06:54 01.03.2020
2070 Clouds -19 999 76 16093 1.95 30 06:36 01.03.2020
2071 Clear -18 1003 76 16093 1.55 40 04:26 01.03.2020
2072 Clouds -17 1006 58 16093 1.55 40 02:54 01.03.2020
2073 Clouds -16 1008 58 16093 0.67 91 01:53 01.03.2020
2074 Clouds -16 1008 58 16093 0.67 91 01:28 01.03.2020
2075 Clear -18 1010 69 16093 0.86 71 00:43 01.03.2020
2076 Clear -18 1010 69 16093 0.86 71 00:21 01.03.2020
2077 Clear -19 1011 75 16093 0.86 71 23:51 29.02.2020
2078 Clear -20 1011 75 16093 0.86 71 23:32 29.02.2020
2079 Clear -21 1013 75 16093 0.87 65 22:44 29.02.2020
2080 Clear -22 1013 75 16093 0.87 65 22:25 29.02.2020
2081 Clear -25 1014 74 16093 0.87 65 21:44 29.02.2020
2082 Clear -26 1014 74 16093 0.87 65 21:26 29.02.2020
2083 Clear -27 1015 74 16093 0.87 65 20:44 29.02.2020
2084 Clear -28 1015 74 16093 0.93 69 20:22 29.02.2020
2085 Clear -29 1016 73 14484 1.41 43 19:58 29.02.2020
2086 Clear -34 1016 73 14484 1.41 43 19:39 29.02.2020
2087 Clear -35 1016 73 14484 1.41 43 19:21 29.02.2020
2088 Mist -32 1016 59 4023 1.41 43 18:44 29.02.2020
2089 Clear -35 1017 66 14484 1.41 43 18:25 29.02.2020
2090 Clear -31 1018 73 16093 1.41 43 17:58 29.02.2020
2091 Clear -32 1018 73 16093 1.41 43 17:40 29.02.2020
2092 Clear -33 1018 73 16093 1.41 43 17:21 29.02.2020
2093 Clear -33 1018 73 16093 1.31 49 16:56 29.02.2020
2094 Clear -33 1018 73 16093 1.31 49 16:37 29.02.2020
2095 Clear -33 1018 73 16093 1.31 49 16:18 29.02.2020
2096 Clear -31 1018 66 16093 1.31 49 15:41 29.02.2020
2097 Clear -31 1018 66 16093 1.31 49 15:23 29.02.2020
2098 Clear -34 1019 73 16093 1.31 49 14:55 29.02.2020
2099 Clear -34 1019 73 16093 1.31 49 14:37 29.02.2020
2100 Clear -34 1019 73 16093 1.66 33 14:19 29.02.2020
2101 Clear -34 1019 66 16093 1.66 33 13:42 29.02.2020
2102 Clear -34 1019 66 16093 1.66 33 13:23 29.02.2020
2103 Clear -34 1020 73 16093 1.52 32 12:43 29.02.2020
2104 Clear -34 1020 73 16093 1.52 32 12:23 29.02.2020
2105 Clear -33 1020 73 16093 1.52 32 11:58 29.02.2020
2106 Clear -33 1020 73 16093 1.52 32 11:39 29.02.2020
2107 Clear -33 1020 73 16093 1.52 32 11:21 29.02.2020
2108 Clear -32 1021 74 16093 1.03 52 10:47 29.02.2020
2109 Clear -32 1021 74 16093 1.03 52 10:28 29.02.2020
2110 Clear -32 1021 74 16093 1.03 52 09:50 29.02.2020
2111 Clear -32 1021 74 16093 1.03 52 09:27 29.02.2020
2112 Clear -31 1021 74 16093 1.03 52 08:55 29.02.2020
2113 Clear -31 1021 74 16093 1.03 52 08:37 29.02.2020
2114 Clear -31 1021 74 16093 1.33 36 08:19 29.02.2020
2115 Clear -29 1021 82 16093 1.07 42 07:41 29.02.2020
2116 Clear -30 1021 82 16093 1.07 42 07:19 29.02.2020
2117 Clear -30 1021 74 16093 1.07 42 06:50 29.02.2020
2118 Clear -30 1021 74 16093 1.07 42 06:25 29.02.2020
2119 Clear -28 1021 75 16093 1.07 42 05:48 29.02.2020
2120 Clear -25 1021 75 16093 0.1 215 04:50 29.02.2020
2121 Clear -22 1021 69 16093 0.1 215 03:43 29.02.2020
2122 Clear -22 1021 57 16093 0.1 215 03:22 29.02.2020
2123 Clear -21 1021 63 16093 0.1 215 02:39 29.02.2020
2124 Clear -21 1021 63 16093 0.1 215 02:39 29.02.2020
2125 Clear -21 1021 63 16093 0.98 189 01:26 29.02.2020
2126 Clear -21 1021 63 16093 0.98 189 00:37 29.02.2020
2127 Clear -22 1021 69 16093 0.98 189 23:56 28.02.2020
2128 Clear -22 1021 69 16093 0.98 189 23:37 28.02.2020
2129 Clear -23 1021 69 16093 0.92 183 23:19 28.02.2020
2130 Clouds -23 1021 68 16093 0.92 183 22:41 28.02.2020
2131 Clouds -24 1021 68 16093 0.92 183 22:19 28.02.2020
2132 Clear -25 1021 68 16093 0.92 183 21:41 28.02.2020
2133 Clouds -28 1021 68 16093 0.92 183 21:21 28.02.2020
2134 Clouds -28 1021 68 16093 0.92 183 21:21 28.02.2020
2135 Clouds -29 1020 82 16093 0.92 183 20:56 28.02.2020
2136 Clear -30 1020 90 16093 0.92 183 20:37 28.02.2020
2137 Clear -31 1020 90 16093 0.5 70 20:19 28.02.2020
2138 Clouds -33 1020 73 12874 0.62 60 19:56 28.02.2020
2139 Clouds -34 1020 73 12874 0.62 60 19:37 28.02.2020
2140 Clouds -36 1020 73 12874 0.62 60 19:18 28.02.2020
2141 Clear -36 1019 73 12874 0.62 60 18:44 28.02.2020
2142 Clear -35 1019 73 12874 0.62 60 18:23 28.02.2020
2143 Clear -33 1019 73 16093 0.62 60 17:41 28.02.2020
2144 Clear -33 1019 73 16093 0.62 60 17:23 28.02.2020
2145 Clear -36 1018 73 16093 0.88 48 16:56 28.02.2020
2146 Clear -36 1018 73 16093 0.88 48 16:37 28.02.2020
2147 Clear -36 1018 73 16093 0.88 48 16:18 28.02.2020
2148 Clear -35 1017 66 14484 1.5 60 15:42 28.02.2020
2149 Clear -35 1017 66 14484 1.5 60 15:20 28.02.2020
2150 Clear -34 1017 73 16093 0.88 48 14:59 28.02.2020
2151 Clear -34 1017 73 16093 0.88 48 14:41 28.02.2020
2152 Clear -34 1017 73 16093 1.02 40 14:19 28.02.2020
2153 Clear -33 1016 73 16093 1.02 40 13:57 28.02.2020
2154 Clear -33 1016 73 16093 1.02 40 13:39 28.02.2020
2155 Clear -34 1016 73 16093 0.92 42 13:19 28.02.2020
2156 Clear -34 1016 73 16093 0.92 42 12:43 28.02.2020
2157 Clear -33 1016 73 16093 0.92 42 12:24 28.02.2020
2158 Clear -32 1015 74 16093 0.92 42 11:43 28.02.2020
2159 Clear -32 1015 74 16093 0.92 42 11:24 28.02.2020
2160 Clear -32 1014 74 16093 1.3 34 10:59 28.02.2020
2161 Clear -32 1014 74 16093 1.3 34 10:41 28.02.2020
2162 Clear -32 1014 74 16093 1.3 34 10:22 28.02.2020
2163 Clear -31 1014 74 16093 1.3 34 09:47 28.02.2020
2164 Clear -30 1014 74 16093 1.3 34 09:21 28.02.2020
2165 Clear -30 1013 68 16093 1.3 34 08:57 28.02.2020
2166 Clear -30 1013 68 16093 1.3 34 08:57 28.02.2020
2167 Clear -29 1013 68 16093 1.3 34 08:37 28.02.2020
2168 Clear -29 1013 68 16093 1.63 16 08:19 28.02.2020
2169 Clear -28 1013 82 16093 1.63 16 07:40 28.02.2020
2170 Clear -28 1013 82 16093 1.63 16 07:21 28.02.2020
2171 Clear -27 1012 82 16093 1.63 16 06:45 28.02.2020
2172 Clear -27 1012 82 16093 1.63 16 06:20 28.02.2020
2173 Clear -21 1011 69 16093 1.26 324 04:45 28.02.2020
2174 Clear -21 1011 69 16093 1.26 324 04:18 28.02.2020
2175 Clear -18 1010 58 16093 2.1 250 02:46 28.02.2020
2176 Clear -18 1010 58 16093 2.1 250 02:27 28.02.2020
2177 Clear -18 1011 63 16093 1.5 230 00:59 28.02.2020
2178 Clear -17 1011 63 16093 1.5 230 00:28 28.02.2020
2179 Clear -18 1011 75 16093 0.48 281 23:42 27.02.2020
2180 Clear -21 1011 75 16093 0.59 45 23:20 27.02.2020
2181 Clear -22 1011 75 16093 0.59 45 22:46 27.02.2020
2182 Clear -22 1011 75 16093 0.59 45 22:26 27.02.2020
2183 Clear -26 1011 75 16093 0.59 45 21:58 27.02.2020
2184 Clear -25 1011 75 16093 0.59 45 21:39 27.02.2020
2185 Clear -25 1011 75 16093 0.59 45 21:19 27.02.2020
2186 Clear -24 1011 74 12874 0.59 45 20:56 27.02.2020
2187 Clear -24 1011 74 12874 0.59 45 20:38 27.02.2020
2188 Clear -31 1011 74 12874 1.64 27 20:20 27.02.2020
2189 Clear -33 1011 86 16093 1.53 27 19:54 27.02.2020
2190 Clear -33 1011 86 16093 1.53 27 19:36 27.02.2020
2191 Clear -34 1011 86 16093 1.53 27 19:18 27.02.2020
2192 Clear -34 1011 73 14484 1.53 27 18:40 27.02.2020
2193 Clear -34 1011 73 14484 1.53 27 18:21 27.02.2020
2194 Clear -34 1011 73 14484 1.53 27 17:57 27.02.2020
2195 Clear -34 1011 73 14484 1.53 27 17:57 27.02.2020
2196 Clear -34 1011 73 14484 1.53 27 17:39 27.02.2020
2197 Clear -33 1011 73 14484 1.86 30 17:19 27.02.2020
2198 Clear -34 1011 66 14484 1.86 30 16:55 27.02.2020
2199 Clear -34 1011 66 14484 1.86 30 16:37 27.02.2020
2200 Clear -33 1011 66 14484 1.86 30 16:18 27.02.2020
2201 Clear -33 1011 73 16093 1.86 30 15:54 27.02.2020
2202 Clear -33 1011 73 16093 1.86 30 15:36 27.02.2020
2203 Clear -33 1011 73 16093 1.86 30 15:18 27.02.2020
2204 Clear -33 1011 74 16093 1.86 30 14:40 27.02.2020
2205 Clear -32 1011 74 16093 1.86 30 14:22 27.02.2020
2206 Clear -32 1012 74 16093 1.91 34 13:56 27.02.2020
2207 Clear -32 1012 74 16093 1.91 34 13:38 27.02.2020
2208 Clear -32 1012 74 16093 1.91 34 13:19 27.02.2020
2209 Clear -31 1011 74 16093 1.79 34 12:45 27.02.2020
2210 Clear -31 1011 74 16093 1.79 34 12:22 27.02.2020
2211 Fog -30 1011 67 11265 1.79 34 11:47 27.02.2020
2212 Clear -30 1011 74 16093 1.79 34 11:23 27.02.2020
2213 Clear -29 1011 74 16093 1.94 31 10:58 27.02.2020
2214 Clear -29 1011 74 16093 1.94 31 10:40 27.02.2020
2215 Clear -29 1011 74 16093 1.94 31 10:20 27.02.2020
2216 Clear -28 1011 75 16093 1.94 31 09:42 27.02.2020
2217 Clear -28 1011 75 16093 1.5 50 09:23 27.02.2020
2218 Clear -28 1010 75 16093 1.94 31 08:55 27.02.2020
2219 Clear -27 1010 75 16093 1.93 33 08:37 27.02.2020
2220 Clear -27 1010 75 16093 1.97 29 08:18 27.02.2020
2221 Clear -25 1010 75 16093 1.97 29 07:41 27.02.2020
2222 Clear -25 1010 75 16093 1.97 29 07:20 27.02.2020
2223 Clear -24 1010 83 16093 1.97 29 06:21 27.02.2020
2224 Clear -19 1010 70 16093 1.5 250 04:48 27.02.2020
2225 Clear -15 1010 54 16093 1.5 270 02:58 27.02.2020
2226 Clear -15 1010 54 16093 0.33 284 01:32 27.02.2020
2227 Clear -15 1010 59 16093 0.14 327 00:41 27.02.2020
2228 Clear -16 1010 70 16093 0.14 327 23:41 26.02.2020
2229 Clear -18 1010 70 16093 0.14 327 23:23 26.02.2020
2230 Clear -19 1010 76 16093 0.76 24 22:59 26.02.2020
2231 Clear -21 1010 76 16093 0.76 24 22:41 26.02.2020
2232 Clear -22 1010 76 16093 0.76 24 22:22 26.02.2020
2233 Clear -25 1011 75 16093 0.76 24 21:59 26.02.2020
2234 Clouds -23 1010 82 16093 0.76 24 21:39 26.02.2020
2235 Clouds -22 1010 82 16093 0.76 24 21:19 26.02.2020
2236 -273 0 0 0 0 0 20:56 26.02.2020
2237 Clouds -23 1010 68 16093 0.76 24 20:38 26.02.2020
2238 Clouds -30 1010 68 16093 1.9 18 20:19 26.02.2020
2239 Clear -31 1010 73 14484 1.9 18 19:55 26.02.2020
2240 Clear -32 1010 73 14484 1.9 18 19:36 26.02.2020
2241 Clear -32 1010 73 14484 1.9 18 19:18 26.02.2020
2242 Clear -32 1010 73 12874 1.9 18 18:54 26.02.2020
2243 Clear -32 1010 73 12874 1.9 18 18:36 26.02.2020
2244 Clear -32 1010 73 12874 1.9 18 18:18 26.02.2020
2245 Clouds -31 1009 67 16093 1.5 10 17:40 26.02.2020
2246 Clouds -31 1009 67 16093 1.5 10 17:19 26.02.2020
2247 Clear -31 1010 67 16093 1.87 9 16:56 26.02.2020
2248 Clear -30 1010 67 16093 1.87 9 16:38 26.02.2020
2249 Clear -30 1010 67 16093 1.87 9 16:19 26.02.2020
2250 Clear -31 1010 74 16093 1.87 9 15:44 26.02.2020
2251 Clear -31 1010 74 16093 1.87 9 15:25 26.02.2020
2252 Clear -31 1010 74 16093 1.87 9 14:43 26.02.2020
2253 Clear -31 1010 74 16093 1.87 9 14:23 26.02.2020
2254 Clear -30 1010 82 16093 1.94 11 13:56 26.02.2020
2255 Clear -30 1010 82 16093 1.94 11 13:38 26.02.2020
2256 Clear -30 1010 82 16093 1.94 11 13:18 26.02.2020
2257 Clear -30 1010 82 16093 1.94 11 13:18 26.02.2020
2258 Clear -30 1011 82 16093 1.98 11 12:38 26.02.2020
2259 Clear -30 1011 82 16093 1.98 11 12:19 26.02.2020
2260 Clear -31 1011 74 16093 1.98 11 11:55 26.02.2020
2261 Clear -31 1011 74 16093 1.98 11 11:36 26.02.2020
2262 Clear -31 1011 74 16093 1.51 27 11:18 26.02.2020
2263 Clear -30 1012 82 16093 1.51 27 10:40 26.02.2020
2264 Clear -29 1012 82 16093 1.51 27 10:21 26.02.2020
2265 Clear -29 1012 82 16093 1.51 27 10:21 26.02.2020
2266 Clear -29 1012 74 16093 1.51 27 09:44 26.02.2020
2267 Clear -29 1012 74 16093 1.51 27 09:24 26.02.2020
2268 Clear -28 1012 74 16093 1.51 27 08:59 26.02.2020
2269 Clear -28 1012 74 16093 1.51 27 08:37 26.02.2020
2270 Clear -28 1012 74 16093 1.59 15 08:18 26.02.2020
2271 Fog -27 1012 68 8047 1.59 15 07:43 26.02.2020
2272 Clear -27 1013 75 16093 1.59 15 07:25 26.02.2020
2273 Clear -27 1013 82 16093 1.59 15 06:52 26.02.2020
2274 Clear -27 1013 82 16093 1.59 15 06:34 26.02.2020
2275 Clear -25 1013 83 16093 1.59 15 05:53 26.02.2020
2276 Clear -25 1013 83 16093 1.59 15 05:53 26.02.2020
2277 Clear -25 1013 83 16093 1.59 15 05:25 26.02.2020
2278 Clear -22 1014 70 16093 0.51 257 04:34 26.02.2020
2279 Clear -17 1015 64 16093 0.51 257 02:28 26.02.2020
2280 Clear -16 1016 64 16093 0.79 193 01:48 26.02.2020
2281 Clear -18 1017 63 16093 0.41 210 00:50 26.02.2020
2282 Clear -17 1017 63 16093 0.41 210 00:25 26.02.2020
2283 Clear -18 1018 69 16093 0.41 210 23:56 25.02.2020
2284 Clear -19 1018 69 16093 0.41 210 23:37 25.02.2020
2285 Clear -21 1018 69 16093 0.35 110 23:19 25.02.2020
2286 Clear -21 1019 83 16093 0.35 110 22:42 25.02.2020
2287 Clear -22 1019 83 16093 0.35 110 22:19 25.02.2020
2288 Clear -24 1020 82 14484 0.35 110 21:56 25.02.2020
2289 Clear -25 1020 82 14484 0.35 110 21:36 25.02.2020
2290 Clear -25 1020 82 14484 0.35 110 21:18 25.02.2020
2291 Clear -24 1021 74 14484 0.35 110 20:55 25.02.2020
2292 Clear -25 1021 74 14484 0.35 110 20:36 25.02.2020
2293 Clear -30 1021 74 14484 0.95 54 20:18 25.02.2020
2294 Clear -32 1022 74 16093 1.5 130 19:42 25.02.2020
2295 Clear -32 1022 74 16093 1.5 130 19:19 25.02.2020
2296 Clear -32 1023 74 12874 0.82 71 18:43 25.02.2020
2297 Clear -33 1023 74 12874 0.82 71 18:22 25.02.2020
2298 Clear -29 1024 74 16093 0.82 71 17:59 25.02.2020
2299 Clear -30 1024 74 16093 0.82 71 17:38 25.02.2020
2300 Clear -30 1024 74 16093 0.82 71 17:38 25.02.2020
2301 Clear -32 1024 74 16093 1.91 39 17:20 25.02.2020
2302 -273 0 0 0 0 0 16:59 25.02.2020
2303 Clear -33 1024 82 16093 1.91 39 16:40 25.02.2020
2304 Clear -33 1024 82 16093 1.91 39 16:40 25.02.2020
2305 Clear -31 1024 82 16093 1.91 39 16:22 25.02.2020
2306 Clear -30 1025 82 16093 1.91 39 15:57 25.02.2020
2307 Clear -30 1025 82 16093 1.91 39 15:38 25.02.2020
2308 Clear -30 1025 82 16093 1.91 39 15:18 25.02.2020
2309 Clear -29 1027 76 16093 1.91 39 14:57 25.02.2020
2310 Clear -28 1027 76 16093 1.91 39 14:37 25.02.2020
2311 Clear -27 1027 76 16093 2.16 40 14:18 25.02.2020
2312 Clear -25 1028 75 16093 3.1 60 13:55 25.02.2020
2313 Clear -24 1028 75 16093 3.1 60 13:37 25.02.2020
2314 Clear -26 1028 75 16093 3.1 60 13:18 25.02.2020
2315 Clear -27 1029 76 16093 2.6 60 12:41 25.02.2020
2316 Clear -27 1029 76 16093 2.6 60 12:21 25.02.2020
2317 Clear -26 1030 76 16093 3.6 70 11:57 25.02.2020
2318 Clear -26 1030 76 16093 3.6 70 11:39 25.02.2020
2319 Clear -26 1030 76 16093 3.6 70 11:19 25.02.2020
2320 Clear -24 1031 83 16093 3.6 60 10:59 25.02.2020
2321 Clear -24 1031 83 16093 3.6 60 10:40 25.02.2020
2322 Clear -25 1031 83 16093 3.6 60 10:21 25.02.2020
2323 Clear -24 1031 83 16093 3.1 60 09:41 25.02.2020
2324 Clear -24 1031 83 16093 3.1 60 09:22 25.02.2020
2325 Clear -25 1033 82 16093 2.43 37 08:47 25.02.2020
2326 Clear -27 1033 82 16093 2.37 38 08:28 25.02.2020
2327 Clear -23 1033 76 16093 2.2 33 07:58 25.02.2020
2328 Clear -23 1033 76 16093 2.2 33 07:39 25.02.2020
2329 Clear -23 1033 76 16093 2.2 33 07:18 25.02.2020
2330 Clear -24 1034 75 16093 2.2 33 06:28 25.02.2020
2331 Clear -23 1035 83 16093 2.2 33 05:27 25.02.2020
2332 Clear -19 1035 64 16093 1.47 43 03:30 25.02.2020
2333 Clouds -17 1036 70 16093 0.59 94 01:31 25.02.2020
2334 Clear -18 1037 76 16093 0.59 94 00:43 25.02.2020
2335 Clear -18 1037 76 16093 0.59 94 00:25 25.02.2020
2336 Clear -19 1038 83 16093 0.59 94 23:40 24.02.2020
2337 Clear -20 1038 83 16093 0.88 70 23:20 24.02.2020
2338 Clear -21 1038 75 16093 0.88 70 22:41 24.02.2020
2339 Clear -24 1038 75 16093 0.88 70 22:20 24.02.2020
2340 Clear -24 1038 75 12874 0.88 70 21:57 24.02.2020
2341 Clear -25 1038 75 12874 0.88 70 21:39 24.02.2020
2342 Clear -25 1038 75 12874 0.88 70 21:19 24.02.2020
2343 Haze -25 1038 74 3219 0.88 70 20:58 24.02.2020
2344 Clear -27 1038 74 14484 0.88 70 20:39 24.02.2020
2345 Clear -31 1038 74 14484 1.45 45 20:19 24.02.2020
2346 Clear -29 1037 74 12874 1.5 42 19:56 24.02.2020
2347 Clear -29 1037 74 12874 1.5 42 19:38 24.02.2020
2348 Clear -31 1037 74 12874 1.5 42 19:19 24.02.2020
2349 Clouds -32 1037 73 14484 1.5 42 18:43 24.02.2020
2350 Clouds -32 1037 73 14484 1.5 42 18:43 24.02.2020
2351 Clouds -32 1037 73 14484 1.5 42 18:24 24.02.2020
2352 Clear -30 1037 73 16093 1.5 42 17:58 24.02.2020
2353 Clear -30 1037 73 16093 1.5 42 17:39 24.02.2020
2354 Clear -30 1037 73 16093 1.57 44 17:20 24.02.2020
2355 Clear -28 1037 74 16093 1.57 44 16:58 24.02.2020
2356 Clear -29 1037 74 16093 1.57 44 16:39 24.02.2020
2357 Clear -29 1037 74 16093 1.57 44 16:20 24.02.2020
2358 Clouds -29 1036 67 16093 1.57 44 15:57 24.02.2020
2359 Clear -29 1036 74 16093 1.57 44 15:39 24.02.2020
2360 Clear -31 1036 74 16093 1.57 44 15:20 24.02.2020
2361 Clouds -29 1036 74 16093 1.57 44 14:56 24.02.2020
2362 Clouds -29 1036 74 16093 1.57 44 14:38 24.02.2020
2363 Clouds -29 1036 74 16093 1.24 52 14:18 24.02.2020
2364 Clouds -29 1036 74 16093 1.24 52 13:55 24.02.2020
2365 Clouds -30 1036 74 16093 1.24 52 13:36 24.02.2020
2366 Clouds -30 1036 74 16093 1.24 52 13:18 24.02.2020
2367 Clouds -31 1036 74 16093 1.13 58 12:42 24.02.2020
2368 Clouds -31 1036 74 16093 1.13 58 12:23 24.02.2020
2369 Clouds -31 1036 74 16093 1.13 58 12:23 24.02.2020
2370 Clear -30 1035 74 16093 1.13 58 11:51 24.02.2020
2371 Clear -30 1035 74 16093 1.13 58 11:32 24.02.2020
2372 Clear -28 1034 82 16093 1.05 70 10:59 24.02.2020
2373 Clear -29 1034 82 16093 1.05 70 10:40 24.02.2020
2374 Clear -28 1034 82 16093 1.05 70 10:22 24.02.2020
2375 Clear -28 1034 82 16093 1.05 70 09:40 24.02.2020
2376 Clear -28 1034 82 16093 1.05 70 09:19 24.02.2020
2377 Clear -28 1033 75 16093 1.05 70 08:52 24.02.2020
2378 Clear -28 1033 75 16093 1.05 70 08:29 24.02.2020
2379 Clear -24 1032 83 16093 0.75 86 07:56 24.02.2020
2380 Clear -24 1032 83 16093 0.75 86 07:33 24.02.2020
2381 Clear -24 1031 83 16093 0.75 86 06:53 24.02.2020
2382 Clear -24 1031 83 16093 0.75 86 06:26 24.02.2020
2383 Clear -22 1031 76 16093 1.5 70 05:46 24.02.2020
2384 Clear -22 1031 76 16093 1.5 70 05:25 24.02.2020
2385 Clear -19 1029 70 16093 2.1 140 02:58 24.02.2020
2386 Clear -19 1029 70 16093 2.1 140 02:31 24.02.2020
2387 Clouds -19 1029 70 16093 2.1 150 01:31 24.02.2020
2388 Clouds -19 1029 70 16093 2.1 150 01:31 24.02.2020
2389 Clouds -18 1028 70 16093 2.1 130 00:47 24.02.2020
2390 Clouds -19 1028 70 16093 2.1 130 00:21 24.02.2020
2391 Clouds -19 1028 70 16093 1.5 130 23:55 23.02.2020
2392 Clouds -19 1028 70 16093 1.5 130 23:36 23.02.2020
2393 Clouds -19 1028 70 16093 1.5 130 23:18 23.02.2020
2394 Clear -20 1028 76 16093 1.18 184 22:42 23.02.2020
2395 Clear -20 1028 76 16093 1.18 184 22:22 23.02.2020
2396 Clouds -21 1027 83 16093 1.5 160 21:55 23.02.2020
2397 Clouds -21 1027 83 16093 1.5 160 21:36 23.02.2020
2398 Clouds -21 1027 83 16093 1.5 160 21:18 23.02.2020
2399 Clear -22 1027 75 16093 1.18 184 20:55 23.02.2020
2400 Clear -22 1027 75 16093 1.18 184 20:37 23.02.2020
2401 Clear -23 1027 75 16093 1.08 170 20:18 23.02.2020
2402 Clouds -23 1026 83 16093 0.97 163 19:41 23.02.2020
2403 Clouds -24 1026 83 16093 0.97 163 19:20 23.02.2020
2404 Clear -23 1026 75 16093 0.97 163 18:59 23.02.2020
2405 Clear -23 1026 75 16093 0.97 163 18:40 23.02.2020
2406 Clear -23 1026 75 16093 0.97 163 18:20 23.02.2020
2407 Clouds -23 1025 83 14484 0.97 163 17:58 23.02.2020
2408 Snow -23 1025 83 14484 0.97 163 17:40 23.02.2020
2409 Snow -23 1025 83 14484 1.05 172 17:21 23.02.2020
2410 Clouds -22 1025 83 16093 1.05 172 16:56 23.02.2020
2411 Snow -22 1024 83 8047 1.5 200 16:37 23.02.2020
2412 Snow -21 1024 83 8047 1.5 200 16:18 23.02.2020
2413 Snow -21 1023 83 8047 1.5 190 15:54 23.02.2020
2414 Snow -21 1023 83 8047 1.5 190 15:36 23.02.2020
2415 Snow -21 1023 83 8047 1.5 190 15:18 23.02.2020
2416 Snow -21 1023 76 16093 1.5 210 14:41 23.02.2020
2417 Snow -21 1023 83 11265 2.1 210 14:23 23.02.2020
2418 Clouds -21 1022 76 14484 2.1 210 13:59 23.02.2020
2419 Clouds -21 1022 76 14484 2.1 210 13:41 23.02.2020
2420 Clouds -21 1022 76 16093 2.6 220 13:22 23.02.2020
2421 Clouds -21 1022 76 16093 2.6 220 13:22 23.02.2020
2422 Clouds -21 1022 76 16093 3.1 250 12:59 23.02.2020
2423 Clouds -21 1022 76 16093 3.1 250 12:38 23.02.2020
2424 Clouds -21 1022 76 16093 3.1 250 12:19 23.02.2020
2425 Clear -20 1021 76 16093 4.1 250 11:38 23.02.2020
2426 Clear -20 1021 76 16093 4.1 250 11:20 23.02.2020
2427 Clouds -19 1020 70 16093 4.1 250 10:56 23.02.2020
2428 Clouds -19 1020 70 16093 4.1 250 10:38 23.02.2020
2429 Clouds -19 1020 70 16093 4.1 250 10:20 23.02.2020
2430 Snow -18 1019 77 16093 4.1 260 09:56 23.02.2020
2431 Clouds -18 1019 70 16093 3.6 250 09:37 23.02.2020
2432 Clouds -18 1019 70 16093 3.6 250 09:18 23.02.2020
2433 Clouds -17 1018 71 16093 3.6 250 08:43 23.02.2020
2434 Clouds -17 1018 71 16093 3.6 250 08:24 23.02.2020
2435 Snow -16 1017 77 9656 2.1 280 07:43 23.02.2020
2436 Clouds -16 1016 71 16093 4.6 250 07:25 23.02.2020
2437 Clouds -15 1015 65 16093 5.7 260 06:20 23.02.2020
2438 Clouds -15 1013 71 16093 5.7 250 04:51 23.02.2020
2439 Clouds -14 1012 71 16093 5.7 240 03:52 23.02.2020
2440 Clouds -14 1011 71 16093 4.6 240 02:38 23.02.2020
2441 Clouds -13 1010 78 16093 5.7 220 01:27 23.02.2020
2442 Clouds -13 1010 78 16093 5.7 220 01:27 23.02.2020
2443 Clouds -12 1009 72 16093 5.1 220 00:58 23.02.2020
2444 Clouds -12 1009 72 16093 5.1 220 00:37 23.02.2020
2445 Clouds -12 1009 72 16093 5.1 220 00:18 23.02.2020
2446 Clouds -12 1008 78 16093 2.6 210 23:42 22.02.2020
2447 Clouds -12 1008 78 16093 2.6 210 23:20 22.02.2020
2448 Clouds -12 1008 78 16093 2.6 230 22:44 22.02.2020
2449 Clouds -12 1007 84 16093 4.6 230 22:19 22.02.2020
2450 Clouds -12 1006 84 16093 3.6 220 21:43 22.02.2020
2451 Clouds -13 1006 84 16093 3.6 220 21:24 22.02.2020
2452 Clouds -13 1006 84 16093 2.1 220 20:57 22.02.2020
2453 Snow -13 1005 84 8047 1.2 179 20:38 22.02.2020
2454 Snow -13 1005 84 8047 1.2 179 20:38 22.02.2020
2455 Snow -13 1005 84 8047 1.03 167 20:20 22.02.2020
2456 Snow -13 1004 92 9656 1.5 250 19:42 22.02.2020
2457 Snow -13 1004 92 9656 1.5 250 19:23 22.02.2020
2458 Snow -13 1003 84 14484 1.03 167 18:54 22.02.2020
2459 Snow -13 1003 84 14484 1.03 167 18:36 22.02.2020
2460 Snow -13 1003 84 14484 1.03 167 18:18 22.02.2020
2461 Clouds -13 1003 84 16093 1.03 167 17:43 22.02.2020
2462 Clouds -13 1002 84 16093 1.03 167 17:25 22.02.2020
2463 Clouds -13 1001 78 16093 0.74 170 16:59 22.02.2020
2464 Clouds -13 1001 84 16093 0.74 170 16:40 22.02.2020
2465 Clouds -13 1001 84 16093 0.74 170 16:20 22.02.2020
2466 Snow -12 1001 92 16093 0.74 170 15:46 22.02.2020
2467 Clouds -13 1001 92 16093 0.74 170 15:27 22.02.2020
2468 Clouds -12 999 92 16093 0.74 170 14:59 22.02.2020
2469 Clouds -12 999 92 16093 0.74 170 14:40 22.02.2020
2470 Clouds -12 999 92 16093 0.74 170 14:40 22.02.2020
2471 Clouds -12 999 92 16093 0.82 169 14:20 22.02.2020
2472 Clouds -13 998 92 16093 0.82 169 13:43 22.02.2020
2473 Clouds -13 998 92 16093 0.82 169 13:20 22.02.2020
2474 Clouds -13 998 84 16093 0.8 162 12:58 22.02.2020
2475 Clouds -13 997 91 16093 0.8 162 12:39 22.02.2020
2476 Clouds -13 997 91 16093 0.8 162 12:20 22.02.2020
2477 Snow -13 996 84 14484 0.8 162 11:42 22.02.2020
2478 Snow -13 996 84 14484 0.8 149 11:24 22.02.2020
2479 Snow -13 995 84 14484 0.8 149 10:55 22.02.2020
2480 Snow -13 995 92 9656 0.8 149 10:36 22.02.2020
2481 Snow -13 995 92 9656 0.8 149 10:18 22.02.2020
2482 Snow -13 995 92 9656 0.8 149 10:18 22.02.2020
2483 Snow -12 995 85 4828 0.8 149 09:42 22.02.2020
2484 Snow -12 995 92 4828 0.8 149 09:22 22.02.2020
2485 Snow -12 994 92 11265 0.8 149 08:57 22.02.2020
2486 Snow -12 993 84 14484 0.8 149 08:29 22.02.2020
2487 Snow -12 992 78 8047 0.49 164 07:59 22.02.2020
2488 Clouds -11 992 78 16093 0.49 164 07:39 22.02.2020
2489 Clouds -11 992 78 16093 0.49 164 07:18 22.02.2020
2490 Clouds -11 992 92 16093 2.1 50 06:43 22.02.2020
2491 Clouds -12 991 84 16093 0.73 179 04:45 22.02.2020
2492 Clouds -12 991 84 16093 0.73 179 04:25 22.02.2020
2493 Clear -10 990 78 16093 0.73 179 02:42 22.02.2020
2494 Clouds -10 989 85 16093 1.14 192 01:49 22.02.2020
2495 Clouds -10 989 85 16093 1.14 192 01:29 22.02.2020
2496 Clouds -9 988 78 16093 0.95 185 00:49 22.02.2020
2497 Clouds -9 988 78 16093 0.95 185 00:31 22.02.2020
2498 Clouds -10 988 92 16093 0.95 185 23:53 21.02.2020
2499 Clouds -10 988 92 16093 0.95 185 23:26 21.02.2020
2500 Snow -10 987 78 4828 1.5 120 22:59 21.02.2020
2501 Snow -10 987 92 16093 1.5 80 22:41 21.02.2020
2502 Snow -10 987 92 16093 1.5 80 22:23 21.02.2020
2503 Snow -11 986 78 4828 2.1 110 21:55 21.02.2020
2504 Snow -11 986 92 11265 0.84 173 21:37 21.02.2020
2505 Snow -11 986 92 11265 0.84 173 21:19 21.02.2020
2506 Snow -12 985 92 9656 1.5 80 20:41 21.02.2020
2507 Snow -12 985 92 9656 1.5 80 20:23 21.02.2020
2508 Snow -13 984 78 16093 0.88 161 19:40 21.02.2020
2509 Clouds -14 985 84 16093 0.88 161 19:20 21.02.2020
2510 Clouds -13 983 78 16093 1.5 30 18:43 21.02.2020
2511 Clouds -13 983 78 16093 1.5 30 18:23 21.02.2020
2512 Clear -14 983 91 16093 0.88 161 17:57 21.02.2020
2513 Clear -14 983 91 16093 0.88 161 17:37 21.02.2020
2514 Clear -14 983 91 16093 0.7 132 17:19 21.02.2020
2515 Clear -14 982 92 16093 0.7 132 16:54 21.02.2020
2516 Clouds -13 982 78 16093 0.7 132 16:36 21.02.2020
2517 Clear -13 982 92 16093 0.7 132 16:18 21.02.2020
2518 Clear -12 982 92 16093 0.7 132 15:39 21.02.2020
2519 Clear -13 982 92 16093 0.7 132 15:19 21.02.2020
2520 Clouds -12 981 92 16093 0.7 132 14:43 21.02.2020
2521 Clouds -12 981 92 16093 0.76 114 14:22 21.02.2020
2522 Clear -13 980 92 16093 0.76 114 13:59 21.02.2020
2523 Clear -13 980 92 16093 0.76 114 13:40 21.02.2020
2524 Clear -12 980 92 16093 0.76 114 13:20 21.02.2020
2525 Clear -12 979 92 16093 0.51 147 12:45 21.02.2020
2526 Clear -12 979 92 16093 0.51 147 12:27 21.02.2020
2527 Clouds -11 979 92 16093 0.51 147 11:57 21.02.2020
2528 Clouds -11 979 92 16093 0.51 147 11:38 21.02.2020
2529 Clouds -11 979 92 16093 0.99 51 11:19 21.02.2020
2530 Clouds -10 978 92 16093 0.99 51 10:42 21.02.2020
2531 Clouds -10 978 92 16093 0.99 51 10:22 21.02.2020
2532 Clear -11 978 92 16093 0.99 51 09:58 21.02.2020
2533 Clear -11 978 92 16093 0.99 51 09:39 21.02.2020
2534 Clear -11 978 92 16093 0.99 51 09:20 21.02.2020
2535 Clouds -11 977 92 16093 0.99 51 08:56 21.02.2020
2536 Clouds -11 977 92 16093 0.99 51 08:36 21.02.2020
2537 Clouds -11 977 92 16093 1.81 9 08:18 21.02.2020
2538 Clouds -10 976 85 16093 1.5 40 07:42 21.02.2020
2539 Clouds -10 976 85 16093 1.5 40 07:21 21.02.2020
2540 Clouds -10 977 100 14484 1.82 16 06:56 21.02.2020
2541 Clouds -10 977 100 14484 1.82 16 06:33 21.02.2020
2542 Clouds -10 977 85 16093 1.82 16 05:56 21.02.2020
2543 Clouds -8 977 85 16093 1.82 16 05:30 21.02.2020
2544 Clouds -8 977 85 16093 1.82 16 05:30 21.02.2020
2545 Clouds -7 977 85 14484 2.24 23 04:26 21.02.2020
2546 Clear -5 977 63 14484 1.5 180 03:47 21.02.2020
2547 Clouds -2 977 84 12874 2.6 50 02:59 21.02.2020
2548 Clouds -2 978 73 16093 2.1 20 01:34 21.02.2020
2549 Clouds -2 978 58 12874 3.6 70 00:54 21.02.2020
2550 Clouds -2 978 58 12874 3.6 70 00:36 21.02.2020
2551 Clouds -1 978 58 12874 3.6 70 00:18 21.02.2020
2552 Clouds -1 979 58 14484 3.1 60 23:41 20.02.2020
2553 Clouds -1 979 58 14484 3.1 60 23:22 20.02.2020
2554 Clouds -5 980 73 14484 4.1 60 22:42 20.02.2020
2555 Clouds -5 980 73 14484 4.1 60 22:23 20.02.2020
2556 Clouds -5 981 68 14484 3.6 60 21:58 20.02.2020
2557 Clouds -5 981 68 14484 3.6 60 21:39 20.02.2020
2558 Clouds -5 981 68 14484 3.6 60 21:20 20.02.2020
2559 Clouds -6 982 79 16093 3.6 60 20:57 20.02.2020
2560 Clouds -6 982 79 16093 3.6 60 20:39 20.02.2020
2561 Clouds -7 982 79 16093 3.6 60 20:39 20.02.2020
2562 Clouds -8 982 79 16093 3.6 60 20:20 20.02.2020
2563 Clouds -9 983 92 16093 5.1 70 19:59 20.02.2020
2564 Clouds -9 983 92 16093 5.1 70 19:41 20.02.2020
2565 Clouds -10 983 92 16093 5.1 70 19:23 20.02.2020
2566 Clouds -12 984 100 16093 3.1 80 18:55 20.02.2020
2567 Clouds -12 984 100 16093 3.1 80 18:37 20.02.2020
2568 Clouds -12 984 100 16093 3.1 80 18:18 20.02.2020
2569 Clouds -11 986 92 16093 1.5 80 17:39 20.02.2020
2570 Clouds -12 986 92 16093 1.5 80 17:20 20.02.2020
2571 Clouds -13 987 84 16093 2.3 39 16:58 20.02.2020
2572 Clouds -13 987 84 16093 2.3 39 16:39 20.02.2020
2573 Clouds -14 987 84 16093 2.3 39 16:19 20.02.2020
2574 Clouds -15 988 84 16093 2.3 39 15:56 20.02.2020
2575 Clouds -14 988 84 16093 2.3 39 15:37 20.02.2020
2576 Clouds -14 988 84 16093 2.3 39 15:19 20.02.2020
2577 Clear -14 989 84 16093 2.3 39 14:43 20.02.2020
2578 Clear -14 989 84 16093 2.3 39 14:25 20.02.2020
2579 Clear -14 990 84 16093 2.29 41 13:58 20.02.2020
2580 Clear -14 990 84 16093 2.29 41 13:40 20.02.2020
2581 Clear -14 990 84 16093 2.23 40 13:19 20.02.2020
2582 Clear -12 991 92 16093 2.23 40 12:43 20.02.2020
2583 Clear -12 991 92 16093 2.23 40 12:21 20.02.2020
2584 Clear -13 992 84 16093 2.23 40 11:59 20.02.2020
2585 Clear -13 992 84 16093 2.23 40 11:41 20.02.2020
2586 Clear -13 992 84 16093 2.23 40 11:41 20.02.2020
2587 Clear -14 992 84 16093 1.48 51 11:22 20.02.2020
2588 Clear -14 992 92 16093 1.48 51 10:56 20.02.2020
2589 Clear -14 992 92 16093 1.48 51 10:38 20.02.2020
2590 Clear -13 992 92 16093 1.48 51 10:19 20.02.2020
2591 Clear -13 992 92 16093 1.48 51 09:39 20.02.2020
2592 Clear -12 992 92 16093 1.48 51 09:21 20.02.2020
2593 Clouds -11 992 85 16093 1.5 350 08:44 20.02.2020
2594 Clouds -11 993 92 16093 1.48 51 08:25 20.02.2020
2595 Clouds -10 993 92 16093 1.37 42 07:56 20.02.2020
2596 Snow -10 993 92 14484 1.37 42 07:38 20.02.2020
2597 Snow -10 993 92 14484 1.37 42 07:19 20.02.2020
2598 Clouds -9 994 85 16093 1.5 110 06:43 20.02.2020
2599 Clouds -9 994 85 16093 1.5 110 06:20 20.02.2020
2600 Snow -9 993 78 9656 1.5 340 05:42 20.02.2020
2601 Snow -9 994 85 6437 0.95 146 04:50 20.02.2020
2602 Clouds -9 995 85 16093 2.6 60 03:47 20.02.2020
2603 Clouds -9 994 78 16093 0.95 146 02:59 20.02.2020
2604 Clouds -9 994 72 16093 2.6 80 01:34 20.02.2020
2605 Clouds -9 994 78 16093 1.36 155 00:54 20.02.2020
2606 Clouds -9 994 78 16093 1.36 155 00:25 20.02.2020
2607 Clouds -9 993 85 16093 1.36 155 23:48 19.02.2020
2608 Clouds -9 993 85 16093 1.48 171 23:21 19.02.2020
2609 Snow -10 993 85 14484 1.48 171 22:44 19.02.2020
2610 Clouds -10 993 85 16093 1.48 171 22:25 19.02.2020
2611 Clouds -10 992 92 14484 2.1 190 21:59 19.02.2020
2612 Snow -10 992 92 12874 2.6 190 21:40 19.02.2020
2613 Snow -10 992 92 12874 2.6 190 21:19 19.02.2020
2614 Snow -9 992 85 4023 2.6 190 20:58 19.02.2020
2615 Clouds -9 991 78 16093 1.48 171 20:39 19.02.2020
2616 Clouds -9 991 78 16093 1.03 239 20:20 19.02.2020
2617 Clouds -9 991 78 16093 1.03 239 20:20 19.02.2020
2618 Rain -8 990 67 16093 2.1 210 19:58 19.02.2020
2619 Rain -8 990 67 16093 2.1 210 19:38 19.02.2020
2620 Rain -7 990 67 16093 2.1 210 19:19 19.02.2020
2621 Clouds -7 989 79 16093 3.1 280 18:58 19.02.2020
2622 Clouds -7 989 79 16093 3.1 280 18:39 19.02.2020
2623 Clouds -7 989 79 16093 3.1 280 18:21 19.02.2020
2624 Clouds -7 989 79 16093 2.1 280 17:55 19.02.2020
2625 Clouds -7 989 79 16093 2.1 280 17:37 19.02.2020
2626 Clouds -7 989 79 16093 2.1 280 17:18 19.02.2020
2627 Clouds -7 989 73 16093 4.1 280 16:41 19.02.2020
2628 Clouds -7 989 73 16093 4.1 280 16:18 19.02.2020
2629 Clouds -7 989 73 16093 4.6 280 15:54 19.02.2020
2630 Clouds -6 989 73 16093 4.6 280 15:36 19.02.2020
2631 Clouds -6 989 73 16093 4.6 280 15:36 19.02.2020
2632 Clouds -6 989 73 16093 4.6 280 15:18 19.02.2020
2633 Clouds -7 990 85 16093 3.1 290 14:40 19.02.2020
2634 Clouds -7 990 85 16093 3.1 290 14:22 19.02.2020
2635 Clouds -6 990 79 16093 2.6 270 13:42 19.02.2020
2636 Clouds -6 990 79 16093 2.6 270 13:23 19.02.2020
2637 Clouds -7 991 92 16093 0.59 323 12:58 19.02.2020
2638 Clouds -7 991 92 16093 0.59 323 12:37 19.02.2020
2639 Clouds -7 991 92 16093 0.59 323 12:18 19.02.2020
2640 Clouds -8 992 92 16093 1.5 250 11:39 19.02.2020
2641 Clouds -7 992 92 16093 1.5 250 11:20 19.02.2020
2642 Clouds -7 993 92 16093 0.97 85 10:59 19.02.2020
2643 Clouds -7 993 92 16093 0.97 85 10:38 19.02.2020
2644 Clouds -7 993 92 16093 0.97 85 10:20 19.02.2020
2645 Clouds -8 994 92 16093 0.97 85 09:59 19.02.2020
2646 Clouds -7 994 92 16093 0.97 85 09:39 19.02.2020
2647 Clouds -7 994 92 16093 0.97 85 09:39 19.02.2020
2648 Clouds -7 994 92 16093 0.97 85 09:19 19.02.2020
2649 Clouds -8 995 85 16093 0.97 85 08:48 19.02.2020
2650 Clouds -8 995 85 16093 0.97 85 08:24 19.02.2020
2651 Clouds -8 996 78 16093 1.26 81 07:57 19.02.2020
2652 Clouds -8 996 78 16093 1.26 81 07:38 19.02.2020
2653 Clouds -8 996 78 16093 1.26 81 07:18 19.02.2020
2654 Clouds -8 997 85 16093 1.26 81 06:42 19.02.2020
2655 Clear -8 998 85 16093 1.26 81 05:26 19.02.2020
2656 Clouds -8 999 85 16093 1.17 60 03:52 19.02.2020
2657 Clouds -8 1000 85 16093 1.17 60 02:36 19.02.2020
2658 Clear -7 1001 85 16093 0.48 95 01:41 19.02.2020
2659 Clear -7 1001 85 16093 0.48 95 01:22 19.02.2020
2660 Clear -6 1001 85 16093 0.73 50 00:39 19.02.2020
2661 Clear -6 1001 85 16093 0.73 50 00:19 19.02.2020
2662 Clear -6 1002 78 16093 0.73 50 23:40 18.02.2020
2663 Clear -7 1002 78 16093 1.13 181 23:20 18.02.2020
2664 Clear -7 1002 85 16093 1.13 181 22:55 18.02.2020
2665 Clear -7 1002 85 16093 1.13 181 22:37 18.02.2020
2666 Clear -7 1002 85 16093 1.13 181 22:19 18.02.2020
2667 Clear -7 1002 85 16093 1.13 181 22:19 18.02.2020
2668 Clear -5 1001 62 16093 1.13 181 21:54 18.02.2020
2669 Clear -5 1001 62 16093 1.13 181 21:36 18.02.2020
2670 Clear -5 1001 62 16093 1.13 181 21:18 18.02.2020
2671 Clear -5 1001 85 16093 1.13 181 20:54 18.02.2020
2672 Clear -5 1001 85 16093 1.13 181 20:36 18.02.2020
2673 Clear -6 1001 85 16093 0.27 23 20:18 18.02.2020
2674 Clouds -3 999 82 16093 8.2 150 19:42 18.02.2020
2675 Clear -4 999 79 16093 2.6 70 19:19 18.02.2020
2676 Clouds -3 999 68 16093 4.1 90 18:57 18.02.2020
2677 Clouds -3 999 68 16093 4.1 90 18:39 18.02.2020
2678 Clouds -4 999 68 16093 4.1 90 18:18 18.02.2020
2679 Clear -4 999 68 16093 4.1 50 17:41 18.02.2020
2680 Clear -5 999 68 16093 4.1 50 17:20 18.02.2020
2681 Clear -5 999 68 16093 4.1 50 17:19 18.02.2020
2682 Clouds -5 999 83 16093 5.7 90 16:40 18.02.2020
2683 Clouds -5 999 83 16093 5.7 90 16:22 18.02.2020
2684 Clouds -7 1000 63 16093 6.2 100 15:56 18.02.2020
2685 Clouds -6 1000 63 16093 6.2 100 15:37 18.02.2020
2686 Clouds -6 1000 63 16093 6.2 100 15:18 18.02.2020
2687 Clouds -9 999 83 16093 5.7 70 14:56 18.02.2020
2688 Clouds -10 1000 92 16093 3.1 50 14:37 18.02.2020
2689 Clouds -11 1000 92 16093 3.1 50 14:19 18.02.2020
2690 Clear -14 1000 84 16093 1.99 55 13:41 18.02.2020
2691 Clear -14 1000 84 16093 1.99 55 13:21 18.02.2020
2692 Clouds -12 1000 78 16093 6.2 70 12:54 18.02.2020
2693 Clouds -12 1000 78 16093 6.2 70 12:54 18.02.2020
2694 Clouds -13 1001 84 16093 2.6 300 12:36 18.02.2020
2695 Clouds -13 1001 84 16093 2.6 300 12:18 18.02.2020
2696 Clouds -14 1002 92 16093 3.1 120 11:42 18.02.2020
2697 Clouds -14 1002 92 16093 3.1 120 11:24 18.02.2020
2698 Clouds -15 1002 84 16093 2.71 42 10:55 18.02.2020
2699 Clouds -15 1002 84 16093 2.71 42 10:36 18.02.2020
2700 Clouds -15 1002 84 16093 2.71 42 10:18 18.02.2020
2701 Clouds -16 1003 84 16093 2.71 42 09:55 18.02.2020
2702 Clouds -16 1003 84 16093 2.71 42 09:36 18.02.2020
2703 Clouds -16 1003 84 16093 2.71 42 09:18 18.02.2020
2704 Clouds -16 1004 84 16093 2.71 42 08:41 18.02.2020
2705 Clouds -16 1004 84 16093 1.15 26 08:20 18.02.2020
2706 Clouds -13 1004 84 16093 1.15 26 07:56 18.02.2020
2707 Clouds -13 1004 84 16093 1.15 26 07:30 18.02.2020
2708 Clouds -13 1005 84 16093 1.15 26 06:56 18.02.2020
2709 Clouds -13 1005 84 16093 1.15 26 06:36 18.02.2020
2710 Clouds -13 1005 84 16093 1.15 26 05:56 18.02.2020
2711 Clouds -14 1005 84 16093 1.15 26 05:27 18.02.2020
2712 Clouds -14 1006 77 16093 0.83 100 03:58 18.02.2020
2713 Clouds -14 1007 84 16093 0.83 100 02:59 18.02.2020
2714 Clouds -14 1008 77 16093 1.17 65 01:58 18.02.2020
2715 Clouds -15 1008 84 16093 0.88 91 00:46 18.02.2020
2716 Clouds -16 1008 84 16093 0.88 91 00:22 18.02.2020
2717 Clear -17 1009 77 16093 0.88 91 23:45 17.02.2020
2718 Clear -18 1009 77 16093 0.88 91 23:26 17.02.2020
2719 Clouds -20 1009 76 16093 1.39 51 22:59 17.02.2020
2720 Clouds -20 1009 76 16093 1.39 51 22:41 17.02.2020
2721 Clouds -19 1009 76 16093 1.39 51 22:20 17.02.2020
2722 Clouds -21 1010 83 16093 1.39 51 21:58 17.02.2020
2723 Clouds -21 1010 83 16093 1.39 51 21:38 17.02.2020
2724 Clouds -22 1010 83 16093 1.39 51 21:18 17.02.2020
2725 Clear -22 1011 75 16093 1.39 51 20:41 17.02.2020
2726 Clear -24 1011 75 16093 1.32 39 20:21 17.02.2020
2727 Clear -24 1011 75 16093 1.32 39 19:58 17.02.2020
2728 Clear -25 1011 75 16093 1.32 39 19:38 17.02.2020
2729 Clear -25 1011 75 16093 1.32 39 19:20 17.02.2020
2730 Clear -25 1012 82 16093 1.32 39 18:38 17.02.2020
2731 Clear -25 1012 82 16093 1.32 39 18:19 17.02.2020
2732 Clear -24 1013 75 16093 1.32 39 17:58 17.02.2020
2733 Clear -24 1013 75 16093 1.32 39 17:37 17.02.2020
2734 Clear -24 1013 75 16093 0.62 64 17:19 17.02.2020
2735 Clear -25 1014 82 16093 0.62 64 16:55 17.02.2020
2736 Clear -25 1014 82 16093 0.62 64 16:37 17.02.2020
2737 Clear -25 1014 82 16093 0.62 64 16:18 17.02.2020
2738 Clear -23 1014 75 16093 0.62 64 15:44 17.02.2020
2739 Clear -23 1014 75 16093 0.62 64 15:44 17.02.2020
2740 Clear -23 1014 75 16093 0.62 64 15:26 17.02.2020
2741 Clear -25 1015 82 16093 0.62 64 14:55 17.02.2020
2742 Clear -25 1015 82 16093 0.62 64 14:37 17.02.2020
2743 Clear -25 1015 82 16093 1.33 47 14:19 17.02.2020
2744 Clear -25 1015 82 16093 1.33 47 14:19 17.02.2020
2745 Clear -25 1015 75 16093 1.33 47 13:40 17.02.2020
2746 Clear -26 1015 75 16093 1.33 47 13:20 17.02.2020
2747 Clouds -26 1016 91 16093 1.36 45 12:56 17.02.2020
2748 Clouds -26 1016 91 16093 1.36 45 12:38 17.02.2020
2749 Clouds -26 1016 91 16093 1.36 45 12:19 17.02.2020
2750 Clear -23 1016 83 16093 1.36 45 11:45 17.02.2020
2751 Clear -24 1016 83 16093 1.36 45 11:26 17.02.2020
2752 Clouds -23 1016 76 16093 1.72 40 10:57 17.02.2020
2753 Clouds -22 1016 76 16093 1.72 40 10:39 17.02.2020
2754 Clouds -22 1016 76 16093 1.72 40 10:20 17.02.2020
2755 Clouds -20 1016 76 16093 1.72 40 09:56 17.02.2020
2756 Clouds -20 1016 76 16093 1.72 40 09:38 17.02.2020
2757 Clouds -20 1016 76 16093 1.72 40 09:18 17.02.2020
2758 Clouds -20 1017 70 16093 1.72 40 08:42 17.02.2020
2759 Clouds -20 1017 70 16093 1.69 40 08:23 17.02.2020
2760 Clouds -20 1017 70 16093 1.69 40 08:23 17.02.2020
2761 Snow -21 1017 76 16093 1.4 34 07:59 17.02.2020
2762 Snow -20 1017 70 16093 1.4 34 07:28 17.02.2020
2763 Clouds -20 1017 70 16093 1.4 34 06:58 17.02.2020
2764 Clouds -20 1017 70 16093 1.4 34 06:39 17.02.2020
2765 Clouds -20 1017 70 16093 1.4 34 06:19 17.02.2020
2766 Clouds -21 1018 76 16093 1.5 290 05:40 17.02.2020
2767 Clouds -21 1018 76 16093 0.69 39 04:25 17.02.2020
2768 Clouds -22 1018 69 16093 0.69 39 02:49 17.02.2020
2769 Clouds -22 1018 69 16093 0.16 125 01:22 17.02.2020
2770 Clouds -23 1018 69 16093 0.26 137 00:39 17.02.2020
2771 Clouds -24 1018 69 16093 0.26 137 00:19 17.02.2020
2772 Clear -25 1019 75 16093 0.26 137 23:48 16.02.2020
2773 Clear -26 1019 75 16093 0.26 137 23:27 16.02.2020
2774 Clear -28 1018 74 16093 0.54 71 22:56 16.02.2020
2775 Clear -28 1018 74 16093 0.54 71 22:38 16.02.2020
2776 Clear -30 1018 74 16093 0.54 71 22:18 16.02.2020
2777 Clear -32 1018 74 16093 0.54 71 21:43 16.02.2020
2778 Clear -32 1018 74 16093 0.54 71 21:24 16.02.2020
2779 Clear -35 1018 73 16093 0.54 71 20:59 16.02.2020
2780 Clear -36 1018 73 16093 0.54 71 20:41 16.02.2020
2781 Clear -37 1018 73 16093 0.5 81 20:22 16.02.2020
2782 Mist -37 1017 58 9656 1.22 45 19:59 16.02.2020
2783 Clear -37 1018 73 14484 1.22 45 19:40 16.02.2020
2784 Clear -37 1018 73 14484 1.22 45 19:19 16.02.2020
2785 Mist -38 1017 57 6437 1.22 45 18:59 16.02.2020
2786 Mist -38 1017 57 6437 1.22 45 18:41 16.02.2020
2787 Clear -37 1017 73 16093 1.22 45 18:22 16.02.2020
2788 Clear -36 1017 73 16093 1.22 45 17:44 16.02.2020
2789 Clear -36 1017 73 16093 1.43 40 17:20 16.02.2020
2790 Clear -35 1017 73 16093 1.43 40 16:57 16.02.2020
2791 Clear -35 1017 73 16093 1.43 40 16:39 16.02.2020
2792 Clear -36 1017 73 16093 1.43 40 16:21 16.02.2020
2793 Clear -36 1017 81 16093 1.43 40 15:56 16.02.2020
2794 Clear -35 1017 81 16093 1.43 40 15:37 16.02.2020
2795 Clear -35 1017 81 16093 1.43 40 15:18 16.02.2020
2796 Clear -34 1017 74 16093 1.43 40 14:39 16.02.2020
2797 Clear -34 1017 74 16093 1.61 42 14:21 16.02.2020
2798 Clear -33 1017 74 16093 1.61 42 13:46 16.02.2020
2799 Clear -35 1017 74 16093 1.61 42 13:24 16.02.2020
2800 Clear -34 1017 74 16093 1.64 39 12:55 16.02.2020
2801 Clear -34 1017 74 16093 1.64 39 12:36 16.02.2020
2802 Clear -34 1017 74 16093 1.64 39 12:18 16.02.2020
2803 Clear -33 1016 67 16093 2.1 50 11:39 16.02.2020
2804 Clear -34 1016 67 16093 2.1 50 11:18 16.02.2020
2805 Clear -33 1016 67 16093 2.1 50 10:56 16.02.2020
2806 Clear -34 1016 67 16093 2.1 50 10:38 16.02.2020
2807 Clear -34 1016 67 16093 2.1 50 10:20 16.02.2020
2808 Clear -33 1016 68 16093 1.79 42 09:55 16.02.2020
2809 Clear -33 1016 68 16093 1.79 42 09:36 16.02.2020
2810 Clear -33 1016 68 16093 1.79 42 09:18 16.02.2020
2811 Clear -32 1016 68 16093 2.1 70 08:45 16.02.2020
2812 Clear -32 1016 68 16093 2.1 70 08:21 16.02.2020
2813 Clear -31 1015 68 16093 3.1 50 07:54 16.02.2020
2814 Clear -31 1015 68 16093 3.1 50 07:34 16.02.2020
2815 Clear -31 1015 68 16093 3.1 60 06:33 16.02.2020
2816 Clear -30 1014 82 16093 1.58 38 04:45 16.02.2020
2817 Clouds -28 1014 62 16093 1.58 38 03:33 16.02.2020
2818 Clouds -26 1013 62 16093 1.5 10 02:32 16.02.2020
2819 Clouds -23 1013 63 16093 1.5 30 01:44 16.02.2020
2820 Clouds -23 1013 63 16093 1.5 30 01:44 16.02.2020
2821 Clouds -23 1013 63 16093 1.5 30 01:44 16.02.2020
2822 Clouds -24 1013 63 16093 1.5 30 01:26 16.02.2020
2823 Clouds -24 1013 68 16093 2.1 20 00:58 16.02.2020
2824 Clouds -23 1013 68 16093 2.1 20 00:39 16.02.2020
2825 Clouds -23 1013 68 16093 2.1 20 00:19 16.02.2020
2826 Clear -23 1014 57 16093 2.1 50 23:42 15.02.2020
2827 Clear -25 1014 57 16093 2.1 50 23:23 15.02.2020
2828 Clouds -28 1014 67 16093 2.6 30 22:56 15.02.2020
2829 Clouds -29 1014 67 16093 2.6 30 22:37 15.02.2020
2830 Clouds -28 1014 67 16093 2.6 30 22:18 15.02.2020
2831 Haze -28 1013 59 9656 1.08 62 21:42 15.02.2020
2832 Clear -30 1014 62 0 2.1 40 21:23 15.02.2020
2833 Haze -33 1013 59 8047 1.08 62 20:42 15.02.2020
2834 Clear -34 1014 67 16093 1.5 40 20:21 15.02.2020
2835 Haze -35 1012 58 4828 1.5 150 19:59 15.02.2020
2836 Clear -34 1013 67 16093 1.5 70 19:40 15.02.2020
2837 Clear -35 1013 67 16093 1.5 70 19:21 15.02.2020
2838 Clear -36 1013 74 16093 2.1 50 18:40 15.02.2020
2839 Clear -36 1013 74 16093 2.1 50 18:20 15.02.2020
2840 Clear -35 1012 58 11265 1.9 42 17:55 15.02.2020
2841 Clear -36 1013 73 16093 1.9 42 17:37 15.02.2020
2842 Clear -35 1013 73 16093 1.9 44 17:18 15.02.2020
2843 Clear -34 1013 82 16093 1.9 44 16:39 15.02.2020
2844 Clear -35 1013 82 16093 1.9 44 16:20 15.02.2020
2845 Clear -37 1012 58 12874 1.9 44 15:49 15.02.2020
2846 Clear -37 1013 73 16093 1.9 44 15:31 15.02.2020
2847 Clear -34 1013 67 16093 1.9 44 14:55 15.02.2020
2848 Clear -34 1013 67 16093 1.9 44 14:37 15.02.2020
2849 Clear -33 1013 67 16093 2.13 39 14:18 15.02.2020
2850 Clear -32 1013 68 16093 2.6 60 13:41 15.02.2020
2851 Clear -33 1013 68 16093 2.6 60 13:22 15.02.2020
2852 Clear -33 1013 68 16093 3.1 60 12:55 15.02.2020
2853 Clear -33 1013 68 16093 3.1 60 12:37 15.02.2020
2854 Clear -33 1013 68 16093 3.1 60 12:19 15.02.2020
2855 Clear -33 1013 74 16093 3.6 60 11:41 15.02.2020
2856 Clear -33 1013 74 16093 3.6 60 11:23 15.02.2020
2857 Clear -32 1013 68 16093 2.6 80 10:46 15.02.2020
2858 Clear -32 1013 68 16093 2.6 80 10:27 15.02.2020
2859 Clear -32 1013 68 16093 2.6 80 10:27 15.02.2020
2860 Clear -33 1013 75 16093 3.6 50 09:45 15.02.2020
2861 Clear -32 1013 75 16093 3.6 50 09:25 15.02.2020
2862 Clear -32 1013 74 16093 2.14 41 08:59 15.02.2020
2863 Clear -33 1013 74 16093 2.14 41 08:41 15.02.2020
2864 Clear -33 1013 74 16093 1.96 40 08:22 15.02.2020
2865 Clear -32 1013 82 16093 1.5 70 07:42 15.02.2020
2866 Clear -32 1013 82 16093 1.5 70 07:23 15.02.2020
2867 Clear -31 1014 74 16093 2.14 38 06:39 15.02.2020
2868 Clear -31 1014 74 16093 2.14 38 06:20 15.02.2020
2869 Clear -29 1013 75 16093 1.75 42 04:52 15.02.2020
2870 Clear -29 1013 75 16093 1.75 42 04:26 15.02.2020
2871 Clear -25 1014 63 16093 1.75 42 02:59 15.02.2020
2872 Clear -25 1014 63 16093 1.75 42 02:28 15.02.2020
2873 Clear -24 1014 63 16093 1.5 50 01:59 15.02.2020
2874 Clear -24 1014 63 16093 1.5 50 01:36 15.02.2020
2875 Clear -24 1014 69 16093 1.5 50 00:30 15.02.2020
2876 Clear -25 1015 75 16093 1.2 60 23:57 14.02.2020
2877 Clear -26 1015 75 16093 1.2 60 23:36 14.02.2020
2878 Clear -28 1015 75 16093 1.45 56 23:18 14.02.2020
2879 Clear -28 1015 75 16093 1.45 56 23:18 14.02.2020
2880 Clear -33 1015 66 16093 1.45 56 22:42 14.02.2020
2881 Clear -33 1015 66 16093 1.45 56 22:22 14.02.2020
2882 Mist -35 1014 59 9656 1.45 56 21:49 14.02.2020
2883 Haze -36 1015 73 8047 1.45 56 21:31 14.02.2020
2884 Haze -38 1015 73 3621 1.45 56 20:56 14.02.2020
2885 Haze -36 1016 72 2213 1.45 56 20:38 14.02.2020
2886 Haze -37 1016 72 2213 2.03 39 20:19 14.02.2020
2887 Haze -37 1016 72 2213 2.03 39 20:19 14.02.2020
2888 Haze -39 1016 65 4426 2.03 39 19:41 14.02.2020
2889 Haze -40 1016 65 2816 2.03 39 19:23 14.02.2020
2890 Haze -40 1016 65 2816 2.03 39 18:57 14.02.2020
2891 Haze -40 1016 72 8047 2.03 39 18:39 14.02.2020
2892 Haze -40 1016 72 8047 2.03 39 18:20 14.02.2020
2893 Haze -40 1016 65 6437 2.03 39 17:44 14.02.2020
2894 Haze -40 1016 65 6437 2.03 39 17:22 14.02.2020
2895 Haze -38 1016 65 4426 2.24 33 16:59 14.02.2020
2896 Haze -38 1017 65 6437 2.24 33 16:40 14.02.2020
2897 Haze -38 1017 65 6437 2.24 33 16:22 14.02.2020
2898 Mist -38 1016 52 8047 2.1 130 15:56 14.02.2020
2899 Clear -39 1017 72 12874 2.24 33 15:38 14.02.2020
2900 Clear -37 1017 72 12874 2.24 33 15:19 14.02.2020
2901 Mist -37 1016 58 12874 2.24 33 14:58 14.02.2020
2902 Clear -37 1018 72 16093 2.24 33 14:40 14.02.2020
2903 Clear -39 1018 72 16093 2.24 33 14:21 14.02.2020
2904 Clear -38 1018 73 16093 2.08 33 13:54 14.02.2020
2905 Clear -38 1018 73 16093 2.08 33 13:36 14.02.2020
2906 Clear -37 1018 73 16093 2.05 33 13:18 14.02.2020
2907 Mist -37 1017 52 11265 2.05 33 12:56 14.02.2020
2908 Mist -37 1017 52 11265 2.05 33 12:56 14.02.2020
2909 Clear -37 1019 65 14484 2.05 33 12:37 14.02.2020
2910 Clear -37 1019 65 14484 2.05 33 12:18 14.02.2020
2911 Clear -36 1019 73 16093 2.05 33 11:54 14.02.2020
2912 Clear -36 1019 73 16093 2.05 33 11:36 14.02.2020
2913 Clear -35 1019 73 16093 1.9 35 11:18 14.02.2020
2914 Clear -35 1020 73 16093 1.9 35 10:40 14.02.2020
2915 Clear -35 1020 73 16093 1.9 35 10:21 14.02.2020
2916 Clear -36 1020 73 16093 1.9 35 09:44 14.02.2020
2917 Clear -36 1020 73 16093 1.9 35 09:22 14.02.2020
2918 Clear -35 1021 73 16093 1.9 35 08:56 14.02.2020
2919 Clear -35 1021 73 16093 1.9 35 08:38 14.02.2020
2920 Clear -35 1021 73 16093 2.02 30 08:19 14.02.2020
2921 Clear -33 1021 91 16093 2.6 60 07:49 14.02.2020
2922 Clear -33 1021 91 16093 2.6 60 07:24 14.02.2020
2923 Clear -34 1022 73 16093 2.02 30 06:32 14.02.2020
2924 Clear -32 1022 74 16093 2.02 30 05:59 14.02.2020
2925 Clear -31 1022 74 16093 2.02 30 05:27 14.02.2020
2926 Clear -29 1023 75 16093 1.26 39 03:31 14.02.2020
2927 Clear -28 1024 68 16093 1.26 39 02:52 14.02.2020
2928 Clear -27 1024 61 16093 1.5 20 01:54 14.02.2020
2929 Clear -27 1024 75 16093 0.25 112 00:44 14.02.2020
2930 Clear -27 1024 75 16093 0.25 112 00:44 14.02.2020
2931 Clear -27 1024 75 16093 0.25 112 00:25 14.02.2020
2932 Clear -28 1025 74 16093 0.25 112 23:52 13.02.2020
2933 Clear -28 1025 74 16093 0.25 112 23:25 13.02.2020
2934 Clear -29 1024 67 16093 0.55 91 22:59 13.02.2020
2935 Clear -30 1024 67 16093 0.55 91 22:38 13.02.2020
2936 Clear -32 1024 67 16093 0.55 91 22:19 13.02.2020
2937 Clear -31 1025 73 16093 0.55 91 21:43 13.02.2020
2938 Clear -32 1025 73 16093 0.55 91 21:24 13.02.2020
2939 Clear -33 1024 73 16093 0.55 91 20:59 13.02.2020
2940 Clear -33 1024 73 16093 0.55 91 20:40 13.02.2020
2941 Clear -36 1024 73 16093 0.68 63 20:22 13.02.2020
2942 Clear -34 1024 97 16093 0.98 65 19:57 13.02.2020
2943 Clear -34 1024 97 16093 0.98 65 19:37 13.02.2020
2944 Clear -35 1024 97 16093 0.98 65 19:19 13.02.2020
2945 Clear -35 1023 66 16093 0.98 65 18:55 13.02.2020
2946 Clear -35 1024 73 16093 0.98 65 18:37 13.02.2020
2947 Clear -36 1024 73 16093 0.98 65 18:19 13.02.2020
2948 Clear -35 1024 73 16093 0.98 65 17:41 13.02.2020
2949 Clear -34 1024 73 16093 0.7 70 17:22 13.02.2020
2950 Clouds -34 1023 73 16093 0.7 70 16:59 13.02.2020
2951 Clouds -34 1023 73 16093 0.7 70 16:40 13.02.2020
2952 Clouds -34 1023 73 16093 0.7 70 16:20 13.02.2020
2953 Clouds -34 1022 73 16093 0.7 70 15:57 13.02.2020
2954 Clouds -34 1022 73 16093 0.7 70 15:39 13.02.2020
2955 Clouds -35 1022 73 16093 0.7 70 15:19 13.02.2020
2956 Clear -34 1021 73 16093 0.7 70 14:58 13.02.2020
2957 Clear -34 1021 73 16093 0.7 70 14:39 13.02.2020
2958 Clear -32 1021 73 16093 0.82 359 14:21 13.02.2020
2959 Clear -32 1020 81 16093 0.82 359 13:48 13.02.2020
2960 Clear -32 1020 81 16093 0.82 359 13:48 13.02.2020
2961 Clear -32 1020 81 16093 0.82 359 13:19 13.02.2020
2962 Clear -31 1019 74 16093 0.83 10 12:57 13.02.2020
2963 Clear -31 1019 74 16093 0.83 10 12:38 13.02.2020
2964 Clear -31 1019 74 16093 0.83 10 12:20 13.02.2020
2965 Clouds -31 1018 74 16093 1.5 60 11:47 13.02.2020
2966 Clouds -31 1018 74 16093 1.5 60 11:21 13.02.2020
2967 Haze -30 1016 74 9656 1.5 60 10:57 13.02.2020
2968 Haze -30 1016 74 9656 1.5 60 10:39 13.02.2020
2969 Haze -30 1016 74 9656 1.5 60 10:20 13.02.2020
2970 Clouds -29 1015 75 16093 0.63 331 09:42 13.02.2020
2971 Clouds -29 1015 75 16093 0.63 331 09:23 13.02.2020
2972 Clouds -28 1014 68 16093 0.63 331 08:46 13.02.2020
2973 Clouds -27 1014 68 16093 0.76 258 08:19 13.02.2020
2974 Clouds -27 1014 68 16093 0.76 258 08:19 13.02.2020
2975 Clouds -27 1012 68 16093 2.6 200 07:43 13.02.2020
2976 Clouds -27 1012 68 16093 2.6 200 07:23 13.02.2020
2977 Clouds -26 1012 69 16093 0.76 258 06:54 13.02.2020
2978 Clouds -26 1012 69 16093 0.76 258 06:36 13.02.2020
2979 Clouds -25 1011 75 16093 0.76 258 05:52 13.02.2020
2980 Clouds -23 1009 69 16093 2.6 220 04:48 13.02.2020
2981 Clouds -23 1009 69 16093 2.6 220 04:23 13.02.2020
2982 Clouds -22 1008 76 16093 2.6 230 03:41 13.02.2020
2983 Clouds -20 1008 70 16093 3.6 210 02:58 13.02.2020
2984 Clouds -20 1008 70 16093 3.6 210 02:20 13.02.2020
2985 Clouds -20 1007 76 16093 3.1 200 01:54 13.02.2020
2986 Clouds -20 1007 76 16093 3.1 200 01:25 13.02.2020
2987 Clouds -18 1007 77 16093 1.23 299 00:28 13.02.2020
2988 Clouds -19 1007 70 16093 1.23 299 23:43 12.02.2020
2989 Clouds -19 1007 70 16093 1.23 299 23:23 12.02.2020
2990 Clouds -19 1007 70 16093 1.23 299 23:23 12.02.2020
2991 Clouds -20 1008 70 16093 1.5 346 22:59 12.02.2020
2992 Clouds -20 1008 70 16093 1.5 346 22:41 12.02.2020
2993 Clouds -20 1008 70 16093 1.5 346 22:23 12.02.2020
2994 Clouds -20 1008 70 16093 2.1 340 21:55 12.02.2020
2995 Clouds -20 1008 70 16093 2.1 340 21:37 12.02.2020
2996 Clouds -20 1008 70 16093 2.1 340 21:18 12.02.2020
2997 Clouds -21 1007 76 16093 1.5 346 20:43 12.02.2020
2998 Clouds -21 1007 76 16093 1.5 346 20:25 12.02.2020
2999 Clouds -21 1008 63 16093 3.1 350 20:00 12.02.2020
3000 Clouds -21 1008 63 16093 3.1 350 19:41 12.02.2020
3001 Clouds -24 1008 63 16093 3.1 350 19:22 12.02.2020
3002 Clouds -25 1009 75 16093 1.83 357 18:54 12.02.2020
3003 Clouds -25 1009 75 16093 1.83 357 18:36 12.02.2020
3004 Clouds -25 1009 75 16093 1.83 357 18:18 12.02.2020
3005 Clouds -26 1010 75 16093 1.86 355 17:40 12.02.2020
3006 Clouds -26 1010 75 16093 2.23 5 17:19 12.02.2020
3007 Clear -26 1011 76 16093 1.5 10 16:57 12.02.2020
3008 Clear -26 1011 76 16093 1.5 10 16:37 12.02.2020
3009 Clear -26 1011 76 16093 1.5 10 16:18 12.02.2020
3010 Clouds -28 1012 75 16093 3.1 60 15:38 12.02.2020
3011 Clouds -27 1012 75 16093 3.1 60 15:19 12.02.2020
3012 Clouds -31 1013 74 16093 2.1 350 14:43 12.02.2020
3013 Clouds -29 1013 74 16093 2.1 350 14:21 12.02.2020
3014 Clear -29 1014 74 16093 2.19 12 13:59 12.02.2020
3015 Clear -29 1014 74 16093 2.25 10 13:40 12.02.2020
3016 Clear -29 1014 74 16093 2.25 10 13:22 12.02.2020
3017 Clear -28 1015 74 16093 2.25 10 12:58 12.02.2020
3018 Clear -29 1015 74 16093 2.25 10 12:39 12.02.2020
3019 Clear -29 1015 74 16093 2.25 10 12:19 12.02.2020
3020 Clear -29 1017 74 16093 2.25 10 11:59 12.02.2020
3021 Clear -30 1017 74 16093 2.25 10 11:40 12.02.2020
3022 Clear -28 1017 74 16093 2.44 18 11:21 12.02.2020
3023 Clear -27 1018 82 16093 2.44 18 10:58 12.02.2020
3024 Clear -26 1018 82 16093 2.44 18 10:40 12.02.2020
3025 Clear -26 1018 82 16093 2.44 18 10:20 12.02.2020
3026 Clear -25 1019 75 16093 2.1 40 09:42 12.02.2020
3027 Clear -25 1019 75 16093 2.1 40 09:42 12.02.2020
3028 Clear -25 1019 75 16093 2.1 40 09:24 12.02.2020
3029 Clear -25 1019 75 16093 2.1 40 09:24 12.02.2020
3030 Clear -26 1021 75 16093 2.6 40 08:59 12.02.2020
3031 Clear -25 1021 75 16093 2.6 40 08:39 12.02.2020
3032 Clear -25 1021 75 16093 2.6 40 08:20 12.02.2020
3033 Clear -25 1021 75 16093 2.6 40 08:20 12.02.2020
3034 Clear -25 1021 75 16093 2.6 40 08:20 12.02.2020
3035 Clear -26 1022 75 16093 1.5 40 07:59 12.02.2020
3036 Clear -26 1022 75 16093 1.5 40 07:41 12.02.2020
3037 Clear -25 1022 75 16093 1.5 40 07:19 12.02.2020
3038 Clear -25 1023 75 16093 2.6 40 06:43 12.02.2020
3039 Clear -26 1023 75 16093 2.6 40 06:19 12.02.2020
3040 Clear -26 1024 75 16093 1.5 50 05:32 12.02.2020
3041 Clear -24 1026 83 16093 2.1 50 04:43 12.02.2020
3042 Clear -24 1027 83 16093 2.7 25 03:58 12.02.2020
3043 Clear -23 1027 83 16093 2.7 25 03:29 12.02.2020
3044 Haze -24 1027 68 9656 2.7 25 02:44 12.02.2020
3045 Clear -23 1028 76 16093 2.7 25 02:25 12.02.2020
3046 Clouds -22 996 79 0 1.91 30 01:30 12.02.2020
3047 Clear -23 1030 76 16093 1.91 30 00:41 12.02.2020
3048 Clear -23 1030 76 16093 1.91 30 00:22 12.02.2020
3049 Clouds -24 1030 68 16093 1.91 30 23:49 11.02.2020
3050 Clouds -25 1031 83 16093 1.5 70 23:31 11.02.2020
3051 Clouds -26 1032 75 16093 1.83 31 22:58 11.02.2020
3052 Clouds -27 1032 75 16093 1.83 31 22:39 11.02.2020
3053 Clouds -28 1032 75 16093 1.83 31 22:20 11.02.2020
3054 Clouds -29 1033 74 11265 1.83 31 21:57 11.02.2020
3055 Clouds -30 1033 74 11265 1.83 31 21:38 11.02.2020
3056 Clouds -29 1033 74 11265 1.83 31 21:18 11.02.2020
3057 Clouds -29 1032 74 16093 1.83 31 20:58 11.02.2020
3058 Clouds -30 1033 82 14484 1.83 31 20:38 11.02.2020
3059 Clouds -30 1033 82 14484 1.83 31 20:38 11.02.2020
3060 Clouds -30 1033 82 14484 1.51 33 20:19 11.02.2020
3061 Snow -31 1033 74 11265 1.67 30 19:57 11.02.2020
3062 Mist -31 1032 97 9656 1.5 30 19:39 11.02.2020
3063 Mist -31 1032 97 9656 1.5 30 19:20 11.02.2020
3064 Clouds -31 1034 74 16093 1.67 30 18:45 11.02.2020
3065 Clouds -31 1033 74 16093 1.67 30 18:26 11.02.2020
3066 Clouds -30 1032 67 11265 1.67 30 17:57 11.02.2020
3067 Clouds -30 1034 74 16093 1.67 30 17:38 11.02.2020
3068 Clouds -29 1034 74 16093 0.86 66 17:19 11.02.2020
3069 Haze -28 1034 74 8047 0.86 66 16:58 11.02.2020
3070 Haze -28 1034 74 8047 0.86 66 16:39 11.02.2020
3071 Haze -28 1034 74 8047 0.86 66 16:21 11.02.2020
3072 Clouds -29 1034 82 16093 1.5 80 15:57 11.02.2020
3073 Clouds -29 1034 82 16093 1.5 80 15:39 11.02.2020
3074 Clouds -29 1034 82 16093 1.5 80 15:20 11.02.2020
3075 Clouds -29 1034 74 16093 0.86 66 14:41 11.02.2020
3076 Clouds -29 1034 74 16093 0.82 119 14:19 11.02.2020
3077 Clouds -29 1034 74 16093 0.82 119 14:19 11.02.2020
3078 Clear -28 1034 82 16093 0.82 119 13:56 11.02.2020
3079 Clear -28 1034 82 16093 0.82 119 13:38 11.02.2020
3080 Clear -28 1034 82 16093 0.79 112 13:19 11.02.2020
3081 Clear -27 1034 82 16093 0.79 112 12:41 11.02.2020
3082 Clear -27 1034 82 16093 0.79 112 12:22 11.02.2020
3083 Clouds -26 1034 82 12874 0.79 112 11:59 11.02.2020
3084 Clouds -26 1034 82 12874 0.79 112 11:40 11.02.2020
3085 Clouds -26 1034 82 12874 1.31 175 11:19 11.02.2020
3086 Clouds -25 1033 75 16093 1.31 175 10:54 11.02.2020
3087 Clouds -25 1033 75 16093 3.6 230 10:36 11.02.2020
3088 Clouds -25 1033 75 16093 3.6 230 10:18 11.02.2020
3089 Clouds -24 1033 76 16093 3.6 250 09:42 11.02.2020
3090 Clouds -23 1033 76 16093 3.6 250 09:22 11.02.2020
3091 Clouds -23 1031 76 16093 4.6 220 08:55 11.02.2020
3092 Clouds -23 1031 76 16093 4.6 220 08:37 11.02.2020
3093 Clouds -22 1031 76 16093 4.6 220 08:18 11.02.2020
3094 Clouds -22 1030 76 16093 3.6 250 07:41 11.02.2020
3095 Clouds -22 1030 76 16093 3.6 250 07:19 11.02.2020
3096 Mist -21 1030 83 9656 2.6 260 06:40 11.02.2020
3097 Mist -21 1030 83 9656 2.6 260 06:20 11.02.2020
3098 Mist -21 1030 83 9656 2.6 260 06:20 11.02.2020
3099 Clouds -21 1029 76 16093 2.1 280 05:47 11.02.2020
3100 Clouds -21 1029 76 16093 2.1 280 05:47 11.02.2020
3101 Clouds -20 1029 76 16093 2.1 280 05:20 11.02.2020
3102 Snow -20 1028 83 11265 1.5 215 04:34 11.02.2020
3103 Snow -20 1027 76 11265 1.5 60 02:40 11.02.2020
3104 Snow -20 1027 76 11265 1.5 60 02:22 11.02.2020
3105 Clouds -19 1027 76 14484 0.82 193 01:32 11.02.2020
3106 Clouds -19 1027 83 16093 0.78 193 00:32 11.02.2020
3107 Clear -20 1027 83 16093 0.78 193 23:52 10.02.2020
3108 Clear -20 1027 83 16093 0.78 193 23:31 10.02.2020
3109 Clouds -20 1026 76 16093 0.67 134 22:58 10.02.2020
3110 Clouds -20 1026 76 16093 0.67 134 22:38 10.02.2020
3111 Clouds -20 1026 76 16093 0.67 134 22:20 10.02.2020
3112 Snow -22 1027 83 16093 0.67 134 21:43 10.02.2020
3113 Snow -22 1027 83 16093 0.67 134 21:25 10.02.2020
3114 Clouds -22 1027 75 16093 0.67 134 20:57 10.02.2020
3115 Clouds -23 1027 75 16093 0.67 134 20:38 10.02.2020
3116 Clouds -23 1027 75 16093 0.4 152 20:20 10.02.2020
3117 Clouds -22 1027 83 12874 1.5 200 19:58 10.02.2020
3118 Clouds -21 1027 83 12874 1.5 200 19:38 10.02.2020
3119 Clouds -21 1027 83 12874 1.5 200 19:19 10.02.2020
3120 Snow -20 1026 70 14484 1.5 0 18:58 10.02.2020
3121 Snow -20 1026 70 14484 1.5 0 18:40 10.02.2020
3122 Snow -20 1026 70 14484 1.5 0 18:21 10.02.2020
3123 Snow -19 1026 64 14484 2.1 220 17:57 10.02.2020
3124 Snow -19 1026 64 14484 2.1 220 17:57 10.02.2020
3125 Snow -19 1026 64 14484 2.1 220 17:37 10.02.2020
3126 Snow -19 1026 64 14484 2.1 220 17:37 10.02.2020
3127 Snow -19 1026 64 14484 2.1 220 17:19 10.02.2020
3128 Clouds -19 1027 77 16093 2.6 210 16:58 10.02.2020
3129 Snow -19 1026 77 12874 2.1 210 16:39 10.02.2020
3130 Snow -19 1026 77 12874 2.1 210 16:19 10.02.2020
3131 Snow -18 1027 77 11265 2.6 240 15:56 10.02.2020
3132 Snow -18 1027 84 9656 3.6 240 15:38 10.02.2020
3133 Snow -18 1027 84 9656 3.6 240 15:20 10.02.2020
3134 Snow -18 1026 70 11265 4.6 270 14:56 10.02.2020
3135 Snow -18 1026 84 9656 4.6 250 14:36 10.02.2020
3136 Snow -17 1026 84 9656 4.6 250 14:18 10.02.2020
3137 Clouds -17 1025 77 11265 1.5 0 13:42 10.02.2020
3138 Snow -17 1026 70 4828 4.1 270 13:24 10.02.2020
3139 Snow -16 1025 77 9656 4.1 300 12:51 10.02.2020
3140 Snow -16 1025 77 9656 4.1 300 12:27 10.02.2020
3141 Snow -16 1024 77 8047 4.1 290 11:56 10.02.2020
3142 Snow -15 1023 84 6437 4.6 280 11:38 10.02.2020
3143 Snow -15 1023 84 6437 4.6 280 11:20 10.02.2020
3144 Snow -14 1023 84 4828 3.1 290 10:47 10.02.2020
3145 Snow -14 1022 84 6437 3.1 290 10:28 10.02.2020
3146 Snow -13 1022 85 4828 4.6 280 09:48 10.02.2020
3147 Snow -12 1021 92 9656 4.1 260 09:27 10.02.2020
3148 Snow -11 1021 85 2414 2.6 290 08:58 10.02.2020
3149 Snow -10 1020 85 2012 3.1 290 08:38 10.02.2020
3150 Snow -11 1020 85 2012 3.1 290 08:19 10.02.2020
3151 Snow -10 1020 92 9656 3.6 270 07:51 10.02.2020
3152 Snow -10 1020 92 8047 4.1 240 07:31 10.02.2020
3153 Snow -8 1020 92 8047 2.6 250 06:23 10.02.2020
3154 Snow -8 1019 92 8047 1.84 260 04:47 10.02.2020
3155 Snow -7 1019 79 3219 2.1 20 03:52 10.02.2020
3156 Snow -7 1019 92 1810 2.6 320 02:56 10.02.2020
3157 Snow -6 1018 85 2012 4.1 300 02:35 10.02.2020
3158 Snow -5 1017 100 8047 1.68 180 00:55 10.02.2020
3159 Snow -5 1016 92 6437 1.68 180 00:37 10.02.2020
3160 Snow -5 1016 86 8047 2.6 0 23:58 09.02.2020
3161 Snow -5 1016 100 8047 1.68 180 23:40 09.02.2020
3162 Snow -5 1016 100 8047 1.36 154 23:22 09.02.2020
3163 Snow -5 1015 92 3219 2.6 130 22:43 09.02.2020
3164 Snow -5 1015 92 2213 1.36 154 22:21 09.02.2020
3165 Snow -5 1014 85 3219 1.36 154 21:45 09.02.2020
3166 Snow -5 1014 92 4426 1.36 154 21:25 09.02.2020
3167 Snow -5 1013 92 8047 2.1 200 20:59 09.02.2020
3168 Snow -5 1013 92 8047 2.1 200 20:41 09.02.2020
3169 Snow -5 1013 92 8047 2.1 200 20:19 09.02.2020
3170 Snow -6 1011 92 8047 2.1 240 19:40 09.02.2020
3171 Snow -6 1011 92 8047 2.1 240 19:22 09.02.2020
3172 Snow -5 1011 100 11265 1.09 197 18:59 09.02.2020
3173 Clouds -5 1010 100 16093 2.6 260 18:40 09.02.2020
3174 Clouds -5 1010 100 16093 2.6 260 18:22 09.02.2020
3175 Clouds -7 1008 100 16093 1.09 197 17:43 09.02.2020
3176 Clouds -7 1008 100 16093 1.09 197 17:43 09.02.2020
3177 Clouds -7 1008 100 16093 1.09 197 17:23 09.02.2020
3178 Clouds -7 1007 92 16093 0.55 202 16:57 09.02.2020
3179 Clouds -8 1007 92 16093 0.55 202 16:38 09.02.2020
3180 Clouds -8 1007 92 16093 0.55 202 16:20 09.02.2020
3181 Clouds -8 1006 100 16093 1.5 260 15:56 09.02.2020
3182 Clouds -8 1006 100 16093 1.5 260 15:38 09.02.2020
3183 Clouds -8 1006 100 16093 1.5 260 15:20 09.02.2020
3184 Clouds -8 1005 92 16093 0.55 202 14:42 09.02.2020
3185 Clouds -7 1005 92 16093 0.55 202 14:23 09.02.2020
3186 Clouds -8 1004 92 16093 1.59 95 13:55 09.02.2020
3187 Clouds -9 1004 92 16093 1.59 95 13:37 09.02.2020
3188 Clouds -8 1004 92 16093 0.92 101 13:18 09.02.2020
3189 Clouds -9 1004 92 16093 0.92 101 12:42 09.02.2020
3190 Clouds -9 1004 92 16093 0.92 101 12:42 09.02.2020
3191 Clouds -9 1004 92 16093 0.92 101 12:20 09.02.2020
3192 Clear -11 1003 92 16093 0.92 101 11:58 09.02.2020
3193 Clear -11 1003 92 16093 0.92 101 11:39 09.02.2020
3194 Clear -11 1003 92 16093 1.41 58 11:19 09.02.2020
3195 Clear -9 1003 100 16093 1.41 58 10:43 09.02.2020
3196 Clear -9 1003 100 16093 1.41 58 10:23 09.02.2020
3197 Mist -9 1002 85 9656 2.1 0 09:57 09.02.2020
3198 Clear -8 1003 92 16093 2.6 60 09:38 09.02.2020
3199 Clear -8 1003 92 16093 2.6 60 09:38 09.02.2020
3200 Clear -7 1003 92 16093 2.6 60 09:19 09.02.2020
3201 Clouds -7 1002 85 12874 1.41 58 08:40 09.02.2020
3202 Clouds -7 1003 92 16093 2.6 360 08:22 09.02.2020
3203 Clouds -6 1002 92 12874 0.94 156 07:51 09.02.2020
3204 Clouds -6 1002 92 16093 1.5 150 07:26 09.02.2020
3205 Snow -6 1001 92 16093 3.6 350 06:37 09.02.2020
3206 Clouds -5 1000 85 12874 2.6 190 05:55 09.02.2020
3207 Clouds -5 1000 100 16093 0.94 156 05:32 09.02.2020
3208 Clouds -5 999 85 12874 1.24 211 04:48 09.02.2020
3209 Clouds -4 997 92 11265 2.1 20 02:58 09.02.2020
3210 Clouds -4 997 74 14484 5.7 70 02:36 09.02.2020
3211 Clouds -5 996 79 14484 2.1 50 01:39 09.02.2020
3212 Clouds -5 996 79 14484 2.1 50 01:19 09.02.2020
3213 Clouds -5 996 79 14484 3.1 70 00:31 09.02.2020
3214 Clouds -6 997 92 16093 3.6 70 23:50 08.02.2020
3215 Clouds -7 997 92 16093 3.6 70 23:25 08.02.2020
3216 Clouds -10 997 78 16093 2.1 30 22:59 08.02.2020
3217 Clouds -10 997 92 16093 1.45 98 22:40 08.02.2020
3218 Clouds -12 997 92 16093 1.45 98 22:20 08.02.2020
3219 Clear -11 998 84 16093 1.45 98 21:47 08.02.2020
3220 Clear -10 998 84 16093 1.45 98 21:29 08.02.2020
3221 Clear -10 998 84 16093 1.45 98 20:59 08.02.2020
3222 Clear -12 998 84 16093 1.45 98 20:40 08.02.2020
3223 Clear -12 998 84 16093 1.45 98 20:40 08.02.2020
3224 Clear -16 998 84 16093 2.12 61 20:20 08.02.2020
3225 Clear -16 999 91 16093 2.12 61 19:58 08.02.2020
3226 Clear -17 999 91 16093 2.12 61 19:39 08.02.2020
3227 Clear -17 999 91 16093 2.12 61 19:20 08.02.2020
3228 Clouds -18 1000 84 16093 2.12 61 18:57 08.02.2020
3229 Clouds -16 1000 84 16093 2.12 61 18:39 08.02.2020
3230 Clouds -16 1000 84 16093 2.12 61 18:19 08.02.2020
3231 Clear -17 1001 83 16093 2.12 61 17:42 08.02.2020
3232 Clear -20 1001 83 16093 1.98 53 17:20 08.02.2020
3233 Clear -19 1002 91 16093 1.98 53 16:42 08.02.2020
3234 Clear -19 1002 91 16093 1.98 53 16:23 08.02.2020
3235 Clear -18 1004 84 16093 1.98 53 15:59 08.02.2020
3236 Clear -15 1004 84 16093 1.98 53 15:40 08.02.2020
3237 Clear -16 1004 84 16093 1.98 53 15:18 08.02.2020
3238 Clouds -18 1005 83 16093 1.98 53 14:46 08.02.2020
3239 Clouds -18 1005 83 16093 1.98 53 14:24 08.02.2020
3240 Clouds -17 1006 83 16093 1.65 55 13:59 08.02.2020
3241 Clouds -18 1006 83 16093 1.65 55 13:41 08.02.2020
3242 Clouds -18 1006 83 16093 1.65 55 13:23 08.02.2020
3243 Clouds -17 1007 84 16093 1.75 58 12:49 08.02.2020
3244 Clouds -17 1007 84 16093 1.75 58 12:24 08.02.2020
3245 Clouds -15 1007 84 16093 1.75 58 11:59 08.02.2020
3246 Clouds -15 1009 84 16093 1.75 58 11:40 08.02.2020
3247 Clouds -15 1009 84 16093 1.67 51 11:20 08.02.2020
3248 Clouds -14 1009 84 16093 1.5 270 10:42 08.02.2020
3249 Clouds -14 1009 84 16093 1.5 270 10:42 08.02.2020
3250 Clouds -14 1009 84 16093 1.5 270 10:23 08.02.2020
3251 Snow -15 1008 92 16093 1.67 51 09:53 08.02.2020
3252 Clouds -15 1009 92 16093 1.67 51 09:29 08.02.2020
3253 Clouds -15 1009 92 16093 1.67 51 08:57 08.02.2020
3254 Snow -15 1009 92 9656 1.67 51 08:38 08.02.2020
3255 Snow -15 1009 92 9656 0.89 125 08:20 08.02.2020
3256 Snow -14 1009 84 9656 0.89 125 07:48 08.02.2020
3257 Snow -14 1009 84 9656 0.89 125 07:30 08.02.2020
3258 Snow -14 1009 92 16093 0.89 125 06:33 08.02.2020
3259 Clouds -13 1009 92 16093 0.89 125 05:49 08.02.2020
3260 Clouds -13 1009 92 16093 0.89 125 05:30 08.02.2020
3261 Clouds -12 1009 92 16093 3.1 230 04:50 08.02.2020
3262 Clouds -11 1008 92 16093 1.5 220 03:53 08.02.2020
3263 Clouds -10 1007 92 14484 1.5 230 02:52 08.02.2020
3264 Clouds -10 1007 92 14484 1.5 230 02:20 08.02.2020
3265 Clouds -10 1006 92 16093 0.82 250 01:26 08.02.2020
3266 Clouds -10 1006 92 16093 0.94 252 00:45 08.02.2020
3267 Clouds -10 1006 92 16093 0.94 252 00:22 08.02.2020
3268 Mist -10 1006 84 6437 0.94 252 23:56 07.02.2020
3269 Clouds -10 1006 92 16093 0.94 252 23:37 07.02.2020
3270 Clouds -10 1006 92 16093 1.1 33 23:19 07.02.2020
3271 Mist -11 1006 78 805 1.1 33 22:41 07.02.2020
3272 Clouds -11 1007 84 16093 1.5 280 22:19 07.02.2020
3273 Clouds -11 1007 92 16093 1.5 280 21:44 07.02.2020
3274 Clouds -11 1007 92 16093 1.1 33 21:23 07.02.2020
3275 Mist -12 1006 92 9656 1.1 33 20:59 07.02.2020
3276 Clouds -12 1006 92 16093 1.1 33 20:38 07.02.2020
3277 Clouds -12 1006 92 16093 0.56 119 20:18 07.02.2020
3278 Clouds -12 1006 92 16093 0.56 119 20:18 07.02.2020
3279 Clouds -12 1006 92 16093 0.56 119 19:43 07.02.2020
3280 Clouds -12 1006 92 16093 0.56 119 19:22 07.02.2020
3281 Clouds -12 1007 92 16093 0.56 119 18:59 07.02.2020
3282 Clouds -12 1007 92 16093 0.56 119 18:41 07.02.2020
3283 Clouds -11 1007 92 16093 0.56 119 18:22 07.02.2020
3284 Snow -11 1006 92 11265 0.56 119 17:43 07.02.2020
3285 Snow -11 1007 92 9656 1.13 189 17:22 07.02.2020
3286 Snow -11 1007 92 11265 1.13 189 16:57 07.02.2020
3287 Snow -11 1007 92 8047 1.13 189 16:39 07.02.2020
3288 Snow -11 1007 92 8047 1.13 189 16:20 07.02.2020
3289 Clouds -10 1007 92 16093 1.13 189 15:49 07.02.2020
3290 Snow -10 1006 92 9656 1.5 180 15:27 07.02.2020
3291 Snow -10 1006 92 9656 1.13 189 14:46 07.02.2020
3292 Snow -10 1006 92 16093 1.13 189 14:27 07.02.2020
3293 Clouds -10 1007 92 16093 0.23 23 13:59 07.02.2020
3294 Clouds -10 1007 92 16093 0.23 23 13:40 07.02.2020
3295 Clouds -10 1007 92 16093 0.2 40 13:22 07.02.2020
3296 Clouds -9 1007 92 16093 0.2 40 12:57 07.02.2020
3297 Clouds -9 1007 92 16093 0.2 40 12:39 07.02.2020
3298 Clouds -10 1007 92 16093 0.2 40 12:21 07.02.2020
3299 Clouds -9 1007 92 16093 1.5 250 11:42 07.02.2020
3300 Clouds -9 1007 92 16093 1.5 250 11:22 07.02.2020
3301 Clouds -9 1007 92 16093 0.57 46 10:42 07.02.2020
3302 Clouds -9 1007 92 16093 0.57 46 10:24 07.02.2020
3303 Clouds -9 1007 92 16093 0.57 46 10:24 07.02.2020
3304 Clouds -9 1007 92 16093 0.57 46 10:24 07.02.2020
3305 Clouds -9 1007 92 16093 0.57 46 09:58 07.02.2020
3306 Snow -9 1007 100 14484 0.57 46 09:39 07.02.2020
3307 Snow -9 1007 100 14484 0.57 46 09:39 07.02.2020
3308 Snow -9 1007 100 14484 0.57 46 09:21 07.02.2020
3309 Snow -9 1007 92 8047 0.57 46 08:43 07.02.2020
3310 Snow -9 1007 92 8047 0.88 150 08:21 07.02.2020
3311 Snow -9 1007 92 8047 0.76 125 08:21 07.02.2020
3312 Snow -9 1007 92 9656 0.88 150 07:49 07.02.2020
3313 Snow -9 1007 92 9656 0.88 150 07:30 07.02.2020
3314 Snow -9 1006 78 14484 0.88 150 06:47 07.02.2020
3315 Snow -9 1006 78 14484 0.88 150 06:47 07.02.2020
3316 Snow -9 1007 100 14484 0.88 150 06:26 07.02.2020
3317 Snow -9 1007 92 9656 0.88 150 05:57 07.02.2020
3318 Snow -8 1007 92 9656 0.88 150 05:36 07.02.2020
3319 Snow -8 1006 92 4023 1.02 182 03:33 07.02.2020
3320 Snow -7 1005 92 6437 1.41 182 01:51 07.02.2020
3321 Snow -7 1005 92 3219 1.26 194 00:51 07.02.2020
3322 Snow -7 1004 85 2816 1.26 194 00:25 07.02.2020
3323 Snow -7 1004 85 3219 1.26 194 23:38 06.02.2020
3324 Snow -7 1004 85 3219 1.49 159 23:19 06.02.2020
3325 Snow -7 1003 85 9656 1.49 159 22:46 06.02.2020
3326 Snow -7 1003 92 1609 1.49 159 22:26 06.02.2020
3327 Snow -8 1003 85 1609 1.49 159 21:57 06.02.2020
3328 Snow -8 1003 100 2012 1.5 50 21:36 06.02.2020
3329 Snow -8 1003 100 2012 1.5 50 21:18 06.02.2020
3330 Snow -8 1002 85 1609 1.5 10 20:54 06.02.2020
3331 Snow -8 1002 92 3621 2.1 60 20:36 06.02.2020
3332 Snow -8 1002 92 3621 2.1 60 20:18 06.02.2020
3333 Snow -9 1000 85 11265 2.6 130 19:55 06.02.2020
3334 Snow -9 1001 92 3219 1.5 60 19:36 06.02.2020
3335 Snow -9 1001 92 3219 1.5 60 19:18 06.02.2020
3336 Snow -9 1000 92 3017 1.22 159 18:40 06.02.2020
3337 Snow -9 1000 92 3017 1.22 159 18:22 06.02.2020
3338 Snow -9 1000 100 2816 1.22 159 17:57 06.02.2020
3339 Snow -10 1000 92 1609 1.5 70 17:38 06.02.2020
3340 Snow -10 1000 92 1609 1.5 70 17:19 06.02.2020
3341 Snow -10 999 92 4023 0.96 130 16:42 06.02.2020
3342 Snow -10 999 100 4426 0.96 130 16:23 06.02.2020
3343 Snow -10 999 92 3219 0.96 130 15:43 06.02.2020
3344 Snow -10 998 92 4426 0.96 130 15:23 06.02.2020
3345 Snow -10 998 92 6437 0.96 130 14:58 06.02.2020
3346 Snow -10 998 92 4828 0.96 130 14:40 06.02.2020
3347 Snow -11 998 92 4828 0.96 130 14:22 06.02.2020
3348 Snow -11 998 92 4426 1.08 154 13:42 06.02.2020
3349 Snow -11 998 85 9656 0.87 160 13:24 06.02.2020
3350 Snow -11 997 92 4828 0.87 160 12:45 06.02.2020
3351 Snow -11 997 92 4828 0.87 160 12:19 06.02.2020
3352 Snow -11 997 78 3219 0.87 160 11:58 06.02.2020
3353 Clouds -12 997 92 16093 0.87 160 11:39 06.02.2020
3354 Clouds -12 997 92 16093 0.55 122 11:19 06.02.2020
3355 Clouds -12 996 78 16093 0.55 122 10:57 06.02.2020
3356 Clouds -12 996 84 12874 0.55 122 10:38 06.02.2020
3357 Clouds -12 996 84 12874 0.55 122 10:38 06.02.2020
3358 Clouds -13 996 84 12874 0.55 122 10:20 06.02.2020
3359 Clouds -13 996 92 16093 0.55 122 09:56 06.02.2020
3360 Clouds -13 996 92 16093 0.55 122 09:37 06.02.2020
3361 Clouds -13 996 92 16093 0.55 122 09:19 06.02.2020
3362 Clouds -13 995 84 14484 2.1 60 08:41 06.02.2020
3363 Snow -13 995 92 8047 2.1 40 08:22 06.02.2020
3364 Clouds -14 995 91 16093 0.45 140 07:48 06.02.2020
3365 Clouds -15 995 91 16093 0.45 140 07:27 06.02.2020
3366 Clouds -15 994 84 16093 0.45 140 06:37 06.02.2020
3367 Clouds -15 994 84 16093 0.45 140 06:37 06.02.2020
3368 Clouds -15 994 84 16093 0.45 140 06:37 06.02.2020
3369 Clouds -15 994 84 16093 0.45 140 06:18 06.02.2020
3370 Clouds -15 994 84 16093 0.61 68 04:53 06.02.2020
3371 Clouds -15 993 91 16093 0.61 68 03:21 06.02.2020
3372 Clouds -15 993 91 16093 0.61 68 03:21 06.02.2020
3373 Clouds -14 994 84 16093 0.61 68 02:37 06.02.2020
3374 Clouds -14 993 84 16093 0.49 125 01:41 06.02.2020
3375 Clouds -14 994 84 16093 0.37 110 00:59 06.02.2020
3376 Clouds -14 993 77 16093 0.37 110 00:26 06.02.2020
3377 Clouds -14 994 84 16093 0.37 110 23:48 05.02.2020
3378 Clouds -14 994 84 16093 0.37 110 23:29 05.02.2020
3379 Clouds -14 994 84 16093 0.5 80 22:59 05.02.2020
3380 Clouds -15 994 84 16093 0.5 80 22:40 05.02.2020
3381 Clouds -15 994 84 16093 0.5 80 22:40 05.02.2020
3382 Clouds -15 994 84 16093 0.5 80 22:22 05.02.2020
3383 Clouds -15 994 84 16093 0.5 80 22:22 05.02.2020
3384 Fog -17 993 70 805 0.5 80 21:55 05.02.2020
3385 Fog -17 993 70 805 0.5 80 21:55 05.02.2020
3386 Clouds -16 994 83 16093 0.5 80 21:36 05.02.2020
3387 Clouds -17 994 83 16093 0.5 80 21:18 05.02.2020
3388 Clouds -18 993 76 16093 0.5 80 20:39 05.02.2020
3389 Clouds -18 993 76 16093 0.5 80 20:39 05.02.2020
3390 Clouds -18 993 76 16093 0.5 80 20:39 05.02.2020
3391 Clouds -18 993 76 16093 0.57 111 20:20 05.02.2020
3392 Clouds -16 993 76 16093 0.56 97 19:58 05.02.2020
3393 Clouds -17 993 76 16093 0.56 97 19:38 05.02.2020
3394 Clouds -17 993 76 16093 0.56 97 19:19 05.02.2020
3395 Clear -17 993 83 16093 0.56 97 18:55 05.02.2020
3396 Clear -18 993 83 16093 0.56 97 18:36 05.02.2020
3397 Clear -18 993 83 16093 0.56 97 18:18 05.02.2020
3398 Clear -17 993 83 16093 0.56 97 17:38 05.02.2020
3399 Clear -18 993 83 16093 0.64 26 17:18 05.02.2020
3400 Clear -17 993 83 16093 0.64 26 16:57 05.02.2020
3401 Clear -17 993 83 16093 0.64 26 16:38 05.02.2020
3402 Clear -17 993 83 16093 0.64 26 16:19 05.02.2020
3403 Clear -16 992 84 16093 0.64 26 15:42 05.02.2020
3404 Clear -16 992 84 16093 0.64 26 15:19 05.02.2020
3405 Clouds -15 993 91 16093 0.64 26 14:57 05.02.2020
3406 Clouds -15 993 91 16093 0.64 26 14:38 05.02.2020
3407 Clouds -15 993 91 16093 0.89 52 14:20 05.02.2020
3408 Clouds -14 993 92 16093 0.89 52 13:43 05.02.2020
3409 Clouds -14 993 92 16093 0.53 74 13:22 05.02.2020
3410 Clouds -14 993 84 16093 0.53 74 12:55 05.02.2020
3411 Clouds -14 993 84 16093 0.53 74 12:36 05.02.2020
3412 Clouds -14 993 84 16093 0.53 74 12:18 05.02.2020
3413 Clouds -13 994 92 16093 0.53 74 11:41 05.02.2020
3414 Clouds -13 994 92 16093 0.53 74 11:22 05.02.2020
3415 Clouds -12 994 92 16093 0.55 77 10:44 05.02.2020
3416 Clouds -11 994 84 16093 0.55 77 10:26 05.02.2020
3417 Snow -11 993 85 8047 0.55 77 09:59 05.02.2020
3418 Clouds -11 994 85 16093 1.5 270 09:39 05.02.2020
3419 Clouds -11 994 85 16093 1.5 270 09:21 05.02.2020
3420 Clouds -10 994 85 16093 1.5 260 08:46 05.02.2020
3421 Clouds -10 994 92 16093 0.55 77 08:25 05.02.2020
3422 Clouds -10 994 92 16093 0.62 138 07:57 05.02.2020
3423 Clouds -10 994 92 16093 0.62 138 07:57 05.02.2020
3424 Clouds -10 994 92 16093 0.62 138 07:37 05.02.2020
3425 Snow -10 994 92 14484 0.62 138 06:58 05.02.2020
3426 Snow -10 994 92 16093 0.62 138 06:39 05.02.2020
3427 Snow -10 994 92 16093 0.62 138 06:19 05.02.2020
3428 Snow -10 994 92 12874 0.04 168 05:20 05.02.2020
3429 Snow -10 994 78 9656 0.04 168 04:54 05.02.2020
3430 Snow -10 994 78 4828 0.04 168 03:57 05.02.2020
3431 Snow -10 994 78 1609 0.04 168 02:39 05.02.2020
3432 Snow -11 994 78 1609 0.54 132 02:19 05.02.2020
3433 Snow -11 995 92 6437 0.53 134 00:54 05.02.2020
3434 Snow -11 995 92 4828 0.53 134 00:21 05.02.2020
3435 Snow -11 995 92 6437 1.5 260 23:40 04.02.2020
3436 Snow -11 995 92 6437 1.5 260 23:19 04.02.2020
3437 Snow -11 995 85 4023 1.5 270 22:57 04.02.2020
3438 Snow -12 995 92 6437 0.69 123 22:39 04.02.2020
3439 Snow -12 995 92 6437 0.69 123 22:20 04.02.2020
3440 Snow -12 995 78 3219 0.69 123 21:54 04.02.2020
3441 Snow -12 995 92 6437 0.69 123 21:36 04.02.2020
3442 Snow -13 995 92 6437 0.69 123 21:18 04.02.2020
3443 Snow -13 995 78 2414 0.69 123 20:44 04.02.2020
3444 Snow -14 995 84 4828 0.79 228 20:22 04.02.2020
3445 Snow -14 995 92 4828 0.79 228 19:59 04.02.2020
3446 Snow -14 994 84 8047 0.79 228 19:40 04.02.2020
3447 Snow -14 994 84 8047 0.79 228 19:22 04.02.2020
3448 Snow -14 994 71 2414 0.79 228 18:57 04.02.2020
3449 Clouds -15 994 92 16093 0.79 228 18:38 04.02.2020
3450 Clouds -15 994 92 16093 0.79 228 18:19 04.02.2020
3451 Clouds -15 994 92 16093 0.79 228 18:19 04.02.2020
3452 Clouds -15 994 92 16093 0.79 228 17:43 04.02.2020
3453 Clouds -15 993 77 16093 0.72 333 17:22 04.02.2020
3454 Clouds -15 993 77 16093 0.72 333 16:59 04.02.2020
3455 Clouds -16 994 92 16093 0.72 333 16:38 04.02.2020
3456 Clouds -16 994 92 16093 0.72 333 16:20 04.02.2020
3457 Clouds -16 994 84 16093 0.72 333 15:56 04.02.2020
3458 Clouds -16 994 84 16093 0.72 333 15:38 04.02.2020
3459 Clouds -17 994 84 16093 0.72 333 15:19 04.02.2020
3460 Clouds -17 994 84 16093 0.72 333 14:44 04.02.2020
3461 Clouds -17 994 84 16093 0.72 333 14:23 04.02.2020
3462 Clouds -17 995 91 16093 0.4 172 13:58 04.02.2020
3463 Clouds -18 995 91 16093 0.4 172 13:39 04.02.2020
3464 Clouds -18 995 91 16093 0.25 86 13:20 04.02.2020
3465 Clouds -18 995 84 16093 0.25 86 12:44 04.02.2020
3466 Clouds -18 995 84 16093 0.25 86 12:26 04.02.2020
3467 Clouds -19 996 83 16093 0.25 86 11:58 04.02.2020
3468 Clouds -18 996 83 16093 0.25 86 11:39 04.02.2020
3469 Clouds -19 996 83 16093 0.75 2 11:21 04.02.2020
3470 Clouds -18 996 83 16093 0.75 2 10:56 04.02.2020
3471 Clouds -18 996 83 16093 0.75 2 10:36 04.02.2020
3472 Clouds -19 996 83 16093 0.75 2 10:18 04.02.2020
3473 Clouds -18 996 83 16093 0.75 2 09:41 04.02.2020
3474 Clouds -18 996 83 16093 0.75 2 09:23 04.02.2020
3475 Clear -19 997 83 16093 0.75 2 08:50 04.02.2020
3476 Clear -18 997 83 16093 0.86 20 08:29 04.02.2020
3477 Clouds -17 997 76 16093 1.5 60 07:59 04.02.2020
3478 Clouds -17 997 76 16093 1.5 60 07:39 04.02.2020
3479 Clouds -17 997 76 16093 1.5 60 07:39 04.02.2020
3480 Clouds -18 997 76 16093 1.5 60 07:21 04.02.2020
3481 Clear -18 998 83 11265 1.27 24 06:43 04.02.2020
3482 Clear -17 998 84 11265 1.27 24 05:50 04.02.2020
3483 Clear -18 998 84 11265 1.27 24 05:28 04.02.2020
3484 Clear -15 999 77 12874 1.42 36 03:51 04.02.2020
3485 Clouds -15 999 70 16093 1.42 36 03:31 04.02.2020
3486 Clear -15 1000 91 12874 1.42 36 02:53 04.02.2020
3487 Clear -15 1000 91 12874 1.42 36 02:31 04.02.2020
3488 Clouds -14 1001 91 16093 0.67 64 01:52 04.02.2020
3489 Clouds -14 1001 91 16093 0.67 64 01:33 04.02.2020
3490 Clouds -13 1001 84 16093 0.67 56 00:41 04.02.2020
3491 Clouds -13 1001 84 16093 0.67 56 00:20 04.02.2020
3492 Clear -14 1002 91 16093 0.67 56 23:39 03.02.2020
3493 Clear -15 1002 91 16093 0.99 37 23:19 03.02.2020
3494 Clear -16 1002 91 16093 0.99 37 22:39 03.02.2020
3495 Clear -15 1002 91 16093 0.99 37 22:20 03.02.2020
3496 Clouds -16 1002 84 16093 0.99 37 21:54 03.02.2020
3497 Clouds -15 1002 84 16093 0.99 37 21:36 03.02.2020
3498 Clouds -15 1002 84 16093 0.99 37 21:18 03.02.2020
3499 Clouds -14 1002 91 16093 0.99 37 20:41 03.02.2020
3500 Clouds -15 1002 91 16093 1.02 40 20:19 03.02.2020
3501 Haze -15 1002 77 8047 1.02 40 19:56 03.02.2020
3502 Clouds -15 1002 78 16093 1.02 40 19:38 03.02.2020
3503 Clouds -15 1002 78 16093 1.02 40 19:19 03.02.2020
3504 Clouds -16 1002 84 16093 1.02 40 18:43 03.02.2020
3505 Clouds -16 1002 84 16093 1.02 40 18:24 03.02.2020
3506 Snow -16 1003 84 4828 1.02 40 17:59 03.02.2020
3507 Clouds -16 1003 77 16093 1.02 40 17:39 03.02.2020
3508 Clouds -16 1003 77 16093 1.1 45 17:20 03.02.2020
3509 Clouds -16 1003 77 16093 1.1 45 17:20 03.02.2020
3510 Clouds -16 1003 77 16093 1.1 45 17:20 03.02.2020
3511 Clouds -16 1003 77 16093 1.1 45 17:20 03.02.2020
3512 Clouds -18 1003 77 16093 1.1 45 16:55 03.02.2020
3513 Clouds -17 1003 77 16093 1.1 45 16:37 03.02.2020
3514 Clouds -18 1003 77 16093 1.1 45 16:18 03.02.2020
3515 Clouds -19 1004 76 16093 1.1 45 15:54 03.02.2020
3516 Clouds -19 1004 76 16093 1.1 45 15:36 03.02.2020
3517 Clouds -19 1004 76 16093 1.1 45 15:18 03.02.2020
3518 Clouds -19 1004 76 16093 1.1 45 15:18 03.02.2020
3519 Clouds -19 1005 83 16093 1.1 45 14:39 03.02.2020
3520 Clouds -20 1005 83 16093 1.55 35 14:21 03.02.2020
3521 Clouds -19 1005 83 16093 1.55 35 13:55 03.02.2020
3522 Clouds -19 1005 83 16093 1.55 35 13:36 03.02.2020
3523 Clouds -19 1005 83 16093 1.34 39 13:18 03.02.2020
3524 Clouds -19 1006 83 16093 1.34 39 12:40 03.02.2020
3525 Clouds -19 1006 83 16093 1.34 39 12:22 03.02.2020
3526 Clouds -19 1006 83 16093 1.34 39 11:58 03.02.2020
3527 Clouds -19 1006 83 16093 1.34 39 11:37 03.02.2020
3528 Clouds -19 1006 83 16093 0.98 61 11:18 03.02.2020
3529 Clouds -19 1007 76 16093 0.98 61 10:41 03.02.2020
3530 Clouds -19 1007 76 16093 0.98 61 10:23 03.02.2020
3531 Clouds -19 1007 76 16093 0.98 61 09:49 03.02.2020
3532 Clouds -19 1007 76 16093 0.98 61 09:28 03.02.2020
3533 Clouds -19 1007 76 16093 0.98 61 08:59 03.02.2020
3534 Clouds -20 1007 76 16093 0.98 61 08:40 03.02.2020
3535 Clouds -20 1007 76 16093 1.58 38 08:22 03.02.2020
3536 Clouds -21 1008 76 16093 1.46 32 07:42 03.02.2020
3537 Clouds -21 1008 76 16093 1.46 32 07:22 03.02.2020
3538 Clouds -22 1009 76 16093 1.46 32 06:55 03.02.2020
3539 Clouds -22 1009 76 16093 1.46 32 06:30 03.02.2020
3540 Clear -22 1009 75 16093 1.46 32 05:51 03.02.2020
3541 Clear -22 1009 75 16093 1.46 32 05:31 03.02.2020
3542 Clear -23 1010 75 16093 1.34 46 04:44 03.02.2020
3543 Clear -23 1011 75 16093 1.34 46 02:42 03.02.2020
3544 Clear -23 1011 75 16093 1.12 59 02:20 03.02.2020
3545 Clouds -24 1012 68 16093 1.5 330 00:49 03.02.2020
3546 Clouds -24 1013 82 16093 1.24 58 00:26 03.02.2020
3547 Clear -25 1014 74 16093 1.24 58 23:55 02.02.2020
3548 Clear -26 1014 74 16093 1.24 58 23:36 02.02.2020
3549 Clear -26 1014 74 16093 1.32 42 23:18 02.02.2020
3550 Clear -27 1015 74 16093 1.32 42 22:39 02.02.2020
3551 Clear -28 1015 74 16093 1.32 42 22:21 02.02.2020
3552 Clear -28 1016 67 16093 1.32 42 21:57 02.02.2020
3553 Clear -28 1016 67 16093 1.32 42 21:38 02.02.2020
3554 Clear -29 1016 67 16093 1.32 42 21:38 02.02.2020
3555 Clear -30 1016 67 16093 1.32 42 21:20 02.02.2020
3556 Clouds -32 1016 66 16093 1.32 42 20:57 02.02.2020
3557 Clouds -32 1016 66 16093 1.32 42 20:57 02.02.2020
3558 Clouds -32 1016 66 16093 1.32 42 20:39 02.02.2020
3559 Clouds -32 1016 66 16093 1.45 69 20:20 02.02.2020
3560 Clouds -31 1017 73 16093 1.45 69 19:56 02.02.2020
3561 Clouds -32 1017 73 16093 1.45 69 19:38 02.02.2020
3562 Clouds -32 1017 73 16093 1.45 69 19:19 02.02.2020
3563 Clouds -32 1018 73 16093 1.45 69 18:55 02.02.2020
3564 Clouds -33 1018 73 16093 1.45 69 18:36 02.02.2020
3565 Clouds -34 1018 73 16093 1.45 69 18:18 02.02.2020
3566 Clouds -33 1019 66 16093 1.45 69 17:56 02.02.2020
3567 Clouds -33 1019 66 16093 1.45 69 17:37 02.02.2020
3568 Clouds -33 1019 66 16093 1.86 53 17:18 02.02.2020
3569 Clouds -32 1020 65 16093 1.86 53 16:56 02.02.2020
3570 Clouds -32 1020 65 16093 1.86 53 16:37 02.02.2020
3571 Clouds -33 1020 65 16093 1.86 53 16:18 02.02.2020
3572 Clouds -33 1021 73 16093 1.86 53 15:40 02.02.2020
3573 Clouds -34 1021 73 16093 1.86 53 15:20 02.02.2020
3574 Clouds -34 1021 73 16093 1.86 53 15:20 02.02.2020
3575 Clouds -33 1022 73 16093 1.86 53 14:59 02.02.2020
3576 Clouds -33 1022 73 16093 1.86 53 14:41 02.02.2020
3577 Clouds -33 1022 73 16093 1.76 48 14:18 02.02.2020
3578 Mist -33 1021 59 8047 1.5 320 13:58 02.02.2020
3579 Clouds -34 1023 66 16093 1.76 48 13:37 02.02.2020
3580 Clouds -34 1023 66 16093 2 43 13:19 02.02.2020
3581 Clouds -34 1023 73 16093 2 43 12:46 02.02.2020
3582 Clouds -34 1023 73 16093 2 43 12:23 02.02.2020
3583 Clouds -32 1023 73 16093 1.78 49 11:59 02.02.2020
3584 Clouds -32 1023 73 16093 2 43 11:41 02.02.2020
3585 Clouds -34 1023 73 16093 1.98 44 11:19 02.02.2020
3586 Clouds -33 1023 73 16093 1.98 44 10:56 02.02.2020
3587 Clouds -34 1023 73 16093 1.88 45 10:37 02.02.2020
3588 Clouds -34 1023 73 16093 1.88 45 10:19 02.02.2020
3589 Clouds -33 1024 73 16093 1.98 44 09:55 02.02.2020
3590 Clouds -33 1024 73 16093 1.98 44 09:37 02.02.2020
3591 Clouds -34 1024 73 16093 1.98 44 09:19 02.02.2020
3592 Clouds -34 1024 73 16093 1.88 45 08:42 02.02.2020
3593 Clouds -33 1024 73 16093 1.98 44 08:24 02.02.2020
3594 Clouds -33 1024 73 16093 1.98 44 08:24 02.02.2020
3595 Clouds -33 1024 66 16093 1.44 52 07:46 02.02.2020
3596 Clouds -32 1024 66 16093 1.44 52 07:28 02.02.2020
3597 Clouds -33 1024 73 16093 1.5 50 06:43 02.02.2020
3598 Clouds -33 1024 73 16093 1.5 50 06:25 02.02.2020
3599 Clouds -32 1024 73 16093 1.44 52 05:47 02.02.2020
3600 Clouds -32 1024 73 16093 1.44 52 05:47 02.02.2020
3601 Clouds -32 1024 73 16093 0.89 89 04:47 02.02.2020
3602 Clouds -30 1027 79 0 0.89 89 03:26 02.02.2020
3603 Clouds -29 1021 68 16093 0.89 89 02:33 02.02.2020
3604 Clouds -29 1021 68 16093 1.1 155 01:54 02.02.2020
3605 Clouds -29 1021 68 16093 1.1 155 01:54 02.02.2020
3606 Clear -29 1022 82 16093 1.25 159 01:23 02.02.2020
3607 Clouds -28 1020 68 16093 1.25 159 00:44 02.02.2020
3608 Clouds -28 1021 67 16093 1.25 159 00:22 02.02.2020
3609 Clouds -29 1020 74 16093 1.25 159 23:47 01.02.2020
3610 Clouds -29 1020 74 16093 1.25 159 23:22 01.02.2020
3611 Clear -29 1020 73 16093 0.9 143 22:51 01.02.2020
3612 Clear -30 1020 73 16093 0.9 143 22:20 01.02.2020
3613 Clear -30 1020 73 16093 0.9 143 22:20 01.02.2020
3614 Clouds -29 1019 74 16093 0.9 143 21:59 01.02.2020
3615 Clouds -29 1019 74 16093 0.9 143 21:39 01.02.2020
3616 Clouds -30 1019 74 16093 0.9 143 21:18 01.02.2020
3617 Clouds -30 1019 74 12874 0.9 143 20:41 01.02.2020
3618 Clear -30 1018 82 16093 0.93 138 20:20 01.02.2020
3619 Clouds -29 1018 75 14484 0.98 137 19:57 01.02.2020
3620 Snow -29 1018 75 8047 0.98 137 19:39 01.02.2020
3621 Snow -29 1018 75 8047 0.98 137 19:19 01.02.2020
3622 Clouds -29 1017 75 16093 0.98 137 18:58 01.02.2020
3623 Snow -28 1017 75 9656 0.98 137 18:40 01.02.2020
3624 Snow -28 1017 75 9656 0.98 137 18:21 01.02.2020
3625 Snow -28 1016 75 6437 0.98 137 17:57 01.02.2020
3626 Snow -28 1016 75 6437 0.98 137 17:39 01.02.2020
3627 Snow -28 1016 75 6437 0.74 137 17:19 01.02.2020
3628 Snow -28 1015 68 9656 0.74 137 16:43 01.02.2020
3629 Snow -28 1015 75 11265 0.74 137 16:24 01.02.2020
3630 Snow -28 1014 75 11265 0.74 137 15:58 01.02.2020
3631 Snow -28 1014 75 11265 0.74 137 15:40 01.02.2020
3632 Snow -28 1014 75 11265 0.74 137 15:20 01.02.2020
3633 Snow -28 1013 82 9656 1.5 60 14:41 01.02.2020
3634 Snow -28 1013 82 9656 1.5 60 14:21 01.02.2020
3635 Snow -28 1013 68 4023 1.5 20 13:58 01.02.2020
3636 Snow -27 1012 82 6437 0.3 149 13:39 01.02.2020
3637 Snow -28 1012 82 6437 0.47 109 13:18 01.02.2020
3638 Snow -27 1011 68 6437 2.1 140 12:42 01.02.2020
3639 Snow -27 1011 68 4828 0.47 109 12:24 01.02.2020
3640 Snow -27 1011 75 8047 0.47 109 11:45 01.02.2020
3641 Snow -27 1011 75 9656 0.47 109 11:24 01.02.2020
3642 Snow -27 1010 68 4023 0.21 224 10:59 01.02.2020
3643 Snow -27 1010 75 6437 0.21 224 10:41 01.02.2020
3644 Snow -27 1010 75 6437 0.21 224 10:22 01.02.2020
3645 Snow -27 1009 75 6437 0.21 224 09:59 01.02.2020
3646 Snow -27 1009 75 6437 0.21 224 09:40 01.02.2020
3647 Snow -27 1009 75 6437 0.21 224 09:21 01.02.2020
3648 Snow -27 1008 68 4426 1.5 170 08:54 01.02.2020
3649 Snow -27 1008 75 9656 0.48 203 07:59 01.02.2020
3650 Snow -27 1007 75 9656 0.48 203 07:40 01.02.2020
3651 Snow -27 1007 75 9656 0.48 203 07:40 01.02.2020
3652 Snow -27 1007 75 9656 0.48 203 07:22 01.02.2020
3653 Snow -27 1007 75 16093 0.48 203 06:43 01.02.2020
3654 Snow -27 1007 75 16093 0.48 203 06:43 01.02.2020
3655 Snow -27 1006 82 8047 0.48 203 05:54 01.02.2020
3656 Snow -27 1006 82 8047 0.48 203 05:54 01.02.2020
3657 Snow -27 1006 82 8047 0.48 203 05:54 01.02.2020
3658 Snow -27 1006 75 8047 0.54 232 04:22 01.02.2020
3659 Snow -27 1005 75 8047 0.54 232 03:25 01.02.2020
3660 Snow -27 1005 68 6437 0.54 232 02:55 01.02.2020
3661 Snow -27 1005 75 4828 0.54 232 02:37 01.02.2020
3662 Snow -27 1005 75 4828 0.73 204 02:18 01.02.2020
3663 Clouds -26 1005 75 16093 0.73 204 01:39 01.02.2020
3664 Snow -27 1004 75 9656 0.75 203 00:47 01.02.2020
3665 Snow -27 1004 75 3219 0.75 203 00:23 01.02.2020
3666 Snow -26 1004 68 9656 0.75 203 23:40 31.01.2020
3667 Snow -26 1004 68 9656 0.47 159 23:18 31.01.2020
3668 Clouds -27 1004 75 16093 0.47 159 22:56 31.01.2020
3669 Clouds -27 1004 75 16093 0.47 159 22:37 31.01.2020
3670 Clouds -27 1004 75 16093 0.47 159 22:19 31.01.2020
3671 Clouds -27 1003 75 11265 0.47 159 21:40 31.01.2020
3672 Clouds -27 1003 75 11265 0.47 159 21:40 31.01.2020
3673 Clouds -28 1003 75 11265 0.47 159 21:21 31.01.2020
3674 Clouds -28 1003 75 14484 0.47 159 20:57 31.01.2020
3675 Clouds -27 1003 75 14484 0.47 159 20:39 31.01.2020
3676 Clouds -28 1003 75 14484 0.81 184 20:21 31.01.2020
3677 Clouds -28 1002 75 14484 0.71 186 19:57 31.01.2020
3678 Snow -28 1002 75 11265 1.5 70 19:38 31.01.2020
3679 Snow -28 1002 75 11265 1.5 70 19:20 31.01.2020
3680 Snow -27 1002 75 8047 0.71 186 18:56 31.01.2020
3681 Snow -27 1002 75 8047 0.71 186 18:36 31.01.2020
3682 Snow -27 1002 75 8047 0.71 186 18:18 31.01.2020
3683 Snow -27 1001 75 8047 0.71 186 17:43 31.01.2020
3684 Snow -27 1001 75 8047 0.71 186 17:24 31.01.2020
3685 Snow -28 1001 82 6437 0.33 226 16:57 31.01.2020
3686 Snow -28 1001 82 6437 0.33 226 16:38 31.01.2020
3687 Snow -28 1001 82 6437 0.33 226 16:19 31.01.2020
3688 Snow -28 1000 75 14484 0.33 226 15:57 31.01.2020
3689 Snow -28 1000 75 14484 0.33 226 15:38 31.01.2020
3690 Snow -28 1000 75 14484 0.33 226 15:19 31.01.2020
3691 Clouds -29 1000 75 16093 0.33 226 14:42 31.01.2020
3692 Clouds -29 1000 75 16093 0.33 226 14:23 31.01.2020
3693 Snow -29 999 74 16093 1.5 70 13:53 31.01.2020
3694 Snow -29 999 74 16093 1.5 70 13:33 31.01.2020
3695 Snow -29 998 68 14484 0.23 337 12:58 31.01.2020
3696 Snow -29 998 75 11265 0.34 286 12:39 31.01.2020
3697 Snow -28 998 75 11265 0.34 286 12:21 31.01.2020
3698 Clouds -28 998 75 16093 0.34 286 11:44 31.01.2020
3699 Clouds -28 998 75 16093 0.34 286 11:26 31.01.2020
3700 Clouds -28 998 75 16093 0.71 340 10:59 31.01.2020
3701 Clouds -28 998 75 16093 0.56 348 10:41 31.01.2020
3702 Clouds -29 998 75 16093 0.71 340 10:21 31.01.2020
3703 Clouds -29 997 74 16093 0.56 348 09:56 31.01.2020
3704 Clouds -29 997 74 16093 0.56 348 09:38 31.01.2020
3705 Clouds -29 997 74 16093 0.56 348 09:18 31.01.2020
3706 Clouds -29 996 74 16093 0.56 348 08:50 31.01.2020
3707 Clouds -29 996 74 16093 0.56 348 08:25 31.01.2020
3708 Clouds -29 996 74 16093 0.56 348 08:25 31.01.2020
3709 Clouds -29 994 74 16093 1.29 350 07:52 31.01.2020
3710 Clouds -29 994 74 16093 1.29 350 07:24 31.01.2020
3711 Clouds -29 994 74 11265 1.29 350 06:42 31.01.2020
3712 Clouds -28 994 75 11265 1.29 350 05:58 31.01.2020
3713 Clouds -29 994 75 11265 1.29 350 05:40 31.01.2020
3714 Clouds -27 993 61 16093 1.29 320 04:47 31.01.2020
3715 Mist -25 992 82 8047 1.29 320 02:58 31.01.2020
3716 Clouds -23 992 69 16093 2.6 200 01:32 31.01.2020
3717 Clouds -22 991 76 12874 0.97 310 00:43 31.01.2020
3718 Clouds -22 991 76 12874 0.97 310 00:24 31.01.2020
3719 Clouds -23 991 69 16093 0.97 310 23:53 30.01.2020
3720 Clouds -23 992 76 16093 0.97 310 23:24 30.01.2020
3721 Clouds -23 992 76 16093 1.01 317 22:56 30.01.2020
3722 Clouds -23 992 76 16093 1.01 317 22:36 30.01.2020
3723 Clouds -23 992 76 16093 1.01 317 22:18 30.01.2020
3724 Snow -23 991 69 3219 1.01 317 21:43 30.01.2020
3725 Clouds -23 992 76 14484 1.01 317 21:20 30.01.2020
3726 Clouds -23 992 76 16093 1.01 317 20:59 30.01.2020
3727 Clouds -24 992 76 16093 1.01 317 20:39 30.01.2020
3728 Clouds -24 992 76 16093 1.37 346 20:21 30.01.2020
3729 Clouds -24 992 83 16093 1.37 346 19:55 30.01.2020
3730 Clouds -24 992 83 16093 1.37 346 19:36 30.01.2020
3731 Clouds -24 992 83 16093 1.37 346 19:18 30.01.2020
3732 Clouds -24 992 83 16093 1.37 346 18:39 30.01.2020
3733 Clouds -24 992 83 16093 1.37 346 18:20 30.01.2020
3734 Clouds -24 992 69 16093 1.37 346 17:55 30.01.2020
3735 Clouds -24 992 69 16093 1.37 346 17:36 30.01.2020
3736 Clouds -24 992 69 16093 1.25 359 17:18 30.01.2020
3737 Clouds -24 992 76 16093 1.25 359 16:56 30.01.2020
3738 Clouds -24 992 76 16093 1.25 359 16:36 30.01.2020
3739 Clouds -24 992 76 16093 1.25 359 16:18 30.01.2020
3740 Clouds -24 991 76 16093 1.25 359 15:41 30.01.2020
3741 Clouds -24 991 76 16093 1.25 359 15:19 30.01.2020
3742 Clouds -24 991 76 16093 1.25 359 15:19 30.01.2020
3743 Clouds -24 991 76 16093 1.25 359 14:44 30.01.2020
3744 Clouds -24 991 76 16093 2.02 24 14:26 30.01.2020
3745 Clouds -23 990 76 16093 2.02 24 13:43 30.01.2020
3746 Clouds -23 990 76 16093 2.39 26 13:25 30.01.2020
3747 Clouds -23 989 76 16093 2.39 26 12:59 30.01.2020
3748 Clouds -23 989 76 16093 2.39 26 12:40 30.01.2020
3749 Clouds -23 989 76 16093 2.39 26 12:22 30.01.2020
3750 Clouds -24 988 83 16093 2.39 26 11:54 30.01.2020
3751 Clouds -24 988 83 16093 2.39 26 11:36 30.01.2020
3752 Clouds -24 988 83 16093 1.91 7 11:18 30.01.2020
3753 Clouds -24 987 76 16093 1.91 7 10:41 30.01.2020
3754 Clouds -24 987 76 16093 1.91 7 10:21 30.01.2020
3755 Clouds -24 987 83 16093 1.91 7 09:47 30.01.2020
3756 Clouds -24 987 83 16093 1.91 7 09:29 30.01.2020
3757 Clouds -24 987 83 16093 1.91 7 08:58 30.01.2020
3758 Snow -24 986 76 16093 1.91 7 08:38 30.01.2020
3759 Snow -24 986 76 16093 2.61 38 08:19 30.01.2020
3760 Clouds -24 986 76 16093 2.61 38 07:48 30.01.2020
3761 Snow -24 985 83 6437 2.61 38 07:20 30.01.2020
3762 Snow -24 985 69 4828 2.61 38 06:47 30.01.2020
3763 Snow -24 985 69 4828 2.61 38 06:47 30.01.2020
3764 Snow -24 984 69 2816 2.61 38 06:27 30.01.2020
3765 Snow -25 984 75 4828 2.61 38 05:43 30.01.2020
3766 Snow -25 984 83 2816 2.54 28 05:19 30.01.2020
3767 Snow -25 983 75 16093 2.54 28 03:53 30.01.2020
3768 Clouds -25 983 75 16093 2.54 28 03:35 30.01.2020
3769 Snow -26 983 75 14484 2.4 33 02:19 30.01.2020
3770 Clouds -26 982 74 16093 2.28 26 00:40 30.01.2020
3771 Clouds -27 982 74 16093 2.28 26 00:20 30.01.2020
3772 Clouds -28 982 74 16093 2.28 26 23:45 29.01.2020
3773 Clouds -28 982 74 16093 2.18 13 23:21 29.01.2020
3774 Clouds -28 982 74 16093 2.18 13 23:21 29.01.2020
3775 Clouds -29 982 74 16093 2.18 13 22:56 29.01.2020
3776 Clouds -30 982 74 16093 2.18 13 22:38 29.01.2020
3777 Clouds -30 982 74 16093 2.18 13 22:19 29.01.2020
3778 Clouds -30 982 74 16093 2.18 13 22:19 29.01.2020
3779 Haze -31 983 74 6437 2.18 13 21:57 29.01.2020
3780 Haze -31 983 74 6437 2.18 13 21:38 29.01.2020
3781 Haze -31 983 74 6437 2.18 13 21:19 29.01.2020
3782 Haze -31 983 74 3219 2.18 13 20:57 29.01.2020
3783 Haze -31 983 74 6437 2.18 13 20:37 29.01.2020
3784 Haze -31 983 74 6437 1.8 5 20:19 29.01.2020
3785 Haze -31 983 67 9656 1.8 5 19:55 29.01.2020
3786 Clouds -31 984 67 16093 1.8 5 19:37 29.01.2020
3787 Clouds -31 984 67 16093 1.8 5 19:37 29.01.2020
3788 Clouds -31 984 67 16093 1.8 5 19:18 29.01.2020
3789 Clouds -31 985 67 16093 1.8 5 18:43 29.01.2020
3790 Clouds -32 985 67 16093 1.8 5 18:19 29.01.2020
3791 Haze -32 986 74 9656 1.8 5 17:56 29.01.2020
3792 Haze -32 986 74 9656 1.8 5 17:37 29.01.2020
3793 Haze -32 986 74 9656 2 12 17:19 29.01.2020
3794 Clouds -32 986 61 16093 2 12 16:41 29.01.2020
3795 Haze -32 987 74 6437 2 12 16:22 29.01.2020
3796 Clear -32 989 74 14484 2 12 15:55 29.01.2020
3797 Clear -33 989 74 14484 2 12 15:36 29.01.2020
3798 Clear -33 989 74 14484 2 12 15:18 29.01.2020
3799 Clear -33 990 74 16093 2 12 14:41 29.01.2020
3800 Clear -33 990 74 16093 1.91 3 14:20 29.01.2020
3801 Clouds -34 992 73 16093 1.91 3 13:41 29.01.2020
3802 Clouds -34 992 73 16093 1.76 8 13:22 29.01.2020
3803 Clouds -33 993 73 16093 1.76 8 12:59 29.01.2020
3804 Clouds -34 993 73 16093 1.76 8 12:39 29.01.2020
3805 Clouds -34 993 73 16093 1.76 8 12:21 29.01.2020
3806 Clouds -34 995 66 16093 1.76 8 11:58 29.01.2020
3807 Clouds -34 995 66 16093 1.76 8 11:39 29.01.2020
3808 Clouds -35 995 66 16093 2.17 13 11:19 29.01.2020
3809 Clouds -35 996 73 16093 2.17 13 10:46 29.01.2020
3810 Clouds -34 997 74 16093 2.17 13 10:22 29.01.2020
3811 Clouds -33 997 74 16093 2.17 13 09:57 29.01.2020
3812 Clouds -33 997 74 16093 2.17 13 09:38 29.01.2020
3813 Clouds -33 997 74 16093 2.17 13 09:18 29.01.2020
3814 Clear -33 998 73 16093 2.17 13 08:41 29.01.2020
3815 Clear -33 998 73 16093 1.69 12 08:22 29.01.2020
3816 Clouds -33 998 90 16093 1.5 110 07:45 29.01.2020
3817 Clouds -34 998 90 16093 1.5 110 07:25 29.01.2020
3818 Haze -34 1000 73 9656 2.24 8 06:55 29.01.2020
3819 Haze -34 1000 73 9656 2.24 8 06:37 29.01.2020
3820 Haze -34 1000 73 9656 2.24 8 06:37 29.01.2020
3821 Haze -34 1000 73 9656 2.24 8 06:19 29.01.2020
3822 Clear -33 1000 73 16093 2.24 8 05:47 29.01.2020
3823 Clear -34 1000 73 16093 2.24 8 05:29 29.01.2020
3824 Clouds -32 1001 73 16093 2.1 12 04:38 29.01.2020
3825 Clear -32 1001 73 16093 2.1 12 03:55 29.01.2020
3826 Clear -30 1002 74 16093 2.1 12 02:33 29.01.2020
3827 Clear -29 1002 74 16093 1.46 19 00:57 29.01.2020
3828 Clear -29 1002 74 16093 1.46 19 00:36 29.01.2020
3829 Clear -29 1002 74 16093 1.46 19 00:18 29.01.2020
3830 Clear -30 1002 74 16093 1.46 19 23:38 28.01.2020
3831 Clear -30 1002 74 16093 1.72 23 23:19 28.01.2020
3832 Clear -30 1002 74 16093 1.72 23 22:46 28.01.2020
3833 Clear -30 1002 74 16093 1.72 23 22:27 28.01.2020
3834 Clouds -32 1002 73 16093 1.72 23 21:54 28.01.2020
3835 Clouds -32 1002 73 16093 1.72 23 21:36 28.01.2020
3836 Clouds -32 1002 73 16093 1.72 23 21:18 28.01.2020
3837 Clouds -30 1002 74 16093 1.72 23 20:45 28.01.2020
3838 Clouds -31 1002 74 16093 1.72 23 20:25 28.01.2020
3839 Clouds -29 1002 74 16093 1.39 9 19:55 28.01.2020
3840 Clouds -29 1002 74 16093 1.39 9 19:37 28.01.2020
3841 Clouds -30 1002 74 16093 1.39 9 19:19 28.01.2020
3842 Clouds -30 1002 74 16093 1.39 9 19:19 28.01.2020
3843 Clouds -30 1002 74 16093 1.39 9 18:41 28.01.2020
3844 Clouds -30 1002 74 16093 1.39 9 18:23 28.01.2020
3845 Snow -30 1002 74 16093 1.39 9 17:59 28.01.2020
3846 Snow -30 1002 74 16093 1.39 9 17:59 28.01.2020
3847 Clouds -32 1002 74 16093 1.39 9 17:39 28.01.2020
3848 Clouds -32 1002 74 16093 1.78 15 17:21 28.01.2020
3849 Clouds -33 1001 60 11265 1.78 15 16:58 28.01.2020
3850 Clouds -32 1002 73 16093 1.78 15 16:40 28.01.2020
3851 Clouds -33 1002 73 16093 1.78 15 16:21 28.01.2020
3852 Clouds -33 1003 66 16093 1.78 15 15:47 28.01.2020
3853 Clouds -33 1003 66 16093 1.78 15 15:19 28.01.2020
3854 Clear -32 1003 73 16093 1.78 15 14:58 28.01.2020
3855 Clear -32 1003 73 16093 1.78 15 14:39 28.01.2020
3856 Clear -32 1003 73 16093 1.75 9 14:18 28.01.2020
3857 Clouds -32 1003 73 16093 1.75 9 13:41 28.01.2020
3858 Clouds -32 1003 73 16093 1.75 9 13:23 28.01.2020
3859 Clear -32 1004 73 16093 2.05 18 12:43 28.01.2020
3860 Clear -31 1004 73 16093 2.05 18 12:24 28.01.2020
3861 Clear -31 1004 73 16093 2.05 18 12:24 28.01.2020
3862 Clouds -31 1003 59 12874 2.05 18 11:58 28.01.2020
3863 Clouds -31 1005 67 16093 2.05 18 11:39 28.01.2020
3864 Clouds -31 1005 67 16093 1.16 31 11:20 28.01.2020
3865 Haze -31 1005 74 9656 1.16 31 10:42 28.01.2020
3866 Haze -31 1005 74 9656 1.16 31 10:24 28.01.2020
3867 Clouds -32 1004 73 14484 1.16 31 09:58 28.01.2020
3868 Clouds -32 1004 73 14484 1.16 31 09:38 28.01.2020
3869 Clouds -32 1004 73 14484 1.16 31 09:19 28.01.2020
3870 Clouds -31 1005 74 16093 1.16 31 08:44 28.01.2020
3871 Clouds -30 1005 74 16093 1.16 31 08:22 28.01.2020
3872 Clouds -30 1006 74 16093 1.37 32 07:42 28.01.2020
3873 Clouds -30 1006 74 16093 1.37 32 07:23 28.01.2020
3874 Clouds -30 1006 74 12874 1.37 32 06:44 28.01.2020
3875 Mist -30 1006 74 6437 1.37 32 06:23 28.01.2020
3876 Snow -30 1007 74 14484 1.37 32 05:35 28.01.2020
3877 Clouds -30 1007 74 16093 1.33 15 04:40 28.01.2020
3878 Snow -30 1007 74 6437 1.33 15 03:41 28.01.2020
3879 Clouds -31 1007 74 16093 1.33 15 02:43 28.01.2020
3880 Clouds -31 1007 74 16093 1.33 15 02:24 28.01.2020
3881 Snow -31 1008 67 6437 1.16 24 01:50 28.01.2020
3882 Mist -31 1008 67 4828 1.03 27 00:58 28.01.2020
3883 Mist -32 1008 67 4828 1.03 27 00:39 28.01.2020
3884 Mist -32 1008 67 4828 1.03 27 00:19 28.01.2020
3885 Mist -32 1008 60 3219 1.03 27 23:42 27.01.2020
3886 Clouds -33 1009 73 16093 1.57 35 23:18 27.01.2020
3887 Mist -33 1009 89 3219 1.57 35 22:44 27.01.2020
3888 Clouds -33 1009 73 16093 1.57 35 22:20 27.01.2020
3889 Clouds -33 1009 73 16093 1.57 35 22:20 27.01.2020
3890 Clouds -33 1009 73 16093 1.57 35 22:20 27.01.2020
3891 Clouds -33 1009 73 11265 1.57 35 21:57 27.01.2020
3892 Clouds -34 1009 73 11265 1.57 35 21:38 27.01.2020
3893 Clouds -34 1009 73 11265 1.57 35 21:38 27.01.2020
3894 Clouds -35 1009 73 11265 1.57 35 21:18 27.01.2020
3895 Mist -35 1008 58 4828 2.6 0 20:56 27.01.2020
3896 Haze -35 1009 72 6437 1.83 32 20:37 27.01.2020
3897 Haze -35 1009 72 6437 1.8 27 20:18 27.01.2020
3898 Snow -34 1009 87 11265 1.82 28 19:42 27.01.2020
3899 Snow -35 1009 87 11265 1.82 28 19:23 27.01.2020
3900 Haze -35 1009 65 4828 1.82 28 18:59 27.01.2020
3901 Haze -35 1009 65 4828 1.82 28 18:39 27.01.2020
3902 Haze -35 1009 65 4828 1.82 28 18:21 27.01.2020
3903 Haze -35 1009 65 4828 1.82 28 18:21 27.01.2020
3904 Snow -33 1009 87 8047 1.82 28 17:57 27.01.2020
3905 Clouds -33 978 80 0 1.82 28 17:37 27.01.2020
3906 Clouds -33 978 80 0 1.82 28 17:37 27.01.2020
3907 Clear -33 1009 73 16093 2.05 29 17:18 27.01.2020
3908 Clear -33 1009 73 16093 2.05 29 16:42 27.01.2020
3909 Clear -33 1009 73 16093 2.05 29 16:24 27.01.2020
3910 Clear -32 1009 73 16093 2.05 29 15:59 27.01.2020
3911 Clear -32 1009 73 16093 2.05 29 15:40 27.01.2020
3912 Clear -32 1009 73 16093 2.05 29 15:19 27.01.2020
3913 Clouds -31 1009 74 16093 2.05 29 14:55 27.01.2020
3914 Clouds -31 1009 74 16093 2.05 29 14:37 27.01.2020
3915 Clouds -30 1009 74 16093 2.14 28 14:18 27.01.2020
3916 Clouds -29 1009 74 16093 2.14 28 13:42 27.01.2020
3917 Clouds -30 1009 74 16093 2.14 28 13:21 27.01.2020
3918 Clouds -29 1009 74 16093 2.31 26 12:56 27.01.2020
3919 Snow -30 1009 74 14484 2.31 26 12:38 27.01.2020
3920 Snow -30 1009 74 14484 2.31 26 12:19 27.01.2020
3921 Clouds -30 1010 74 16093 2.31 26 11:42 27.01.2020
3922 Clouds -30 1009 74 16093 2.31 26 11:42 27.01.2020
3923 Clouds -30 1009 74 16093 2.08 28 11:21 27.01.2020
3924 Clouds -30 1009 74 16093 2.08 28 11:21 27.01.2020
3925 Clear -31 1009 66 16093 2.08 28 10:55 27.01.2020
3926 Clear -31 1009 66 16093 2.08 28 10:36 27.01.2020
3927 Clear -31 1009 66 16093 2.08 28 10:18 27.01.2020
3928 Clear -32 1009 66 14484 2.08 28 09:39 27.01.2020
3929 Snow -31 1009 67 8047 2.08 28 09:18 27.01.2020
3930 Clear -31 1009 74 16093 2.08 28 08:47 27.01.2020
3931 Clear -31 1009 74 16093 2.03 32 08:23 27.01.2020
3932 Snow -30 1008 68 9656 2.09 18 07:55 27.01.2020
3933 Snow -29 1008 68 9656 2.09 18 07:36 27.01.2020
3934 Snow -29 1008 68 6437 2.09 18 06:55 27.01.2020
3935 Snow -29 1008 75 6437 2.09 18 06:32 27.01.2020
3936 Snow -28 1007 75 3621 2.09 18 05:37 27.01.2020
3937 Snow -28 1007 74 6437 1.5 70 04:20 27.01.2020
3938 Snow -28 1007 74 6437 1.63 2 03:27 27.01.2020
3939 Snow -28 1006 68 3219 2.54 22 01:32 27.01.2020
3940 Snow -28 1006 74 3621 2.04 24 00:59 27.01.2020
3941 Snow -28 1007 82 4828 2.04 24 00:38 27.01.2020
3942 Snow -28 1007 82 4828 2.04 24 00:19 27.01.2020
3943 Snow -28 1006 68 3219 2.04 24 23:42 26.01.2020
3944 Snow -29 1007 74 4828 1.46 342 23:20 26.01.2020
3945 Snow -29 1007 74 4023 1.46 342 22:57 26.01.2020
3946 Snow -29 1007 67 3017 1.46 342 22:37 26.01.2020
3947 Snow -29 1007 67 3017 1.46 342 22:19 26.01.2020
3948 Snow -29 1007 74 4023 1.46 342 21:57 26.01.2020
3949 Snow -29 1008 67 4828 1.46 342 21:38 26.01.2020
3950 Snow -30 1008 67 4828 1.46 342 21:19 26.01.2020
3951 Snow -30 1008 73 4828 1.46 342 20:56 26.01.2020
3952 Snow -30 1008 73 4828 1.46 342 20:38 26.01.2020
3953 Snow -31 1008 73 4828 0.99 341 20:18 26.01.2020
3954 Snow -31 1008 98 1609 1.5 210 19:57 26.01.2020
3955 Snow -31 1008 98 1609 0.99 341 19:37 26.01.2020
3956 Snow -31 1008 98 1609 0.99 341 19:18 26.01.2020
3957 Snow -33 1009 73 14484 0.99 341 18:41 26.01.2020
3958 Snow -33 1009 73 11265 0.99 341 18:22 26.01.2020
3959 Snow -33 1009 66 4828 0.99 341 17:59 26.01.2020
3960 Snow -33 1009 66 4828 0.99 341 17:59 26.01.2020
3961 Snow -33 1010 65 11265 0.99 341 17:39 26.01.2020
3962 Clouds -34 1010 65 11265 1.59 12 17:20 26.01.2020
3963 Clouds -33 1011 72 11265 1.59 12 16:59 26.01.2020
3964 Clouds -34 1011 72 11265 1.59 12 16:40 26.01.2020
3965 Clouds -33 1011 72 11265 1.59 12 16:21 26.01.2020
3966 Clouds -27 979 80 0 1.59 12 15:58 26.01.2020
3967 Clouds -27 979 80 0 1.59 12 15:58 26.01.2020
3968 Clouds -27 1013 58 0 1.59 12 15:40 26.01.2020
3969 Clouds -27 979 80 0 1.59 12 15:19 26.01.2020
3970 Clouds -28 1008 71 0 1.59 12 14:41 26.01.2020
3971 Clouds -26 1011 58 0 1.34 31 14:23 26.01.2020
3972 Clouds -26 1013 69 0 1.79 41 13:57 26.01.2020
3973 Clouds -26 1012 57 0 0.45 235 13:37 26.01.2020
3974 Clouds -26 981 80 0 2 27 13:18 26.01.2020
3975 Clouds -26 1012 59 0 0.45 284 12:42 26.01.2020
3976 Clouds -26 1013 59 0 0.89 265 12:24 26.01.2020
3977 Clouds -26 1013 58 0 0.89 273 11:58 26.01.2020
3978 Clouds -26 1018 78 0 2 27 11:39 26.01.2020
3979 Clouds -29 1015 65 16093 2.14 29 11:19 26.01.2020
3980 Clouds -30 1015 65 16093 2.14 29 10:59 26.01.2020
3981 Clouds -31 1015 65 16093 2.14 29 10:38 26.01.2020
3982 Clouds -32 1015 65 16093 2.14 29 10:20 26.01.2020
3983 Clouds -31 1014 58 14484 2.14 29 09:58 26.01.2020
3984 Clouds -31 1015 73 16093 2.14 29 09:40 26.01.2020
3985 Clouds -32 1015 73 16093 2.14 29 09:21 26.01.2020
3986 Clouds -29 1015 73 16093 2.14 29 08:44 26.01.2020
3987 Clouds -29 1015 73 16093 2.27 25 08:23 26.01.2020
3988 Clouds -27 1015 66 16093 2.33 22 07:58 26.01.2020
3989 Clouds -28 1015 66 16093 2.33 22 07:40 26.01.2020
3990 Clouds -28 1015 66 16093 2.33 22 07:21 26.01.2020
3991 Clear -30 1015 66 16093 2.33 22 06:31 26.01.2020
3992 Clear -30 1015 66 16093 2.33 22 05:32 26.01.2020
3993 Clear -28 1015 74 16093 2.7 20 04:45 26.01.2020
3994 Clear -27 1015 74 16093 2.7 20 02:59 26.01.2020
3995 Haze -25 1015 75 4828 1.5 170 01:57 26.01.2020
3996 Haze -25 1015 75 4828 1.5 170 01:37 26.01.2020
3997 Haze -25 1015 75 4828 1.5 170 01:18 26.01.2020
3998 Clear -25 1015 74 16093 2.36 22 00:38 26.01.2020
3999 Clear -25 1015 74 16093 2.36 22 00:20 26.01.2020
4000 Clouds -24 1017 79 0 2.36 22 23:37 25.01.2020
4001 Clouds -24 982 75 0 2.28 24 23:18 25.01.2020
4002 Clouds -22 982 75 0 2.28 24 22:41 25.01.2020
4003 Clouds -21 982 73 0 2.28 24 22:19 25.01.2020
4004 Clouds -21 1014 57 0 0.45 260 21:57 25.01.2020
4005 Clouds -21 1017 64 0 2.68 54 21:39 25.01.2020
4006 Clouds -21 1011 77 0 2.28 24 21:20 25.01.2020
4007 Clouds -25 1018 85 0 2.28 24 20:44 25.01.2020
4008 Clouds -25 1019 85 0 2.15 26 20:25 25.01.2020
4009 Clouds -25 1019 87 0 2.21 24 19:56 25.01.2020
4010 Clouds -24 1017 68 0 1.34 57 19:37 25.01.2020
4011 Clouds -24 982 85 0 2.21 24 19:19 25.01.2020
4012 Clouds -25 1013 64 0 0.89 49 18:44 25.01.2020
4013 Clouds -24 1013 65 0 2.35 19 18:23 25.01.2020
4014 Clouds -24 1013 66 0 2.35 19 17:59 25.01.2020
4015 Clouds -24 1016 82 0 2.35 19 17:39 25.01.2020
4016 Clouds -23 1013 67 0 1.82 12 17:19 25.01.2020
4017 Clouds -23 1016 83 0 1.82 12 16:56 25.01.2020
4018 Clouds -23 1013 67 0 0.45 344 16:37 25.01.2020
4019 Clouds -22 1013 67 0 0.45 344 16:18 25.01.2020
4020 Clouds -22 1016 83 0 1.82 12 15:42 25.01.2020
4021 Clouds -21 1016 69 0 1.82 12 15:23 25.01.2020
4022 Clouds -21 1013 69 0 1.82 12 14:46 25.01.2020
4023 Clouds -21 1013 68 0 1.71 11 14:19 25.01.2020
4024 Clouds -21 1016 84 0 1.71 11 13:57 25.01.2020
4025 Clouds -21 1016 83 0 1.71 11 13:39 25.01.2020
4026 Clouds -21 1012 66 0 1.71 11 13:20 25.01.2020
4027 Clouds -21 1015 84 0 1.79 8 12:42 25.01.2020
4028 Clouds -20 1012 70 16093 1.79 8 12:21 25.01.2020
4029 Clouds -20 1012 70 16093 1.79 8 11:45 25.01.2020
4030 Clouds -20 1012 70 16093 1.53 357 11:21 25.01.2020
4031 Snow -20 1012 76 16093 1.53 357 10:56 25.01.2020
4032 Clouds -20 1011 83 14484 1.53 357 10:38 25.01.2020
4033 Clouds -20 1011 83 14484 1.53 357 10:19 25.01.2020
4034 Snow -20 1011 76 14484 1.53 357 09:40 25.01.2020
4035 Snow -20 1011 76 14484 1.53 357 09:21 25.01.2020
4036 Snow -20 1011 76 14484 2.1 300 08:44 25.01.2020
4037 Clouds -20 1011 76 16093 2.6 290 08:21 25.01.2020
4038 Snow -20 1010 70 4828 2.6 330 07:43 25.01.2020
4039 Snow -20 1010 70 4828 2.6 330 07:43 25.01.2020
4040 Clouds -21 1010 76 16093 1.45 345 06:45 25.01.2020
4041 Clouds -21 1010 76 16093 1.45 345 06:27 25.01.2020
4042 Clear -21 1010 70 16093 1.45 345 05:45 25.01.2020
4043 Clouds -20 1009 70 16093 2.1 30 04:26 25.01.2020
4044 Clouds -19 1009 70 16093 3.1 30 03:50 25.01.2020
4045 Clouds -19 1009 70 16093 3.6 10 02:53 25.01.2020
4046 Snow -19 1008 70 9656 3.6 350 01:59 25.01.2020
4047 Snow -19 1008 70 9656 3.6 350 01:59 25.01.2020
4048 Snow -19 1008 70 9656 3.6 350 01:59 25.01.2020
4049 Snow -19 1008 70 9656 3.6 350 01:37 25.01.2020
4050 Snow -19 1008 70 8047 3.6 360 00:43 25.01.2020
4051 Snow -19 1008 77 4828 3.1 10 00:24 25.01.2020
4052 Snow -19 1009 77 8047 1.2 319 23:57 24.01.2020
4053 Snow -19 1009 77 8047 1.2 319 23:38 24.01.2020
4054 Snow -19 1009 77 8047 1.17 327 23:20 24.01.2020
4055 Snow -20 1009 83 8047 1.17 327 22:42 24.01.2020
4056 Snow -20 1009 83 8047 1.17 327 22:24 24.01.2020
4057 Snow -20 1009 76 6437 1.17 327 21:43 24.01.2020
4058 Snow -21 1009 76 6437 1.17 327 21:20 24.01.2020
4059 Snow -21 1009 76 6437 1.17 327 21:20 24.01.2020
4060 Snow -21 1009 76 6437 1.17 327 20:56 24.01.2020
4061 Snow -21 1009 76 12874 1.17 327 20:38 24.01.2020
4062 Snow -22 1009 76 12874 0.55 318 20:19 24.01.2020
4063 Snow -22 1008 69 2414 0.55 318 19:56 24.01.2020
4064 Snow -22 1009 76 11265 0.55 318 19:38 24.01.2020
4065 Snow -22 1009 76 11265 0.55 318 19:20 24.01.2020
4066 Snow -22 1009 76 16093 0.55 318 18:43 24.01.2020
4067 Snow -22 1009 76 16093 0.55 318 18:43 24.01.2020
4068 Clouds -22 1009 76 16093 0.55 318 18:23 24.01.2020
4069 Snow -22 1009 76 4828 0.55 318 17:46 24.01.2020
4070 Snow -22 1009 69 4023 1.5 250 17:23 24.01.2020
4071 Snow -22 1009 83 9656 0.71 295 16:59 24.01.2020
4072 Mist -22 1009 83 8047 0.71 295 16:39 24.01.2020
4073 Mist -22 1009 83 8047 0.71 295 16:20 24.01.2020
4074 Clouds -22 1009 83 14484 0.71 295 15:43 24.01.2020
4075 Clouds -22 1010 83 12874 0.71 295 15:22 24.01.2020
4076 Clouds -22 1010 83 12874 0.71 295 15:22 24.01.2020
4077 Clouds -22 1010 83 12874 0.71 295 14:56 24.01.2020
4078 Clouds -22 1010 83 14484 0.71 295 14:38 24.01.2020
4079 Clouds -22 1010 83 14484 0.66 261 14:19 24.01.2020
4080 Clouds -23 1010 83 16093 0.66 261 13:42 24.01.2020
4081 Clouds -23 1010 83 16093 0.58 286 13:23 24.01.2020
4082 Snow -23 1009 76 3219 0.58 286 12:44 24.01.2020
4083 Clouds -23 1010 83 16093 0.58 286 12:22 24.01.2020
4084 Snow -23 1010 83 11265 0.58 286 11:45 24.01.2020
4085 Snow -23 1010 83 11265 0.56 283 11:20 24.01.2020
4086 Clouds -23 1010 76 14484 0.56 283 10:59 24.01.2020
4087 Snow -23 1010 76 9656 0.56 283 10:41 24.01.2020
4088 Snow -23 1010 76 9656 0.56 283 10:19 24.01.2020
4089 Snow -23 1009 76 4828 0.56 283 09:42 24.01.2020
4090 Snow -23 1009 76 4828 0.56 283 09:42 24.01.2020
4091 Snow -23 1010 76 9656 0.56 283 09:24 24.01.2020
4092 Snow -23 1009 69 6437 0.56 283 08:59 24.01.2020
4093 Snow -23 1009 69 6437 0.56 283 08:38 24.01.2020
4094 Snow -23 1009 69 6437 0.63 289 08:18 24.01.2020
4095 Snow -24 1010 69 3219 1.5 30 07:43 24.01.2020
4096 Snow -23 1010 69 3219 1.5 30 07:21 24.01.2020
4097 Snow -24 1011 76 4828 0.63 289 06:43 24.01.2020
4098 Snow -24 1011 76 4828 0.63 289 06:43 24.01.2020
4099 Snow -24 1011 76 4828 0.63 289 06:23 24.01.2020
4100 Snow -24 1011 75 8047 0.63 289 05:22 24.01.2020
4101 Snow -24 1011 83 9656 0.6 274 03:34 24.01.2020
4102 Snow -23 1011 76 9656 0.6 274 02:39 24.01.2020
4103 Snow -23 1011 76 9656 0.84 243 02:20 24.01.2020
4104 Snow -23 1011 69 6437 0.84 243 01:38 24.01.2020
4105 Snow -23 1011 76 6437 0.79 242 00:42 24.01.2020
4106 Snow -23 1011 76 6437 0.79 242 00:19 24.01.2020
4107 Snow -24 1011 83 4828 0.79 242 23:41 23.01.2020
4108 Snow -24 1011 83 4828 0.74 221 23:21 23.01.2020
4109 Snow -24 1011 83 4828 0.74 221 22:58 23.01.2020
4110 Snow -24 1011 83 4426 0.74 221 22:37 23.01.2020
4111 Snow -24 1011 83 4426 0.74 221 22:37 23.01.2020
4112 Snow -24 1011 83 4426 0.74 221 22:18 23.01.2020
4113 Snow -24 1011 75 4828 0.74 221 21:55 23.01.2020
4114 Snow -24 1011 75 4828 0.74 221 21:37 23.01.2020
4115 Snow -24 1011 75 4828 0.74 221 21:19 23.01.2020
4116 Snow -24 1010 69 3219 1.5 170 20:54 23.01.2020
4117 Snow -24 1011 75 4828 0.74 221 20:36 23.01.2020
4118 Snow -24 1011 75 4828 0.5 272 20:18 23.01.2020
4119 Snow -24 1010 69 4828 0.5 272 19:42 23.01.2020
4120 Snow -24 1011 75 11265 0.5 272 19:23 23.01.2020
4121 Snow -24 1009 69 4828 0.5 272 18:57 23.01.2020
4122 Snow -24 1009 69 4828 0.5 272 18:38 23.01.2020
4123 Snow -24 1009 69 4828 0.5 272 18:19 23.01.2020
4124 Snow -24 1010 69 6437 0.5 272 17:45 23.01.2020
4125 Snow -24 1010 69 6437 0.42 220 17:21 23.01.2020
4126 Snow -24 1009 69 6437 0.42 220 16:59 23.01.2020
4127 Snow -24 1009 69 9656 0.42 220 16:39 23.01.2020
4128 Snow -24 1009 69 9656 0.42 220 16:20 23.01.2020
4129 Snow -25 1010 75 9656 0.42 220 15:58 23.01.2020
4130 Clouds -25 1010 75 16093 0.42 220 15:39 23.01.2020
4131 Clouds -24 1010 75 16093 0.42 220 15:19 23.01.2020
4132 Clouds -25 1010 75 16093 0.42 220 14:58 23.01.2020
4133 Snow -24 1010 75 6437 0.42 220 14:40 23.01.2020
4134 Snow -24 1010 75 6437 0.42 220 14:22 23.01.2020
4135 Snow -24 1010 83 6437 0.17 333 13:54 23.01.2020
4136 Snow -24 1010 83 14484 0.17 333 13:36 23.01.2020
4137 Snow -24 1010 83 14484 0.27 65 13:18 23.01.2020
4138 Clouds -23 1009 69 16093 0.27 65 12:41 23.01.2020
4139 Snow -23 1011 76 6437 0.27 65 12:22 23.01.2020
4140 Snow -24 1011 83 6437 0.39 48 11:55 23.01.2020
4141 Snow -24 1011 75 14484 0.27 65 11:37 23.01.2020
4142 Snow -24 1011 75 14484 0.33 135 11:18 23.01.2020
4143 Clouds -24 1011 83 16093 0.33 135 10:41 23.01.2020
4144 Clouds -24 1011 83 16093 0.33 135 10:19 23.01.2020
4145 Clouds -24 1011 83 16093 0.36 141 09:42 23.01.2020
4146 Clouds -24 1011 75 16093 0.33 135 09:23 23.01.2020
4147 Clouds -24 1011 83 16093 0.33 135 08:57 23.01.2020
4148 Snow -24 1011 83 16093 0.33 135 08:38 23.01.2020
4149 Snow -24 1011 83 16093 0.27 121 08:20 23.01.2020
4150 Snow -24 1010 75 4828 0.27 121 07:42 23.01.2020
4151 Snow -24 1010 75 4828 0.27 121 07:24 23.01.2020
4152 Clouds -24 1009 69 11265 0.27 121 06:46 23.01.2020
4153 Snow -24 1010 69 11265 0.27 121 06:19 23.01.2020
4154 Snow -23 1009 69 9656 0.51 59 04:58 23.01.2020
4155 Snow -23 1010 69 9656 0.51 59 04:21 23.01.2020
4156 Clouds -23 1010 75 16093 0.51 59 02:31 23.01.2020
4157 Clouds -22 1009 76 12874 0.22 112 00:56 23.01.2020
4158 Clouds -22 1009 76 12874 0.22 112 00:26 23.01.2020
4159 Clouds -22 1009 76 16093 0.22 112 23:47 22.01.2020
4160 Clouds -22 1009 76 16093 0.22 112 23:29 22.01.2020
4161 Clouds -22 1008 76 16093 0.36 92 22:56 22.01.2020
4162 Clouds -23 1008 76 16093 0.36 92 22:38 22.01.2020
4163 Clouds -22 1008 76 16093 0.36 92 22:20 22.01.2020
4164 Clouds -23 1008 76 14484 0.36 92 21:39 22.01.2020
4165 Clouds -23 1008 76 14484 0.36 92 21:21 22.01.2020
4166 Clouds -23 1007 76 16093 0.36 92 20:56 22.01.2020
4167 Clouds -23 1007 76 16093 1.5 220 20:36 22.01.2020
4168 Clouds -22 1007 76 16093 1.5 220 20:18 22.01.2020
4169 Clouds -22 1006 69 16093 0.34 114 19:55 22.01.2020
4170 Clouds -22 1006 69 16093 0.34 114 19:37 22.01.2020
4171 Clouds -22 1006 69 16093 0.34 114 19:18 22.01.2020
4172 Clouds -22 1006 76 12874 0.34 114 18:55 22.01.2020
4173 Clouds -22 1006 76 12874 0.34 114 18:36 22.01.2020
4174 Clouds -22 1006 76 12874 0.34 114 18:18 22.01.2020
4175 Clouds -22 1005 76 16093 0.34 114 17:40 22.01.2020
4176 Clouds -22 1005 76 16093 0.31 53 17:21 22.01.2020
4177 Snow -22 1004 76 9656 1.5 150 16:58 22.01.2020
4178 Clouds -22 1005 76 16093 0.31 53 16:39 22.01.2020
4179 Clouds -22 1005 76 16093 0.31 53 16:21 22.01.2020
4180 Snow -23 1004 69 8047 0.31 53 15:55 22.01.2020
4181 Clouds -23 1005 75 16093 0.31 53 15:37 22.01.2020
4182 Clouds -23 1005 75 16093 0.31 53 15:18 22.01.2020
4183 Clouds -23 1005 75 16093 0.31 53 15:18 22.01.2020
4184 Clouds -25 1005 82 16093 0.31 53 14:39 22.01.2020
4185 Clouds -24 1005 82 16093 0.36 87 14:20 22.01.2020
4186 Clouds -24 1005 82 16093 0.36 87 14:20 22.01.2020
4187 Snow -24 1004 69 16093 0.36 87 13:58 22.01.2020
4188 Clouds -25 1005 75 16093 0.36 87 13:37 22.01.2020
4189 Clouds -25 1005 75 16093 0.43 78 13:19 22.01.2020
4190 Snow -25 1004 69 16093 0.43 78 12:57 22.01.2020
4191 Clouds -25 1004 75 16093 0.43 78 12:39 22.01.2020
4192 Clouds -25 1004 75 16093 0.43 78 12:19 22.01.2020
4193 Clear -24 1004 83 16093 0.43 78 11:58 22.01.2020
4194 Clear -24 1004 83 16093 0.43 78 11:39 22.01.2020
4195 Clear -24 1004 83 16093 0.28 103 11:19 22.01.2020
4196 Clear -24 1004 83 16093 0.28 103 11:19 22.01.2020
4197 Clouds -23 1004 76 16093 0.28 103 10:54 22.01.2020
4198 Snow -23 1004 83 16093 0.28 103 10:36 22.01.2020
4199 Snow -23 1004 83 16093 0.28 103 10:18 22.01.2020
4200 Clouds -23 1003 76 16093 0.28 103 09:41 22.01.2020
4201 Clouds -23 1003 76 16093 0.28 103 09:23 22.01.2020
4202 Clouds -23 1002 69 16093 1.5 350 08:56 22.01.2020
4203 Snow -24 1003 63 16093 0.28 103 08:37 22.01.2020
4204 Clouds -24 1003 83 16093 0.82 181 08:19 22.01.2020
4205 Clouds -24 1003 83 16093 0.82 181 08:19 22.01.2020
4206 Clouds -24 1003 69 16093 0.82 181 07:44 22.01.2020
4207 Clouds -24 1003 69 16093 0.82 181 07:26 22.01.2020
4208 Clouds -24 1003 75 16093 0.82 181 06:37 22.01.2020
4209 Clouds -25 1003 75 16093 0.82 181 06:18 22.01.2020
4210 Clouds -25 1003 75 16093 0.31 245 04:27 22.01.2020
4211 Clouds -25 1003 75 14484 0.31 245 03:27 22.01.2020
4212 Clouds -25 1002 68 16093 0.31 245 02:49 22.01.2020
4213 Clear -25 1002 75 16093 0.71 239 01:30 22.01.2020
4214 Clear -25 1003 75 16093 0.71 239 00:40 22.01.2020
4215 Clear -25 1003 75 16093 0.71 239 00:19 22.01.2020
4216 Clear -25 1003 75 16093 0.71 239 23:37 21.01.2020
4217 Clear -25 1003 75 16093 0.35 1 23:19 21.01.2020
4218 Clear -26 1003 75 16093 0.35 1 22:42 21.01.2020
4219 Clear -26 1003 75 16093 0.35 1 22:24 21.01.2020
4220 Clouds -26 1003 75 16093 0.35 1 21:58 21.01.2020
4221 Clouds -26 1003 75 16093 0.35 1 21:39 21.01.2020
4222 Clouds -27 1003 75 16093 0.35 1 21:21 21.01.2020
4223 Clouds -27 1003 75 16093 0.35 1 20:58 21.01.2020
4224 Clouds -27 1003 75 16093 0.35 1 20:39 21.01.2020
4225 Clouds -27 1003 75 16093 0.74 22 20:20 21.01.2020
4226 Clouds -26 1002 68 16093 0.74 22 19:58 21.01.2020
4227 Clouds -26 1002 68 16093 0.74 22 19:39 21.01.2020
4228 Clouds -27 1002 68 16093 0.74 22 19:21 21.01.2020
4229 Clouds -27 1003 75 16093 0.74 22 18:57 21.01.2020
4230 Clouds -27 1003 75 16093 0.74 22 18:39 21.01.2020
4231 Clouds -27 1003 75 16093 0.74 22 18:20 21.01.2020
4232 Clouds -27 1003 82 16093 0.74 22 17:56 21.01.2020
4233 Clouds -27 1003 82 16093 0.74 22 17:38 21.01.2020
4234 Clouds -27 1003 82 16093 0.47 97 17:18 21.01.2020
4235 Clear -26 1003 75 16093 0.47 97 16:38 21.01.2020
4236 Clear -26 1003 75 16093 0.47 97 16:19 21.01.2020
4237 Clear -26 1003 75 16093 0.47 97 16:19 21.01.2020
4238 Clouds -26 1003 75 16093 0.47 97 15:59 21.01.2020
4239 Clouds -26 1003 75 16093 0.47 97 15:38 21.01.2020
4240 Clouds -25 1003 75 16093 0.47 97 15:19 21.01.2020
4241 Clouds -25 1003 83 16093 0.47 97 14:40 21.01.2020
4242 Clouds -25 1003 83 16093 0.92 140 14:21 21.01.2020
4243 Clouds -25 1002 76 16093 0.92 140 13:43 21.01.2020
4244 Clouds -24 1002 76 16093 0.71 149 13:21 21.01.2020
4245 Clouds -24 1002 76 16093 0.71 149 12:59 21.01.2020
4246 Clouds -24 1002 76 16093 0.71 149 12:41 21.01.2020
4247 Clouds -24 1002 76 16093 0.71 149 12:23 21.01.2020
4248 Clouds -24 1002 76 16093 0.71 149 11:56 21.01.2020
4249 Clouds -24 1002 76 16093 0.71 149 11:37 21.01.2020
4250 Clouds -24 1002 76 16093 0.58 170 11:18 21.01.2020
4251 Clouds -24 1001 83 16093 0.58 170 10:42 21.01.2020
4252 Clouds -25 1001 83 16093 0.58 170 10:22 21.01.2020
4253 Clouds -25 1001 83 16093 0.58 170 10:22 21.01.2020
4254 Clouds -25 1000 83 16093 0.58 170 09:55 21.01.2020
4255 Clouds -25 1000 83 16093 0.58 170 09:37 21.01.2020
4256 Clouds -25 1000 83 16093 0.58 170 09:18 21.01.2020
4257 Clouds -25 1000 83 16093 0.58 170 08:41 21.01.2020
4258 Clouds -25 1000 83 16093 0.48 276 08:21 21.01.2020
4259 Clouds -25 999 75 12874 0.28 289 07:43 21.01.2020
4260 Clouds -25 999 75 12874 0.28 289 07:43 21.01.2020
4261 Clouds -25 999 75 12874 0.28 289 07:23 21.01.2020
4262 Haze -25 999 75 9656 0.28 289 06:57 21.01.2020
4263 Haze -25 999 75 9656 0.28 289 06:38 21.01.2020
4264 Clouds -25 998 75 16093 0.28 289 05:53 21.01.2020
4265 Clouds -25 998 75 16093 0.28 289 05:32 21.01.2020
4266 Clouds -25 998 83 16093 0.81 276 04:37 21.01.2020
4267 Clouds -24 997 69 16093 2.1 200 02:27 21.01.2020
4268 Clouds -24 997 75 16093 0.7 254 01:36 21.01.2020
4269 Clear -24 997 75 16093 0.7 254 00:41 21.01.2020
4270 Clear -25 997 75 16093 0.7 254 00:22 21.01.2020
4271 Clear -26 997 75 16093 0.7 254 23:56 20.01.2020
4272 Clear -27 997 75 16093 0.7 254 23:36 20.01.2020
4273 Clear -27 997 75 16093 0.99 355 23:18 20.01.2020
4274 Clear -26 997 75 16093 0.99 355 22:40 20.01.2020
4275 Clear -26 997 75 16093 0.99 355 22:21 20.01.2020
4276 Clouds -26 998 74 16093 0.99 355 21:58 20.01.2020
4277 Clouds -26 998 74 16093 0.99 355 21:58 20.01.2020
4278 Clouds -27 998 74 16093 0.99 355 21:38 20.01.2020
4279 Clouds -27 998 74 16093 0.99 355 21:20 20.01.2020
4280 Clear -27 998 74 16093 0.99 355 20:58 20.01.2020
4281 Clear -28 998 74 16093 0.99 355 20:39 20.01.2020
4282 Clear -28 998 74 16093 1.33 43 20:20 20.01.2020
4283 Clear -28 998 74 16093 1.33 43 19:58 20.01.2020
4284 Clear -28 998 74 16093 1.33 43 19:40 20.01.2020
4285 Clear -30 998 74 16093 1.33 43 19:19 20.01.2020
4286 Clear -29 999 74 16093 1.33 43 18:54 20.01.2020
4287 Clear -30 999 74 16093 1.33 43 18:36 20.01.2020
4288 Clear -30 999 74 16093 1.33 43 18:18 20.01.2020
4289 Clear -30 999 74 16093 1.33 43 17:38 20.01.2020
4290 Clear -29 999 74 16093 1.19 35 17:19 20.01.2020
4291 Clear -28 1000 74 16093 1.19 35 16:45 20.01.2020
4292 Clear -28 1000 74 16093 1.19 35 16:25 20.01.2020
4293 Clouds -31 1001 74 16093 1.19 35 15:58 20.01.2020
4294 Clouds -32 1001 74 16093 1.19 35 15:40 20.01.2020
4295 Clouds -32 1001 74 16093 1.19 35 15:21 20.01.2020
4296 Clear -32 1001 73 16093 1.19 35 14:56 20.01.2020
4297 Clear -32 1001 73 16093 1.19 35 14:37 20.01.2020
4298 Clear -32 1001 73 16093 1.08 51 14:19 20.01.2020
4299 Clear -33 1002 73 16093 1.08 51 13:42 20.01.2020
4300 Clear -33 1002 73 16093 1.08 51 13:23 20.01.2020
4301 Clear -32 1002 67 16093 1.05 55 12:56 20.01.2020
4302 Clear -32 1002 67 16093 1.05 55 12:38 20.01.2020
4303 Clear -32 1002 67 16093 1.05 55 12:19 20.01.2020
4304 Clear -33 1003 73 16093 1.05 55 11:43 20.01.2020
4305 Clear -33 1003 73 16093 1.05 55 11:24 20.01.2020
4306 Clear -34 1003 66 16093 1.23 52 10:57 20.01.2020
4307 Clear -34 1003 66 16093 1.23 52 10:39 20.01.2020
4308 Clear -34 1003 66 16093 1.23 52 10:20 20.01.2020
4309 Clear -33 1003 73 16093 1.23 52 09:41 20.01.2020
4310 Clear -33 1003 73 16093 1.23 52 09:22 20.01.2020
4311 Clear -33 1003 73 16093 1.23 52 08:51 20.01.2020
4312 Clear -33 1003 73 16093 1.23 52 08:31 20.01.2020
4313 Clear -33 1003 73 16093 1.2 46 07:55 20.01.2020
4314 Clear -34 1003 73 16093 1.2 46 07:31 20.01.2020
4315 Clear -33 1003 67 16093 1.2 46 06:59 20.01.2020
4316 Clear -33 1003 67 16093 1.2 46 06:59 20.01.2020
4317 Clear -33 1003 67 16093 1.2 46 06:34 20.01.2020
4318 Clear -33 1004 73 16093 1.2 46 05:49 20.01.2020
4319 Clear -33 1004 73 16093 1.2 46 05:30 20.01.2020
4320 Clear -33 1004 73 16093 1.2 46 05:30 20.01.2020
4321 Clouds -34 1004 73 16093 1.01 42 04:58 20.01.2020
4322 Clear -33 1004 73 16093 1.01 42 03:30 20.01.2020
4323 Clear -32 1004 74 16093 0.38 42 01:58 20.01.2020
4324 Clear -32 1004 74 16093 0.38 42 01:38 20.01.2020
4325 Clear -32 1004 73 16093 0.64 31 00:46 20.01.2020
4326 Clear -32 1004 73 16093 0.64 31 00:26 20.01.2020
4327 Clear -33 1004 66 16093 0.64 31 23:54 19.01.2020
4328 Clear -33 1004 66 16093 0.64 31 23:36 19.01.2020
4329 Clear -33 1004 66 16093 0.83 48 23:18 19.01.2020
4330 Clear -33 1004 66 16093 0.83 48 23:18 19.01.2020
4331 Clear -33 1004 66 16093 0.83 48 22:54 19.01.2020
4332 Clouds -33 1003 66 16093 1.5 250 22:36 19.01.2020
4333 Clouds -33 1003 66 16093 1.5 250 22:18 19.01.2020
4334 Clouds -34 1004 66 12874 0.83 48 21:54 19.01.2020
4335 Clouds -32 1004 66 12874 0.83 48 21:36 19.01.2020
4336 Clouds -32 1004 66 12874 0.83 48 21:36 19.01.2020
4337 Clouds -32 1004 66 12874 0.83 48 21:18 19.01.2020
4338 Clouds -35 1004 73 16093 0.83 48 20:54 19.01.2020
4339 Clouds -35 1004 73 16093 0.83 48 20:36 19.01.2020
4340 Clear -35 1004 73 16093 0.8 56 20:18 19.01.2020
4341 Clear -35 1004 73 16093 0.87 60 19:54 19.01.2020
4342 Clear -35 1004 73 16093 0.87 60 19:36 19.01.2020
4343 Clear -35 1004 73 16093 0.87 60 19:18 19.01.2020
4344 Clear -34 1004 73 16093 0.87 60 18:54 19.01.2020
4345 Clear -34 1004 73 16093 0.87 60 18:36 19.01.2020
4346 Clear -34 1004 73 16093 0.87 60 18:36 19.01.2020
4347 Clear -34 1004 73 16093 0.87 60 18:18 19.01.2020
4348 Clear -34 1005 73 16093 0.87 60 17:56 19.01.2020
4349 Clear -34 1005 73 16093 0.87 60 17:37 19.01.2020
4350 Clear -34 1005 73 16093 0.57 81 17:18 19.01.2020
4351 Clear -34 1005 73 16093 0.57 81 16:54 19.01.2020
4352 Clear -34 1005 73 16093 0.57 81 16:54 19.01.2020
4353 Clear -33 1005 73 16093 0.57 81 16:36 19.01.2020
4354 Clear -34 1005 73 16093 0.57 81 16:18 19.01.2020
4355 Clear -33 1005 73 16093 0.57 81 15:40 19.01.2020
4356 Clear -33 1005 73 16093 0.57 81 15:22 19.01.2020
4357 Clear -34 1005 73 16093 0.57 81 14:59 19.01.2020
4358 Clear -34 1005 73 16093 0.57 81 14:59 19.01.2020
4359 Clear -34 1005 73 16093 0.57 81 14:59 19.01.2020
4360 Clear -34 1005 73 16093 0.57 81 14:40 19.01.2020
4361 Clear -34 1005 73 16093 0.69 64 14:19 19.01.2020
4362 Clear -35 1006 73 16093 0.69 64 13:58 19.01.2020
4363 Clear -36 1006 73 16093 0.69 64 13:38 19.01.2020
4364 Clear -35 1006 73 16093 0.71 51 13:20 19.01.2020
4365 Clear -35 1006 66 16093 0.71 51 12:56 19.01.2020
4366 Clear -35 1006 66 16093 0.71 51 12:37 19.01.2020
4367 Clear -35 1006 66 16093 0.71 51 12:19 19.01.2020
4368 Clear -35 1007 73 16093 0.71 51 11:56 19.01.2020
4369 Clear -35 1007 73 16093 0.71 51 11:37 19.01.2020
4370 Clear -35 1007 73 16093 1.42 33 11:18 19.01.2020
4371 Clear -35 1007 73 16093 1.42 33 10:39 19.01.2020
4372 Clear -35 1007 73 16093 1.42 33 10:20 19.01.2020
4373 Clear -34 1008 73 16093 1.42 33 09:57 19.01.2020
4374 Clear -34 1008 73 16093 1.42 33 09:57 19.01.2020
4375 Clear -34 1008 73 16093 1.42 33 09:38 19.01.2020
4376 Clear -34 1008 73 16093 1.42 33 09:19 19.01.2020
4377 Clear -34 1008 66 16093 1.42 33 08:55 19.01.2020
4378 Clear -34 1008 66 16093 1.42 33 08:32 19.01.2020
4379 Clear -35 1008 73 16093 1.51 36 07:54 19.01.2020
4380 Clear -34 1008 73 16093 1.51 36 07:28 19.01.2020
4381 Clear -34 1009 73 16093 1.51 36 06:55 19.01.2020
4382 Clear -34 1009 73 16093 1.51 36 06:22 19.01.2020
4383 Clear -33 1009 60 16093 1.51 39 03:55 19.01.2020
4384 Clear -32 1010 74 16093 1.51 39 02:33 19.01.2020
4385 Clear -31 1011 74 16093 0.6 4 01:39 19.01.2020
4386 Clear -31 1011 74 16093 0.18 180 01:20 19.01.2020
4387 Clear -31 1014 77 0 0.18 180 00:44 19.01.2020
4388 Clear -31 1012 74 16093 0.18 180 00:20 19.01.2020
4389 Clear -31 1012 74 16093 0.18 180 23:47 18.01.2020
4390 Clear -31 1012 74 16093 0.18 180 23:25 18.01.2020
4391 Clear -32 1012 67 16093 0.98 28 22:59 18.01.2020
4392 Clear -32 1012 67 16093 0.98 28 22:41 18.01.2020
4393 Clear -32 1012 67 16093 0.98 28 22:21 18.01.2020
4394 Clear -30 1013 73 16093 0.98 28 21:58 18.01.2020
4395 Clear -30 1013 73 16093 0.98 28 21:38 18.01.2020
4396 Clear -30 1013 73 16093 0.98 28 21:20 18.01.2020
4397 Clear -30 1013 73 16093 0.98 28 20:56 18.01.2020
4398 Clear -30 1013 73 16093 0.98 28 20:38 18.01.2020
4399 Clear -31 1013 73 16093 1.12 35 20:18 18.01.2020
4400 Clear -29 1013 73 16093 0.91 40 19:43 18.01.2020
4401 Clear -30 1013 73 16093 0.91 40 19:24 18.01.2020
4402 Clear -31 1014 73 16093 0.91 40 18:43 18.01.2020
4403 Clear -31 1014 73 16093 0.91 40 18:25 18.01.2020
4404 Clear -31 1014 73 16093 0.91 40 18:25 18.01.2020
4405 Clear -30 1014 73 16093 0.91 40 17:59 18.01.2020
4406 Clear -31 1014 73 16093 0.91 40 17:40 18.01.2020
4407 Clear -30 1014 73 16093 0.37 5 17:20 18.01.2020
4408 Clear -29 1015 66 16093 0.37 5 16:57 18.01.2020
4409 Clear -32 1015 66 16093 0.37 5 16:38 18.01.2020
4410 Clear -32 1015 66 16093 0.37 5 16:38 18.01.2020
4411 Clear -32 1015 66 16093 0.37 5 16:19 18.01.2020
4412 Clear -33 1015 73 16093 0.37 5 15:44 18.01.2020
4413 Clear -29 1015 73 16093 0.37 5 15:26 18.01.2020
4414 Clear -27 1016 74 16093 0.37 5 14:59 18.01.2020
4415 Clear -29 1016 74 16093 0.37 5 14:40 18.01.2020
4416 Clear -28 1016 74 16093 0.92 58 14:19 18.01.2020
4417 Clear -28 1016 74 16093 0.92 58 13:56 18.01.2020
4418 Clear -33 1016 74 16093 0.92 58 13:36 18.01.2020
4419 Clear -33 1016 74 16093 0.43 41 13:18 18.01.2020
4420 Clear -32 1016 74 16093 0.43 41 12:41 18.01.2020
4421 Clear -29 1016 74 16093 0.43 41 12:21 18.01.2020
4422 Clear -28 1016 74 16093 0.43 41 11:56 18.01.2020
4423 Clear -28 1016 74 16093 0.43 41 11:37 18.01.2020
4424 Clear -26 1016 74 16093 1.14 55 11:19 18.01.2020
4425 Clear -27 1017 74 16093 1.14 55 10:41 18.01.2020
4426 Clear -29 1017 74 16093 1.14 55 10:20 18.01.2020
4427 Clear -29 1017 74 16093 1.14 55 10:20 18.01.2020
4428 Clear -28 1017 74 16093 1.14 55 09:50 18.01.2020
4429 Clear -28 1017 74 16093 1.14 55 09:32 18.01.2020
4430 Clear -28 1017 74 16093 1.14 55 08:59 18.01.2020
4431 Clear -28 1017 74 16093 1.14 55 08:41 18.01.2020
4432 Clear -29 1017 74 16093 0.88 61 08:20 18.01.2020
4433 Clear -29 1017 74 16093 0.88 61 07:52 18.01.2020
4434 Clear -31 1017 74 16093 0.88 61 07:32 18.01.2020
4435 Clear -28 1018 74 16093 0.88 61 06:48 18.01.2020
4436 Clear -29 1018 74 16093 0.88 61 06:19 18.01.2020
4437 Clear -28 1018 74 16093 0.88 61 05:30 18.01.2020
4438 Clear -31 1018 74 12874 1.27 19 03:39 18.01.2020
4439 Clear -26 1018 82 16093 0.52 111 02:20 18.01.2020
4440 Clear -24 1019 75 16093 0.52 111 01:36 18.01.2020
4441 Clear -29 1019 75 16093 0.15 136 00:38 18.01.2020
4442 Clear -29 1019 75 16093 0.15 136 00:19 18.01.2020
4443 Clear -26 1020 74 16093 0.15 136 23:44 17.01.2020
4444 Clear -30 1020 74 16093 0.66 90 23:20 17.01.2020
4445 Clear -30 1020 74 16093 0.66 90 22:59 17.01.2020
4446 Clear -31 1020 74 16093 0.66 90 22:40 17.01.2020
4447 Clear -31 1020 74 16093 0.66 90 22:19 17.01.2020
4448 Clear -31 1020 74 16093 0.66 90 21:42 17.01.2020
4449 Clear -31 1020 74 16093 0.66 90 21:24 17.01.2020
4450 Clear -31 1020 74 14484 0.66 90 20:59 17.01.2020
4451 Clear -31 1020 74 14484 0.66 90 20:40 17.01.2020
4452 Clear -31 1020 74 14484 0.73 87 20:20 17.01.2020
4453 Clear -31 1020 74 14484 0.73 87 20:20 17.01.2020
4454 Clear -28 1020 82 11265 0.73 87 19:57 17.01.2020
4455 Clear -27 1020 82 11265 0.73 87 19:38 17.01.2020
4456 Clear -31 1020 82 11265 0.73 87 19:19 17.01.2020
4457 Clear -31 1020 74 16093 0.73 87 18:57 17.01.2020
4458 Clear -31 1020 74 16093 0.73 87 18:37 17.01.2020
4459 Clear -28 1020 74 16093 0.73 87 18:19 17.01.2020
4460 Clear -27 1021 82 16093 0.73 87 17:39 17.01.2020
4461 Clear -30 1021 82 16093 0.53 96 17:21 17.01.2020
4462 Clear -29 1021 75 16093 0.53 96 16:44 17.01.2020
4463 Clear -29 1021 75 16093 0.53 96 16:21 17.01.2020
4464 Clear -29 1021 82 16093 0.53 96 15:58 17.01.2020
4465 Clear -27 1021 82 16093 0.53 96 15:58 17.01.2020
4466 Clear -27 1021 82 16093 0.53 96 15:40 17.01.2020
4467 Clear -26 1021 82 16093 0.53 96 15:22 17.01.2020
4468 Clear -25 1021 83 16093 0.53 96 14:43 17.01.2020
4469 Clear -26 1021 83 16093 0.77 64 14:25 17.01.2020
4470 Clear -26 1022 82 16093 0.77 64 13:46 17.01.2020
4471 Clear -28 1022 82 16093 0.91 65 13:23 17.01.2020
4472 Clear -27 1022 76 16093 0.91 65 12:56 17.01.2020
4473 Clear -27 1022 76 16093 0.91 65 12:37 17.01.2020
4474 Clear -27 1022 76 16093 0.91 65 12:18 17.01.2020
4475 Clear -27 1022 76 16093 2.1 90 11:38 17.01.2020
4476 Clear -27 1022 76 16093 2.1 90 11:18 17.01.2020
4477 Clear -27 1023 83 16093 5.1 60 10:42 17.01.2020
4478 Clear -27 1023 83 16093 5.1 60 10:22 17.01.2020
4479 Clear -27 1023 83 16093 1.23 74 09:58 17.01.2020
4480 Clear -27 1023 83 16093 1.23 74 09:38 17.01.2020
4481 Clear -27 1023 83 16093 1.23 74 09:19 17.01.2020
4482 Clear -26 1024 83 16093 1.23 74 08:43 17.01.2020
4483 Clear -26 1024 83 16093 1.11 83 08:24 17.01.2020
4484 Clear -25 1024 68 16093 2.1 0 07:53 17.01.2020
4485 Clear -25 1024 68 16093 2.1 0 07:31 17.01.2020
4486 Clear -25 1024 76 16093 3.6 50 06:57 17.01.2020
4487 Clear -25 1024 76 16093 3.6 50 06:38 17.01.2020
4488 Clear -24 1025 77 16093 5.7 60 05:38 17.01.2020
4489 Clear -21 1022 84 0 0.45 50 03:39 17.01.2020
4490 Clear -19 1022 85 0 1.15 81 02:47 17.01.2020
4491 Clear -18 1029 84 0 0.87 58 01:47 17.01.2020
4492 Clear -18 1029 84 0 0.87 58 01:28 17.01.2020
4493 Clear -18 1029 83 0 0.86 59 00:48 17.01.2020
4494 Clear -23 1028 76 16093 4.1 70 00:23 17.01.2020
4495 Clear -24 1028 76 16093 4.1 70 23:44 16.01.2020
4496 Clear -25 1028 76 16093 4.1 70 23:25 16.01.2020
4497 Clear -25 1029 83 16093 3.6 80 22:56 16.01.2020
4498 Clear -26 1029 83 16093 3.6 80 22:38 16.01.2020
4499 Clear -27 1029 83 16093 3.6 80 22:19 16.01.2020
4500 Haze -27 1028 60 9656 1.22 70 21:54 16.01.2020
4501 Clear -27 1029 83 16093 5.7 70 21:36 16.01.2020
4502 Clear -27 1029 83 16093 5.7 70 21:18 16.01.2020
4503 Clear -26 1029 83 16093 3.6 60 20:40 16.01.2020
4504 Clear -26 1029 83 16093 3.6 60 20:21 16.01.2020
4505 Haze -28 1029 67 8047 1.47 64 19:58 16.01.2020
4506 Clear -27 1030 76 16093 1.47 64 19:40 16.01.2020
4507 Clear -27 1030 76 16093 1.47 64 19:22 16.01.2020
4508 Clear -27 1031 83 16093 2.6 60 18:57 16.01.2020
4509 Clear -27 1031 83 16093 2.6 60 18:37 16.01.2020
4510 Clear -27 1031 83 16093 2.6 60 18:19 16.01.2020
4511 Clear -26 1031 76 16093 2.6 70 17:58 16.01.2020
4512 Clear -26 1031 76 16093 2.6 70 17:39 16.01.2020
4513 Clear -27 1031 76 16093 2.6 70 17:20 16.01.2020
4514 Clear -25 1032 76 16093 2.6 70 16:41 16.01.2020
4515 Clear -26 1032 76 16093 2.6 70 16:23 16.01.2020
4516 Clear -25 1033 76 16093 2.6 70 15:58 16.01.2020
4517 Clear -26 1033 76 16093 2.6 70 15:39 16.01.2020
4518 Clear -26 1033 76 16093 2.6 70 15:39 16.01.2020
4519 Clear -26 1033 76 16093 2.6 70 15:20 16.01.2020
4520 Clear -27 1033 83 16093 4.1 60 14:44 16.01.2020
4521 Clear -27 1033 83 16093 4.1 60 14:24 16.01.2020
4522 Clear -26 1034 76 16093 4.6 70 13:56 16.01.2020
4523 Clear -26 1034 76 16093 4.6 70 13:37 16.01.2020
4524 Clear -26 1034 76 16093 4.6 70 13:19 16.01.2020
4525 Clear -26 1035 83 16093 4.1 70 12:42 16.01.2020
4526 Clear -26 1035 83 16093 4.1 70 12:22 16.01.2020
4527 Clear -26 1036 83 16093 2.1 70 11:43 16.01.2020
4528 Clear -25 1036 83 16093 2.1 70 11:24 16.01.2020
4529 Clear -24 1036 83 16093 2.6 70 10:59 16.01.2020
4530 Clear -26 1036 83 16093 2.6 70 10:38 16.01.2020
4531 Clear -26 1036 83 16093 2.6 70 10:20 16.01.2020
4532 Clear -24 1037 83 16093 2.1 70 09:56 16.01.2020
4533 Clear -24 1037 83 16093 2.1 70 09:37 16.01.2020
4534 Clear -25 1037 83 16093 2.1 70 09:18 16.01.2020
4535 Clear -25 1037 83 16093 3.1 50 08:44 16.01.2020
4536 Clear -25 1037 83 16093 3.1 50 08:23 16.01.2020
4537 Clear -24 1038 83 16093 3.6 70 07:43 16.01.2020
4538 Clear -24 1038 83 16093 3.6 70 07:25 16.01.2020
4539 Clear -24 1038 76 16093 4.6 70 06:56 16.01.2020
4540 Clear -22 1038 76 16093 4.6 70 06:37 16.01.2020
4541 Clear -23 1039 76 16093 3.1 60 05:56 16.01.2020
4542 Clear -23 1039 76 16093 3.1 60 05:56 16.01.2020
4543 Clear -23 1039 76 16093 3.1 60 05:31 16.01.2020
4544 Clear -22 1039 83 16093 2.6 60 04:37 16.01.2020
4545 Clear -21 1040 84 16093 3.6 50 03:28 16.01.2020
4546 Clear -21 1040 91 16093 3.1 60 02:29 16.01.2020
4547 Clouds -17 1041 77 16093 2.6 60 00:48 16.01.2020
4548 Clouds -17 1041 77 16093 2.6 60 00:24 16.01.2020
4549 Clouds -16 1041 77 16093 2.1 40 23:48 15.01.2020
4550 Clouds -16 1042 84 16093 1.77 32 23:23 15.01.2020
4551 Clouds -17 1042 84 16093 1.69 33 22:57 15.01.2020
4552 Clouds -17 1042 84 16093 1.69 33 22:39 15.01.2020
4553 Clouds -17 1042 84 16093 1.69 33 22:19 15.01.2020
4554 Clouds -16 1042 84 11265 1.69 33 21:57 15.01.2020
4555 Clouds -16 1042 84 11265 1.69 33 21:37 15.01.2020
4556 Clouds -16 1042 84 11265 1.69 33 21:19 15.01.2020
4557 Clouds -17 1041 84 16093 1.69 33 20:57 15.01.2020
4558 Snow -16 1041 84 9656 1.69 33 20:39 15.01.2020
4559 Snow -16 1041 84 9656 1.27 49 20:20 15.01.2020
4560 Clouds -16 1040 77 16093 1.27 49 19:55 15.01.2020
4561 Snow -16 1041 84 11265 1.27 49 19:37 15.01.2020
4562 Snow -16 1041 84 11265 1.27 49 19:19 15.01.2020
4563 Snow -16 1041 91 9656 1.27 49 18:56 15.01.2020
4564 Clouds -16 1041 84 16093 1.27 49 18:38 15.01.2020
4565 Clouds -16 1041 84 16093 1.27 49 18:38 15.01.2020
4566 Clouds -16 1041 84 16093 1.27 49 18:19 15.01.2020
4567 Snow -16 1041 91 9656 1.27 49 17:57 15.01.2020
4568 Snow -16 1041 91 9656 1.27 49 17:38 15.01.2020
4569 Snow -16 1041 91 9656 0.77 75 17:19 15.01.2020
4570 Snow -16 1040 84 8047 0.77 75 16:41 15.01.2020
4571 Snow -16 1040 84 8047 0.77 75 16:22 15.01.2020
4572 Snow -16 1040 77 4023 0.77 75 15:58 15.01.2020
4573 Snow -16 1040 84 6437 0.77 75 15:39 15.01.2020
4574 Snow -16 1040 84 6437 0.77 75 15:20 15.01.2020
4575 Snow -16 1040 84 3219 0.77 75 14:43 15.01.2020
4576 Snow -16 1040 84 3219 0.56 121 14:20 15.01.2020
4577 Snow -16 1039 77 3219 1.5 160 13:55 15.01.2020
4578 Snow -16 1039 84 6437 0.56 121 13:37 15.01.2020
4579 Snow -16 1039 84 6437 0.53 125 13:18 15.01.2020
4580 Snow -16 1039 77 8047 2.1 140 12:41 15.01.2020
4581 Snow -16 1039 84 11265 0.53 125 12:20 15.01.2020
4582 Snow -17 1039 84 11265 0.53 125 11:59 15.01.2020
4583 Snow -17 1039 84 14484 0.53 125 11:38 15.01.2020
4584 Snow -17 1039 84 14484 0.61 126 11:19 15.01.2020
4585 Snow -17 1038 77 14484 0.61 126 10:46 15.01.2020
4586 Snow -17 1039 84 6437 0.61 126 10:28 15.01.2020
4587 Snow -17 1038 84 9656 0.61 126 09:55 15.01.2020
4588 Snow -17 1038 84 8047 0.61 126 09:37 15.01.2020
4589 Snow -17 1038 84 8047 0.61 126 09:19 15.01.2020
4590 Snow -17 1038 84 6437 0.61 126 08:41 15.01.2020
4591 Snow -17 1038 84 8047 0.56 84 08:23 15.01.2020
4592 Snow -17 1038 84 11265 0.87 127 07:54 15.01.2020
4593 Snow -17 1038 77 8047 0.87 127 07:32 15.01.2020
4594 Snow -17 1038 84 6437 0.87 127 06:48 15.01.2020
4595 Snow -18 1038 91 14484 0.87 127 06:23 15.01.2020
4596 Snow -17 1037 84 12874 0.9 127 04:45 15.01.2020
4597 Snow -17 1036 84 8047 0.9 127 02:39 15.01.2020
4598 Snow -17 1035 84 14484 0.65 132 01:28 15.01.2020
4599 Clouds -17 1035 77 16093 0.65 132 00:59 15.01.2020
4600 Clouds -17 1035 84 16093 0.65 132 00:36 15.01.2020
4601 Clouds -17 1035 84 16093 0.65 132 00:18 15.01.2020
4602 Clouds -17 1034 77 12874 2.1 120 23:45 14.01.2020
4603 Clouds -17 1035 84 16093 0.73 163 23:24 14.01.2020
4604 Clouds -17 1034 84 16093 0.73 163 22:41 14.01.2020
4605 Snow -17 1034 84 6437 0.73 163 22:20 14.01.2020
4606 Snow -17 1033 84 2012 0.73 163 21:59 14.01.2020
4607 Snow -17 1033 77 1207 0.73 163 21:41 14.01.2020
4608 Snow -17 1033 77 1207 0.73 163 21:23 14.01.2020
4609 Snow -17 1033 84 3017 0.73 163 21:00 14.01.2020
4610 Snow -17 1031 70 12874 0.73 163 20:41 14.01.2020
4611 Snow -17 1031 70 12874 0.69 157 20:21 14.01.2020
4612 Snow -17 1031 70 12874 0.69 157 19:56 14.01.2020
4613 Snow -17 1031 84 8047 0.69 157 19:38 14.01.2020
4614 Snow -17 1031 84 8047 0.69 157 19:19 14.01.2020
4615 Snow -17 1030 84 3621 1.5 110 18:56 14.01.2020
4616 Snow -17 1030 84 6437 0.69 157 18:38 14.01.2020
4617 Snow -17 1030 84 6437 0.69 157 18:19 14.01.2020
4618 Snow -17 1030 84 6437 0.69 157 17:39 14.01.2020
4619 Snow -17 1030 84 6437 0.68 151 17:19 14.01.2020
4620 Snow -17 1030 84 3621 0.68 151 16:56 14.01.2020
4621 Snow -17 1030 84 4828 0.68 151 16:38 14.01.2020
4622 Snow -17 1030 84 4828 0.68 151 16:20 14.01.2020
4623 Snow -17 1029 84 3621 0.68 151 15:54 14.01.2020
4624 Snow -17 1029 84 4828 0.68 151 15:36 14.01.2020
4625 Snow -17 1029 84 4828 0.68 151 15:18 14.01.2020
4626 Snow -17 1029 84 3621 0.68 151 14:41 14.01.2020
4627 Snow -17 1029 84 9656 0.53 96 14:20 14.01.2020
4628 Snow -17 1029 84 3017 0.53 96 13:42 14.01.2020
4629 Snow -17 1029 84 3017 0.48 90 13:20 14.01.2020
4630 Snow -17 1029 77 2816 2.1 40 12:57 14.01.2020
4631 Snow -18 1029 91 8047 0.48 90 12:39 14.01.2020
4632 Snow -18 1029 91 8047 0.48 90 12:20 14.01.2020
4633 Snow -18 1029 91 8047 0.48 90 12:20 14.01.2020
4634 Snow -17 1029 84 4023 0.48 90 11:42 14.01.2020
4635 Snow -17 1029 84 9656 0.48 90 11:22 14.01.2020
4636 Snow -17 1029 84 11265 0.6 100 10:57 14.01.2020
4637 Snow -17 1029 84 14484 0.6 100 10:38 14.01.2020
4638 Snow -18 1029 84 14484 0.6 100 10:19 14.01.2020
4639 Snow -18 1029 77 8047 0.6 100 09:56 14.01.2020
4640 Snow -18 1029 84 8047 0.6 100 09:38 14.01.2020
4641 Snow -18 1029 84 8047 0.6 100 09:19 14.01.2020
4642 Clouds -18 1028 77 16093 0.6 100 08:41 14.01.2020
4643 Clouds -18 1028 77 16093 0.57 105 08:22 14.01.2020
4644 Clouds -18 1028 77 16093 0.62 125 07:53 14.01.2020
4645 Snow -18 1029 84 14484 0.62 125 07:26 14.01.2020
4646 Snow -18 1029 84 6437 0.62 125 06:50 14.01.2020
4647 Snow -18 1029 84 6437 0.62 125 06:18 14.01.2020
4648 Snow -18 1029 84 12874 0.55 70 04:58 14.01.2020
4649 Snow -19 1029 84 11265 0.55 70 03:48 14.01.2020
4650 Snow -19 1029 84 6437 0.55 70 02:41 14.01.2020
4651 Snow -19 1029 84 8047 0.59 74 01:34 14.01.2020
4652 Snow -19 1029 84 9656 0.59 74 00:49 14.01.2020
4653 Snow -19 1029 84 4828 0.59 74 00:27 14.01.2020
4654 Snow -19 1030 84 3219 0.59 74 23:48 13.01.2020
4655 Snow -19 1029 77 2414 0.77 64 23:19 13.01.2020
4656 Snow -20 1029 76 4023 0.77 64 22:59 13.01.2020
4657 Clouds -20 1030 76 16093 0.77 64 22:40 13.01.2020
4658 Clouds -20 1030 76 16093 0.77 64 22:20 13.01.2020
4659 Clouds -20 1030 70 16093 0.77 64 21:56 13.01.2020
4660 Clouds -20 1030 70 14484 0.77 64 21:37 13.01.2020
4661 Clouds -20 1030 70 14484 0.77 64 21:18 13.01.2020
4662 Clouds -21 1030 76 11265 0.77 64 20:57 13.01.2020
4663 Clouds -21 1030 76 11265 0.77 64 20:38 13.01.2020
4664 Clouds -21 1030 76 11265 0.82 158 20:20 13.01.2020
4665 Snow -21 1030 76 6437 0.82 158 19:56 13.01.2020
4666 Snow -21 1030 76 6437 0.82 158 19:37 13.01.2020
4667 Snow -21 1030 76 6437 0.82 158 19:18 13.01.2020
4668 Snow -22 1030 76 16093 0.82 158 18:55 13.01.2020
4669 Snow -22 1030 76 16093 0.82 158 18:36 13.01.2020
4670 Snow -22 1030 76 16093 0.82 158 18:18 13.01.2020
4671 Snow -22 1029 69 9656 2.1 40 17:40 13.01.2020
4672 Snow -22 1029 69 9656 2.1 40 17:21 13.01.2020
4673 Snow -22 1029 63 3219 1.5 50 16:56 13.01.2020
4674 Clouds -21 1029 68 0 0.49 140 16:37 13.01.2020
4675 Clouds -22 1029 68 0 0.49 140 16:18 13.01.2020
4676 Clouds -22 1032 74 0 0.49 140 15:43 13.01.2020
4677 Clouds -21 1031 74 0 0.49 140 15:22 13.01.2020
4678 Clouds -21 1031 74 0 0.49 140 15:22 13.01.2020
4679 Clouds -22 1031 74 0 0.49 140 14:57 13.01.2020
4680 Clouds -22 1028 68 0 0.49 140 14:37 13.01.2020
4681 Clouds -22 1028 68 0 0.49 140 14:37 13.01.2020
4682 Clouds -24 1032 80 0 0.72 95 14:18 13.01.2020
4683 Clouds -24 1032 80 0 0.72 95 13:41 13.01.2020
4684 Clouds -22 995 75 0 0.68 101 13:22 13.01.2020
4685 Clouds -24 1026 68 16093 0.68 101 12:58 13.01.2020
4686 Clouds -24 1026 68 16093 0.68 101 12:40 13.01.2020
4687 Clouds -24 1026 68 16093 0.68 101 12:40 13.01.2020
4688 Clouds -25 1026 68 16093 0.68 101 12:21 13.01.2020
4689 Clouds -25 1026 68 16093 0.68 101 11:56 13.01.2020
4690 Clouds -26 1027 75 16093 0.68 101 11:36 13.01.2020
4691 Clouds -28 1027 75 16093 0.42 147 11:18 13.01.2020
4692 Clouds -30 1026 67 16093 0.42 147 10:55 13.01.2020
4693 Clouds -30 1026 67 16093 0.42 147 10:36 13.01.2020
4694 Clouds -29 1026 67 16093 0.42 147 10:18 13.01.2020
4695 Clouds -34 1026 66 16093 0.42 147 09:40 13.01.2020
4696 Clouds -34 1026 66 16093 0.42 147 09:22 13.01.2020
4697 Clouds -35 1025 66 14484 0.42 147 08:42 13.01.2020
4698 Clear -35 1025 66 14484 0.48 82 08:21 13.01.2020
4699 Clear -35 1025 73 16093 0.48 82 07:57 13.01.2020
4700 Clear -35 1025 73 16093 0.48 82 07:38 13.01.2020
4701 Clear -35 1025 66 16093 0.48 82 06:55 13.01.2020
4702 Clear -35 1025 66 16093 0.48 82 06:36 13.01.2020
4703 Clear -35 1025 66 16093 0.48 82 06:36 13.01.2020
4704 Clear -35 1024 66 16093 0.48 82 05:36 13.01.2020
4705 Clear -35 1023 73 16093 0.18 261 04:25 13.01.2020
4706 Clear -35 1023 66 16093 0.18 261 03:34 13.01.2020
4707 Clear -34 1022 73 16093 0.18 261 02:49 13.01.2020
4708 Clear -34 1022 73 16093 0.18 261 02:29 13.01.2020
4709 Clear -34 1022 66 16093 0.17 292 01:32 13.01.2020
4710 Clear -33 1022 73 16093 0.17 292 00:43 13.01.2020
4711 Clear -33 1022 73 16093 0.17 292 00:24 13.01.2020
4712 Clouds -34 1021 60 16093 0.17 292 23:56 12.01.2020
4713 Clear -35 1022 66 16093 0.17 292 23:37 12.01.2020
4714 Clear -35 1022 66 16093 1.32 44 23:19 12.01.2020
4715 Clear -35 1022 73 16093 1.32 44 22:42 12.01.2020
4716 Clear -36 1022 73 16093 1.32 44 22:24 12.01.2020
4717 Fog -36 1021 69 16093 1.32 44 21:58 12.01.2020
4718 Fog -36 1021 69 16093 1.32 44 21:39 12.01.2020
4719 Fog -36 1021 69 16093 1.32 44 21:20 12.01.2020
4720 Clear -37 1022 65 16093 1.32 44 20:57 12.01.2020
4721 Clear -36 1022 65 16093 1.32 44 20:39 12.01.2020
4722 Clear -36 1022 65 16093 1.41 46 20:20 12.01.2020
4723 Clear -37 1022 65 16093 1.41 46 19:56 12.01.2020
4724 Clear -32 1022 65 16093 1.41 46 19:38 12.01.2020
4725 Clear -33 1022 65 16093 1.41 46 19:19 12.01.2020
4726 Clear -37 1022 73 16093 1.41 46 18:57 12.01.2020
4727 Clear -37 1022 73 16093 1.41 46 18:57 12.01.2020
4728 Clear -37 1022 73 16093 1.41 46 18:39 12.01.2020
4729 Clear -37 1022 73 16093 1.41 46 18:21 12.01.2020
4730 Clear -36 1023 66 16093 1.41 46 17:57 12.01.2020
4731 Clear -36 1023 66 16093 1.41 46 17:38 12.01.2020
4732 Clear -36 1023 66 16093 1.67 58 17:19 12.01.2020
4733 Clear -37 1024 73 16093 1.67 58 16:55 12.01.2020
4734 Clear -37 1024 73 16093 1.67 58 16:37 12.01.2020
4735 Clear -37 1024 73 16093 1.67 58 16:18 12.01.2020
4736 Clear -36 1025 66 16093 1.67 58 15:42 12.01.2020
4737 Clear -36 1025 66 16093 1.67 58 15:24 12.01.2020
4738 Clear -37 1026 73 16093 1.67 58 14:57 12.01.2020
4739 Clear -37 1026 73 16093 1.67 58 14:38 12.01.2020
4740 Clear -37 1026 73 16093 1.26 56 14:19 12.01.2020
4741 Clear -34 1027 65 16093 1.26 56 13:43 12.01.2020
4742 Clear -37 1027 65 16093 1.47 60 13:24 12.01.2020
4743 Clear -37 1027 65 16093 1.47 60 12:58 12.01.2020
4744 Clear -37 1027 65 16093 1.47 60 12:39 12.01.2020
4745 Clear -37 1027 65 16093 1.47 60 12:20 12.01.2020
4746 Clear -36 1028 65 16093 1.47 60 11:58 12.01.2020
4747 Clear -36 1028 65 16093 1.47 60 11:38 12.01.2020
4748 Clear -36 1028 65 16093 1.78 44 11:19 12.01.2020
4749 Clear -36 1028 65 16093 1.78 44 10:41 12.01.2020
4750 Clear -36 1028 65 16093 1.78 44 10:41 12.01.2020
4751 Clear -36 1028 65 16093 1.78 44 10:22 12.01.2020
4752 Clear -36 1029 73 16093 1.78 44 09:57 12.01.2020
4753 Clear -36 1029 73 16093 1.78 44 09:38 12.01.2020
4754 Clear -36 1029 73 16093 1.78 44 09:18 12.01.2020
4755 Clear -36 1029 66 16093 1.78 44 08:44 12.01.2020
4756 Clear -33 1029 66 16093 1.12 62 08:20 12.01.2020
4757 Clear -33 1030 73 16093 1.12 62 07:40 12.01.2020
4758 Clear -34 1030 73 16093 1.12 62 07:22 12.01.2020
4759 Clear -34 1030 65 16093 1.12 62 06:48 12.01.2020
4760 Clear -36 1030 65 16093 1.12 62 06:29 12.01.2020
4761 Clear -36 1031 65 16093 1.12 62 05:32 12.01.2020
4762 Clear -35 1031 66 16093 0.77 61 04:27 12.01.2020
4763 Clear -36 1030 73 16093 0.77 61 03:25 12.01.2020
4764 Clear -36 1030 73 16093 0.77 61 02:34 12.01.2020
4765 Clear -35 1030 66 16093 0.82 63 01:51 12.01.2020
4766 Clear -32 1030 66 16093 1.08 59 01:29 12.01.2020
4767 Clear -35 1029 66 16093 1.08 59 00:41 12.01.2020
4768 Clear -35 1029 66 16093 1.08 59 00:20 12.01.2020
4769 Clear -36 1029 66 16093 1.08 59 23:42 11.01.2020
4770 Clear -36 1029 66 16093 1.08 59 23:42 11.01.2020
4771 Clear -36 1029 66 16093 0.83 85 23:20 11.01.2020
4772 Clear -36 1029 65 16093 0.83 85 22:59 11.01.2020
4773 Clear -34 1029 65 16093 0.83 85 22:41 11.01.2020
4774 Clear -36 1029 65 16093 0.83 85 22:21 11.01.2020
4775 Clouds -34 1028 84 16093 1.5 40 21:59 11.01.2020
4776 Clouds -35 1028 84 16093 1.5 40 21:41 11.01.2020
4777 Clear -32 1029 65 16093 0.83 85 21:18 11.01.2020
4778 Clear -33 1028 65 16093 0.83 85 20:55 11.01.2020
4779 Clear -33 1028 65 16093 0.83 85 20:36 11.01.2020
4780 Clear -33 1028 65 16093 0.44 116 20:18 11.01.2020
4781 Clear -32 1027 65 16093 0.49 100 19:54 11.01.2020
4782 Clear -33 1027 65 16093 0.49 100 19:36 11.01.2020
4783 Clear -34 1027 65 16093 0.49 100 19:18 11.01.2020
4784 Clear -35 1027 65 16093 0.49 100 18:39 11.01.2020
4785 Clear -34 1027 65 16093 0.49 100 18:20 11.01.2020
4786 Clear -34 1027 65 16093 0.49 100 18:20 11.01.2020
4787 Clear -34 1026 52 16093 0.49 100 17:58 11.01.2020
4788 Clear -34 1026 65 16093 0.49 100 17:40 11.01.2020
4789 Clear -33 1026 65 16093 0.38 92 17:20 11.01.2020
4790 Clear -34 1026 65 16093 0.38 92 16:55 11.01.2020
4791 Clear -34 1026 65 16093 0.38 92 16:55 11.01.2020
4792 Clear -34 1026 65 16093 0.38 92 16:36 11.01.2020
4793 Clear -34 1026 65 16093 0.38 92 16:36 11.01.2020
4794 Clear -34 1026 65 16093 0.38 92 16:18 11.01.2020
4795 Clear -33 1025 65 16093 0.38 92 15:41 11.01.2020
4796 Clear -33 1025 65 16093 0.38 92 15:23 11.01.2020
4797 Clear -36 1025 65 16093 0.38 92 14:58 11.01.2020
4798 Clear -35 1025 65 16093 0.38 92 14:40 11.01.2020
4799 Clear -35 1025 65 16093 0.61 98 14:21 11.01.2020
4800 Clear -34 1025 65 16093 0.61 98 13:55 11.01.2020
4801 Clear -34 1025 65 16093 0.61 98 13:36 11.01.2020
4802 Clear -34 1025 65 16093 0.64 130 13:18 11.01.2020
4803 Mist -35 1024 58 9656 0.64 130 12:41 11.01.2020
4804 Clear -33 1025 65 16093 0.64 130 12:23 11.01.2020
4805 Clear -33 1025 65 16093 0.64 130 11:48 11.01.2020
4806 Clear -35 1025 65 16093 0.64 130 11:27 11.01.2020
4807 Clear -34 1025 65 16093 1.28 65 10:59 11.01.2020
4808 Clear -35 1025 65 16093 1.28 65 10:40 11.01.2020
4809 Clear -35 1025 65 16093 1.28 65 10:40 11.01.2020
4810 Clear -33 1025 65 16093 1.28 65 10:22 11.01.2020
4811 Clouds -34 1025 65 16093 1.28 65 09:39 11.01.2020
4812 Clouds -37 1025 65 16093 1.28 65 09:21 11.01.2020
4813 Clouds -37 1025 65 16093 1.28 65 08:43 11.01.2020
4814 Clouds -37 1025 65 16093 1.07 77 08:22 11.01.2020
4815 Clouds -37 1025 65 16093 1.01 77 07:44 11.01.2020
4816 Clouds -37 1025 65 16093 1.01 77 07:26 11.01.2020
4817 Clouds -37 1025 65 16093 1.01 77 06:52 11.01.2020
4818 Clouds -36 1025 65 16093 1.01 77 06:19 11.01.2020
4819 Clouds -35 1026 65 16093 1.12 74 04:48 11.01.2020
4820 Clouds -35 1026 65 16093 1.12 74 04:29 11.01.2020
4821 Clear -36 1026 65 16093 1.12 74 03:28 11.01.2020
4822 Clouds -36 1026 73 16093 1.12 74 02:40 11.01.2020
4823 Clear -32 1026 90 16093 2.1 50 01:44 11.01.2020
4824 Clear -33 1026 89 16093 2.1 50 01:20 11.01.2020
4825 Clear -33 1027 66 16093 0.63 86 00:44 11.01.2020
4826 Clear -36 1027 66 16093 0.63 86 00:19 11.01.2020
4827 Clear -34 1027 65 14484 0.63 86 23:41 10.01.2020
4828 Clear -35 1027 65 14484 0.63 86 23:41 10.01.2020
4829 Clear -35 1027 65 14484 0.63 86 23:22 10.01.2020
4830 Clouds -37 1027 65 11265 0.87 90 22:59 10.01.2020
4831 Clouds -35 1027 65 11265 0.87 90 22:40 10.01.2020
4832 Clouds -35 1027 65 11265 0.87 90 22:21 10.01.2020
4833 Clear -36 1027 65 12874 0.87 90 21:57 10.01.2020
4834 Clear -36 1027 65 12874 0.87 90 21:38 10.01.2020
4835 Clear -38 1027 65 12874 0.87 90 21:19 10.01.2020
4836 Haze -37 1027 65 4828 0.87 90 20:43 10.01.2020
4837 Haze -37 1027 65 4828 0.87 90 20:25 10.01.2020
4838 Mist -35 1026 52 8047 0.61 71 19:59 10.01.2020
4839 Clear -39 1026 87 16093 0.61 71 19:38 10.01.2020
4840 Clear -39 1026 87 16093 0.61 71 19:20 10.01.2020
4841 Mist -39 1026 58 4828 0.61 71 18:44 10.01.2020
4842 Haze -40 1026 65 4828 0.61 71 18:20 10.01.2020
4843 Haze -40 1026 65 4023 0.61 71 17:58 10.01.2020
4844 Haze -40 1026 65 6437 0.61 71 17:39 10.01.2020
4845 Haze -37 1026 65 6437 0.63 102 17:21 10.01.2020
4846 Clear -37 1026 65 11265 0.63 102 16:59 10.01.2020
4847 Clear -37 1026 65 11265 0.63 102 16:40 10.01.2020
4848 Clear -37 1026 65 11265 0.63 102 16:21 10.01.2020
4849 Clear -37 1026 65 14484 0.63 102 15:56 10.01.2020
4850 Clear -37 1026 65 14484 0.63 102 15:37 10.01.2020
4851 Clear -37 1026 65 14484 0.63 102 15:18 10.01.2020
4852 Clear -37 1026 64 16093 0.63 102 14:56 10.01.2020
4853 Clear -37 1026 64 16093 0.63 102 14:38 10.01.2020
4854 Clear -37 1026 64 16093 0.61 105 14:19 10.01.2020
4855 Haze -36 1025 65 8047 0.61 105 13:44 10.01.2020
4856 Haze -40 1025 65 8047 0.61 105 13:26 10.01.2020
4857 Haze -40 1025 65 8047 0.61 105 13:26 10.01.2020
4858 Clear -37 1025 65 16093 0.64 111 12:59 10.01.2020
4859 Clear -37 1025 65 16093 0.64 111 12:39 10.01.2020
4860 Clear -37 1025 65 16093 0.64 111 12:21 10.01.2020
4861 Clear -37 1025 65 16093 0.64 111 12:21 10.01.2020
4862 Clear -37 1025 65 12874 0.64 111 11:56 10.01.2020
4863 Clear -37 1025 65 12874 0.64 111 11:38 10.01.2020
4864 Clear -36 1025 65 12874 0.58 89 11:19 10.01.2020
4865 Clear -37 1024 58 14484 0.58 89 10:58 10.01.2020
4866 Clear -37 1024 58 14484 0.58 89 10:58 10.01.2020
4867 Clear -37 1024 58 14484 0.58 89 10:37 10.01.2020
4868 Clear -37 1024 58 14484 0.58 89 10:18 10.01.2020
4869 Clear -37 1024 58 14484 0.58 89 10:18 10.01.2020
4870 Haze -37 1024 65 4828 0.58 89 09:45 10.01.2020
4871 Haze -36 1024 65 4828 0.58 89 09:25 10.01.2020
4872 Haze -37 1024 65 4828 0.58 89 08:44 10.01.2020
4873 Haze -37 1024 65 4828 0.58 89 08:24 10.01.2020
4874 Haze -36 1024 65 4828 0.76 73 07:58 10.01.2020
4875 Haze -36 1024 65 4828 0.76 73 07:58 10.01.2020
4876 Haze -35 1024 65 4828 0.76 73 07:39 10.01.2020
4877 Haze -36 1024 65 4828 0.76 73 07:19 10.01.2020
4878 Haze -36 1023 65 3621 0.76 73 06:27 10.01.2020
4879 Haze -37 1023 64 4828 0.76 73 06:00 10.01.2020
4880 Haze -39 1023 65 4426 1.03 68 04:44 10.01.2020
4881 Haze -36 1023 65 4828 1.03 68 03:31 10.01.2020
4882 Mist -36 1023 65 8047 1.03 68 02:52 10.01.2020
4883 Mist -35 1023 65 8047 0.84 94 02:20 10.01.2020
4884 Clear -36 1023 87 16093 0.84 94 01:32 10.01.2020
4885 Mist -36 1023 65 6437 0.95 81 00:51 10.01.2020
4886 Mist -36 1023 65 6437 0.95 81 00:33 10.01.2020
4887 Mist -35 1023 65 4023 0.95 81 23:57 09.01.2020
4888 Mist -35 1023 65 4023 0.95 81 23:57 09.01.2020
4889 Haze -39 1024 65 4828 0.95 81 23:36 09.01.2020
4890 Haze -39 1024 65 4828 1.57 58 23:18 09.01.2020
4891 Mist -40 1024 72 1609 1.57 58 22:56 09.01.2020
4892 Mist -40 1024 64 3219 1.57 58 22:37 09.01.2020
4893 Mist -40 1024 64 3219 1.57 58 22:18 09.01.2020
4894 Mist -40 1024 64 3219 1.57 58 21:55 09.01.2020
4895 Mist -41 1024 64 1609 1.57 58 21:36 09.01.2020
4896 Mist -41 1024 64 1609 1.57 58 21:18 09.01.2020
4897 Mist -40 1025 64 4828 1.57 58 20:54 09.01.2020
4898 Mist -40 1024 85 2414 1.57 58 20:36 09.01.2020
4899 Mist -41 1025 64 2012 1.9 53 20:18 09.01.2020
4900 Mist -41 1024 86 1609 1.9 53 19:39 09.01.2020
4901 Mist -40 1025 64 3219 1.9 53 19:20 09.01.2020
4902 Mist -41 1024 86 1609 1.5 60 18:57 09.01.2020
4903 Mist -39 1024 86 1609 1.5 60 18:39 09.01.2020
4904 Mist -39 1025 64 1609 1.9 53 18:21 09.01.2020
4905 Mist -41 1025 64 1609 1.9 53 17:41 09.01.2020
4906 Mist -41 1025 64 3219 1.47 56 17:19 09.01.2020
4907 Haze -41 1026 64 6437 1.47 56 16:59 09.01.2020
4908 Haze -41 1026 64 6437 1.47 56 16:41 09.01.2020
4909 Haze -41 1026 64 6437 1.47 56 16:21 09.01.2020
4910 Haze -41 1026 72 6437 1.47 56 15:43 09.01.2020
4911 Clear -41 1026 64 6437 1.47 56 15:23 09.01.2020
4912 Mist -41 1026 87 1207 2.6 40 14:58 09.01.2020
4913 Mist -41 1026 87 1207 2.6 40 14:40 09.01.2020
4914 Haze -41 1027 64 6437 1.59 55 14:19 09.01.2020
4915 Clear -41 1027 64 11265 1.59 55 13:55 09.01.2020
4916 Clear -41 1027 64 11265 1.59 55 13:37 09.01.2020
4917 Clear -41 1027 64 11265 1.59 55 13:19 09.01.2020
4918 Haze -41 1028 72 6437 1.59 55 12:56 09.01.2020
4919 Haze -41 1028 72 6437 1.59 55 12:38 09.01.2020
4920 Haze -41 1028 72 4828 1.59 55 12:18 09.01.2020
4921 Haze -41 1028 64 6437 1.59 55 11:42 09.01.2020
4922 Haze -40 1028 64 6437 1.59 55 11:24 09.01.2020
4923 Haze -40 1028 64 6437 1.59 55 11:24 09.01.2020
4924 Mist -40 1027 57 3219 1.16 60 10:58 09.01.2020
4925 Mist -40 1027 57 3219 1.16 60 10:39 09.01.2020
4926 Haze -40 1028 64 9656 1.16 60 10:21 09.01.2020
4927 Mist -40 1028 89 1609 1.16 60 09:46 09.01.2020
4928 Haze -40 1028 64 8047 1.16 60 09:25 09.01.2020
4929 Mist -39 1028 89 4023 1.16 60 08:58 09.01.2020
4930 Mist -38 1028 89 4023 1.16 60 08:39 09.01.2020
4931 Haze -39 1029 64 2816 1.01 51 08:20 09.01.2020
4932 Mist -37 1029 89 2012 1.01 51 07:48 09.01.2020
4933 Mist -37 1029 89 2012 1.01 51 07:30 09.01.2020
4934 Haze -38 1029 64 2414 1.01 51 06:40 09.01.2020
4935 Haze -40 1029 64 2414 1.01 51 06:22 09.01.2020
4936 Haze -40 1029 64 3219 1.01 51 05:51 09.01.2020
4937 Haze -39 1029 64 3219 1.01 51 05:26 09.01.2020
4938 Mist -39 1029 90 8047 1.05 51 04:40 09.01.2020
4939 Mist -38 1029 90 3219 1.05 51 03:27 09.01.2020
4940 Mist -38 1030 65 3219 1.05 51 02:47 09.01.2020
4941 Mist -37 1029 65 2816 0.4 28 01:42 09.01.2020
4942 Snow -37 1029 91 2012 0.58 35 01:18 09.01.2020
4943 Snow -37 1029 91 1609 0.58 35 00:38 09.01.2020
4944 Mist -37 1029 65 2012 0.58 35 00:19 09.01.2020
4945 Mist -37 1029 65 2012 0.58 35 00:19 09.01.2020
4946 Mist -37 1029 65 3621 0.58 35 23:40 08.01.2020
4947 Mist -37 1029 72 1408 0.61 70 23:22 08.01.2020
4948 Snow -37 1028 93 805 0.61 70 22:56 08.01.2020
4949 Snow -38 1028 93 805 0.61 70 22:38 08.01.2020
4950 Mist -38 1029 64 1207 0.61 70 22:19 08.01.2020
4951 Mist -38 1028 64 1408 0.61 70 21:55 08.01.2020
4952 Mist -38 1028 64 1408 0.61 70 21:37 08.01.2020
4953 Mist -38 1028 64 1408 0.61 70 21:18 08.01.2020
4954 Haze -38 1028 64 3219 0.61 70 20:55 08.01.2020
4955 Snow -38 1027 93 4023 0.61 70 20:36 08.01.2020
4956 Snow -38 1027 93 4023 0.32 58 20:18 08.01.2020
4957 Snow -38 1027 93 3219 1.5 70 19:39 08.01.2020
4958 Snow -38 1027 93 3219 0.32 58 19:20 08.01.2020
4959 Mist -38 1026 57 1609 0.32 58 18:58 08.01.2020
4960 Mist -38 1026 57 1609 0.32 58 18:39 08.01.2020
4961 Mist -38 1026 57 1609 0.32 58 18:39 08.01.2020
4962 Mist -38 1027 64 1609 0.32 58 18:19 08.01.2020
4963 Mist -38 1025 52 1609 0.32 58 17:57 08.01.2020
4964 -273 0 0 0 0 0 17:39 08.01.2020
4965 Mist -37 1026 64 2414 0.3 49 17:20 08.01.2020
4966 Mist -37 1026 64 2414 0.3 49 16:57 08.01.2020
4967 Mist -37 1026 64 2414 0.3 49 16:57 08.01.2020
4968 Mist -37 1026 64 2414 0.3 49 16:38 08.01.2020
4969 Haze -37 1026 64 8047 0.3 49 16:19 08.01.2020
4970 Haze -37 1025 64 8047 0.3 49 15:45 08.01.2020
4971 Haze -38 1025 64 8047 0.3 49 15:22 08.01.2020
4972 Mist -37 1025 92 9656 0.3 49 14:59 08.01.2020
4973 Mist -37 1025 92 9656 0.3 49 14:40 08.01.2020
4974 Clear -37 1025 65 11265 0.14 72 14:21 08.01.2020
4975 Haze -37 1024 65 9656 0.14 72 13:42 08.01.2020
4976 Haze -36 1024 65 9656 0.2 61 13:22 08.01.2020
4977 Haze -36 1024 72 9656 0.2 61 12:55 08.01.2020
4978 Haze -37 1024 72 9656 0.2 61 12:37 08.01.2020
4979 Haze -36 1024 72 9656 0.2 61 12:18 08.01.2020
4980 Haze -36 1024 72 9656 0.2 61 12:18 08.01.2020
4981 Haze -36 1023 65 8047 0.2 61 11:48 08.01.2020
4982 Haze -36 1023 65 8047 0.36 28 11:19 08.01.2020
4983 Clear -36 1023 65 14484 0.36 28 10:59 08.01.2020
4984 Clear -36 1023 65 14484 0.36 28 10:40 08.01.2020
4985 Clear -35 1023 65 14484 0.36 28 10:21 08.01.2020
4986 Clouds -36 1023 72 14484 0.36 28 09:57 08.01.2020
4987 Clouds -36 1023 72 14484 0.36 28 09:36 08.01.2020
4988 Clouds -35 1023 72 14484 0.36 28 09:18 08.01.2020
4989 Clouds -35 1022 65 16093 0.36 28 08:41 08.01.2020
4990 Clouds -35 1022 65 16093 0.46 18 08:22 08.01.2020
4991 Mist -34 1021 98 9656 0.19 290 07:59 08.01.2020
4992 Mist -34 1021 98 9656 0.19 290 07:40 08.01.2020
4993 Mist -34 1021 98 9656 0.19 290 07:19 08.01.2020
4994 Clouds -34 1021 65 16093 0.19 290 06:42 08.01.2020
4995 Clouds -34 1021 65 16093 0.19 290 05:56 08.01.2020
4996 Clouds -34 1021 65 16093 0.19 290 05:26 08.01.2020
4997 Mist -33 1021 98 8047 0.36 243 04:37 08.01.2020
4998 Mist -32 1020 67 4828 0.36 243 02:46 08.01.2020
4999 Clear -32 1021 66 16093 0.36 243 02:28 08.01.2020
5000 Clouds -32 1021 73 16093 0.71 230 01:57 08.01.2020
5001 Clouds -32 1021 73 16093 0.46 229 01:32 08.01.2020
5002 Snow -31 1020 67 4023 0.46 229 00:51 08.01.2020
5003 Snow -31 1021 67 8047 0.46 229 00:23 08.01.2020
5004 Clouds -32 1021 67 16093 0.46 229 23:46 07.01.2020
5005 Clouds -32 1021 67 16093 0.41 251 23:21 07.01.2020
5006 Snow -32 1021 67 4828 0.41 251 22:56 07.01.2020
5007 Snow -32 1021 67 4828 0.41 251 22:37 07.01.2020
5008 Snow -32 1021 74 9656 0.41 251 22:18 07.01.2020
5009 Snow -31 1021 67 3219 0.41 251 21:42 07.01.2020
5010 Snow -32 1021 74 6437 0.41 251 21:22 07.01.2020
5011 Snow -32 1021 67 4828 0.41 251 20:58 07.01.2020
5012 Snow -32 1021 67 4828 0.41 251 20:40 07.01.2020
5013 Snow -32 1022 74 8047 0.27 342 20:21 07.01.2020
5014 Snow -32 1022 73 8047 0.27 342 19:57 07.01.2020
5015 Snow -33 1022 73 8047 0.27 342 19:38 07.01.2020
5016 Snow -33 1022 73 8047 0.27 342 19:19 07.01.2020
5017 Snow -33 1021 60 3219 0.27 342 18:56 07.01.2020
5018 Snow -33 1022 66 9656 0.27 342 18:38 07.01.2020
5019 Snow -33 1022 66 9656 0.27 342 18:18 07.01.2020
5020 Snow -33 1022 66 9656 0.27 342 18:18 07.01.2020
5021 Snow -34 1022 95 4828 0.27 342 17:55 07.01.2020
5022 Snow -33 1022 95 4828 0.27 342 17:36 07.01.2020
5023 Snow -34 1022 73 8047 0.21 328 17:18 07.01.2020
5024 Snow -34 1021 60 6437 0.21 328 16:55 07.01.2020
5025 Snow -34 1021 60 6437 0.21 328 16:36 07.01.2020
5026 Clouds -34 1022 73 11265 0.21 328 16:18 07.01.2020
5027 Clouds -34 1022 73 16093 0.21 328 15:42 07.01.2020
5028 Snow -34 1022 73 14484 0.21 328 15:24 07.01.2020
5029 Clouds -34 1022 65 16093 0.21 328 14:58 07.01.2020
5030 Clouds -34 1022 65 16093 0.21 328 14:38 07.01.2020
5031 Clouds -35 1022 65 16093 0.37 340 14:20 07.01.2020
5032 Clouds -35 1022 73 14484 0.37 340 13:46 07.01.2020
5033 Clouds -35 1022 73 14484 0.45 352 13:21 07.01.2020
5034 Clouds -35 1022 73 14484 0.45 352 13:21 07.01.2020
5035 Clouds -35 1021 59 16093 0.45 352 12:56 07.01.2020
5036 Clouds -35 1021 59 16093 0.45 352 12:37 07.01.2020
5037 Clouds -35 1022 65 14484 0.45 352 12:19 07.01.2020
5038 Clouds -35 1021 59 16093 0.45 352 11:41 07.01.2020
5039 -273 0 0 0 0 0 11:22 07.01.2020
5040 Mist -35 1022 96 3219 0.14 8 10:57 07.01.2020
5041 Mist -36 1022 96 3219 0.14 8 10:39 07.01.2020
5042 Clouds -36 1022 65 12874 0.14 8 10:20 07.01.2020
5043 Mist -36 1021 96 4828 0.14 8 09:39 07.01.2020
5044 Mist -36 1021 96 4828 0.14 8 09:21 07.01.2020
5045 Haze -36 1021 72 8047 0.14 8 08:57 07.01.2020
5046 Haze -36 1021 72 8047 0.14 8 08:38 07.01.2020
5047 Haze -36 1021 72 8047 0.17 350 08:18 07.01.2020
5048 Mist -35 1021 95 3219 1.5 10 07:42 07.01.2020
5049 Mist -35 1021 95 9656 0.17 350 07:20 07.01.2020
5050 Haze -37 1021 65 9656 0.17 350 06:49 07.01.2020
5051 Haze -36 1021 65 9656 0.17 350 06:29 07.01.2020
5052 Mist -36 1021 95 4023 0.17 350 05:41 07.01.2020
5053 Haze -36 1021 65 9656 0.32 3 03:47 07.01.2020
5054 Haze -36 1021 65 9656 0.32 3 03:25 07.01.2020
5055 Mist -36 1020 65 9656 0.36 341 02:19 07.01.2020
5056 Clouds -35 1020 65 16093 0.36 341 01:40 07.01.2020
5057 Clouds -35 1020 73 16093 0.45 348 00:58 07.01.2020
5058 Clouds -35 1020 73 16093 0.45 348 00:21 07.01.2020
5059 Clouds -35 1020 73 16093 0.45 348 00:21 07.01.2020
5060 Clouds -35 1020 73 16093 0.45 348 00:21 07.01.2020
5061 Mist -34 1019 58 1006 1.5 0 23:57 06.01.2020
5062 Mist -35 1019 58 1006 1.5 0 23:38 06.01.2020
5063 Clouds -34 1020 65 12874 0.14 55 23:20 06.01.2020
5064 Clouds -37 1020 73 16093 0.14 55 22:44 06.01.2020
5065 Clouds -37 1020 73 16093 0.14 55 22:25 06.01.2020
5066 Clouds -37 1019 65 12874 0.14 55 21:59 06.01.2020
5067 Clouds -37 1019 65 12874 0.14 55 21:40 06.01.2020
5068 Fog -37 1019 99 12874 0.14 55 21:20 06.01.2020
5069 Clouds -37 1019 72 16093 0.14 55 20:58 06.01.2020
5070 Clouds -37 1019 72 16093 0.14 55 20:40 06.01.2020
5071 Clouds -35 1019 72 16093 0.13 168 20:20 06.01.2020
5072 Mist -38 1018 58 1006 0.06 12 19:57 06.01.2020
5073 Mist -38 1018 58 1006 0.06 12 19:39 06.01.2020
5074 Mist -38 1018 58 1006 0.06 12 19:39 06.01.2020
5075 Clouds -35 1018 65 16093 0.06 12 19:20 06.01.2020
5076 Clouds -34 1018 99 14484 0.06 12 18:48 06.01.2020
5077 Clouds -34 1018 65 16093 0.06 12 18:25 06.01.2020
5078 Mist -34 1017 58 3219 1.5 170 17:59 06.01.2020
5079 Mist -34 1017 58 3219 1.5 170 17:59 06.01.2020
5080 Mist -33 1017 58 3219 1.5 170 17:39 06.01.2020
5081 Clouds -33 1018 73 16093 0.14 88 17:19 06.01.2020
5082 Clouds -33 1017 58 12874 0.14 88 16:55 06.01.2020
5083 Clouds -33 1018 73 16093 0.14 88 16:36 06.01.2020
5084 Clouds -33 1018 73 16093 0.14 88 16:18 06.01.2020
5085 Clear -32 1018 73 16093 0.14 88 15:42 06.01.2020
5086 Clear -32 1018 73 16093 0.14 88 15:20 06.01.2020
5087 Clouds -32 1017 74 16093 0.14 88 14:59 06.01.2020
5088 Clouds -31 1017 74 16093 0.14 88 14:40 06.01.2020
5089 Clouds -32 1017 74 16093 0.54 53 14:21 06.01.2020
5090 Clouds -31 1018 74 16093 0.54 53 13:57 06.01.2020
5091 Clouds -30 1018 74 16093 0.54 53 13:38 06.01.2020
5092 Clouds -30 1018 74 16093 0.73 43 13:19 06.01.2020
5093 Clouds -30 1017 74 16093 0.73 43 12:43 06.01.2020
5094 Clouds -30 1017 74 16093 0.73 43 12:21 06.01.2020
5095 Clouds -31 1017 74 14484 0.73 43 11:58 06.01.2020
5096 Clouds -31 1017 74 14484 0.73 43 11:39 06.01.2020
5097 Snow -31 1017 74 9656 0.74 45 11:21 06.01.2020
5098 Snow -31 1017 74 11265 0.74 45 10:57 06.01.2020
5099 Snow -31 1017 74 11265 0.74 45 10:39 06.01.2020
5100 Snow -31 1017 74 11265 0.74 45 10:20 06.01.2020
5101 Snow -31 1017 67 16093 0.74 45 09:38 06.01.2020
5102 Clouds -32 1017 67 16093 0.74 45 09:19 06.01.2020
5103 Clear -33 1017 73 16093 0.74 45 08:46 06.01.2020
5104 Clear -33 1017 73 16093 0.74 45 08:26 06.01.2020
5105 Clouds -32 1016 73 16093 0.78 40 07:53 06.01.2020
5106 Clouds -32 1016 73 16093 0.78 40 07:28 06.01.2020
5107 Clouds -31 1016 74 16093 0.78 40 06:45 06.01.2020
5108 Clouds -31 1016 74 16093 0.78 40 06:20 06.01.2020
5109 Clouds -31 1016 74 16093 0.78 40 05:45 06.01.2020
5110 Snow -32 1016 67 8047 0.96 37 04:38 06.01.2020
5111 Snow -31 1016 67 8047 0.96 37 04:19 06.01.2020
5112 Clouds -32 1016 66 16093 0.96 37 02:46 06.01.2020
5113 Clouds -32 1016 66 16093 0.96 37 02:24 06.01.2020
5114 Clouds -32 1015 90 12874 0.78 52 01:44 06.01.2020
5115 Haze -32 1015 66 4828 0.78 52 01:26 06.01.2020
5116 Clear -32 1015 66 16093 1.11 40 00:42 06.01.2020
5117 Clear -34 1015 66 16093 1.11 40 00:21 06.01.2020
5118 Mist -34 1014 89 6437 1.11 40 23:42 05.01.2020
5119 Mist -34 1014 89 6437 1.11 40 23:42 05.01.2020
5120 Clouds -32 1015 73 16093 1.11 40 23:22 05.01.2020
5121 Snow -32 1014 66 9656 1.5 70 22:56 05.01.2020
5122 Snow -33 1014 66 9656 1.5 70 22:38 05.01.2020
5123 Clouds -33 1014 73 12874 0.93 51 22:19 05.01.2020
5124 Snow -34 1013 66 2414 0.93 51 21:54 05.01.2020
5125 Snow -34 1013 66 2414 0.93 51 21:36 05.01.2020
5126 Haze -35 1014 65 6437 0.93 51 21:18 05.01.2020
5127 Snow -34 1014 92 2414 1.5 60 20:55 05.01.2020
5128 Snow -35 1014 92 2414 1.5 60 20:36 05.01.2020
5129 Snow -36 1014 97 4023 0.63 35 20:18 05.01.2020
5130 Snow -35 1013 97 9656 0.72 38 19:56 05.01.2020
5131 Snow -35 1013 97 9656 0.72 38 19:37 05.01.2020
5132 Clouds -35 1014 65 12874 0.72 38 19:18 05.01.2020
5133 Snow -35 1013 97 8047 0.72 38 18:54 05.01.2020
5134 Clouds -35 1013 65 16093 0.72 38 18:36 05.01.2020
5135 Clouds -35 1013 65 16093 0.72 38 18:18 05.01.2020
5136 Clouds -35 1013 73 16093 0.72 38 17:55 05.01.2020
5137 Clouds -35 1013 73 16093 0.72 38 17:55 05.01.2020
5138 Clouds -34 1013 73 16093 0.72 38 17:37 05.01.2020
5139 Clouds -34 1013 73 16093 0.46 125 17:18 05.01.2020
5140 Mist -34 1012 58 6437 0.46 125 16:54 05.01.2020
5141 Mist -34 1012 58 6437 0.46 125 16:36 05.01.2020
5142 Clouds -34 1013 65 16093 0.46 125 16:18 05.01.2020
5143 Mist -33 1012 52 3219 0.46 125 15:36 05.01.2020
5144 Clouds -33 1013 65 16093 0.46 125 15:18 05.01.2020
5145 Clouds -34 1013 73 16093 0.46 125 14:54 05.01.2020
5146 Clouds -33 1013 73 16093 0.46 125 14:36 05.01.2020
5147 Clouds -33 1013 73 16093 0.33 77 14:18 05.01.2020
5148 Clouds -32 1013 73 16093 0.33 77 13:39 05.01.2020
5149 Clouds -32 1013 73 16093 0.33 68 13:21 05.01.2020
5150 Clear -32 1013 73 16093 0.33 68 12:57 05.01.2020
5151 Clear -32 1013 73 16093 0.33 68 12:57 05.01.2020
5152 Clear -32 1013 73 16093 0.33 68 12:57 05.01.2020
5153 Clear -32 1013 73 16093 0.33 68 12:39 05.01.2020
5154 Clear -32 1013 73 16093 0.33 68 12:39 05.01.2020
5155 Clear -32 1013 73 16093 0.33 68 12:39 05.01.2020
5156 Clear -32 1013 73 16093 0.33 68 12:21 05.01.2020
5157 Clear -32 1013 73 16093 0.33 68 12:21 05.01.2020
5158 Mist -32 1012 59 4828 0.33 68 11:55 05.01.2020
5159 Mist -31 1012 59 4828 0.33 68 11:37 05.01.2020
5160 Clear -32 1012 74 16093 0.92 53 11:19 05.01.2020
5161 Clouds -31 1012 74 16093 0.92 53 10:55 05.01.2020
5162 Clouds -31 1012 74 16093 0.92 53 10:36 05.01.2020
5163 Clouds -31 1012 74 16093 0.92 53 10:18 05.01.2020
5164 Clouds -31 1012 74 16093 0.92 53 09:41 05.01.2020
5165 Clouds -31 1012 74 16093 0.92 53 09:21 05.01.2020
5166 Clear -29 1012 74 16093 0.92 53 08:45 05.01.2020
5167 Clear -30 1012 74 16093 0.92 53 08:26 05.01.2020
5168 Clouds -29 1012 74 16093 0.61 38 07:55 05.01.2020
5169 Clouds -29 1012 74 16093 0.61 38 07:32 05.01.2020
5170 Clouds -30 1012 74 14484 0.61 38 06:57 05.01.2020
5171 Clouds -29 1012 74 16093 0.61 38 05:55 05.01.2020
5172 Clouds -30 1011 74 16093 0.61 38 05:30 05.01.2020
5173 Clouds -29 1011 74 16093 0.63 5 04:34 05.01.2020
5174 Clouds -30 1011 74 16093 0.63 5 03:47 05.01.2020
5175 Clouds -31 1011 74 14484 0.63 5 02:45 05.01.2020
5176 Clouds -30 1011 74 14484 1.07 23 02:20 05.01.2020
5177 Snow -30 1009 67 6437 1.07 23 01:40 05.01.2020
5178 Clouds -30 1011 74 12874 0.99 19 01:18 05.01.2020
5179 Haze -31 1009 67 6437 0.99 19 00:41 05.01.2020
5180 Clouds -31 1010 74 14484 0.99 19 00:22 05.01.2020
5181 Clouds -32 1010 73 14484 0.99 19 23:59 04.01.2020
5182 Clouds -32 1010 73 14484 0.99 19 23:39 04.01.2020
5183 Clouds -32 1010 73 14484 1.47 32 23:19 04.01.2020
5184 Clouds -34 1009 73 12874 1.47 32 22:39 04.01.2020
5185 Clouds -34 1009 73 12874 1.47 32 22:21 04.01.2020
5186 Clouds -34 1009 73 12874 1.47 32 21:57 04.01.2020
5187 Clouds -33 1009 73 12874 1.47 32 21:38 04.01.2020
5188 Clouds -33 1009 73 12874 1.47 32 21:19 04.01.2020
5189 Mist -35 1008 60 9656 1.47 32 20:57 04.01.2020
5190 Mist -35 1008 60 9656 1.47 32 20:38 04.01.2020
5191 Clouds -35 1009 73 14484 1.52 32 20:19 04.01.2020
5192 Mist -36 1007 59 2615 1.52 32 19:42 04.01.2020
5193 Clouds -36 1008 66 14484 1.52 32 19:24 04.01.2020
5194 Clouds -36 1008 73 14484 1.52 32 18:58 04.01.2020
5195 Clouds -37 1008 73 14484 1.52 32 18:39 04.01.2020
5196 Clouds -37 1008 73 14484 1.52 32 18:21 04.01.2020
5197 Clouds -36 1007 73 16093 1.52 32 17:58 04.01.2020
5198 Clouds -35 1007 73 16093 1.52 32 17:40 04.01.2020
5199 Clouds -34 1007 73 16093 1.52 32 17:22 04.01.2020
5200 Clear -35 1007 73 14484 1.77 29 16:42 04.01.2020
5201 Clear -35 1007 73 14484 1.77 29 16:24 04.01.2020
5202 Clear -35 1007 66 14484 1.77 29 15:59 04.01.2020
5203 Clear -35 1007 66 14484 1.77 29 15:59 04.01.2020
5204 Clear -35 1007 66 14484 1.77 29 15:41 04.01.2020
5205 Clear -35 1007 66 14484 1.77 29 15:19 04.01.2020
5206 Clear -34 1007 66 14484 1.77 29 14:58 04.01.2020
5207 Clear -34 1007 66 14484 1.77 29 14:58 04.01.2020
5208 Clear -34 1007 66 14484 1.77 29 14:40 04.01.2020
5209 Clear -36 1007 66 14484 2.01 27 14:19 04.01.2020
5210 Clear -34 1007 73 16093 2.01 27 13:56 04.01.2020
5211 Clear -34 1007 73 16093 2.01 27 13:37 04.01.2020
5212 Clear -36 1007 73 16093 1.98 28 13:18 04.01.2020
5213 Clouds -34 1006 89 16093 1.98 28 12:42 04.01.2020
5214 Clear -35 1007 66 14484 1.98 28 12:20 04.01.2020
5215 Clear -35 1007 66 14484 1.98 28 12:20 04.01.2020
5216 Clear -35 1006 73 16093 1.98 28 11:59 04.01.2020
5217 Clear -34 1006 73 16093 1.98 28 11:40 04.01.2020
5218 Clear -33 1006 73 16093 2.13 21 11:19 04.01.2020
5219 Clear -33 1006 73 14484 2.13 21 10:55 04.01.2020
5220 Clear -33 1006 73 14484 2.13 21 10:37 04.01.2020
5221 Clear -33 1006 73 14484 2.13 21 10:19 04.01.2020
5222 Clear -32 1006 66 16093 2.13 21 09:42 04.01.2020
5223 Clear -33 1006 66 16093 2.13 21 09:23 04.01.2020
5224 Clear -33 1006 73 16093 2.13 21 08:42 04.01.2020
5225 Clouds -30 1006 73 16093 2.15 25 08:21 04.01.2020
5226 Clear -34 1006 66 16093 2.15 25 07:44 04.01.2020
5227 Clear -34 1006 66 16093 2.15 25 07:26 04.01.2020
5228 Clear -33 1006 73 16093 2.15 25 06:36 04.01.2020
5229 Clear -30 1006 74 16093 2.15 25 05:45 04.01.2020
5230 Clear -29 1006 74 16093 1.85 20 04:44 04.01.2020
5231 Clear -31 1006 74 16093 1.85 20 04:26 04.01.2020
5232 Clear -32 1006 74 16093 1.85 20 03:19 04.01.2020
5233 Clear -27 1007 74 16093 1.85 20 02:23 04.01.2020
5234 Clear -25 1007 74 16093 1.44 14 01:57 04.01.2020
5235 Clear -24 1007 74 16093 1.44 14 01:32 04.01.2020
5236 Clear -24 1007 74 16093 1.44 14 01:32 04.01.2020
5237 Clear -28 1007 75 16093 1.1 10 00:56 04.01.2020
5238 Clear -28 1007 75 16093 1.1 10 00:28 04.01.2020
5239 Clouds -28 1007 75 16093 1.1 10 23:52 03.01.2020
5240 Clouds -27 1007 75 16093 1.1 10 23:27 03.01.2020
5241 Mist -27 1006 67 8047 1.26 12 22:55 03.01.2020
5242 Mist -25 1006 67 8047 1.26 12 22:37 03.01.2020
5243 Clouds -25 1007 82 14484 1.26 12 22:18 03.01.2020
5244 Clouds -27 1007 74 16093 1.26 12 21:56 03.01.2020
5245 Clouds -27 1007 74 16093 1.26 12 21:37 03.01.2020
5246 Clouds -28 1007 74 16093 1.26 12 21:18 03.01.2020
5247 Mist -28 1008 74 8047 1.26 12 20:43 03.01.2020
5248 Mist -26 1008 74 8047 1.47 9 20:19 03.01.2020
5249 Clouds -25 1007 75 16093 1.42 1 19:59 03.01.2020
5250 Clouds -25 1007 75 16093 1.42 1 19:41 03.01.2020
5251 Clouds -27 1007 75 16093 1.42 1 19:22 03.01.2020
5252 Clear -27 1007 75 16093 1.42 1 18:46 03.01.2020
5253 Clear -26 1007 75 16093 1.42 1 18:26 03.01.2020
5254 Clear -26 1007 82 12874 1.42 1 17:58 03.01.2020
5255 Clear -26 1007 82 12874 1.42 1 17:58 03.01.2020
5256 Clear -26 1007 82 12874 1.42 1 17:39 03.01.2020
5257 Clear -25 1007 82 12874 1.44 359 17:21 03.01.2020
5258 Haze -24 1007 75 8047 1.44 359 16:43 03.01.2020
5259 Mist -23 1007 83 4023 1.44 359 16:24 03.01.2020
5260 Clear -23 1007 75 16093 1.44 359 15:59 03.01.2020
5261 Clear -22 1007 75 16093 1.44 359 15:41 03.01.2020
5262 Clear -22 1007 75 16093 1.44 359 15:19 03.01.2020
5263 Clear -22 1007 75 16093 1.44 359 15:19 03.01.2020
5264 Snow -22 1007 69 14484 1.44 359 14:39 03.01.2020
5265 Snow -22 1007 69 14484 1.62 8 14:20 03.01.2020
5266 Clouds -21 1008 83 16093 1.62 8 13:57 03.01.2020
5267 Clouds -21 1008 83 16093 1.69 9 13:38 03.01.2020
5268 Snow -21 1008 76 9656 1.69 9 13:20 03.01.2020
5269 Snow -21 1008 76 8047 1.69 9 12:41 03.01.2020
5270 Snow -20 1008 76 8047 1.69 9 12:22 03.01.2020
5271 Snow -20 1008 76 14484 1.69 9 11:49 03.01.2020
5272 Snow -21 1008 76 14484 1.69 9 11:31 03.01.2020
5273 Snow -22 1008 83 14484 1.92 12 10:57 03.01.2020
5274 Snow -21 1008 83 14484 1.92 12 10:38 03.01.2020
5275 Snow -21 1008 83 9656 1.92 12 10:20 03.01.2020
5276 Clouds -21 1008 83 16093 1.92 12 09:54 03.01.2020
5277 Clouds -21 1008 83 16093 1.92 12 09:36 03.01.2020
5278 Clouds -21 1008 83 16093 1.92 12 09:18 03.01.2020
5279 Clouds -21 1008 76 16093 1.92 12 08:44 03.01.2020
5280 Snow -21 1008 76 14484 1.84 14 08:21 03.01.2020
5281 Clouds -20 1007 83 16093 1.84 14 07:42 03.01.2020
5282 Clouds -20 1007 83 16093 1.84 14 07:19 03.01.2020
5283 Clouds -20 1007 83 16093 1.84 14 07:19 03.01.2020
5284 Clouds -20 1008 76 16093 1.84 14 06:57 03.01.2020
5285 Clouds -20 1008 76 16093 1.84 14 06:39 03.01.2020
5286 Clouds -20 1008 76 16093 1.84 14 06:20 03.01.2020
5287 Clouds -21 1007 83 16093 1.91 12 04:43 03.01.2020
5288 Clouds -21 1007 76 16093 1.91 12 03:37 03.01.2020
5289 Clouds -21 1006 70 16093 1.91 12 02:50 03.01.2020
5290 Snow -21 1006 76 14484 1.86 16 01:50 03.01.2020
5291 Clouds -21 1006 70 16093 1.79 13 00:57 03.01.2020
5292 Clouds -21 1007 83 16093 1.79 13 00:33 03.01.2020
5293 Snow -21 1006 70 9656 1.79 13 23:58 02.01.2020
5294 Snow -21 1006 70 9656 1.79 13 23:39 02.01.2020
5295 Snow -21 1006 70 9656 1.79 13 23:39 02.01.2020
5296 Clouds -21 1006 69 16093 1.7 18 23:20 02.01.2020
5297 Clear -22 1006 83 16093 1.7 18 22:58 02.01.2020
5298 Clear -22 1006 83 16093 1.7 18 22:39 02.01.2020
5299 Clear -23 1006 83 16093 1.7 18 22:19 02.01.2020
5300 Clouds -22 1006 83 16093 1.7 18 21:55 02.01.2020
5301 Clouds -22 1006 83 16093 1.7 18 21:36 02.01.2020
5302 Clouds -22 1006 83 16093 1.7 18 21:18 02.01.2020
5303 Clear -22 1006 83 16093 1.7 18 20:55 02.01.2020
5304 Clear -22 1006 83 16093 1.7 18 20:36 02.01.2020
5305 Clear -23 1006 83 16093 1.02 2 20:18 02.01.2020
5306 Clouds -22 1009 84 0 1.02 2 19:54 02.01.2020
5307 Snow -22 1005 76 3017 1.02 2 19:36 02.01.2020
5308 Snow -22 1005 76 3017 1.02 2 19:36 02.01.2020
5309 Snow -22 1005 76 3017 1.02 2 19:18 02.01.2020
5310 Snow -22 1005 76 3017 1.02 2 18:42 02.01.2020
5311 Clear -22 1005 83 16093 1.02 2 18:23 02.01.2020
5312 Clear -22 1005 76 16093 1.02 2 17:58 02.01.2020
5313 Clear -21 1005 76 16093 1.02 2 17:38 02.01.2020
5314 Clear -21 1005 76 16093 0.45 347 17:19 02.01.2020
5315 Clouds -21 1004 83 16093 0.45 347 16:58 02.01.2020
5316 Clouds -21 1004 83 16093 0.45 347 16:40 02.01.2020
5317 Clouds -21 1004 83 16093 0.45 347 16:20 02.01.2020
5318 Clouds -21 1004 83 16093 0.45 347 15:57 02.01.2020
5319 Clouds -20 1004 83 16093 0.45 347 15:39 02.01.2020
5320 Clouds -20 1004 83 16093 0.45 347 15:19 02.01.2020
5321 Clouds -20 1003 83 16093 0.45 347 14:55 02.01.2020
5322 Clouds -20 1003 83 16093 0.45 347 14:55 02.01.2020
5323 Clouds -20 1003 83 16093 0.45 347 14:36 02.01.2020
5324 Clouds -20 1003 83 16093 0.37 200 14:18 02.01.2020
5325 Clouds -20 1003 83 16093 0.37 200 13:47 02.01.2020
5326 Clouds -20 1003 83 16093 0.38 195 13:29 02.01.2020
5327 Snow -20 1002 76 11265 0.38 195 12:45 02.01.2020
5328 Clouds -20 1002 83 16093 0.38 195 12:25 02.01.2020
5329 Clouds -20 1002 83 16093 0.38 195 12:25 02.01.2020
5330 Clouds -20 1002 83 16093 0.38 195 11:57 02.01.2020
5331 Snow -20 1002 83 9656 0.38 195 11:37 02.01.2020
5332 Snow -20 1002 83 9656 0.27 131 11:19 02.01.2020
5333 Snow -20 1001 76 6437 0.27 131 10:43 02.01.2020
5334 Snow -20 1001 83 6437 0.27 131 10:25 02.01.2020
5335 Snow -20 1001 77 9656 0.27 131 09:46 02.01.2020
5336 Snow -20 1001 77 9656 0.27 131 09:28 02.01.2020
5337 Snow -20 1000 83 11265 0.27 131 08:45 02.01.2020
5338 Snow -20 1000 83 8047 0.27 131 08:27 02.01.2020
5339 Snow -20 999 83 11265 0.69 188 07:51 02.01.2020
5340 Snow -20 999 83 11265 0.69 188 07:30 02.01.2020
5341 Snow -20 998 83 9656 0.69 188 06:45 02.01.2020
5342 Snow -20 998 83 8047 0.69 188 06:26 02.01.2020
5343 Snow -20 997 70 6437 1.5 210 05:21 02.01.2020
5344 Snow -20 996 83 2414 2.1 200 04:31 02.01.2020
5345 Snow -19 995 77 4426 2.6 240 02:37 02.01.2020
5346 Snow -20 993 76 2414 0.53 251 01:59 02.01.2020
5347 Snow -20 993 76 2414 0.53 251 01:37 02.01.2020
5348 Clouds -19 992 84 16093 4.1 230 00:57 02.01.2020
5349 Clouds -19 992 84 16093 4.1 230 00:33 02.01.2020
5350 Clouds -19 991 84 16093 3.6 240 23:52 01.01.2020
5351 Clouds -19 991 84 16093 4.1 230 23:28 01.01.2020
5352 Clouds -19 990 77 16093 4.1 230 22:59 01.01.2020
5353 Clouds -18 988 84 16093 3.1 230 22:38 01.01.2020
5354 Clouds -18 988 84 16093 3.1 230 22:19 01.01.2020
5355 Clouds -18 987 84 16093 2.1 220 21:56 01.01.2020
5356 Clouds -18 987 84 16093 2.1 220 21:37 01.01.2020
5357 Clouds -18 987 84 16093 2.1 220 21:18 01.01.2020
5358 Clouds -18 987 84 16093 4.1 230 20:54 01.01.2020
5359 Clouds -18 987 84 16093 4.1 230 20:36 01.01.2020
5360 Clouds -18 986 84 16093 2.1 230 20:18 01.01.2020
5361 Snow -18 985 84 14484 0.66 208 19:54 01.01.2020
5362 Snow -18 985 84 14484 0.66 208 19:54 01.01.2020
5363 Snow -18 985 84 14484 0.66 208 19:36 01.01.2020
5364 Snow -18 985 84 14484 1.5 240 19:18 01.01.2020
5365 Clouds -18 985 84 16093 1.5 230 18:54 01.01.2020
5366 Clouds -18 985 84 16093 1.5 230 18:36 01.01.2020
5367 Clouds -18 984 84 16093 0.66 208 18:18 01.01.2020
5368 Clouds -18 984 84 16093 2.1 280 17:55 01.01.2020
5369 Clouds -18 984 84 16093 0.66 208 17:36 01.01.2020
5370 Clouds -18 984 84 16093 0.82 230 17:18 01.01.2020
5371 Clouds -18 983 84 16093 0.82 230 16:39 01.01.2020
5372 Clouds -18 983 84 16093 0.82 230 16:20 01.01.2020
5373 Clouds -18 983 84 16093 0.82 230 15:57 01.01.2020
5374 Clouds -18 983 84 16093 0.82 230 15:57 01.01.2020
5375 Clouds -18 983 84 16093 0.82 230 15:39 01.01.2020
5376 Clouds -18 983 84 16093 0.82 230 15:20 01.01.2020
5377 Clouds -18 983 84 16093 0.82 230 14:57 01.01.2020
5378 Clouds -18 983 84 16093 0.82 230 14:39 01.01.2020
5379 Clouds -18 983 84 16093 0.44 228 14:21 01.01.2020
5380 Clouds -18 983 84 16093 0.44 228 13:56 01.01.2020
5381 Clouds -18 983 84 16093 0.44 228 13:37 01.01.2020
5382 Clouds -18 983 84 16093 0.42 204 13:18 01.01.2020
5383 Clouds -18 983 84 16093 0.42 204 12:55 01.01.2020
5384 Clouds -18 983 84 16093 0.42 204 12:37 01.01.2020
5385 Clouds -18 983 77 14484 0.42 204 12:18 01.01.2020
5386 Clouds -18 982 84 16093 0.42 204 11:43 01.01.2020
5387 Clouds -18 982 84 16093 0.42 209 11:22 01.01.2020
5388 Clouds -18 982 84 16093 0.42 209 10:58 01.01.2020
5389 Clouds -18 982 84 16093 0.42 209 10:40 01.01.2020
5390 Snow -19 981 77 11265 0.42 209 10:20 01.01.2020
5391 Clouds -19 981 84 16093 0.42 209 09:55 01.01.2020
5392 Clouds -19 981 84 16093 0.42 209 09:36 01.01.2020
5393 Clouds -19 981 84 16093 0.42 209 09:18 01.01.2020
5394 Clouds -19 981 84 16093 0.42 209 08:54 01.01.2020
5395 Clouds -19 981 84 16093 0.42 209 08:36 01.01.2020
5396 Snow -19 980 70 14484 2.1 350 08:18 01.01.2020
5397 Clouds -19 981 77 16093 1.4 204 07:45 01.01.2020
5398 Clouds -19 981 77 16093 1.5 60 07:26 01.01.2020
5399 Clouds -19 981 83 16093 2.1 80 06:44 01.01.2020
5400 Snow -20 980 83 16093 2.1 50 06:19 01.01.2020
5401 Clouds -20 980 83 16093 1.03 232 04:38 01.01.2020
5402 Clouds -20 980 83 16093 1.03 232 03:41 01.01.2020
5403 Clouds -20 980 83 16093 1.03 232 03:22 01.01.2020
5404 Clouds -20 980 83 16093 1.03 232 03:22 01.01.2020
5405 Clouds -20 980 83 16093 1.5 40 02:55 01.01.2020
5406 Clouds -20 980 83 16093 1.5 40 02:32 01.01.2020
5407 Clear -20 979 83 16093 2.1 50 01:45 01.01.2020
5408 Clear -20 979 83 16093 2.1 50 01:24 01.01.2020
5409 Clear -20 979 83 16093 1.13 178 00:57 01.01.2020
5410 Clear -20 979 83 16093 1.13 178 00:37 01.01.2020
5411 Clear -20 979 83 16093 1.13 178 00:19 01.01.2020
5412 Clear -20 979 83 16093 1.13 178 23:40 31.12.2019
5413 Clear -20 979 83 16093 0.92 295 23:21 31.12.2019
5414 Clear -20 979 76 16093 0.92 295 22:57 31.12.2019
5415 Clear -20 979 76 16093 0.92 295 22:38 31.12.2019
5416 Clear -20 979 76 16093 0.92 295 22:18 31.12.2019
5417 Clouds -20 978 83 16093 0.92 295 21:54 31.12.2019
5418 Clouds -20 978 83 16093 0.92 295 21:36 31.12.2019
5419 Clouds -20 978 83 16093 0.92 295 21:18 31.12.2019
5420 Clouds -20 978 83 16093 0.92 295 20:40 31.12.2019
5421 Clouds -20 978 83 16093 0.77 212 20:21 31.12.2019
5422 Clouds -20 978 76 16093 0.77 212 19:59 31.12.2019
5423 Clouds -20 978 76 16093 0.77 212 19:40 31.12.2019
5424 Clouds -20 978 76 16093 0.77 212 19:22 31.12.2019
5425 Clouds -20 979 83 16093 0.77 212 18:58 31.12.2019
5426 Clouds -20 979 83 16093 0.77 212 18:40 31.12.2019
5427 Clouds -20 979 83 16093 0.77 212 18:19 31.12.2019
5428 Clouds -19 979 76 16093 0.77 212 17:56 31.12.2019
5429 Clouds -19 979 76 16093 0.77 212 17:38 31.12.2019
5430 Clouds -19 979 76 16093 1.03 317 17:19 31.12.2019
5431 Clear -19 979 83 16093 1.03 317 16:57 31.12.2019
5432 Clear -19 979 83 16093 1.03 317 16:38 31.12.2019
5433 Clear -19 979 83 16093 1.03 317 16:19 31.12.2019
5434 Clear -19 980 83 16093 1.03 317 15:56 31.12.2019
5435 Clear -19 980 83 16093 1.03 317 15:38 31.12.2019
5436 Clear -19 980 83 16093 1.03 317 15:20 31.12.2019
5437 Clouds -19 981 83 16093 1.03 317 14:57 31.12.2019
5438 Clouds -19 981 83 16093 1.03 317 14:38 31.12.2019
5439 Clouds -19 981 83 16093 1.03 317 14:38 31.12.2019
5440 Clouds -19 981 83 16093 0.77 350 14:19 31.12.2019
5441 Clear -19 981 83 16093 0.77 350 13:57 31.12.2019
5442 Clear -19 981 83 16093 0.77 350 13:39 31.12.2019
5443 Clear -19 981 83 16093 0.89 351 13:20 31.12.2019
5444 Clear -19 981 83 14484 0.89 351 12:56 31.12.2019
5445 Clear -19 981 83 14484 0.89 351 12:38 31.12.2019
5446 Clear -19 981 83 14484 0.89 351 12:19 31.12.2019
5447 Clear -19 981 83 14484 0.89 351 12:19 31.12.2019
5448 Clear -19 981 83 14484 0.89 351 12:19 31.12.2019
5449 Clear -19 982 83 16093 1.5 80 11:56 31.12.2019
5450 Clear -19 982 83 16093 1.5 80 11:56 31.12.2019
5451 Clear -18 982 83 16093 1.5 80 11:38 31.12.2019
5452 Clear -18 982 83 16093 1.5 80 11:19 31.12.2019
5453 Clouds -18 983 83 16093 1 10 10:57 31.12.2019
5454 Clouds -18 983 83 16093 1 10 10:57 31.12.2019
5455 Clouds -18 983 83 16093 1 10 10:38 31.12.2019
5456 Clouds -18 983 83 16093 1 10 10:19 31.12.2019
5457 Clouds -19 984 83 16093 1 10 09:58 31.12.2019
5458 Clouds -19 984 83 16093 1 10 09:39 31.12.2019
5459 Clouds -19 984 83 16093 1 10 09:20 31.12.2019
5460 Clouds -20 984 83 16093 1 10 08:57 31.12.2019
5461 Clouds -20 984 83 16093 1 10 08:37 31.12.2019
5462 Clouds -20 984 83 16093 1.62 31 08:18 31.12.2019
5463 Clouds -20 984 76 16093 1.62 31 07:41 31.12.2019
5464 Clear -20 985 83 16093 1.62 31 07:19 31.12.2019
5465 Clouds -20 985 83 16093 1.5 60 06:48 31.12.2019
5466 Clouds -20 986 83 16093 1.5 60 05:55 31.12.2019
5467 Snow -19 987 83 11265 0.86 44 04:27 31.12.2019
5468 Snow -19 987 83 14484 1.5 60 03:27 31.12.2019
5469 Clouds -19 987 83 16093 0.86 44 02:43 31.12.2019
5470 Clouds -20 986 70 16093 2.1 50 01:55 31.12.2019
5471 Clouds -19 986 70 16093 2.1 50 01:34 31.12.2019
5472 Clouds -19 986 77 16093 2.6 80 00:58 31.12.2019
5473 Clouds -19 986 77 16093 2.6 80 00:39 31.12.2019
5474 Clouds -18 986 77 16093 2.6 80 00:21 31.12.2019
5475 Clouds -18 986 70 14484 1.5 60 23:56 30.12.2019
5476 Clouds -18 986 70 14484 1.5 60 23:37 30.12.2019
5477 Clouds -18 985 84 16093 1.63 175 23:19 30.12.2019
5478 Clouds -18 984 77 16093 1.5 180 22:56 30.12.2019
5479 Clouds -18 984 77 16093 1.5 180 22:37 30.12.2019
5480 Clouds -18 984 77 16093 1.5 180 22:37 30.12.2019
5481 Clouds -18 984 77 16093 1.5 180 22:18 30.12.2019
5482 Clouds -18 982 84 16093 2.1 230 21:56 30.12.2019
5483 Clouds -17 982 84 16093 2.1 230 21:38 30.12.2019
5484 Clouds -17 982 84 16093 2.1 230 21:18 30.12.2019
5485 Clouds -16 981 77 16093 2.1 210 20:56 30.12.2019
5486 Clouds -16 981 77 16093 2.1 210 20:38 30.12.2019
5487 Clouds -16 981 77 16093 2.1 210 20:19 30.12.2019
5488 Clouds -15 979 84 16093 2.6 210 19:55 30.12.2019
5489 Clouds -15 979 84 16093 2.6 210 19:37 30.12.2019
5490 Clouds -15 979 84 16093 2.6 210 19:37 30.12.2019
5491 Clouds -15 979 84 16093 2.6 210 19:18 30.12.2019
5492 Clouds -13 978 85 16093 3.6 230 18:56 30.12.2019
5493 Clouds -13 978 85 16093 3.6 230 18:36 30.12.2019
5494 Clouds -13 978 85 16093 3.6 230 18:36 30.12.2019
5495 Clouds -13 978 85 16093 3.6 230 18:18 30.12.2019
5496 Clouds -13 977 92 16093 2.6 280 17:54 30.12.2019
5497 Clouds -13 977 92 16093 2.6 280 17:36 30.12.2019
5498 Clouds -13 977 92 16093 2.6 280 17:36 30.12.2019
5499 Clouds -13 977 92 16093 2.6 280 17:18 30.12.2019
5500 Clouds -13 977 92 16093 2.6 260 16:41 30.12.2019
5501 Clouds -13 977 92 16093 2.6 260 16:41 30.12.2019
5502 Clouds -13 977 92 16093 2.6 260 16:21 30.12.2019
5503 Clouds -13 977 85 16093 2.6 270 15:58 30.12.2019
5504 Clouds -13 977 85 16093 2.6 270 15:39 30.12.2019
5505 Clouds -13 977 85 16093 2.6 270 15:20 30.12.2019
5506 Clouds -14 978 92 16093 1.11 335 14:56 30.12.2019
5507 Clouds -14 978 92 16093 1.11 335 14:38 30.12.2019
5508 Clouds -14 978 92 16093 1.96 7 14:18 30.12.2019
5509 Clouds -14 978 84 16093 1.96 7 13:42 30.12.2019
5510 Clouds -15 978 84 16093 2.24 11 13:24 30.12.2019
5511 Clouds -15 979 84 16093 2.24 11 12:59 30.12.2019
5512 Clouds -15 979 84 16093 2.24 11 12:41 30.12.2019
5513 Clouds -15 979 84 16093 2.24 11 12:19 30.12.2019
5514 Clouds -15 980 84 16093 2.24 11 11:58 30.12.2019
5515 Clouds -15 980 84 16093 2.24 11 11:39 30.12.2019
5516 Clouds -15 980 84 16093 1.91 30 11:18 30.12.2019
5517 Clouds -15 981 84 16093 1.91 30 10:43 30.12.2019
5518 Clouds -16 981 84 16093 1.91 30 10:21 30.12.2019
5519 Clouds -15 981 84 16093 1.91 30 09:55 30.12.2019
5520 Clouds -15 981 84 16093 1.91 30 09:37 30.12.2019
5521 Clouds -15 981 84 16093 1.91 30 09:19 30.12.2019
5522 Clouds -15 983 84 16093 1.91 30 08:49 30.12.2019
5523 Clouds -16 983 84 16093 1.78 30 08:23 30.12.2019
5524 Clouds -15 984 84 16093 3.04 49 07:55 30.12.2019
5525 Clouds -15 984 84 16093 3.04 49 07:33 30.12.2019
5526 Clouds -16 985 77 16093 3.04 49 06:52 30.12.2019
5527 Clouds -17 988 77 16093 1.94 37 04:56 30.12.2019
5528 Clouds -17 990 70 16093 1.94 37 03:55 30.12.2019
5529 Clouds -18 992 77 16093 1.94 37 02:56 30.12.2019
5530 Clouds -18 992 77 16093 1.94 37 02:37 30.12.2019
5531 Clouds -19 993 77 16093 2.1 50 01:50 30.12.2019
5532 Clouds -19 993 77 16093 2.1 50 01:21 30.12.2019
5533 Clouds -19 995 70 16093 1.5 20 00:44 30.12.2019
5534 Clouds -19 995 70 16093 1.5 20 00:19 30.12.2019
5535 Clouds -20 997 76 16093 1.49 39 23:39 29.12.2019
5536 Clouds -20 997 76 16093 1.49 39 23:39 29.12.2019
5537 Clouds -21 997 76 16093 2.72 30 23:21 29.12.2019
5538 Clouds -22 998 76 16093 2.1 60 22:54 29.12.2019
5539 Clouds -22 998 76 16093 2.1 60 22:36 29.12.2019
5540 Clouds -23 998 76 16093 2.1 60 22:18 29.12.2019
5541 Clouds -24 999 83 16093 2.72 30 21:42 29.12.2019
5542 Clouds -24 999 83 16093 2.72 30 21:21 29.12.2019
5543 Clouds -23 999 76 16093 2.72 30 20:57 29.12.2019
5544 Clouds -23 999 76 16093 2.72 30 20:39 29.12.2019
5545 Clouds -23 999 76 16093 1.99 45 20:20 29.12.2019
5546 Rain -23 997 76 16093 2.6 60 19:59 29.12.2019
5547 Rain -23 997 76 14484 2.6 40 19:40 29.12.2019
5548 Rain -23 997 76 16093 2.6 60 19:21 29.12.2019
5549 Snow -22 997 76 4828 5.7 60 18:58 29.12.2019
5550 Snow -22 997 76 4828 5.7 60 18:38 29.12.2019
5551 Snow -22 999 83 4426 4.1 70 18:20 29.12.2019
5552 Snow -21 999 70 2414 2.6 50 17:58 29.12.2019
5553 Snow -22 999 70 2414 2.6 50 17:39 29.12.2019
5554 Clouds -22 999 70 16093 2.6 60 17:20 29.12.2019
5555 Clouds -22 1000 69 16093 1.5 20 16:56 29.12.2019
5556 Clouds -22 1000 69 16093 1.5 20 16:38 29.12.2019
5557 Clouds -22 1000 69 16093 1.5 20 16:20 29.12.2019
5558 Clouds -22 1000 63 16093 2.6 20 15:58 29.12.2019
5559 Clouds -22 1000 63 16093 2.6 20 15:39 29.12.2019
5560 Clouds -23 1000 63 16093 2.6 20 15:20 29.12.2019
5561 Clouds -22 1001 69 16093 2.5 48 14:58 29.12.2019
5562 Clouds -22 1001 69 16093 2.5 48 14:38 29.12.2019
5563 Clouds -22 1001 69 16093 2.57 39 14:18 29.12.2019
5564 Clouds -22 1002 69 16093 1.5 20 13:57 29.12.2019
5565 Clouds -22 1002 69 16093 1.5 20 13:38 29.12.2019
5566 Clouds -23 1002 69 16093 1.5 20 13:19 29.12.2019
5567 Clouds -23 1003 69 16093 1.5 30 12:45 29.12.2019
5568 Clouds -23 1003 69 16093 1.5 30 12:27 29.12.2019
5569 Clouds -23 1003 69 16093 1.5 30 12:27 29.12.2019
5570 Clouds -23 1003 76 16093 1.5 350 11:58 29.12.2019
5571 Clouds -23 1003 76 16093 1.5 350 11:40 29.12.2019
5572 Clouds -23 1003 76 16093 1.5 350 11:20 29.12.2019
5573 Clouds -23 1003 76 16093 1.5 350 11:20 29.12.2019
5574 Clouds -23 1003 76 16093 1.5 60 10:55 29.12.2019
5575 Clouds -23 1003 76 16093 1.5 60 10:37 29.12.2019
5576 Clouds -23 1003 76 16093 1.5 60 10:18 29.12.2019
5577 Clouds -23 1003 76 16093 1.5 60 10:18 29.12.2019
5578 Clouds -23 1003 76 16093 2.04 51 09:41 29.12.2019
5579 Snow -23 1003 76 8047 2.04 51 09:22 29.12.2019
5580 Snow -23 1004 69 9656 2.04 51 08:48 29.12.2019
5581 Snow -23 1004 69 9656 2.04 51 08:28 29.12.2019
5582 Snow -23 1004 69 16093 1.5 80 07:58 29.12.2019
5583 Clouds -23 1004 69 16093 2.1 100 07:31 29.12.2019
5584 Clouds -24 1004 76 16093 2.1 70 06:57 29.12.2019
5585 Clouds -24 1004 76 16093 2.1 70 06:27 29.12.2019
5586 Clouds -24 1004 69 16093 1.5 60 05:54 29.12.2019
5587 Snow -25 1003 69 9656 2.66 35 04:37 29.12.2019
5588 Snow -25 1003 69 8047 2.6 50 03:59 29.12.2019
5589 Snow -25 1003 69 8047 2.6 50 03:21 29.12.2019
5590 Snow -24 1003 69 6437 2.1 50 02:21 29.12.2019
5591 Snow -24 1002 69 3219 5.1 10 01:42 29.12.2019
5592 Snow -24 1002 69 4828 3.6 40 01:22 29.12.2019
5593 Snow -24 1001 63 6437 6.2 30 00:42 29.12.2019
5594 Snow -24 1001 63 6437 6.2 30 00:24 29.12.2019
5595 Snow -24 1000 69 2012 5.1 30 23:45 28.12.2019
5596 Snow -24 1001 69 2414 2.6 40 23:18 28.12.2019
5597 Snow -24 1000 69 4023 3.1 40 22:40 28.12.2019
5598 Snow -24 999 69 2414 3.6 60 22:21 28.12.2019
5599 Snow -24 999 69 4828 4.6 50 21:59 28.12.2019
5600 Snow -24 999 69 4828 4.6 50 21:40 28.12.2019
5601 Snow -24 999 69 4828 4.6 50 21:40 28.12.2019
5602 Snow -24 998 63 2414 4.6 30 21:22 28.12.2019
5603 Snow -24 998 63 4023 6.2 50 20:59 28.12.2019
5604 Snow -24 998 63 4023 6.2 50 20:38 28.12.2019
5605 Clouds -24 996 57 9656 4.1 30 20:20 28.12.2019
5606 Snow -24 997 63 8047 4.6 40 19:58 28.12.2019
5607 Snow -24 997 63 8047 4.6 40 19:39 28.12.2019
5608 Snow -24 997 63 8047 4.6 40 19:21 28.12.2019
5609 Snow -25 996 83 6437 1.5 40 18:58 28.12.2019
5610 Snow -25 996 83 6437 1.5 40 18:40 28.12.2019
5611 Snow -25 996 83 6437 1.5 40 18:19 28.12.2019
5612 Snow -24 995 75 6437 2.49 20 17:55 28.12.2019
5613 Snow -24 995 75 6437 2.49 20 17:55 28.12.2019
5614 Snow -25 995 75 6437 2.49 20 17:37 28.12.2019
5615 Snow -25 995 83 6437 3.02 29 17:18 28.12.2019
5616 Snow -25 995 75 4828 3.02 29 16:46 28.12.2019
5617 Snow -25 995 75 4023 2.6 20 16:26 28.12.2019
5618 Snow -25 995 75 4023 2.6 20 16:26 28.12.2019
5619 Snow -25 995 75 4023 2.6 20 16:26 28.12.2019
5620 Snow -25 996 75 6437 1.5 130 15:49 28.12.2019
5621 Snow -25 996 75 4828 3.02 29 15:25 28.12.2019
5622 Snow -26 997 68 16093 3.02 29 14:59 28.12.2019
5623 Snow -26 997 68 16093 3.02 29 14:40 28.12.2019
5624 Snow -27 997 68 16093 2.82 10 14:21 28.12.2019
5625 Snow -28 997 68 6437 3.6 30 13:56 28.12.2019
5626 Snow -28 997 68 6437 3.6 30 13:37 28.12.2019
5627 Clouds -28 998 75 16093 2.43 14 13:18 28.12.2019
5628 Clouds -28 999 74 16093 2.43 14 12:43 28.12.2019
5629 Clouds -28 999 74 16093 2.43 14 12:43 28.12.2019
5630 Clouds -28 999 74 16093 2.43 14 12:24 28.12.2019
5631 Clouds -31 1000 73 16093 2.43 14 11:56 28.12.2019
5632 Clouds -31 1000 73 16093 2.43 14 11:56 28.12.2019
5633 Clouds -31 1000 73 16093 2.43 14 11:38 28.12.2019
5634 Clouds -34 1000 73 16093 2.81 21 11:19 28.12.2019
5635 Clouds -37 1002 73 14484 2.81 21 10:44 28.12.2019
5636 Clouds -36 1002 73 14484 2.81 21 10:22 28.12.2019
5637 Clouds -34 1002 73 14484 2.81 21 09:57 28.12.2019
5638 Clouds -33 1002 73 14484 2.81 21 09:39 28.12.2019
5639 Clouds -33 1002 73 14484 2.81 21 09:19 28.12.2019
5640 Haze -34 1004 72 8047 2.81 21 08:44 28.12.2019
5641 Haze -35 1005 65 3017 2.14 29 08:26 28.12.2019
5642 Haze -35 1006 65 8047 2.3 25 07:53 28.12.2019
5643 Haze -36 1006 65 8047 2.3 25 07:30 28.12.2019
5644 Haze -35 1007 65 8047 2.3 25 06:27 28.12.2019
5645 Haze -37 1009 72 8047 2.22 31 04:36 28.12.2019
5646 Clear -37 1010 65 14484 2.22 31 03:39 28.12.2019
5647 Clouds -37 1010 88 12874 2.22 31 02:48 28.12.2019
5648 Clouds -35 1012 65 14484 1.54 37 01:59 28.12.2019
5649 Clouds -35 1012 65 14484 1.54 37 01:30 28.12.2019
5650 Mist -36 1012 65 4828 1.72 34 00:58 28.12.2019
5651 Mist -36 1012 65 4828 1.72 34 00:38 28.12.2019
5652 Mist -36 1012 65 4828 1.72 34 00:19 28.12.2019
5653 Clouds -35 1012 65 12874 1.72 34 23:43 27.12.2019
5654 Clouds -34 1012 65 12874 0.92 36 23:20 27.12.2019
5655 Mist -34 1011 94 4828 0.92 36 22:57 27.12.2019
5656 Mist -34 1011 94 4828 0.92 36 22:38 27.12.2019
5657 Clear -34 1012 73 12874 0.92 36 22:20 27.12.2019
5658 Mist -34 1011 94 3219 0.92 36 21:55 27.12.2019
5659 Mist -34 1011 94 3219 0.92 36 21:37 27.12.2019
5660 Haze -33 1012 73 8047 0.92 36 21:18 27.12.2019
5661 Clouds -33 1011 60 16093 0.92 36 20:41 27.12.2019
5662 Mist -32 1011 67 9656 0.27 58 20:22 27.12.2019
5663 Snow -32 1011 74 4828 0.27 58 19:43 27.12.2019
5664 Snow -32 1011 74 4828 0.27 58 19:21 27.12.2019
5665 Snow -31 1010 61 9656 0.27 58 18:59 27.12.2019
5666 Snow -31 1010 61 9656 0.27 58 18:39 27.12.2019
5667 Snow -31 1010 74 4828 0.27 58 18:21 27.12.2019
5668 Clouds -31 1009 67 12874 0.27 58 17:58 27.12.2019
5669 Clouds -31 1009 67 12874 0.27 58 17:39 27.12.2019
5670 Snow -31 1010 74 9656 1.5 220 17:19 27.12.2019
5671 Haze -30 1009 67 9656 0.45 24 16:58 27.12.2019
5672 Haze -30 1009 67 9656 0.45 24 16:38 27.12.2019
5673 Haze -30 1010 74 9656 1.5 220 16:19 27.12.2019
5674 Haze -30 1010 74 8047 0.45 24 15:45 27.12.2019
5675 Haze -30 1010 74 8047 0.45 24 15:22 27.12.2019
5676 Haze -30 1010 74 9656 0.45 24 14:58 27.12.2019
5677 Haze -29 1010 74 9656 0.45 24 14:39 27.12.2019
5678 Haze -29 1010 74 9656 0.59 9 14:20 27.12.2019
5679 Clouds -29 1009 68 11265 0.59 9 13:55 27.12.2019
5680 Clouds -29 1009 68 11265 0.59 9 13:37 27.12.2019
5681 Clouds -29 1010 74 11265 0.54 12 13:18 27.12.2019
5682 Snow -29 1009 68 8047 0.54 12 12:40 27.12.2019
5683 Clouds -29 1010 68 14484 0.54 12 12:22 27.12.2019
5684 Snow -29 1009 61 9656 0.54 12 11:46 27.12.2019
5685 Clouds -29 1010 75 11265 0.54 12 11:26 27.12.2019
5686 Snow -29 1010 75 9656 0.37 326 10:59 27.12.2019
5687 Snow -29 1010 75 9656 0.37 326 10:40 27.12.2019
5688 Snow -29 1010 75 9656 0.37 326 10:22 27.12.2019
5689 Snow -29 1010 75 12874 0.37 326 09:46 27.12.2019
5690 Clouds -29 1010 75 12874 0.37 326 09:22 27.12.2019
5691 Clouds -29 1010 75 12874 0.37 326 08:59 27.12.2019
5692 Clouds -29 1010 75 12874 0.37 326 08:59 27.12.2019
5693 Clouds -28 1010 75 12874 0.37 326 08:38 27.12.2019
5694 Snow -28 1009 68 14484 0.5 307 07:53 27.12.2019
5695 Snow -28 1009 68 14484 0.5 307 07:34 27.12.2019
5696 Clouds -28 1009 75 16093 0.5 307 06:39 27.12.2019
5697 Clouds -28 1009 75 16093 0.5 307 06:18 27.12.2019
5698 Clear -27 1009 82 16093 0.73 317 04:20 27.12.2019
5699 Clouds -27 1008 75 14484 0.73 317 02:25 27.12.2019
5700 Snow -26 1007 62 6437 1.5 230 01:42 27.12.2019
5701 Clouds -26 1007 75 14484 0.88 316 01:20 27.12.2019
5702 Clouds -26 1007 82 12874 0.77 319 00:46 27.12.2019
5703 Clouds -26 1007 82 12874 0.77 319 00:25 27.12.2019
5704 Clouds -26 1006 75 16093 0.77 319 23:44 26.12.2019
5705 Clouds -26 1006 75 16093 0.77 319 23:24 26.12.2019
5706 Snow -25 1005 62 3219 0.91 314 22:58 26.12.2019
5707 Snow -25 1005 62 3219 0.91 314 22:38 26.12.2019
5708 Clouds -25 1006 75 16093 2.1 200 22:18 26.12.2019
5709 Snow -26 1005 62 8047 2.6 260 21:39 26.12.2019
5710 Mist -26 1005 83 9656 0.91 314 21:21 26.12.2019
5711 Mist -26 1005 75 8047 0.91 314 20:54 26.12.2019
5712 Mist -26 1005 75 8047 0.75 311 20:36 26.12.2019
5713 Snow -26 1005 75 9656 1.01 286 20:18 26.12.2019
5714 Snow -26 1005 75 9656 0.81 282 20:18 26.12.2019
5715 Snow -26 1004 75 4828 0.81 282 19:54 26.12.2019
5716 Snow -25 1004 75 4828 0.81 282 19:36 26.12.2019
5717 Snow -25 1004 75 4828 0.81 282 19:18 26.12.2019
5718 Snow -25 1004 69 3219 0.81 282 18:55 26.12.2019
5719 Snow -25 1004 69 3219 0.81 282 18:36 26.12.2019
5720 Snow -25 1003 75 4023 0.81 282 18:18 26.12.2019
5721 Snow -26 1002 69 2414 0.81 282 17:40 26.12.2019
5722 Snow -25 1002 69 2414 0.94 293 17:20 26.12.2019
5723 Snow -26 1001 69 9656 2.6 250 16:48 26.12.2019
5724 Snow -26 1002 83 4828 0.94 293 16:26 26.12.2019
5725 Snow -26 1001 69 4828 0.94 293 15:57 26.12.2019
5726 Snow -26 1001 69 4828 0.94 293 15:38 26.12.2019
5727 Clouds -26 1001 75 0 0.94 293 15:19 26.12.2019
5728 Clouds -26 1001 75 0 0.94 293 15:19 26.12.2019
5729 Clouds -26 1001 75 0 0.94 293 14:41 26.12.2019
5730 Clouds -26 1001 75 0 0.94 293 14:23 26.12.2019
5731 Clouds -26 1001 75 0 1.17 303 14:23 26.12.2019
5732 Clouds -26 1001 75 0 0.94 293 14:23 26.12.2019
5733 Clouds -26 1001 75 0 1.17 303 13:45 26.12.2019
5734 Clouds -26 1000 75 0 1.5 200 13:26 26.12.2019
5735 Clouds -26 999 75 0 1.5 270 12:59 26.12.2019
5736 Clouds -26 999 75 0 1.5 270 12:59 26.12.2019
5737 Clouds -26 999 75 0 1.5 270 12:41 26.12.2019
5738 Clouds -26 999 75 0 1.5 270 12:23 26.12.2019
5739 Clouds -26 1000 75 0 0.9 301 11:59 26.12.2019
5740 Clouds -26 1000 75 0 0.9 301 11:40 26.12.2019
5741 Clouds -26 1000 75 0 0.87 314 11:21 26.12.2019
5742 Clouds -26 999 75 0 0.87 314 10:50 26.12.2019
5743 Clouds -26 999 75 0 0.87 314 10:25 26.12.2019
5744 Clouds -26 999 75 0 0.87 314 09:54 26.12.2019
5745 Clouds -26 999 75 0 0.87 314 09:33 26.12.2019
5746 Clouds -26 999 75 0 0.87 314 08:59 26.12.2019
5747 Clouds -26 999 75 0 0.87 314 08:39 26.12.2019
5748 Clouds -26 999 82 0 0.93 313 08:20 26.12.2019
5749 Clouds -26 998 68 16093 0.93 313 07:38 26.12.2019
5750 Clouds -27 998 82 0 0.93 313 07:19 26.12.2019
5751 Clouds -27 998 69 16093 0.93 313 06:37 26.12.2019
5752 Clear -27 998 82 0 0.93 313 06:19 26.12.2019
5753 Snow -27 997 69 16093 0.93 313 05:41 26.12.2019
5754 Clear -26 999 75 0 0.82 305 04:33 26.12.2019
5755 Clear -27 999 75 0 0.82 305 03:31 26.12.2019
5756 Clouds -26 998 75 0 0.82 305 02:46 26.12.2019
5757 Clouds -26 998 75 0 0.82 305 02:27 26.12.2019
5758 Clouds -27 998 68 12874 0.77 295 01:44 26.12.2019
5759 Clouds -27 998 68 12874 0.84 322 01:25 26.12.2019
5760 Clear -27 998 82 0 0.84 322 00:44 26.12.2019
5761 Clear -27 998 82 0 0.84 322 00:23 26.12.2019
5762 Clear -27 998 82 0 0.84 322 00:23 26.12.2019
5763 Clouds -27 999 82 0 0.84 322 23:57 25.12.2019
5764 Clouds -27 999 82 0 0.84 322 23:37 25.12.2019
5765 Clouds -27 999 82 0 0.17 93 23:19 25.12.2019
5766 Clouds -26 998 75 0 0.17 93 22:56 25.12.2019
5767 Clouds -26 998 75 0 0.17 93 22:37 25.12.2019
5768 Clouds -26 998 75 0 0.17 93 22:18 25.12.2019
5769 Clouds -25 998 75 0 0.17 93 21:55 25.12.2019
5770 Clouds -25 998 75 0 0.17 93 21:55 25.12.2019
5771 Clouds -25 998 75 0 0.17 93 21:37 25.12.2019
5772 Clouds -25 998 75 0 0.17 93 21:18 25.12.2019
5773 Clouds -25 998 83 0 0.17 93 20:40 25.12.2019
5774 Clouds -25 998 83 0 0.59 147 20:21 25.12.2019
5775 Clouds -25 997 83 0 1.5 110 19:59 25.12.2019
5776 Clouds -25 997 83 0 1.5 110 19:41 25.12.2019
5777 Clouds -25 997 83 0 1.5 110 19:21 25.12.2019
5778 Clouds -25 997 82 0 0.59 147 18:40 25.12.2019
5779 Clouds -25 997 82 0 0.59 147 18:21 25.12.2019
5780 Clouds -25 997 82 0 0.59 147 18:21 25.12.2019
5781 Clouds -25 997 76 0 0.59 147 17:57 25.12.2019
5782 Clouds -25 997 76 0 0.59 147 17:39 25.12.2019
5783 Clouds -25 997 76 0 0.93 228 17:18 25.12.2019
5784 Clouds -25 996 76 0 1.5 170 16:54 25.12.2019
5785 Clouds -24 996 76 0 1.5 170 16:36 25.12.2019
5786 Clouds -24 996 76 0 1.5 170 16:18 25.12.2019
5787 Clouds -24 996 83 0 0.93 228 15:55 25.12.2019
5788 Clouds -24 996 83 0 0.93 228 15:36 25.12.2019
5789 Rain -23 996 76 0 1.5 160 15:18 25.12.2019
5790 Snow -23 995 63 6437 0.93 228 14:42 25.12.2019
5791 Rain -23 996 76 0 0.93 228 14:23 25.12.2019
5792 Snow -23 995 69 1609 1.5 190 13:58 25.12.2019
5793 Snow -23 995 69 1609 1.5 190 13:39 25.12.2019
5794 Rain -23 995 83 0 1.27 306 13:20 25.12.2019
5795 Snow -22 995 76 1609 2.6 190 12:43 25.12.2019
5796 Clouds -22 995 76 0 2.1 220 12:22 25.12.2019
5797 Clouds -22 995 76 0 1.2 299 11:58 25.12.2019
5798 Clouds -22 995 76 0 1.2 299 11:40 25.12.2019
5799 Clouds -22 994 76 0 1.28 313 11:20 25.12.2019
5800 Clouds -22 995 76 0 1.28 313 10:39 25.12.2019
5801 Clouds -22 994 76 0 1.28 313 10:21 25.12.2019
5802 Clouds -22 994 83 0 1.28 313 09:52 25.12.2019
5803 Snow -22 994 69 4023 2.1 200 09:34 25.12.2019
5804 Clouds -22 995 76 0 2.6 230 08:56 25.12.2019
5805 Clouds -22 995 76 0 2.6 230 08:38 25.12.2019
5806 Snow -22 994 69 9656 1.5 210 08:19 25.12.2019
5807 Clouds -22 995 76 0 1.39 338 07:42 25.12.2019
5808 Clouds -22 995 76 0 1.39 338 07:22 25.12.2019
5809 Clouds -22 995 76 0 1.39 338 06:24 25.12.2019
5810 Clouds -22 995 69 16093 1.39 338 05:49 25.12.2019
5811 Clouds -22 995 69 14484 1.14 357 04:44 25.12.2019
5812 Snow -22 995 76 4023 1.14 357 04:24 25.12.2019
5813 Snow -22 995 69 9656 1.14 357 03:43 25.12.2019
5814 Clouds -22 996 83 0 1.14 357 02:59 25.12.2019
5815 Snow -22 996 69 8047 1.14 357 02:29 25.12.2019
5816 Snow -23 996 69 3219 1.5 210 01:44 25.12.2019
5817 Clouds -23 996 76 0 1.54 358 01:19 25.12.2019
5818 Snow -23 996 69 11265 1.54 358 00:42 25.12.2019
5819 Clouds -23 996 76 0 1.54 358 00:23 25.12.2019
5820 Mist -23 995 76 4828 1.54 358 23:40 24.12.2019
5821 Clouds -23 996 76 0 1.43 3 23:20 24.12.2019
5822 Snow -23 996 76 3219 1.43 3 22:55 24.12.2019
5823 Snow -24 996 76 3219 1.43 3 22:37 24.12.2019
5824 Clouds -24 996 76 0 1.43 3 22:19 24.12.2019
5825 Clouds -24 996 76 0 1.43 3 21:41 24.12.2019
5826 Clouds -24 996 76 0 1.43 3 21:20 24.12.2019
5827 Clouds -24 996 76 0 1.43 3 20:43 24.12.2019
5828 Clouds -24 996 76 0 1.43 3 20:23 24.12.2019
5829 Clouds -24 995 76 0 0.96 345 19:56 24.12.2019
5830 Clouds -24 995 76 0 0.96 345 19:37 24.12.2019
5831 Clouds -24 995 76 0 0.96 345 19:18 24.12.2019
5832 Snow -24 994 69 11265 0.96 345 18:42 24.12.2019
5833 Clouds -24 995 76 0 0.96 345 18:19 24.12.2019
5834 Snow -24 994 69 6437 0.96 345 17:44 24.12.2019
5835 Clouds -24 994 76 0 0.96 345 17:23 24.12.2019
5836 Clouds -24 994 75 0 0.96 337 16:58 24.12.2019
5837 Clouds -24 994 75 0 0.96 337 16:40 24.12.2019
5838 Rain -24 994 75 0 0.96 337 16:21 24.12.2019
5839 Rain -24 994 75 0 0.96 337 16:21 24.12.2019
5840 Snow -24 994 69 4828 0.96 337 15:58 24.12.2019
5841 Snow -24 994 69 4828 0.96 337 15:58 24.12.2019
5842 Snow -24 994 69 4828 0.96 337 15:37 24.12.2019
5843 Rain -24 994 75 0 0.96 337 15:19 24.12.2019
5844 Clouds -25 994 83 0 0.96 337 14:58 24.12.2019
5845 Clouds -25 994 83 0 0.96 337 14:40 24.12.2019
5846 Clouds -25 994 83 0 0.51 306 14:22 24.12.2019
5847 Snow -25 993 69 6437 0.51 306 13:56 24.12.2019
5848 Snow -25 993 69 6437 0.51 306 13:38 24.12.2019
5849 Clouds -25 993 75 0 0.51 306 13:20 24.12.2019
5850 Clouds -25 993 75 0 0.52 316 12:57 24.12.2019
5851 Clouds -25 993 75 0 0.52 316 12:38 24.12.2019
5852 Clouds -25 993 75 0 0.52 316 12:19 24.12.2019
5853 Clouds -25 992 69 16093 0.52 316 11:57 24.12.2019
5854 Clouds -25 992 69 16093 0.52 316 11:37 24.12.2019
5855 Clouds -25 993 75 0 0.49 295 11:19 24.12.2019
5856 Clouds -25 993 75 0 0.49 295 10:56 24.12.2019
5857 Clouds -25 993 75 0 0.49 295 10:38 24.12.2019
5858 Clouds -25 993 75 0 0.49 295 10:20 24.12.2019
5859 Clouds -25 993 75 0 0.49 295 10:20 24.12.2019
5860 Clouds -25 992 75 0 0.49 295 09:56 24.12.2019
5861 Clouds -25 992 75 0 0.49 295 09:38 24.12.2019
5862 Clouds -25 992 75 0 0.49 295 09:20 24.12.2019
5863 Clouds -24 992 75 0 0.49 295 08:47 24.12.2019
5864 Clouds -24 992 75 0 0.49 295 08:24 24.12.2019
5865 Clouds -25 991 83 0 0.4 298 07:55 24.12.2019
5866 Clouds -25 991 83 0 0.4 298 07:37 24.12.2019
5867 Clouds -25 991 83 0 0.4 298 07:18 24.12.2019
5868 Clouds -25 991 75 0 0.4 298 06:39 24.12.2019
5869 Clouds -24 991 75 0 0.4 298 06:19 24.12.2019
5870 Clouds -24 990 75 0 0.4 298 05:50 24.12.2019
5871 Clouds -24 990 75 0 0.21 327 05:19 24.12.2019
5872 Clouds -24 990 83 0 1.5 220 04:21 24.12.2019
5873 Clouds -23 989 83 0 1.5 200 03:45 24.12.2019
5874 Clouds -23 989 76 0 2.1 220 02:28 24.12.2019
5875 Clouds -23 988 69 16093 2.1 220 01:54 24.12.2019
5876 Clouds -23 988 69 16093 2.1 220 01:26 24.12.2019
5877 Clouds -22 988 76 16093 0.62 327 00:58 24.12.2019
5878 Clouds -22 988 76 16093 0.62 327 00:39 24.12.2019
5879 Clouds -22 988 76 16093 0.62 327 00:19 24.12.2019
5880 Clouds -23 988 76 16093 0.62 327 23:42 23.12.2019
5881 Clouds -23 988 76 16093 0.62 327 23:24 23.12.2019
5882 Clouds -23 988 76 16093 0.84 344 22:57 23.12.2019
5883 Clouds -24 988 76 16093 0.84 344 22:38 23.12.2019
5884 Clouds -24 988 76 16093 0.84 344 22:38 23.12.2019
5885 Clouds -24 988 76 16093 0.84 344 22:20 23.12.2019
5886 Clouds -24 988 76 16093 0.84 344 22:20 23.12.2019
5887 Clouds -25 988 83 16093 0.84 344 21:56 23.12.2019
5888 Clouds -24 988 83 16093 0.84 344 21:37 23.12.2019
5889 Clouds -24 988 83 16093 0.84 344 21:19 23.12.2019
5890 Clouds -25 988 75 16093 0.84 344 20:58 23.12.2019
5891 Clouds -26 988 75 16093 0.84 344 20:40 23.12.2019
5892 Clouds -26 988 75 16093 1.02 360 20:19 23.12.2019
5893 Clouds -26 988 75 16093 1.02 360 20:19 23.12.2019
5894 Clouds -26 988 75 16093 1.02 360 20:19 23.12.2019
5895 Clouds -27 988 75 16093 1.14 9 19:58 23.12.2019
5896 Clouds -27 988 75 16093 1.14 9 19:39 23.12.2019
5897 Clouds -27 988 75 16093 1.14 9 19:20 23.12.2019
5898 Clouds -28 988 74 16093 1.14 9 18:58 23.12.2019
5899 Clouds -28 988 74 16093 1.14 9 18:58 23.12.2019
5900 Clouds -28 988 74 16093 1.14 9 18:39 23.12.2019
5901 Clouds -28 988 74 16093 1.14 9 18:20 23.12.2019
5902 Clouds -29 989 74 16093 1.14 9 17:58 23.12.2019
5903 Clouds -31 989 74 16093 1.14 9 17:40 23.12.2019
5904 Clouds -29 989 74 16093 1.02 2 17:19 23.12.2019
5905 Clouds -29 990 74 0 1.02 2 16:57 23.12.2019
5906 Clouds -29 990 74 0 1.02 2 16:39 23.12.2019
5907 Clouds -29 989 74 16093 1.02 2 16:18 23.12.2019
5908 Clear -29 990 74 0 1.02 2 15:57 23.12.2019
5909 Clear -30 990 74 0 1.02 2 15:37 23.12.2019
5910 Clouds -30 990 67 16093 1.02 2 15:19 23.12.2019
5911 Clouds -30 991 74 0 1.02 2 14:56 23.12.2019
5912 Clouds -30 991 74 0 1.02 2 14:56 23.12.2019
5913 Clouds -31 991 74 0 1.02 2 14:38 23.12.2019
5914 Clouds -30 991 75 16093 0.75 360 14:18 23.12.2019
5915 Clouds -30 991 74 0 0.75 360 13:56 23.12.2019
5916 Clouds -30 991 74 0 0.75 360 13:37 23.12.2019
5917 Clouds -31 991 68 14484 0.8 355 13:19 23.12.2019
5918 Clouds -30 991 67 16093 1.5 10 12:54 23.12.2019
5919 Clouds -30 993 74 0 0.8 355 12:36 23.12.2019
5920 Clouds -30 993 74 0 0.8 355 12:18 23.12.2019
5921 Clear -31 993 74 0 0.8 355 11:42 23.12.2019
5922 Snow -32 993 67 16093 0.8 355 11:22 23.12.2019
5923 Clear -32 994 66 0 0.87 359 10:56 23.12.2019
5924 Clear -33 994 66 0 0.87 359 10:37 23.12.2019
5925 Clouds -33 994 67 16093 0.87 359 10:18 23.12.2019
5926 Clear -33 994 73 0 0.87 359 09:56 23.12.2019
5927 Clear -33 994 73 0 0.87 359 09:37 23.12.2019
5928 Clouds -33 994 67 16093 0.87 359 09:19 23.12.2019
5929 Clear -33 995 66 0 0.87 359 08:41 23.12.2019
5930 Clear -34 995 66 0 1.08 11 08:22 23.12.2019
5931 Clouds -34 995 66 0 1.08 11 07:56 23.12.2019
5932 Clouds -35 995 66 0 1.08 11 07:38 23.12.2019
5933 Clouds -35 995 79 16093 1.08 11 07:18 23.12.2019
5934 Clouds -36 996 73 0 1.08 11 06:39 23.12.2019
5935 Clouds -36 996 73 0 1.08 11 06:21 23.12.2019
5936 Clouds -36 996 65 0 1.08 11 05:45 23.12.2019
5937 Clear -33 997 73 0 1.79 32 04:44 23.12.2019
5938 Clear -36 998 65 0 1.79 32 03:59 23.12.2019
5939 Clear -36 999 73 0 1.79 32 02:48 23.12.2019
5940 Clouds -36 999 82 16093 1.67 41 02:20 23.12.2019
5941 Clear -36 1000 73 0 1.67 41 01:51 23.12.2019
5942 Clear -36 1000 73 0 1.54 39 01:32 23.12.2019
5943 Clear -36 1001 66 0 1.54 39 00:49 23.12.2019
5944 Clouds -36 1001 81 16093 1.54 39 00:30 23.12.2019
5945 Clear -36 1002 73 0 1.54 39 23:57 22.12.2019
5946 Clear -36 1002 73 0 1.54 39 23:38 22.12.2019
5947 Clear -36 1002 73 0 1.76 37 23:20 22.12.2019
5948 Clear -36 1003 65 0 1.76 37 22:57 22.12.2019
5949 Clear -36 1003 65 0 1.76 37 22:38 22.12.2019
5950 Clear -33 1003 65 0 1.76 37 22:19 22.12.2019
5951 Haze -37 1003 59 4828 1.76 37 21:56 22.12.2019
5952 Haze -35 1003 59 4828 1.76 37 21:38 22.12.2019
5953 Clear -35 1004 73 0 1.76 37 21:20 22.12.2019
5954 Haze -32 1004 59 3219 1.76 37 20:41 22.12.2019
5955 Clouds -34 1005 85 16093 1.22 44 20:19 22.12.2019
5956 Haze -34 1005 59 8047 1.19 46 19:58 22.12.2019
5957 Haze -34 1005 59 8047 1.19 46 19:39 22.12.2019
5958 Clouds -33 1006 73 0 1.19 46 19:20 22.12.2019
5959 Clouds -32 1007 73 0 1.19 46 18:55 22.12.2019
5960 Clouds -32 1007 73 0 1.19 46 18:37 22.12.2019
5961 Clouds -32 1007 73 0 1.19 46 18:18 22.12.2019
5962 Clouds -32 1008 73 0 1.19 46 17:54 22.12.2019
5963 Clouds -32 1008 73 0 1.19 46 17:36 22.12.2019
5964 Clouds -32 1008 73 0 0.91 50 17:18 22.12.2019
5965 Clouds -32 1009 66 0 0.91 50 16:42 22.12.2019
5966 Clouds -32 1009 66 0 0.91 50 16:42 22.12.2019
5967 Snow -33 1009 87 16093 0.91 50 16:23 22.12.2019
5968 Clouds -32 1010 73 0 0.91 50 15:57 22.12.2019
5969 Clouds -32 1010 73 0 0.91 50 15:39 22.12.2019
5970 Clouds -32 1010 73 0 0.91 50 15:21 22.12.2019
5971 Clouds -32 1011 73 0 0.91 50 14:57 22.12.2019
5972 Clouds -32 1011 73 0 0.91 50 14:38 22.12.2019
5973 Clouds -32 1011 73 0 0.79 43 14:19 22.12.2019
5974 Clouds -31 1011 66 0 0.79 43 13:56 22.12.2019
5975 Clouds -32 1011 66 0 0.79 43 13:38 22.12.2019
5976 Clouds -33 1011 66 0 0.89 35 13:19 22.12.2019
5977 Snow -32 1011 58 16093 0.89 35 12:57 22.12.2019
5978 Snow -33 1011 58 16093 0.89 35 12:38 22.12.2019
5979 Clouds -34 1012 89 16093 0.89 35 12:19 22.12.2019
5980 Clouds -33 1013 73 0 0.89 35 11:57 22.12.2019
5981 Clouds -34 1013 73 0 0.89 35 11:38 22.12.2019
5982 Clouds -34 1013 73 0 0.61 76 11:19 22.12.2019
5983 Clouds -34 1013 73 0 0.61 76 10:57 22.12.2019
5984 Clouds -34 1013 73 0 0.61 76 10:57 22.12.2019
5985 Clouds -34 1013 73 0 0.61 76 10:38 22.12.2019
5986 Clouds -35 1013 91 16093 0.61 76 10:19 22.12.2019
5987 Clouds -35 1014 73 0 0.61 76 09:57 22.12.2019
5988 Clouds -35 1014 73 0 0.61 76 09:57 22.12.2019
5989 Clouds -35 1014 73 0 0.61 76 09:39 22.12.2019
5990 Clouds -34 1013 91 16093 0.61 76 09:20 22.12.2019
5991 Clouds -34 1014 73 0 0.61 76 08:45 22.12.2019
5992 Clouds -33 1013 92 16093 1.5 100 08:22 22.12.2019
5993 Clouds -33 1014 73 0 0.6 86 07:44 22.12.2019
5994 Clouds -33 1014 92 16093 0.6 86 07:21 22.12.2019
5995 Clouds -33 1014 92 16093 0.6 86 07:21 22.12.2019
5996 Clouds -33 1014 73 0 0.6 86 06:55 22.12.2019
5997 Clouds -33 1014 73 0 0.6 86 06:26 22.12.2019
5998 Clear -34 1014 65 0 0.6 86 05:33 22.12.2019
5999 Clouds -33 1013 66 0 0.46 144 04:55 22.12.2019
6000 Clouds -33 1013 93 16093 0.46 144 04:26 22.12.2019
6001 Clouds -33 1013 73 0 0.46 144 02:46 22.12.2019
6002 Clouds -34 1013 73 0 0.46 144 02:23 22.12.2019
6003 Clouds -34 1012 65 0 0.5 139 01:32 22.12.2019
6004 Clouds -33 1011 59 16093 0.41 138 00:56 22.12.2019
6005 Clouds -33 1011 59 16093 0.41 138 00:56 22.12.2019
6006 Clouds -33 1011 91 16093 0.41 138 00:36 22.12.2019
6007 Clouds -34 1011 91 16093 0.41 138 00:18 22.12.2019
6008 Clouds -34 1011 73 0 0.41 138 23:41 21.12.2019
6009 Clouds -36 1011 73 0 0.32 163 23:21 21.12.2019
6010 Clouds -35 1011 65 0 0.32 163 22:57 21.12.2019
6011 Clouds -34 1010 88 16093 0.32 163 22:37 21.12.2019
6012 Clouds -34 1010 88 16093 0.32 163 22:18 21.12.2019
6013 Clouds -34 1010 73 0 0.32 163 21:54 21.12.2019
6014 Clouds -34 1010 73 0 0.32 163 21:36 21.12.2019
6015 Clouds -34 1010 73 0 0.32 163 21:18 21.12.2019
6016 Clouds -36 1009 73 0 0.32 163 20:56 21.12.2019
6017 Clouds -37 1009 73 0 0.32 163 20:37 21.12.2019
6018 Clouds -35 1008 83 16093 0.26 228 20:19 21.12.2019
6019 Clouds -34 1008 73 0 0.26 228 19:55 21.12.2019
6020 Clouds -35 1008 73 0 0.26 228 19:36 21.12.2019
6021 Clouds -34 1008 73 0 0.26 228 19:18 21.12.2019
6022 Clouds -34 1007 65 0 0.26 228 18:41 21.12.2019
6023 Clouds -34 1007 83 16093 0.26 228 18:23 21.12.2019
6024 Clouds -34 1007 83 16093 0.26 228 18:23 21.12.2019
6025 Clouds -36 1007 73 0 0.26 228 17:56 21.12.2019
6026 Clouds -35 1007 73 0 0.26 228 17:38 21.12.2019
6027 Clouds -34 1007 73 0 0.42 11 17:19 21.12.2019
6028 Clouds -34 1006 65 0 0.42 11 16:56 21.12.2019
6029 Clouds -35 1006 65 0 0.42 11 16:38 21.12.2019
6030 Clouds -35 1006 81 16093 0.42 11 16:18 21.12.2019
6031 Snow -35 1006 81 14484 0.42 11 15:55 21.12.2019
6032 Snow -36 1006 81 14484 0.42 11 15:37 21.12.2019
6033 Snow -35 1006 81 14484 0.42 11 15:18 21.12.2019
6034 Clouds -37 1006 65 0 0.42 11 14:41 21.12.2019
6035 Clear -37 1006 81 16093 0.42 11 14:23 21.12.2019
6036 Clouds -35 1006 65 0 1.14 33 13:58 21.12.2019
6037 Clouds -35 1006 65 0 1.14 33 13:39 21.12.2019
6038 Clouds -37 1006 80 16093 1.5 340 13:19 21.12.2019
6039 Clouds -37 1006 80 16093 1.5 340 13:19 21.12.2019
6040 Clear -37 1006 65 0 1.12 34 12:56 21.12.2019
6041 Clear -37 1006 65 0 1.12 34 12:38 21.12.2019
6042 Clear -37 1006 65 0 1.12 34 12:20 21.12.2019
6043 Clear -37 1006 73 0 1.12 34 11:46 21.12.2019
6044 Clear -37 1006 73 0 1.12 34 11:27 21.12.2019
6045 Clear -36 1006 73 0 1.42 38 10:59 21.12.2019
6046 Clear -36 1006 73 0 1.42 38 10:40 21.12.2019
6047 Clear -36 1006 80 14484 1.42 38 10:21 21.12.2019
6048 Clear -36 1007 73 0 1.42 38 09:58 21.12.2019
6049 Clear -36 1007 73 0 1.42 38 09:39 21.12.2019
6050 Clear -36 1006 80 14484 1.42 38 09:19 21.12.2019
6051 Clear -36 1007 73 0 1.42 38 08:47 21.12.2019
6052 Clear -36 1006 80 14484 1.42 38 08:27 21.12.2019
6053 Clear -36 1007 73 0 1.6 39 07:47 21.12.2019
6054 Clear -37 1007 73 0 1.6 39 07:23 21.12.2019
6055 Clear -37 1007 73 0 1.6 39 06:58 21.12.2019
6056 Clear -37 1007 73 0 1.6 39 06:40 21.12.2019
6057 Clear -37 1007 73 0 1.6 39 06:21 21.12.2019
6058 Clear -36 1008 73 0 1.6 39 05:25 21.12.2019
6059 Clear -34 1008 65 0 1.52 37 04:34 21.12.2019
6060 Mist -36 1007 66 4828 1.52 37 03:56 21.12.2019
6061 Clear -35 1008 81 16093 1.31 41 02:25 21.12.2019
6062 Fog -35 1008 59 0 1.31 41 01:43 21.12.2019
6063 Clear -35 1009 81 16093 1.5 20 01:24 21.12.2019
6064 Clear -33 1010 73 0 1.58 39 00:40 21.12.2019
6065 Clear -34 1010 73 0 1.58 39 00:21 21.12.2019
6066 Mist -34 1009 59 6437 1.58 39 23:39 20.12.2019
6067 Clear -34 1010 73 16093 1.33 43 23:21 20.12.2019
6068 Clouds -34 1009 59 4828 1.33 43 22:59 20.12.2019
6069 Clouds -34 1009 59 4828 1.33 43 22:39 20.12.2019
6070 Clear -34 1010 73 16093 1.33 43 22:18 20.12.2019
6071 Clear -36 1010 80 16093 1.33 43 21:41 20.12.2019
6072 Clear -36 1011 73 16093 1.33 43 21:21 20.12.2019
6073 Clear -35 1011 73 16093 1.33 43 20:59 20.12.2019
6074 Clear -34 1011 73 16093 1.33 43 20:38 20.12.2019
6075 Clear -35 1011 73 16093 1.16 39 20:19 20.12.2019
6076 Clouds -34 1011 80 16093 1.16 39 19:56 20.12.2019
6077 Clouds -34 1011 80 16093 1.16 39 19:38 20.12.2019
6078 Clouds -35 1011 80 16093 1.16 39 19:18 20.12.2019
6079 Clouds -33 1011 80 12874 1.16 39 18:41 20.12.2019
6080 Clouds -33 1011 80 12874 1.16 39 18:22 20.12.2019
6081 Clouds -33 1012 73 16093 1.16 39 17:58 20.12.2019
6082 Clouds -33 1012 73 16093 1.16 39 17:39 20.12.2019
6083 Clouds -32 1012 73 16093 0.86 48 17:20 20.12.2019
6084 Clouds -32 1011 66 16093 0.86 48 16:57 20.12.2019
6085 Clear -32 1012 73 0 0.86 48 16:38 20.12.2019
6086 Clear -31 1012 73 0 0.86 48 16:19 20.12.2019
6087 Clouds -32 1011 59 16093 0.86 48 15:55 20.12.2019
6088 Clear -32 1012 73 0 0.86 48 15:37 20.12.2019
6089 Clear -32 1012 73 0 0.86 48 15:18 20.12.2019
6090 Clear -32 1012 73 0 0.86 48 14:42 20.12.2019
6091 Clear -32 1012 73 0 0.48 37 14:24 20.12.2019
6092 Clear -31 1012 73 0 0.48 37 13:57 20.12.2019
6093 Clear -31 1012 73 0 0.48 37 13:37 20.12.2019
6094 Clear -32 1012 73 0 0.48 37 13:19 20.12.2019
6095 Clear -32 1013 73 0 0.65 32 12:56 20.12.2019
6096 Clear -33 1013 73 0 0.65 32 12:36 20.12.2019
6097 Clear -33 1013 73 0 0.65 32 12:18 20.12.2019
6098 Clear -32 1013 73 0 0.65 32 11:57 20.12.2019
6099 Clear -32 1013 73 0 0.65 32 11:38 20.12.2019
6100 Clear -32 1013 73 0 0.65 32 11:38 20.12.2019
6101 Clear -31 1013 73 0 0.33 107 11:18 20.12.2019
6102 Clear -31 1013 73 0 0.33 107 10:56 20.12.2019
6103 Clear -31 1013 73 0 0.33 107 10:37 20.12.2019
6104 Clear -32 1013 73 0 0.33 107 10:19 20.12.2019
6105 Clear -31 1012 73 0 0.33 107 09:43 20.12.2019
6106 Clear -31 1012 73 0 0.33 107 09:21 20.12.2019
6107 Clear -31 1012 74 16093 0.33 107 08:55 20.12.2019
6108 Clear -32 1012 74 16093 0.3 89 08:37 20.12.2019
6109 Clear -30 1012 74 16093 0.12 62 08:19 20.12.2019
6110 Clear -30 1012 74 16093 0.23 105 07:57 20.12.2019
6111 Clear -30 1012 74 16093 0.23 105 07:37 20.12.2019
6112 Clear -30 1012 74 16093 0.23 105 07:18 20.12.2019
6113 Clear -30 1011 74 16093 0.23 105 06:44 20.12.2019
6114 Clear -30 1011 74 16093 0.23 105 06:26 20.12.2019
6115 Clear -30 1011 82 16093 0.23 105 05:47 20.12.2019
6116 Clouds -29 1010 74 16093 0.41 26 04:59 20.12.2019
6117 Clear -27 1009 82 16093 0.41 26 03:49 20.12.2019
6118 Clouds -26 1009 82 16093 0.41 26 02:55 20.12.2019
6119 Clouds -25 1008 75 16093 0.68 345 01:59 20.12.2019
6120 Clouds -24 1008 75 16093 0.68 345 01:35 20.12.2019
6121 Clouds -24 1007 83 16093 0.54 1 00:55 20.12.2019
6122 Clouds -23 1007 83 16093 0.54 1 00:35 20.12.2019
6123 Clouds -23 1007 76 16093 0.54 1 23:58 19.12.2019
6124 Clouds -23 1007 76 16093 0.54 1 23:40 19.12.2019
6125 Clouds -23 1007 76 16093 1.17 8 23:19 19.12.2019
6126 Clouds -21 1006 76 16093 1.17 8 22:40 19.12.2019
6127 Clouds -21 1006 76 16093 1.17 8 22:22 19.12.2019
6128 Clouds -21 1006 76 16093 1.17 8 21:57 19.12.2019
6129 Clouds -21 1006 76 16093 1.17 8 21:39 19.12.2019
6130 Clouds -21 1006 76 16093 1.17 8 21:19 19.12.2019
6131 Clouds -21 1005 70 16093 1.17 8 20:57 19.12.2019
6132 Clouds -21 1005 70 16093 1.17 8 20:38 19.12.2019
6133 Clouds -21 1005 70 16093 1.48 8 20:20 19.12.2019
6134 Clouds -22 1004 69 16093 1.61 12 19:58 19.12.2019
6135 Clouds -22 1004 69 16093 1.61 12 19:39 19.12.2019
6136 Clouds -21 1004 69 16093 1.61 12 19:19 19.12.2019
6137 Clouds -21 1004 69 16093 1.61 12 19:19 19.12.2019
6138 Clouds -21 1004 69 16093 1.61 12 19:19 19.12.2019
6139 Clouds -22 1003 76 16093 1.61 12 18:57 19.12.2019
6140 Clouds -22 1003 76 16093 1.61 12 18:57 19.12.2019
6141 Clouds -22 1003 76 16093 1.61 12 18:39 19.12.2019
6142 Clouds -22 1003 76 16093 1.61 12 18:19 19.12.2019
6143 Clouds -22 1002 76 16093 1.61 12 17:56 19.12.2019
6144 Clouds -22 1002 76 16093 1.61 12 17:37 19.12.2019
6145 Clouds -22 1002 76 16093 1.78 14 17:18 19.12.2019
6146 Clouds -22 1002 83 0 1.78 14 16:56 19.12.2019
6147 Clouds -22 1002 83 0 1.78 14 16:37 19.12.2019
6148 Clouds -23 1002 83 0 1.78 14 16:19 19.12.2019
6149 Clouds -23 1001 75 0 1.78 14 15:56 19.12.2019
6150 Clouds -23 1001 75 0 1.78 14 15:37 19.12.2019
6151 Clouds -23 1001 75 0 1.78 14 15:19 19.12.2019
6152 Clouds -23 1001 75 0 1.78 14 15:19 19.12.2019
6153 Clouds -23 1001 75 0 1.78 14 15:19 19.12.2019
6154 Clouds -24 1001 75 0 1.78 14 14:43 19.12.2019
6155 Clouds -23 1001 75 0 1.8 15 14:20 19.12.2019
6156 Clear -23 1000 82 0 1.8 15 13:59 19.12.2019
6157 Clear -23 1000 82 0 1.8 15 13:38 19.12.2019
6158 Clear -23 1000 82 0 1.8 15 13:38 19.12.2019
6159 Clear -23 1000 82 0 1.76 17 13:19 19.12.2019
6160 Clear -23 1000 82 0 1.76 17 12:57 19.12.2019
6161 Clear -23 1000 82 0 1.76 17 12:39 19.12.2019
6162 Clear -23 1000 82 0 1.76 17 12:19 19.12.2019
6163 Clear -22 1000 82 0 1.76 17 11:58 19.12.2019
6164 Clear -22 1000 82 0 1.76 17 11:40 19.12.2019
6165 Clouds -21 999 69 16093 2.1 20 11:18 19.12.2019
6166 Clouds -21 999 69 16093 1.5 130 10:58 19.12.2019
6167 Clear -22 999 82 0 1.91 15 10:38 19.12.2019
6168 Clear -22 999 82 0 1.91 15 10:20 19.12.2019
6169 Clear -22 999 75 0 1.91 15 09:55 19.12.2019
6170 Clear -21 999 75 0 1.91 15 09:37 19.12.2019
6171 Clear -21 999 75 0 1.91 15 09:18 19.12.2019
6172 Clear -21 999 75 0 1.91 15 08:42 19.12.2019
6173 Clear -21 999 75 0 2.12 19 08:20 19.12.2019
6174 Clear -21 999 75 0 2.12 19 08:20 19.12.2019
6175 Clear -21 999 75 0 2.12 19 08:20 19.12.2019
6176 Clouds -20 997 76 16093 1.5 150 07:59 19.12.2019
6177 Clouds -20 997 76 16093 1.5 150 07:40 19.12.2019
6178 Clouds -20 997 76 16093 1.5 150 07:22 19.12.2019
6179 Clouds -21 998 70 16093 2.1 50 06:52 19.12.2019
6180 Clouds -21 998 70 16093 2.1 50 06:52 19.12.2019
6181 Clouds -21 998 70 16093 2.1 50 06:52 19.12.2019
6182 Clouds -21 998 70 16093 2.1 50 06:33 19.12.2019
6183 Clouds -20 998 70 16093 2.6 50 05:59 19.12.2019
6184 Clouds -22 998 70 16093 2.6 50 05:41 19.12.2019
6185 Clouds -20 998 70 16093 2.6 50 05:18 19.12.2019
6186 Clouds -19 998 64 16093 3.1 30 03:46 19.12.2019
6187 Clouds -19 998 70 16093 2.1 50 02:25 19.12.2019
6188 Fog -19 998 70 16093 3.1 50 01:24 19.12.2019
6189 Clouds -19 998 70 16093 2.1 50 00:55 19.12.2019
6190 Clouds -19 998 70 16093 2.1 50 00:36 19.12.2019
6191 Clouds -19 998 70 16093 2.1 50 00:18 19.12.2019
6192 Clouds -19 998 77 16093 2.6 40 23:43 18.12.2019
6193 Clouds -18 998 77 16093 2.6 40 23:19 18.12.2019
6194 Clouds -18 999 70 16093 1.5 30 22:56 18.12.2019
6195 Clouds -18 999 70 16093 1.5 30 22:37 18.12.2019
6196 Clouds -18 999 70 16093 1.5 30 22:19 18.12.2019
6197 Clouds -18 999 77 16093 2.6 30 21:57 18.12.2019
6198 Clouds -18 999 77 16093 2.6 30 21:39 18.12.2019
6199 Clouds -18 999 77 16093 2.6 30 21:19 18.12.2019
6200 Clouds -18 999 70 16093 3.6 50 20:55 18.12.2019
6201 Clouds -18 999 70 16093 3.6 50 20:37 18.12.2019
6202 Clouds -18 999 70 16093 3.6 50 20:37 18.12.2019
6203 Clouds -18 999 70 16093 3.6 50 20:19 18.12.2019
6204 Clouds -18 998 76 16093 3.6 40 19:56 18.12.2019
6205 Clouds -18 998 76 16093 3.6 40 19:37 18.12.2019
6206 Clouds -18 998 76 16093 3.6 40 19:18 18.12.2019
6207 Clear -18 999 77 16093 2.6 50 18:45 18.12.2019
6208 Clear -18 999 77 16093 2.6 50 18:25 18.12.2019
6209 Clouds -18 999 83 16093 2.1 40 17:57 18.12.2019
6210 Clouds -18 999 83 16093 2.1 40 17:39 18.12.2019
6211 Clouds -18 999 83 16093 2.1 40 17:39 18.12.2019
6212 Clouds -19 999 83 16093 2.1 40 17:20 18.12.2019
6213 Clear -18 999 77 0 1.5 30 16:58 18.12.2019
6214 Clear -18 999 77 0 1.5 30 16:40 18.12.2019
6215 Clear -18 999 77 0 1.5 30 16:40 18.12.2019
6216 Clear -18 999 77 0 1.5 30 16:21 18.12.2019
6217 Clouds -18 999 77 0 2.6 50 15:56 18.12.2019
6218 Clouds -18 999 77 0 2.6 50 15:38 18.12.2019
6219 Clouds -17 999 77 0 2.6 50 15:20 18.12.2019
6220 Clouds -18 999 77 0 2.6 50 14:43 18.12.2019
6221 Clouds -18 999 77 0 2.6 50 14:22 18.12.2019
6222 Clear -17 999 77 0 2.1 60 13:58 18.12.2019
6223 Clear -16 999 77 0 2.1 60 13:39 18.12.2019
6224 Clear -17 999 77 0 2.1 60 13:21 18.12.2019
6225 Clear -18 999 84 0 1.5 40 12:59 18.12.2019
6226 Clear -18 999 84 0 1.5 40 12:40 18.12.2019
6227 Clear -18 999 84 0 1.5 40 12:21 18.12.2019
6228 Clear -18 999 84 0 1.5 60 11:56 18.12.2019
6229 Clear -18 999 84 0 1.5 60 11:38 18.12.2019
6230 Clear -18 999 84 0 1.5 60 11:20 18.12.2019
6231 Clouds -18 999 84 0 2.57 20 10:57 18.12.2019
6232 Clouds -18 999 84 0 2.57 20 10:39 18.12.2019
6233 Clouds -18 999 84 0 2.57 20 10:20 18.12.2019
6234 Clouds -18 999 83 0 2.57 20 09:57 18.12.2019
6235 Clouds -19 999 83 0 2.57 20 09:19 18.12.2019
6236 Clouds -19 999 83 16093 2.57 20 08:42 18.12.2019
6237 Clouds -19 999 83 16093 2.32 18 08:24 18.12.2019
6238 Clouds -19 999 83 16093 2.26 22 07:56 18.12.2019
6239 Clouds -19 999 83 16093 2.26 22 07:56 18.12.2019
6240 Clouds -19 999 83 16093 2.26 22 07:38 18.12.2019
6241 Clouds -19 999 83 16093 2.26 22 07:19 18.12.2019
6242 Clouds -19 998 83 16093 2.26 22 06:50 18.12.2019
6243 Clouds -19 998 83 16093 2.26 22 06:22 18.12.2019
6244 Clear -19 998 83 16093 2.26 22 05:30 18.12.2019
6245 Clear -21 998 83 16093 2.19 17 03:45 18.12.2019
6246 Clear -20 998 84 16093 2.19 17 02:43 18.12.2019
6247 Clear -18 998 84 16093 2.19 17 02:25 18.12.2019
6248 Clouds -17 998 77 16093 1.86 11 01:43 18.12.2019
6249 Clouds -18 998 77 16093 1.86 11 01:24 18.12.2019
6250 Clouds -18 998 84 16093 1.89 13 00:42 18.12.2019
6251 Clouds -18 998 84 16093 1.89 13 00:24 18.12.2019
6252 Clouds -18 998 84 16093 1.89 13 23:58 17.12.2019
6253 Clouds -18 998 84 16093 1.89 13 23:39 17.12.2019
6254 Clouds -18 998 84 16093 1.25 9 23:20 17.12.2019
6255 Clear -18 998 84 0 1.25 9 22:57 17.12.2019
6256 Clear -18 998 84 0 1.25 9 22:38 17.12.2019
6257 Clear -18 998 84 0 1.25 9 22:19 17.12.2019
6258 Clouds -18 998 84 16093 1.25 9 21:57 17.12.2019
6259 Clouds -18 998 84 16093 1.25 9 21:38 17.12.2019
6260 Clouds -18 998 84 16093 1.25 9 21:20 17.12.2019
6261 Clouds -17 998 84 16093 1.25 9 20:58 17.12.2019
6262 Clouds -17 998 84 16093 1.25 9 20:39 17.12.2019
6263 Clouds -16 998 84 16093 1.11 3 20:18 17.12.2019
6264 Clouds -16 997 77 16093 1.11 3 19:56 17.12.2019
6265 Clouds -16 997 77 16093 1.11 3 19:38 17.12.2019
6266 Clouds -17 997 77 16093 1.11 3 19:19 17.12.2019
6267 Clouds -18 997 84 16093 1.11 3 18:55 17.12.2019
6268 Clouds -17 997 84 16093 1.11 3 18:37 17.12.2019
6269 Clouds -17 997 84 16093 1.11 3 18:19 17.12.2019
6270 Clouds -17 998 91 16093 1.11 3 17:42 17.12.2019
6271 Clouds -17 998 91 16093 0.83 11 17:21 17.12.2019
6272 Clouds -17 998 91 0 0.83 11 16:57 17.12.2019
6273 Clouds -17 998 91 0 0.83 11 16:38 17.12.2019
6274 Clouds -16 998 91 0 0.83 11 16:19 17.12.2019
6275 Clouds -16 999 84 0 0.83 11 15:59 17.12.2019
6276 Clouds -16 999 84 0 0.83 11 15:38 17.12.2019
6277 Clouds -16 999 84 0 0.83 11 15:19 17.12.2019
6278 Clouds -16 999 84 0 0.83 11 14:56 17.12.2019
6279 Clouds -16 999 84 0 0.83 11 14:38 17.12.2019
6280 Clouds -16 999 84 0 0.25 24 14:19 17.12.2019
6281 Clouds -15 1000 84 0 0.25 24 13:56 17.12.2019
6282 Clouds -15 1000 84 0 0.25 24 13:38 17.12.2019
6283 Clouds -16 1000 84 0 0.55 19 13:19 17.12.2019
6284 Clouds -16 1000 84 0 0.55 19 13:19 17.12.2019
6285 Clouds -16 1000 84 0 0.55 19 12:56 17.12.2019
6286 Clouds -16 1000 84 0 0.55 19 12:37 17.12.2019
6287 Clouds -16 1000 84 0 0.55 19 12:18 17.12.2019
6288 Clouds -16 1000 84 0 0.55 19 11:56 17.12.2019
6289 Clouds -17 1000 84 0 0.55 19 11:36 17.12.2019
6290 Clouds -16 1000 84 0 0.61 32 11:18 17.12.2019
6291 Clouds -16 1000 84 0 0.61 32 10:55 17.12.2019
6292 Clouds -16 1000 84 0 0.61 32 10:37 17.12.2019
6293 Clouds -18 1000 84 0 0.61 32 10:18 17.12.2019
6294 Clouds -17 1000 77 16093 0.61 32 09:42 17.12.2019
6295 Clouds -17 1000 77 16093 0.61 32 09:21 17.12.2019
6296 Clouds -17 1000 84 0 0.61 32 08:58 17.12.2019
6297 Clouds -17 1000 84 0 0.61 32 08:39 17.12.2019
6298 Clouds -17 1000 84 0 1.02 31 08:21 17.12.2019
6299 Clouds -18 1000 83 0 1.02 31 07:58 17.12.2019
6300 Clouds -18 1000 83 0 1.02 31 07:39 17.12.2019
6301 Clouds -19 1000 83 0 1.02 31 07:20 17.12.2019
6302 Clouds -20 1000 83 16093 1.02 31 06:41 17.12.2019
6303 Clouds -20 1000 83 16093 1.02 31 06:22 17.12.2019
6304 Clear -21 1000 83 16093 1.02 31 05:40 17.12.2019
6305 Clear -21 1001 76 16093 1.77 28 04:51 17.12.2019
6306 Clouds -21 1001 83 16093 1.77 28 03:40 17.12.2019
6307 Clear -21 1000 83 16093 1.12 56 02:22 17.12.2019
6308 Clouds -21 1000 69 16093 1.12 56 01:21 17.12.2019
6309 Clouds -24 1000 83 16093 1.38 36 00:39 17.12.2019
6310 Clouds -24 1000 83 16093 1.38 36 00:21 17.12.2019
6311 Clear -19 1001 75 16093 1.38 36 23:43 16.12.2019
6312 Clear -20 1001 75 16093 1.4 35 23:20 16.12.2019
6313 Clear -21 1001 83 16093 1.4 35 22:58 16.12.2019
6314 Clear -22 1001 83 16093 1.4 35 22:38 16.12.2019
6315 Clear -22 1001 83 16093 1.4 35 22:38 16.12.2019
6316 Clear -25 1001 83 16093 1.4 35 22:20 16.12.2019
6317 Clouds -25 1001 75 16093 1.4 35 21:57 16.12.2019
6318 Clouds -23 1001 75 16093 1.4 35 21:39 16.12.2019
6319 Clouds -21 1001 75 16093 1.4 35 21:20 16.12.2019
6320 Clouds -21 1001 83 16093 1.4 35 20:58 16.12.2019
6321 Clouds -22 1001 83 16093 1.4 35 20:39 16.12.2019
6322 Clouds -22 1001 83 16093 1.4 35 20:39 16.12.2019
6323 Clouds -25 1001 83 16093 1.35 44 20:19 16.12.2019
6324 Clear -25 1001 69 16093 1.35 44 19:56 16.12.2019
6325 Clear -25 1001 69 16093 1.35 44 19:37 16.12.2019
6326 Clear -25 1001 69 16093 1.35 44 19:19 16.12.2019
6327 Clouds -25 1001 83 16093 1.35 44 18:59 16.12.2019
6328 Clouds -25 1001 83 16093 1.35 44 18:40 16.12.2019
6329 Clouds -22 1001 83 16093 1.35 44 18:20 16.12.2019
6330 Clouds -22 1001 83 16093 1.35 44 18:20 16.12.2019
6331 Clouds -22 1002 83 16093 1.35 44 17:58 16.12.2019
6332 Clouds -25 1002 83 16093 1.35 44 17:39 16.12.2019
6333 Clouds -23 1002 83 16093 1.36 34 17:21 16.12.2019
6334 Clear -23 1002 75 0 1.36 34 16:57 16.12.2019
6335 Clear -23 1002 75 0 1.36 34 16:38 16.12.2019
6336 Clear -23 1002 75 0 1.36 34 16:19 16.12.2019
6337 Clear -25 1003 75 0 1.36 34 15:58 16.12.2019
6338 Clear -25 1003 75 0 1.36 34 15:38 16.12.2019
6339 Clear -25 1003 75 0 1.36 34 15:20 16.12.2019
6340 Clear -23 1003 75 0 1.36 34 14:57 16.12.2019
6341 Clear -23 1003 75 0 1.36 34 14:37 16.12.2019
6342 Clear -22 1003 75 0 1.43 39 14:19 16.12.2019
6343 Clear -22 1003 75 0 1.43 39 14:19 16.12.2019
6344 Clear -22 1003 75 0 1.43 39 14:19 16.12.2019
6345 Clear -21 1003 76 0 1.43 39 13:56 16.12.2019
6346 Clear -23 1003 76 0 1.43 39 13:37 16.12.2019
6347 Clear -23 1003 76 0 1.43 39 13:37 16.12.2019
6348 Clear -24 1003 76 0 1.43 39 13:19 16.12.2019
6349 Clear -24 1004 76 0 1.19 46 12:57 16.12.2019
6350 Clear -24 1004 76 0 1.36 43 12:39 16.12.2019
6351 Clear -22 1004 76 0 1.36 43 12:18 16.12.2019
6352 Clear -23 1004 83 0 1.36 43 11:58 16.12.2019
6353 Clear -22 1004 83 0 1.19 46 11:40 16.12.2019
6354 Clear -23 1004 83 0 1.73 37 11:20 16.12.2019
6355 Clear -23 1004 83 0 1.73 37 11:20 16.12.2019
6356 Clear -23 1005 83 0 1.73 37 10:56 16.12.2019
6357 Clear -22 1005 83 0 1.73 37 10:37 16.12.2019
6358 Clear -22 1005 83 0 1.68 35 10:19 16.12.2019
6359 Clear -22 1005 76 0 1.73 37 09:45 16.12.2019
6360 Clear -20 1005 76 0 1.73 37 09:26 16.12.2019
6361 Clear -20 1005 83 0 1.73 37 08:41 16.12.2019
6362 Clear -20 1005 83 0 1.55 28 08:21 16.12.2019
6363 Clear -20 1005 83 0 1.55 28 08:21 16.12.2019
6364 Clear -20 1005 76 0 1.55 28 07:59 16.12.2019
6365 Clear -20 1005 76 0 1.55 28 07:41 16.12.2019
6366 Clear -20 1005 76 0 1.55 28 07:20 16.12.2019
6367 Clear -21 1006 83 0 1.55 28 06:41 16.12.2019
6368 Clear -21 1006 83 0 1.55 28 06:22 16.12.2019
6369 Clear -20 1006 83 0 1.55 28 05:47 16.12.2019
6370 Clear -20 1006 83 0 1.55 28 05:29 16.12.2019
6371 Clear -20 1006 76 0 1.17 30 03:41 16.12.2019
6372 Clear -17 1006 83 0 1.23 33 01:58 16.12.2019
6373 Clear -17 1006 83 0 1.23 33 01:40 16.12.2019
6374 Clear -18 1007 76 0 1.14 39 00:42 16.12.2019
6375 Clear -18 1007 76 0 1.14 39 00:23 16.12.2019
6376 Clear -18 1007 83 0 1.14 39 23:58 15.12.2019
6377 Clear -18 1007 83 0 1.14 39 23:38 15.12.2019
6378 Clear -19 1007 83 0 1.41 39 23:19 15.12.2019
6379 Clear -18 1007 83 0 1.41 39 22:55 15.12.2019
6380 Clear -21 1007 83 0 1.41 39 22:37 15.12.2019
6381 Clear -18 1007 83 0 1.41 39 22:18 15.12.2019
6382 Clear -18 1007 83 0 1.41 39 21:55 15.12.2019
6383 Clear -19 1007 83 0 1.41 39 21:37 15.12.2019
6384 Clear -21 1007 83 0 1.41 39 21:19 15.12.2019
6385 Clear -21 1007 83 0 1.41 39 20:55 15.12.2019
6386 Clear -21 1007 83 0 1.41 39 20:55 15.12.2019
6387 Clear -21 1007 83 0 1.41 39 20:37 15.12.2019
6388 Clear -21 1007 83 0 1.3 43 20:18 15.12.2019
6389 Clear -19 1007 76 0 0.99 40 19:56 15.12.2019
6390 Clear -19 1007 76 0 1.3 43 19:38 15.12.2019
6391 Clear -17 1007 76 0 0.99 40 19:18 15.12.2019
6392 Clear -18 1007 76 0 0.99 40 18:55 15.12.2019
6393 Clear -21 1007 76 0 1.3 43 18:37 15.12.2019
6394 Clear -21 1007 76 0 0.99 40 18:18 15.12.2019
6395 Clear -20 1008 83 0 1.3 43 17:55 15.12.2019
6396 Clear -20 1008 83 0 0.99 40 17:36 15.12.2019
6397 Clear -20 1008 83 0 1.57 45 17:18 15.12.2019
6398 Clear -20 1008 83 0 1.57 45 17:18 15.12.2019
6399 Clear -20 1008 83 0 1.65 40 16:43 15.12.2019
6400 Clear -20 1008 83 0 1.65 40 16:23 15.12.2019
6401 Clear -20 1008 83 0 1.65 40 15:57 15.12.2019
6402 Clear -19 1008 83 0 1.65 40 15:39 15.12.2019
6403 Clear -19 1008 83 0 1.57 45 15:20 15.12.2019
6404 Clear -19 1008 91 0 1.57 45 14:56 15.12.2019
6405 Clear -19 1008 91 0 1.57 45 14:38 15.12.2019
6406 Clear -19 1008 91 0 1.52 46 14:19 15.12.2019
6407 Clear -19 1008 84 0 1.47 43 13:59 15.12.2019
6408 Clear -19 1008 84 0 1.47 43 13:39 15.12.2019
6409 Clear -19 1008 84 0 1.47 43 13:20 15.12.2019
6410 Clear -18 1008 84 0 1.47 43 12:57 15.12.2019
6411 Clear -18 1008 84 0 1.47 43 12:39 15.12.2019
6412 Clear -18 1008 84 0 1.47 43 12:21 15.12.2019
6413 Clear -18 1008 84 0 1.47 43 11:59 15.12.2019
6414 Clear -18 1008 84 0 1.47 43 11:38 15.12.2019
6415 Clear -15 1008 84 0 1.47 38 11:19 15.12.2019
6416 Clear -15 1008 84 0 1.47 38 10:56 15.12.2019
6417 Clear -15 1008 84 0 1.47 38 10:37 15.12.2019
6418 Clear -18 1008 84 0 1.47 38 10:19 15.12.2019
6419 Clear -18 1007 84 0 2.1 220 09:57 15.12.2019
6420 Clear -18 1007 84 0 2.1 220 09:37 15.12.2019
6421 Clear -18 1007 84 0 2.1 220 09:19 15.12.2019
6422 Clear -17 1007 84 0 1.47 38 08:42 15.12.2019
6423 Clear -15 1007 84 0 1.47 38 08:23 15.12.2019
6424 Clear -16 1006 84 0 1.5 60 07:59 15.12.2019
6425 Clear -16 1006 84 0 1.5 60 07:38 15.12.2019
6426 Clear -16 1006 84 0 1.5 60 07:19 15.12.2019
6427 Clear -17 1007 84 0 1.5 60 06:24 15.12.2019
6428 Clear -15 1007 84 0 1.5 60 05:42 15.12.2019
6429 Clear -15 1007 84 0 1.23 20 05:20 15.12.2019
6430 Clear -16 1006 84 0 1.23 20 04:19 15.12.2019
6431 Clouds -16 1006 84 0 1.23 20 02:50 15.12.2019
6432 Clouds -16 1006 84 0 1.23 20 02:31 15.12.2019
6433 Clouds -17 1006 84 0 1.26 71 01:40 15.12.2019
6434 Clouds -17 1006 84 0 1.7 53 01:18 15.12.2019
6435 Clear -17 1006 91 0 1.7 53 00:49 15.12.2019
6436 Clear -17 1006 91 0 1.7 53 00:30 15.12.2019
6437 Clear -18 1006 84 0 1.7 53 23:41 14.12.2019
6438 Clear -19 1006 84 0 1.73 41 23:22 14.12.2019
6439 Clear -19 1006 83 0 1.73 41 22:59 14.12.2019
6440 Clear -19 1006 83 0 1.73 41 22:41 14.12.2019
6441 Clear -20 1006 83 0 1.73 41 22:22 14.12.2019
6442 Clear -18 1006 83 0 1.73 41 21:57 14.12.2019
6443 Clear -18 1006 83 0 1.73 41 21:38 14.12.2019
6444 Clear -19 1006 83 0 1.73 41 21:19 14.12.2019
6445 Clear -21 1006 83 0 1.73 41 20:59 14.12.2019
6446 Clear -21 1006 83 0 1.73 41 20:41 14.12.2019
6447 Clear -20 1006 83 0 1.79 52 20:20 14.12.2019
6448 Clear -18 1006 83 0 1.79 52 19:57 14.12.2019
6449 Clear -18 1006 83 0 1.79 52 19:39 14.12.2019
6450 Clear -20 1006 83 0 1.79 52 19:20 14.12.2019
6451 Clear -20 1006 84 0 1.79 52 18:56 14.12.2019
6452 Clear -20 1006 84 0 1.79 52 18:38 14.12.2019
6453 Clear -20 1006 84 0 1.79 52 18:19 14.12.2019
6454 Clear -21 1006 83 0 1.79 52 17:44 14.12.2019
6455 Clear -21 1006 83 0 1.79 52 17:24 14.12.2019
6456 Clear -21 1007 91 0 1.33 60 16:59 14.12.2019
6457 Clear -21 1007 91 0 1.33 60 16:40 14.12.2019
6458 Clear -21 1007 91 0 1.33 60 16:19 14.12.2019
6459 Clear -21 1007 91 0 1.33 60 16:19 14.12.2019
6460 Clear -18 1007 84 0 1.33 60 15:43 14.12.2019
6461 Clear -20 1007 84 0 1.33 60 15:25 14.12.2019
6462 Clear -18 1007 92 0 1.33 60 14:59 14.12.2019
6463 Clear -16 1007 92 0 1.33 60 14:39 14.12.2019
6464 Clear -16 1007 92 0 1.16 48 14:20 14.12.2019
6465 Clear -15 1007 91 0 2.6 60 13:58 14.12.2019
6466 Clear -15 1007 91 0 2.6 60 13:39 14.12.2019
6467 Clear -17 1007 91 0 2.6 60 13:19 14.12.2019
6468 Clear -16 1007 91 0 1.61 42 12:56 14.12.2019
6469 Clear -16 1007 91 0 1.41 48 12:37 14.12.2019
6470 Clear -17 1007 91 0 1.61 42 12:19 14.12.2019
6471 Clear -17 1007 84 0 1.41 48 11:56 14.12.2019
6472 Clear -17 1007 84 0 1.61 42 11:37 14.12.2019
6473 Clear -17 1007 84 0 1.1 45 11:18 14.12.2019
6474 Clear -16 1006 84 0 1.23 48 10:55 14.12.2019
6475 Clear -16 1006 84 0 1.23 48 10:55 14.12.2019
6476 Clear -16 1006 84 0 1.1 45 10:37 14.12.2019
6477 Clear -16 1006 84 0 1.23 48 10:19 14.12.2019
6478 Clear -17 1006 84 0 1.23 48 09:42 14.12.2019
6479 Clear -16 1006 84 0 1.1 45 09:21 14.12.2019
6480 Clear -16 1006 84 0 1.23 48 08:56 14.12.2019
6481 Clear -16 1006 84 0 1.1 45 08:37 14.12.2019
6482 Clear -16 1006 84 0 0.83 46 08:18 14.12.2019
6483 Clear -16 1006 84 0 0.83 46 07:40 14.12.2019
6484 Clear -16 1006 84 0 0.83 46 07:20 14.12.2019
6485 Clear -16 1006 84 0 0.83 46 06:42 14.12.2019
6486 Clear -16 1006 84 0 0.83 46 06:22 14.12.2019
6487 Clear -18 1005 84 0 0.83 46 05:35 14.12.2019
6488 Clear -17 1004 84 0 0.78 54 03:34 14.12.2019
6489 Clear -14 1004 91 0 0.78 54 02:23 14.12.2019
6490 Clear -13 1003 84 0 1.37 41 01:44 14.12.2019
6491 Clear -14 1003 91 0 1.28 47 00:59 14.12.2019
6492 Clear -16 1003 91 0 1.28 47 00:40 14.12.2019
6493 Clear -14 1003 91 0 1.28 47 00:20 14.12.2019
6494 Clear -13 1002 92 0 1.28 47 23:41 13.12.2019
6495 Clear -12 1002 92 0 2.14 42 23:19 13.12.2019
6496 Clear -12 1001 92 0 1.5 130 22:56 13.12.2019
6497 Clear -14 1001 92 0 1.5 130 22:37 13.12.2019
6498 Clear -12 1001 92 0 1.5 130 22:18 13.12.2019
6499 Clear -13 1001 84 0 2.14 42 21:44 13.12.2019
6500 Clear -13 1001 84 0 2.14 42 21:22 13.12.2019
6501 Clear -13 1000 84 0 2.14 42 20:59 13.12.2019
6502 Clear -13 1000 84 0 2.14 42 20:40 13.12.2019
6503 Clear -12 999 85 0 1.66 42 20:20 13.12.2019
6504 Clear -12 999 85 0 1.66 42 19:56 13.12.2019
6505 Clear -12 999 85 0 1.66 42 19:38 13.12.2019
6506 Clear -13 999 85 0 1.66 42 19:19 13.12.2019
6507 Clear -12 998 85 0 1.66 42 18:55 13.12.2019
6508 Clear -12 998 85 0 1.66 42 18:36 13.12.2019
6509 Clear -12 998 85 0 1.66 42 18:18 13.12.2019
6510 Clear -11 998 85 0 3.1 80 17:40 13.12.2019
6511 Clear -11 998 85 0 3.1 80 17:19 13.12.2019
6512 Clear -12 997 78 0 3.6 60 16:58 13.12.2019
6513 Clear -11 997 78 0 3.6 60 16:39 13.12.2019
6514 Clear -11 997 78 0 3.6 60 16:20 13.12.2019
6515 Clear -10 996 85 0 4.1 70 15:43 13.12.2019
6516 Clear -10 996 85 0 4.1 70 15:22 13.12.2019
6517 Clear -9 996 85 0 3.6 60 14:57 13.12.2019
6518 Clear -9 996 85 0 3.6 60 14:39 13.12.2019
6519 Clear -10 996 85 0 3.6 60 14:20 13.12.2019
6520 Clear -11 995 78 0 4.6 50 13:56 13.12.2019
6521 Clear -11 995 78 0 4.6 50 13:37 13.12.2019
6522 Clear -11 995 78 0 4.6 50 13:18 13.12.2019
6523 Clear -10 995 78 0 4.6 60 12:42 13.12.2019
6524 Clear -10 995 78 0 4.6 60 12:19 13.12.2019
6525 Clear -10 995 85 16093 4.6 50 11:57 13.12.2019
6526 Clear -10 995 85 16093 4.6 50 11:39 13.12.2019
6527 Clear -9 995 85 16093 4.6 50 11:19 13.12.2019
6528 Clouds -8 994 79 16093 4.1 60 10:41 13.12.2019
6529 Clouds -8 994 79 16093 4.1 60 10:21 13.12.2019
6530 Clouds -8 995 85 16093 3.6 60 09:43 13.12.2019
6531 Clouds -8 995 85 16093 3.6 60 09:22 13.12.2019
6532 Clouds -9 994 92 16093 3.6 70 08:59 13.12.2019
6533 Clouds -9 994 92 16093 3.6 70 08:40 13.12.2019
6534 Clouds -10 994 92 16093 3.6 70 08:22 13.12.2019
6535 Clouds -11 994 85 16093 4.1 20 07:43 13.12.2019
6536 Clouds -11 994 85 16093 4.1 20 07:20 13.12.2019
6537 Clear -12 995 92 16093 5.1 70 06:50 13.12.2019
6538 Clear -12 995 92 16093 5.1 70 06:28 13.12.2019
6539 Clear -12 995 92 16093 6.2 60 05:43 13.12.2019
6540 Clear -13 995 92 16093 6.2 60 05:20 13.12.2019
6541 Clear -16 995 77 16093 3.1 40 04:33 13.12.2019
6542 Clear -15 996 92 16093 1.5 50 03:30 13.12.2019
6543 Clear -14 996 92 16093 2.6 31 02:32 13.12.2019
6544 Clear -14 996 92 16093 2.6 31 02:32 13.12.2019
6545 Clear -12 996 85 16093 1.96 35 01:40 13.12.2019
6546 Clear -12 997 85 16093 1.5 30 00:51 13.12.2019
6547 Clear -12 997 85 16093 1.5 30 00:32 13.12.2019
6548 Clear -11 997 92 16093 4.6 60 23:57 12.12.2019
6549 Clear -12 997 92 16093 4.6 60 23:37 12.12.2019
6550 Clear -11 997 92 16093 4.6 60 23:19 12.12.2019
6551 Clear -11 997 92 16093 4.6 70 22:42 12.12.2019
6552 Clear -12 997 92 16093 4.6 70 22:23 12.12.2019
6553 Clear -12 997 92 16093 3.1 70 21:56 12.12.2019
6554 Clear -12 997 92 16093 3.1 70 21:56 12.12.2019
6555 Clear -12 997 92 16093 3.1 70 21:38 12.12.2019
6556 Clear -12 997 92 16093 3.1 70 21:20 12.12.2019
6557 Clear -14 998 84 11265 1.36 41 20:59 12.12.2019
6558 Clear -14 998 84 11265 1.36 41 20:41 12.12.2019
6559 Clear -14 998 84 11265 1.63 32 20:23 12.12.2019
6560 Clouds -13 997 78 16093 2.1 40 19:59 12.12.2019
6561 Clouds -13 997 78 16093 2.1 40 19:59 12.12.2019
6562 Clouds -13 997 78 16093 2.1 40 19:40 12.12.2019
6563 Clouds -15 997 78 16093 2.1 40 19:21 12.12.2019
6564 Clear -15 998 84 16093 1.63 32 18:57 12.12.2019
6565 Clear -15 998 84 16093 1.63 32 18:57 12.12.2019
6566 Clear -15 998 84 16093 1.63 32 18:57 12.12.2019
6567 Clear -15 998 84 16093 1.63 32 18:38 12.12.2019
6568 Clear -15 998 84 16093 1.63 32 18:20 12.12.2019
6569 Clear -15 998 91 16093 1.63 32 17:57 12.12.2019
6570 Clear -15 998 91 16093 1.63 32 17:38 12.12.2019
6571 Clear -14 998 91 16093 1.88 35 17:20 12.12.2019
6572 Clear -14 998 91 16093 1.88 35 16:56 12.12.2019
6573 Clear -14 998 91 16093 1.88 35 16:37 12.12.2019
6574 Clear -15 998 91 16093 1.88 35 16:19 12.12.2019
6575 Clear -15 999 84 16093 1.88 35 15:54 12.12.2019
6576 Clear -16 999 84 16093 1.88 35 15:36 12.12.2019
6577 Clear -16 999 84 16093 1.88 35 15:18 12.12.2019
6578 Clear -16 999 84 16093 1.88 35 14:38 12.12.2019
6579 Clear -14 999 84 16093 1.98 35 14:20 12.12.2019
6580 Clear -13 1000 92 16093 1.98 35 13:57 12.12.2019
6581 Clear -14 1000 92 16093 1.98 35 13:39 12.12.2019
6582 Clear -14 1000 92 16093 2.03 36 13:21 12.12.2019
6583 Clouds -14 999 77 16093 2.03 36 12:58 12.12.2019
6584 Clear -14 1000 92 16093 2.03 36 12:40 12.12.2019
6585 Clear -15 1000 92 16093 2.03 36 12:21 12.12.2019
6586 Clear -15 1000 92 16093 2.03 36 11:56 12.12.2019
6587 Clear -13 1000 92 16093 2.03 36 11:37 12.12.2019
6588 Clear -12 1000 92 16093 1.96 37 11:19 12.12.2019
6589 Clear -12 999 92 16093 1.96 37 10:55 12.12.2019
6590 Clear -12 999 92 16093 1.96 37 10:55 12.12.2019
6591 Clear -12 999 92 16093 1.96 37 10:37 12.12.2019
6592 Clear -12 999 92 16093 1.96 37 10:19 12.12.2019
6593 Clear -14 999 92 16093 1.96 37 09:42 12.12.2019
6594 Clear -12 999 92 16093 1.96 37 09:24 12.12.2019
6595 Clear -12 999 92 16093 1.96 37 08:58 12.12.2019
6596 Clear -13 999 92 16093 1.96 37 08:38 12.12.2019
6597 Clear -13 999 92 16093 1.96 37 08:38 12.12.2019
6598 Clear -11 999 92 16093 2.41 36 08:20 12.12.2019
6599 Mist -11 999 84 8047 2.41 36 07:46 12.12.2019
6600 Clouds -10 999 85 16093 2.1 30 07:25 12.12.2019
6601 Clear -11 1000 100 16093 2.1 50 06:54 12.12.2019
6602 Clear -10 1000 100 16093 2.1 50 06:33 12.12.2019
6603 Clear -10 1000 92 16093 2.41 36 05:39 12.12.2019
6604 Clear -8 1000 92 16093 2.45 39 04:52 12.12.2019
6605 Clear -8 1000 92 16093 2.45 39 04:52 12.12.2019
6606 Clear -8 1000 92 16093 1.5 80 03:31 12.12.2019
6607 Clear -7 1001 100 16093 2.6 50 02:38 12.12.2019
6608 Clear -6 1001 100 16093 2.6 50 02:20 12.12.2019
6609 Clouds -5 1001 79 16093 2.6 80 01:40 12.12.2019
6610 Clouds -4 1001 79 16093 2.6 80 01:22 12.12.2019
6611 Clouds -4 1001 92 16093 2.47 30 00:46 12.12.2019
6612 Clouds -4 1001 92 16093 2.47 30 00:20 12.12.2019
6613 Clouds -4 1002 92 16093 2.47 30 23:44 11.12.2019
6614 Clouds -5 1002 92 16093 1.71 29 23:21 11.12.2019
6615 Clouds -5 1002 92 16093 1.71 29 22:57 11.12.2019
6616 Clouds -5 1002 92 16093 1.71 29 22:39 11.12.2019
6617 Clouds -5 1002 92 16093 1.71 29 22:20 11.12.2019
6618 Rain -5 1002 85 16093 2.1 350 21:57 11.12.2019
6619 Rain -5 1002 85 16093 1.71 29 21:38 11.12.2019
6620 Rain -5 1002 85 16093 1.71 29 21:19 11.12.2019
6621 Rain -5 1002 85 16093 1.71 29 21:19 11.12.2019
6622 Clouds -6 1003 92 16093 1.71 29 20:56 11.12.2019
6623 Clouds -5 1003 92 16093 1.71 29 20:37 11.12.2019
6624 Clouds -6 1003 92 16093 1.46 15 20:19 11.12.2019
6625 Snow -6 1002 92 8047 1.46 15 19:57 11.12.2019
6626 Snow -6 1003 92 9656 1.46 15 19:39 11.12.2019
6627 Snow -6 1003 92 9656 1.46 15 19:19 11.12.2019
6628 Clouds -6 1003 92 16093 1.46 15 18:41 11.12.2019
6629 Clouds -6 1003 92 16093 1.46 15 18:21 11.12.2019
6630 Clouds -7 1003 92 16093 1.46 15 17:57 11.12.2019
6631 Clouds -7 1003 92 16093 1.46 15 17:57 11.12.2019
6632 Clouds -7 1003 92 16093 1.46 15 17:39 11.12.2019
6633 Clouds -7 1003 92 16093 1.43 12 17:18 11.12.2019
6634 Clouds -7 1003 85 16093 1.43 12 16:57 11.12.2019
6635 Clouds -7 1003 85 16093 1.43 12 16:57 11.12.2019
6636 Clouds -7 1004 100 16093 1.43 12 16:38 11.12.2019
6637 Clouds -7 1004 100 16093 1.43 12 16:38 11.12.2019
6638 Clouds -7 1004 100 16093 1.43 12 16:38 11.12.2019
6639 Clouds -7 1004 100 16093 1.43 12 16:20 11.12.2019
6640 Clouds -8 1004 92 16093 1.43 12 15:59 11.12.2019
6641 Clouds -8 1004 92 16093 1.43 12 15:39 11.12.2019
6642 Clouds -9 1004 92 16093 1.43 12 15:21 11.12.2019
6643 Clouds -10 1004 92 16093 1.43 12 14:56 11.12.2019
6644 Clouds -10 1004 92 16093 1.43 12 14:37 11.12.2019
6645 Clouds -9 1004 92 16093 1.64 15 14:19 11.12.2019
6646 Clear -11 1004 92 16093 1.64 15 13:55 11.12.2019
6647 Clear -11 1004 92 16093 1.64 15 13:36 11.12.2019
6648 Clear -11 1004 92 16093 1.64 15 13:18 11.12.2019
6649 Mist -11 1003 85 8047 1.58 18 12:55 11.12.2019
6650 Clouds -11 1004 92 16093 1.58 18 12:37 11.12.2019
6651 Clouds -11 1004 92 16093 1.58 18 12:18 11.12.2019
6652 Clouds -9 1004 92 16093 1.58 18 11:56 11.12.2019
6653 Clouds -8 1004 92 16093 1.58 18 11:37 11.12.2019
6654 Clouds -8 1004 92 16093 1.58 18 11:37 11.12.2019
6655 Clouds -10 1004 92 16093 1.47 32 11:18 11.12.2019
6656 Mist -8 1003 92 8047 1.47 32 10:44 11.12.2019
6657 Mist -8 1003 92 8047 1.47 32 10:25 11.12.2019
6658 Clouds -8 1003 100 16093 1.47 32 09:58 11.12.2019
6659 Clouds -8 1003 100 16093 1.47 32 09:38 11.12.2019
6660 Clouds -8 1003 100 16093 1.47 32 09:38 11.12.2019
6661 Clouds -8 1003 100 16093 1.47 32 09:20 11.12.2019
6662 Clouds -7 1003 100 16093 1.47 32 08:57 11.12.2019
6663 Clouds -7 1003 100 16093 1.47 32 08:37 11.12.2019
6664 Clouds -7 1003 100 16093 1.77 24 08:18 11.12.2019
6665 Clouds -6 1002 92 16093 1.93 19 07:45 11.12.2019
6666 Clouds -6 1002 92 16093 1.93 19 07:25 11.12.2019
6667 Clouds -5 1001 92 16093 1.93 19 06:47 11.12.2019
6668 Clouds -6